# Wetter Temperatur Luftdruck Luftfeuchtigkeit Sichtweite Windgeschwindigkeit Windrichtung Zeit
1 Clouds 33 1006 52 10000 4.39 345 09:27 02.10.2022
2 Clouds 32 1007 62 10000 4.76 355 07:30 02.10.2022
3 Rain 24 1010 65 10000 1.25 286 02:55 02.10.2022
4 Clouds 25 1009 99 10000 0.59 199 00:46 02.10.2022
5 Clouds 24 1008 99 10000 0.43 247 00:20 02.10.2022
6 Clouds 25 1008 99 10000 0.65 225 22:37 01.10.2022
7 Clouds 26 1008 68 10000 0.91 211 20:34 01.10.2022
8 Clouds 27 1009 86 10000 0.45 129 18:30 01.10.2022
9 Clouds 27 1010 75 10000 1.48 63 16:35 01.10.2022
10 Clouds 30 1009 69 10000 2.52 15 14:26 01.10.2022
11 Clouds 30 1008 66 10000 3.08 17 13:21 01.10.2022
12 Clouds 32 1008 60 10000 3.08 17 12:32 01.10.2022
13 Clouds 33 1007 53 10000 4.25 3 11:19 01.10.2022
14 Clouds 33 1007 53 10000 4.25 3 10:31 01.10.2022
15 Clouds 35 1007 50 10000 5 4 09:28 01.10.2022
16 Clouds 35 1007 50 10000 5 4 08:58 01.10.2022
17 Clouds 31 1010 57 10000 1.06 108 04:27 01.10.2022
18 Clouds 31 1010 60 10000 1.06 108 03:31 01.10.2022
19 Clouds 26 1009 82 10000 1.42 171 00:18 01.10.2022
20 Clouds 27 1008 76 10000 1.37 156 22:37 30.09.2022
21 Clouds 27 1009 75 10000 1.97 123 21:28 30.09.2022
22 Clouds 27 1009 74 10000 1.97 123 20:44 30.09.2022
23 Clouds 28 1009 71 10000 2.17 117 19:49 30.09.2022
24 Clouds 28 1010 69 10000 2.76 89 17:32 30.09.2022
25 Clouds 28 1010 66 10000 3.31 81 15:56 30.09.2022
26 Clouds 30 1009 59 10000 4.15 76 13:30 30.09.2022
27 Clouds 30 1009 59 10000 4.15 76 13:30 30.09.2022
28 Clouds 32 1007 55 6000 4.12 80 11:58 30.09.2022
29 Clouds 33 1007 52 6000 6.17 80 10:40 30.09.2022
30 Clouds 31 1008 60 6000 3.6 70 08:26 30.09.2022
31 Haze 32 1010 50 5000 4.63 70 05:54 30.09.2022
32 Clouds 29 1010 64 10000 0.48 110 02:36 30.09.2022
33 Clouds 26 1008 80 10000 2.15 142 22:31 29.09.2022
34 Clouds 26 1008 79 10000 3 114 21:27 29.09.2022
35 Clouds 26 1008 79 10000 3 114 20:44 29.09.2022
36 Clouds 28 1009 72 10000 2.6 100 18:45 29.09.2022
37 Clouds 28 1009 71 10000 2.73 85 17:23 29.09.2022
38 Clouds 28 1009 69 10000 2.94 73 16:28 29.09.2022
39 Clouds 29 1009 66 10000 2.94 73 15:36 29.09.2022
40 Clouds 29 1008 62 10000 3.72 50 14:29 29.09.2022
41 Haze 33 1006 49 5000 5.14 60 09:57 29.09.2022
42 Haze 34 1007 47 5000 2.57 30 06:58 29.09.2022
43 Clouds 29 1010 64 10000 1.01 181 02:49 29.09.2022
44 Clouds 26 1008 78 10000 0.86 167 23:55 28.09.2022
45 Clouds 27 1007 80 10000 0.7 175 22:42 28.09.2022
46 Clouds 27 1007 81 10000 0.4 232 21:29 28.09.2022
47 Clouds 27 1008 80 10000 0.52 253 20:24 28.09.2022
48 Clouds 27 1008 83 10000 0.54 276 18:41 28.09.2022
49 Clouds 28 1008 78 10000 1.85 358 15:26 28.09.2022
50 Clouds 30 1006 70 10000 3 348 13:26 28.09.2022
51 Haze 32 1004 59 5000 3.09 360 10:59 28.09.2022
52 Haze 33 1005 54 5000 4.63 30 09:18 28.09.2022
53 Haze 34 1006 45 5000 2.06 160 07:20 28.09.2022
54 Haze 30 1009 65 5000 0 0 03:18 28.09.2022
55 Clouds 27 1009 76 10000 1.33 151 01:35 28.09.2022
56 Clouds 26 1007 82 10000 0.82 134 23:20 27.09.2022
57 Clouds 26 1007 81 10000 0.5 81 21:44 27.09.2022
58 Clouds 27 1007 80 10000 0.67 24 20:39 27.09.2022
59 Clouds 27 1007 80 10000 0.33 50 19:48 27.09.2022
60 Clouds 27 1008 79 10000 0.24 86 18:45 27.09.2022
61 Clouds 27 1009 75 10000 0.5 89 17:45 27.09.2022
62 Clouds 28 1009 71 10000 1.38 46 15:40 27.09.2022
63 Clouds 29 1008 64 10000 1.92 25 14:55 27.09.2022
64 Clouds 30 1007 61 10000 3.94 3 12:50 27.09.2022
65 Clouds 32 1005 55 6000 2.57 310 11:34 27.09.2022
66 Clouds 34 1006 51 6000 4.12 320 08:50 27.09.2022
67 Clouds 34 1007 45 6000 2.57 60 06:56 27.09.2022
68 Clouds 29 1010 63 10000 1.2 114 02:41 27.09.2022
69 Clouds 27 1009 72 10000 1.26 152 01:35 27.09.2022
70 Clouds 26 1008 75 10000 1.61 147 23:26 26.09.2022
71 Clouds 26 1008 74 10000 1.61 147 22:40 26.09.2022
72 Clouds 26 1008 76 10000 1.15 165 20:46 26.09.2022
73 Clouds 26 1008 76 10000 0.93 176 19:32 26.09.2022
74 Clouds 26 1009 79 10000 0.08 341 18:32 26.09.2022
75 Clouds 27 1010 83 10000 1.75 346 16:41 26.09.2022
76 Clouds 24 1009 68 9956 2.43 344 14:41 26.09.2022
77 Haze 33 1006 51 5000 2.57 30 11:35 26.09.2022
78 Haze 34 1006 48 5000 5.14 360 10:41 26.09.2022
79 Haze 34 1006 46 5000 5.14 360 10:21 26.09.2022
80 Clouds 34 1006 50 10000 3.64 338 09:55 26.09.2022
81 Clouds 35 1006 50 10000 2.43 323 09:24 26.09.2022
82 Clouds 36 1007 39 6000 4.12 150 08:57 26.09.2022
83 Clouds 29 1011 66 6000 3.6 210 02:57 26.09.2022
84 Clouds 26 1010 83 10000 1.49 209 00:35 26.09.2022
85 Clouds 26 1009 84 10000 1.47 194 22:59 25.09.2022
86 Clouds 26 1009 83 10000 1.37 192 21:41 25.09.2022
87 Clouds 26 1009 82 10000 1.1 202 20:54 25.09.2022
88 Clouds 27 1009 80 10000 1 213 19:55 25.09.2022
89 Clouds 27 1010 80 10000 0.76 241 18:43 25.09.2022
90 Clouds 27 1011 79 10000 0.49 282 18:20 25.09.2022
91 Clouds 28 1011 74 10000 0.59 327 16:49 25.09.2022
92 Clouds 28 1010 72 10000 1.16 310 15:46 25.09.2022
93 Clouds 29 1009 66 10000 2.58 343 14:31 25.09.2022
94 Clouds 29 1009 66 10000 2.53 11 13:45 25.09.2022
95 Clouds 34 1006 50 10000 5.86 4 10:37 25.09.2022
96 Clouds 36 1007 44 10000 1.31 40 08:25 25.09.2022
97 Clear 31 1010 55 10000 0.52 247 06:24 25.09.2022
98 Clouds 30 1011 62 10000 0.53 149 03:40 25.09.2022
99 Clouds 26 1009 90 10000 1.95 175 23:23 24.09.2022
100 Clouds 26 1009 90 10000 1.37 198 21:19 24.09.2022
101 Clouds 27 1010 84 10000 1.56 119 19:24 24.09.2022
102 Clouds 26 1011 81 10000 1.88 112 18:25 24.09.2022
103 Clouds 27 1012 78 10000 2.38 101 16:37 24.09.2022
104 Clouds 28 1011 72 10000 2.49 82 15:23 24.09.2022
105 Clouds 29 1010 71 10000 4.26 61 14:18 24.09.2022
106 Clouds 30 1009 71 10000 4.82 48 12:59 24.09.2022
107 Clouds 31 1007 69 10000 5.41 39 12:20 24.09.2022
108 Clouds 33 1007 56 10000 5.3 30 09:58 24.09.2022
109 Clouds 35 1007 51 10000 4.3 45 08:50 24.09.2022
110 Clouds 33 1008 55 10000 3.37 30 07:39 24.09.2022
111 Clouds 32 1011 61 10000 2.87 60 04:50 24.09.2022
112 Clouds 30 1011 61 10000 2.79 75 03:44 24.09.2022
113 Clouds 24 1008 98 10000 2 147 22:48 23.09.2022
114 Clouds 24 1009 98 10000 2.17 149 21:32 23.09.2022
115 Clouds 25 1009 99 10000 1.68 165 20:57 23.09.2022
116 Clouds 25 1010 99 10000 1.42 203 20:23 23.09.2022
117 Clouds 25 1010 99 10000 1.69 224 18:51 23.09.2022
118 Clouds 25 1010 73 10000 1.47 273 15:24 23.09.2022
119 Haze 30 1007 65 5000 6.17 330 11:28 23.09.2022
120 Haze 33 1007 55 5000 3.09 10 09:35 23.09.2022
121 Haze 32 1011 59 5000 2.06 30 06:39 23.09.2022
122 Clouds 25 1010 94 10000 1.05 125 00:41 23.09.2022
123 Clouds 26 1009 92 10000 1.27 134 23:22 22.09.2022
124 Clouds 26 1009 95 10000 1.45 138 22:27 22.09.2022
125 Clouds 26 1009 98 10000 1.19 152 21:18 22.09.2022
126 Clouds 26 1009 98 10000 0.99 149 19:58 22.09.2022
127 Clouds 26 1011 99 10000 0.51 311 17:28 22.09.2022
128 Clouds 27 1009 61 10000 2.87 306 13:20 22.09.2022
129 Haze 32 1007 62 4000 1.54 310 10:36 22.09.2022
130 Haze 31 1008 70 4000 3.6 30 08:58 22.09.2022
131 Clouds 30 1010 75 3000 4.12 50 06:57 22.09.2022
132 Clouds 29 1011 63 10000 0.38 318 04:36 22.09.2022
133 Clouds 26 1010 87 10000 1.29 153 23:32 21.09.2022
134 Clouds 26 1009 85 10000 1.02 156 21:51 21.09.2022
135 Clouds 26 1009 83 10000 1 119 20:40 21.09.2022
136 Clouds 26 1012 83 10000 1.76 103 17:51 21.09.2022
137 Clouds 27 1012 81 10000 1.87 84 16:55 21.09.2022
138 Clouds 29 1011 70 10000 2.2 53 14:52 21.09.2022
139 Clouds 30 1009 66 10000 3.07 40 13:24 21.09.2022
140 Clouds 30 1007 66 6000 0 0 11:30 21.09.2022
141 Clouds 31 1007 66 6000 1.54 340 10:34 21.09.2022
142 Clouds 31 1008 65 10000 3.97 32 09:36 21.09.2022
143 Clouds 26 1010 83 4000 5.14 360 08:23 21.09.2022
144 Clouds 28 1012 71 10000 1.96 101 02:51 21.09.2022
145 Clouds 27 1011 74 10000 1.75 109 02:32 21.09.2022
146 Clouds 26 1011 82 10000 1.75 109 01:49 21.09.2022
147 Clouds 25 1010 83 10000 1.21 121 23:19 20.09.2022
148 Clouds 26 1010 82 10000 1.19 136 21:33 20.09.2022
149 Clouds 27 1010 78 10000 1.43 123 19:57 20.09.2022
150 Clouds 28 1011 75 10000 1.61 94 17:41 20.09.2022
151 Clouds 29 1011 67 10000 2.37 51 14:59 20.09.2022
152 Clouds 29 1010 65 10000 2.54 25 13:58 20.09.2022
153 Haze 31 1007 59 5000 4.12 350 10:41 20.09.2022
154 Haze 33 1009 52 5000 1.54 320 08:29 20.09.2022
155 Haze 32 1010 51 5000 2.06 230 07:27 20.09.2022
156 Haze 30 1012 58 5000 1.54 130 04:30 20.09.2022
157 Clouds 25 1011 80 10000 1.53 184 01:28 20.09.2022
158 Clouds 25 1010 83 10000 1.02 171 22:29 19.09.2022
159 Clouds 25 1010 80 10000 1.05 160 20:59 19.09.2022
160 Clouds 25 1010 81 10000 1.05 160 20:39 19.09.2022
161 Clouds 25 1012 81 10000 0.72 190 18:41 19.09.2022
162 Clouds 26 1012 79 10000 0.93 245 16:29 19.09.2022
163 Clouds 26 1011 70 10000 1.95 273 13:44 19.09.2022
164 Clouds 32 1009 59 7023 2.37 325 11:33 19.09.2022
165 Clouds 32 1008 58 10000 4.2 350 09:33 19.09.2022
166 Clouds 33 1009 53 10000 3.46 0 08:20 19.09.2022
167 Clouds 28 1012 72 10000 0.93 186 02:31 19.09.2022
168 Clouds 26 1010 86 10000 1.71 178 23:26 18.09.2022
169 Clouds 26 1010 87 10000 1.34 167 21:53 18.09.2022
170 Clouds 26 1010 85 10000 1.01 159 20:34 18.09.2022
171 Clouds 27 1011 85 10000 0.94 132 18:42 18.09.2022
172 Clouds 27 1012 83 10000 0.8 110 17:45 18.09.2022
173 Clouds 28 1012 73 10000 0.87 68 16:32 18.09.2022
174 Clouds 29 1011 72 10000 1.52 56 14:35 18.09.2022
175 Clouds 30 1009 69 10000 3.95 32 12:56 18.09.2022
176 Clouds 31 1009 65 10000 4.41 19 11:51 18.09.2022
177 Rain 32 1010 60 10000 1.13 21 06:45 18.09.2022
178 Clouds 26 1011 84 10000 1.79 195 01:32 18.09.2022
179 Rain 26 1010 83 10000 1.81 194 00:48 18.09.2022
180 Rain 26 1009 87 10000 1.3 183 22:23 17.09.2022
181 Clouds 26 1010 88 10000 1.47 165 20:48 17.09.2022
182 Clouds 27 1011 86 10000 1.41 167 19:28 17.09.2022
183 Clouds 27 1012 83 10000 1.93 150 17:21 17.09.2022
184 Clouds 29 1010 71 10000 2.3 43 14:18 17.09.2022
185 Clouds 30 1009 69 10000 3.52 40 12:33 17.09.2022
186 Clouds 32 1008 59 10000 3.88 38 10:47 17.09.2022
187 Clouds 32 1010 56 10000 1.95 12 06:29 17.09.2022
188 Clouds 30 1011 63 10000 1.03 103 03:55 17.09.2022
189 Clouds 25 1009 82 10000 1.95 123 23:23 16.09.2022
190 Clouds 26 1009 80 10000 1.84 131 21:46 16.09.2022
191 Clouds 26 1009 80 10000 1.82 136 20:41 16.09.2022
192 Clouds 26 1011 79 10000 1.6 121 18:28 16.09.2022
193 Clouds 27 1012 78 10000 1.56 104 16:18 16.09.2022
194 Clouds 29 1011 68 10000 1.72 76 14:44 16.09.2022
195 Haze 30 1008 75 4000 1.54 340 12:35 16.09.2022
196 Clouds 33 1008 50 10000 4.38 4 09:37 16.09.2022
197 Clouds 32 1010 58 6000 2.57 200 07:22 16.09.2022
198 Clouds 32 1010 58 6000 2.57 200 06:47 16.09.2022
199 Clouds 31 1012 58 6000 4.12 200 05:19 16.09.2022
200 Clouds 25 1011 82 10000 0.84 205 01:30 16.09.2022
201 Clouds 26 1010 82 10000 1.42 180 21:24 15.09.2022
202 Clouds 26 1010 81 10000 1.02 173 20:28 15.09.2022
203 Clouds 26 1011 79 10000 0.4 234 18:54 15.09.2022
204 Clouds 27 1012 77 10000 0.16 293 17:38 15.09.2022
205 Clouds 27 1012 76 10000 0.24 28 17:18 15.09.2022
206 Clouds 29 1011 66 10000 0.93 344 15:22 15.09.2022
207 Clouds 31 1009 61 10000 2.71 21 12:49 15.09.2022
208 Clouds 32 1008 53 6000 3.09 360 10:42 15.09.2022
209 Clouds 33 1009 50 6000 3.6 360 09:42 15.09.2022
210 Clouds 30 1013 61 10000 0.56 29 04:46 15.09.2022
211 Clouds 27 1013 73 10000 1.4 147 02:18 15.09.2022
212 Clouds 26 1011 81 10000 1.85 139 22:26 14.09.2022
213 Clouds 27 1013 73 10000 1.28 137 20:19 14.09.2022
214 Clouds 27 1013 71 10000 1.28 137 19:32 14.09.2022
215 Clouds 28 1015 63 10000 1.23 100 17:28 14.09.2022
216 Clouds 28 1014 58 10000 1.36 75 15:58 14.09.2022
217 Clouds 29 1014 51 10000 1.46 59 14:35 14.09.2022
218 Clouds 31 1011 59 10000 3.99 11 12:24 14.09.2022
219 Haze 33 1011 52 5000 5.14 40 09:49 14.09.2022
220 Haze 32 1012 51 5000 1.54 220 07:39 14.09.2022
221 Haze 32 1013 55 5000 1.54 40 06:48 14.09.2022
222 Haze 30 1014 62 4000 1.54 220 05:22 14.09.2022
223 Clouds 26 1013 85 10000 1.62 105 01:53 14.09.2022
224 Clouds 25 1012 88 10000 1.59 121 01:29 14.09.2022
225 Clouds 24 1012 90 10000 1.59 121 00:52 14.09.2022
226 Clouds 24 1012 90 10000 1.4 113 23:54 13.09.2022
227 Clouds 24 1012 88 10000 1.41 113 23:36 13.09.2022
228 Clouds 24 1011 88 10000 1.54 93 23:18 13.09.2022
229 Clouds 24 1011 87 10000 1.24 111 22:22 13.09.2022
230 Clouds 25 1012 83 10000 0.74 172 20:29 13.09.2022
231 Clouds 26 1014 80 10000 0.46 264 18:21 13.09.2022
232 Clouds 26 1014 78 10000 1.59 307 15:56 13.09.2022
233 Clouds 26 1013 78 10000 1.66 322 14:47 13.09.2022
234 Clouds 29 1011 67 10000 2.82 341 13:25 13.09.2022
235 Haze 31 1010 75 5000 1.54 260 09:49 13.09.2022
236 Clouds 32 1012 53 5000 1.54 30 07:21 13.09.2022
237 Clouds 25 1011 85 10000 1.17 154 00:52 13.09.2022
238 Clouds 25 1010 82 10000 1.31 148 22:51 12.09.2022
239 Clouds 25 1010 82 10000 1.54 147 22:26 12.09.2022
240 Clouds 26 1011 81 10000 1.61 146 20:46 12.09.2022
241 Clouds 26 1012 80 10000 1.55 147 19:22 12.09.2022
242 Clouds 27 1012 76 10000 1.44 131 17:42 12.09.2022
243 Clouds 27 1011 73 10000 1.22 52 15:22 12.09.2022
244 Clouds 30 1008 74 6000 1.54 320 11:57 12.09.2022
245 Clouds 29 1008 76 5000 2.06 290 10:20 12.09.2022
246 Clouds 31 1011 62 6000 3.09 40 05:50 12.09.2022
247 Haze 30 1011 69 5000 0 0 04:30 12.09.2022
248 Clouds 25 1009 97 10000 2.25 99 23:59 11.09.2022
249 Clouds 24 1009 96 10000 2.33 97 22:45 11.09.2022
250 Clouds 24 1009 94 10000 2.37 109 21:19 11.09.2022
251 Clouds 24 1009 93 10000 2.51 114 20:42 11.09.2022
252 Clouds 25 1011 91 10000 2.47 94 19:26 11.09.2022
253 Clouds 25 1011 90 10000 2.47 94 18:38 11.09.2022
254 Clouds 25 1011 90 6981 2.37 67 16:57 11.09.2022
255 Clouds 26 1011 81 6894 2.19 68 15:22 11.09.2022
256 Clouds 30 1008 69 7073 3.31 56 13:18 11.09.2022
257 Clouds 31 1007 65 10000 4.25 22 10:35 11.09.2022
258 Clouds 32 1008 58 10000 3.85 23 07:49 11.09.2022
259 Clouds 29 1012 65 10000 2.36 91 03:34 11.09.2022
260 Clouds 25 1009 99 10000 1.97 124 23:45 10.09.2022
261 Clouds 24 1010 98 10000 2.23 162 21:38 10.09.2022
262 Clouds 24 1011 97 10000 1.97 135 19:58 10.09.2022
263 Clouds 25 1011 97 10000 1.97 135 19:40 10.09.2022
264 Clouds 25 1011 97 10000 1.66 137 19:20 10.09.2022
265 Clouds 24 1013 95 10000 0.81 192 16:58 10.09.2022
266 Clouds 25 1012 97 10000 1.28 242 15:32 10.09.2022
267 Clouds 24 1010 75 7720 1.91 356 13:29 10.09.2022
268 Clouds 26 1010 68 10000 2.3 355 12:26 10.09.2022
269 Rain 30 1009 61 10000 2.36 5 10:26 10.09.2022
270 Rain 30 1010 66 10000 1.07 55 08:41 10.09.2022
271 Rain 30 1011 73 10000 1.45 37 08:20 10.09.2022
272 Clouds 27 1014 86 10000 2.58 68 03:43 10.09.2022
273 Rain 24 1011 99 10000 1.5 218 23:36 09.09.2022
274 Rain 24 1011 99 10000 2.17 228 22:31 09.09.2022
275 Rain 24 1011 99 10000 1.51 28 20:49 09.09.2022
276 Rain 24 1012 99 10000 1.28 48 19:52 09.09.2022
277 Rain 24 1012 99 10000 1.72 83 19:22 09.09.2022
278 Clouds 24 1014 99 9202 2.32 103 16:52 09.09.2022
279 Clouds 24 1013 99 6555 2.08 75 14:42 09.09.2022
280 Clouds 24 1011 74 7507 2.63 34 13:19 09.09.2022
281 Haze 29 1010 70 5000 3.09 20 10:41 09.09.2022
282 Haze 31 1012 61 4000 2.06 10 07:25 09.09.2022
283 Haze 28 1013 81 4000 1.54 260 03:31 09.09.2022
284 Clouds 24 1010 83 10000 1.35 222 22:33 08.09.2022
285 Clouds 24 1010 83 10000 1.41 192 21:51 08.09.2022
286 Clouds 25 1010 84 10000 1.09 171 20:46 08.09.2022
287 Clouds 25 1012 86 10000 1.72 190 20:24 08.09.2022
288 Rain 25 1013 86 10000 2.23 206 18:34 08.09.2022
289 Rain 26 1014 85 10000 1.87 246 16:49 08.09.2022
290 Clouds 26 1014 86 10000 1.2 276 15:18 08.09.2022
291 Clouds 27 1012 85 6771 2.39 24 13:28 08.09.2022
292 Rain 26 1012 85 6771 2.39 24 12:39 08.09.2022
293 Rain 26 1011 89 4000 2.57 270 10:59 08.09.2022
294 Rain 28 1011 73 10000 4.49 358 09:26 08.09.2022
295 Rain 27 1013 89 2000 0 0 06:53 08.09.2022
296 Rain 25 1013 100 2000 0 0 03:23 08.09.2022
297 Rain 25 1013 76 10000 1.67 202 02:36 08.09.2022
298 Rain 25 1013 78 10000 1.28 199 02:18 08.09.2022
299 Rain 25 1011 82 10000 1.78 203 22:56 07.09.2022
300 Rain 25 1010 82 10000 2.05 207 21:44 07.09.2022
301 Rain 25 1011 81 10000 2.19 221 21:21 07.09.2022
302 Clouds 25 1011 80 10000 2.13 247 20:22 07.09.2022
303 Clouds 26 1012 79 10000 1.82 244 18:54 07.09.2022
304 Clouds 25 1013 75 10000 1.51 252 15:51 07.09.2022
305 Haze 29 1008 79 5000 2.06 310 10:51 07.09.2022
306 Haze 29 1008 83 5000 3.09 340 10:32 07.09.2022
307 Clouds 27 1010 100 3000 4.12 290 07:46 07.09.2022
308 Haze 29 1012 84 5000 1.54 190 04:59 07.09.2022
309 Clouds 25 1010 85 10000 1.42 130 00:27 07.09.2022
310 Clouds 25 1009 85 10000 1.56 129 21:48 06.09.2022
311 Clouds 25 1009 85 10000 1.56 129 21:30 06.09.2022
312 Clouds 26 1011 84 10000 2.46 115 19:27 06.09.2022
313 Clouds 27 1012 82 10000 2.79 107 18:29 06.09.2022
314 Clouds 28 1012 81 10000 2.84 97 17:23 06.09.2022
315 Clouds 28 1012 81 10000 2.84 97 16:41 06.09.2022
316 Clouds 27 1011 77 10000 3.27 65 15:26 06.09.2022
317 Clouds 29 1009 72 10000 3.42 44 13:47 06.09.2022
318 Clouds 29 1008 69 10000 3.97 37 13:27 06.09.2022
319 Clouds 30 1008 69 10000 3.97 37 12:40 06.09.2022
320 Clouds 32 1007 61 10000 4.09 37 10:54 06.09.2022
321 Clouds 33 1007 52 6000 5.14 70 08:58 06.09.2022
322 Clouds 33 1008 52 6000 5.14 60 07:52 06.09.2022
323 Clouds 31 1011 62 6000 3.6 70 05:59 06.09.2022
324 Clouds 26 1010 85 10000 2.11 107 00:20 06.09.2022
325 Clouds 26 1010 85 10000 2.02 102 22:43 05.09.2022
326 Clouds 26 1010 85 10000 1.94 101 21:38 05.09.2022
327 Clouds 28 1010 80 10000 1.34 97 19:56 05.09.2022
328 Clouds 28 1011 80 10000 1.67 102 18:51 05.09.2022
329 Clouds 28 1011 79 8192 1.88 98 18:24 05.09.2022
330 Clouds 28 1011 79 8192 1.88 98 17:47 05.09.2022
331 Clouds 28 1011 75 10000 2.04 69 15:53 05.09.2022
332 Clouds 29 1010 72 10000 1.79 58 14:20 05.09.2022
333 Clouds 31 1007 55 6000 6.17 60 12:29 05.09.2022
334 Clouds 32 1007 51 6000 6.17 60 10:35 05.09.2022
335 Clouds 33 1009 49 6000 4.12 30 08:36 05.09.2022
336 Haze 29 1011 79 5000 0 0 03:47 05.09.2022
337 Clouds 26 1010 80 10000 0.79 167 00:18 05.09.2022
338 Clouds 27 1009 81 10000 1.39 126 22:28 04.09.2022
339 Clouds 26 1009 81 10000 1.39 126 21:49 04.09.2022
340 Clouds 27 1010 81 10000 2 144 19:50 04.09.2022
341 Clouds 27 1011 80 10000 1.86 123 18:33 04.09.2022
342 Clouds 27 1011 74 10000 1.09 89 17:26 04.09.2022
343 Clouds 27 1011 75 10000 0.64 46 15:42 04.09.2022
344 Clouds 28 1009 71 10000 1.79 259 14:24 04.09.2022
345 Clouds 30 1008 66 10000 4.64 349 12:27 04.09.2022
346 Clouds 31 1007 62 10000 5.69 2 10:59 04.09.2022
347 Clouds 34 1007 50 10000 2.72 340 09:25 04.09.2022
348 Rain 32 1009 50 10000 0.68 306 06:31 04.09.2022
349 Clouds 28 1012 64 10000 1.51 201 02:41 04.09.2022
350 Clouds 25 1010 75 10000 3.76 239 22:33 03.09.2022
351 Clouds 26 1010 74 10000 3.65 239 21:26 03.09.2022
352 Clouds 26 1010 74 10000 3.65 239 20:55 03.09.2022
353 Clouds 27 1011 74 10000 5.45 241 17:37 03.09.2022
354 Clouds 27 1011 71 10000 5.63 243 16:52 03.09.2022
355 Clouds 27 1011 71 10000 6.61 247 15:35 03.09.2022
356 Clouds 27 1010 72 10000 6.85 245 14:41 03.09.2022
357 Clouds 27 1009 72 10000 7.79 255 13:44 03.09.2022
358 Clouds 30 1007 61 10000 8.36 255 11:32 03.09.2022
359 Clouds 34 1008 50 10000 5.08 284 09:22 03.09.2022
360 Clouds 33 1008 48 10000 3.32 291 07:48 03.09.2022
361 Clouds 30 1011 60 10000 0.74 247 04:50 03.09.2022
362 Clouds 27 1011 86 10000 1.37 229 02:35 03.09.2022
363 Clouds 25 1010 97 10000 1.58 246 23:42 02.09.2022
364 Clouds 24 1009 96 10000 1.84 227 22:21 02.09.2022
365 Clouds 25 1009 90 10000 1.69 222 20:42 02.09.2022
366 Clouds 25 1010 89 10000 1.87 230 19:47 02.09.2022
367 Clouds 26 1011 89 10000 1.52 226 18:50 02.09.2022
368 Clouds 26 1011 90 10000 1.24 222 18:25 02.09.2022
369 Clouds 26 1012 88 10000 0.75 209 17:24 02.09.2022
370 Clouds 26 1012 86 10000 0.75 209 16:31 02.09.2022
371 Clouds 28 1010 82 10000 1.04 13 13:32 02.09.2022
372 Clouds 29 1007 72 10000 4.01 25 10:43 02.09.2022
373 Haze 31 1007 60 5000 5.14 90 09:45 02.09.2022
374 Clouds 31 1008 60 6000 4.12 60 08:46 02.09.2022
375 Clouds 34 1010 52 6000 3.6 60 06:46 02.09.2022
376 Clouds 33 1010 52 6000 3.09 60 06:21 02.09.2022
377 Clouds 26 1009 85 10000 2.06 122 00:26 02.09.2022
378 Clouds 26 1009 83 10000 1.95 119 22:21 01.09.2022
379 Clouds 26 1009 83 10000 1.95 119 21:38 01.09.2022
380 Clouds 27 1009 83 10000 2.07 131 21:19 01.09.2022
381 Clouds 26 1009 84 10000 1.83 124 20:23 01.09.2022
382 Clouds 26 1011 87 10000 2.26 111 18:20 01.09.2022
383 Clouds 27 1011 83 10000 2.29 99 16:54 01.09.2022
384 Clouds 28 1010 82 10000 2.72 74 14:52 01.09.2022
385 Clouds 29 1008 71 10000 2.99 64 13:27 01.09.2022
386 Clouds 30 1008 62 10000 2.99 64 12:55 01.09.2022
387 Clouds 32 1006 59 6000 7.72 50 11:51 01.09.2022
388 Clouds 32 1006 59 6000 7.72 50 11:19 01.09.2022
389 Clouds 32 1007 61 10000 4.1 45 09:31 01.09.2022
390 Haze 30 1010 66 5000 4.12 80 06:34 01.09.2022
391 Clouds 28 1010 75 10000 2.88 106 02:39 01.09.2022
392 Clouds 27 1010 81 10000 2.74 108 01:30 01.09.2022
393 Clouds 27 1010 81 10000 2.74 108 01:30 01.09.2022
394 Clouds 27 1010 81 10000 2.74 108 01:30 01.09.2022
395 Clouds 27 1010 81 10000 2.74 108 01:30 01.09.2022
396 Clouds 27 1008 81 10000 2.57 109 22:43 31.08.2022
397 Clouds 27 1008 79 10000 2.71 114 20:43 31.08.2022
398 Clouds 28 1009 71 10000 3.09 94 18:45 31.08.2022
399 Clouds 28 1010 64 10000 2.87 78 16:36 31.08.2022
400 Clouds 28 1009 64 10000 3.21 57 15:21 31.08.2022
401 Haze 30 1006 59 5000 4.12 60 12:58 31.08.2022
402 Haze 31 1006 55 5000 4.12 360 11:54 31.08.2022
403 Haze 32 1006 54 5000 2.06 80 09:35 31.08.2022
404 Haze 33 1008 49 4000 2.57 120 07:31 31.08.2022
405 Clouds 27 1009 72 10000 1.21 124 02:25 31.08.2022
406 Clouds 26 1008 91 10000 1.18 161 22:21 30.08.2022
407 Clouds 26 1008 90 10000 1.23 127 21:27 30.08.2022
408 Clouds 26 1009 83 10000 0.9 311 19:51 30.08.2022
409 Clouds 28 1010 73 10000 1.84 333 16:48 30.08.2022
410 Clouds 29 1008 71 10000 3.72 319 13:38 30.08.2022
411 Clouds 31 1007 61 10000 4.57 328 11:44 30.08.2022
412 Haze 32 1006 58 5000 5.14 360 11:19 30.08.2022
413 Haze 33 1006 55 5000 3.09 360 09:33 30.08.2022
414 Clouds 32 1010 57 10000 0.96 4 06:26 30.08.2022
415 Clouds 25 1009 80 10000 1.49 182 00:33 30.08.2022
416 Clouds 25 1008 80 10000 1.58 184 22:37 29.08.2022
417 Clouds 25 1008 77 10000 1.3 183 21:53 29.08.2022
418 Clouds 26 1008 76 10000 1.36 201 20:47 29.08.2022
419 Clouds 26 1010 77 10000 0.89 206 18:59 29.08.2022
420 Clouds 26 1011 83 10000 0.22 207 17:33 29.08.2022
421 Clouds 26 1011 85 10000 0.46 35 16:58 29.08.2022
422 Clouds 27 1010 83 10000 2.09 25 15:19 29.08.2022
423 Clouds 29 1009 69 10000 2.37 16 13:54 29.08.2022
424 Haze 30 1008 72 5000 2.57 20 12:24 29.08.2022
425 Clouds 31 1007 72 4000 4.12 360 10:43 29.08.2022
426 Haze 31 1008 62 5000 2.06 310 09:18 29.08.2022
427 Clouds 33 1008 55 10000 1.49 336 06:52 29.08.2022
428 Clouds 27 1009 84 10000 1.06 161 02:31 29.08.2022
429 Clouds 25 1008 97 10000 1.34 179 23:35 28.08.2022
430 Clouds 25 1008 99 10000 1.39 185 21:48 28.08.2022
431 Clouds 25 1008 99 10000 1.6 219 21:25 28.08.2022
432 Clouds 25 1008 99 10000 1.5 226 20:18 28.08.2022
433 Rain 26 1010 99 10000 1.1 229 18:22 28.08.2022
434 Clouds 26 1010 99 10000 1.1 229 17:51 28.08.2022
435 Clouds 25 1010 99 10000 0.87 246 16:44 28.08.2022
436 Rain 26 1009 99 10000 1.13 259 15:33 28.08.2022
437 Clouds 28 1007 72 10000 2.22 321 13:19 28.08.2022
438 Rain 30 1006 64 10000 2.83 340 11:25 28.08.2022
439 Clouds 29 1006 62 10000 3.07 341 10:20 28.08.2022
440 Rain 32 1006 64 10000 4.34 0 08:52 28.08.2022
441 Clouds 33 1007 56 10000 3.83 5 07:56 28.08.2022
442 Clouds 34 1008 55 10000 2.1 352 07:26 28.08.2022
443 Clouds 25 1009 99 10000 0.94 213 00:37 28.08.2022
444 Clouds 25 1008 99 10000 1.46 220 23:20 27.08.2022
445 Clouds 25 1008 99 10000 1.53 214 22:27 27.08.2022
446 Clouds 25 1008 99 10000 1.8 201 20:35 27.08.2022
447 Clouds 26 1009 99 10000 0.7 230 18:57 27.08.2022
448 Clouds 25 1010 99 7592 1.11 305 16:29 27.08.2022
449 Clouds 25 1010 99 7592 1.11 305 15:31 27.08.2022
450 Clouds 29 1007 72 10000 2.31 323 13:22 27.08.2022
451 Clouds 30 1007 69 10000 3.43 326 11:59 27.08.2022
452 Rain 32 1006 52 10000 4.32 352 10:27 27.08.2022
453 Rain 32 1006 60 10000 4.32 352 09:33 27.08.2022
454 Clouds 31 1008 57 10000 1.81 346 06:52 27.08.2022
455 Clouds 25 1009 84 10000 1.04 166 00:53 27.08.2022
456 Clouds 25 1008 82 10000 0.85 155 23:46 26.08.2022
457 Clouds 27 1008 80 10000 0.96 147 21:46 26.08.2022
458 Clouds 27 1009 79 10000 0.91 133 19:50 26.08.2022
459 Clouds 28 1011 73 10000 0.73 118 17:59 26.08.2022
460 Clouds 29 1011 71 10000 0.64 39 16:32 26.08.2022
461 Clouds 29 1010 69 10000 0.97 11 15:24 26.08.2022
462 Clouds 31 1008 53 10000 3.12 12 12:59 26.08.2022
463 Haze 32 1006 51 5000 4.12 30 11:48 26.08.2022
464 Haze 32 1006 50 5000 4.12 30 11:21 26.08.2022
465 Haze 32 1007 50 5000 2.06 10 08:55 26.08.2022
466 Haze 29 1010 68 5000 1.54 230 03:59 26.08.2022
467 Clouds 25 1009 83 10000 1.49 233 00:39 26.08.2022
468 Clouds 26 1008 78 10000 0.96 219 22:39 25.08.2022
469 Clouds 27 1008 73 10000 1.07 161 20:54 25.08.2022
470 Clouds 28 1009 71 10000 1.73 141 19:35 25.08.2022
471 Clouds 27 1010 65 10000 2.03 100 18:29 25.08.2022
472 Clouds 28 1010 62 10000 2.03 100 17:31 25.08.2022
473 Clouds 29 1010 61 10000 2.3 91 16:40 25.08.2022
474 Clouds 28 1010 59 10000 3.34 64 15:29 25.08.2022
475 Clouds 29 1009 61 10000 4.33 55 13:58 25.08.2022
476 Clouds 32 1006 52 6000 5.14 70 11:21 25.08.2022
477 Clouds 32 1007 57 10000 5.18 25 10:42 25.08.2022
478 Haze 34 1009 43 5000 5.14 40 07:35 25.08.2022
479 Clouds 29 1011 64 10000 0.94 177 02:51 25.08.2022
480 Clouds 26 1009 78 10000 1.35 99 23:36 24.08.2022
481 Clouds 26 1009 77 10000 1.37 99 22:56 24.08.2022
482 Clouds 27 1009 77 10000 2.1 94 21:55 24.08.2022
483 Clouds 27 1009 77 10000 2.51 102 21:28 24.08.2022
484 Clouds 28 1010 71 10000 2.5 102 19:56 24.08.2022
485 Clouds 29 1010 70 10000 2.59 99 16:58 24.08.2022
486 Clouds 29 1010 69 10000 2.27 96 15:54 24.08.2022
487 Clouds 29 1009 68 10000 2.22 63 15:28 24.08.2022
488 Clouds 31 1007 59 6000 6.17 60 12:51 24.08.2022
489 Clouds 32 1006 54 6000 6.17 30 11:19 24.08.2022
490 Clouds 32 1007 52 10000 3.94 15 08:58 24.08.2022
491 Clouds 35 1009 49 10000 1.89 36 06:40 24.08.2022
492 Clouds 25 1010 92 10000 1.02 149 00:55 24.08.2022
493 Clouds 26 1010 94 10000 1.39 150 22:41 23.08.2022
494 Clouds 26 1010 96 10000 1.53 148 22:18 23.08.2022
495 Clouds 26 1010 93 10000 1.77 136 20:49 23.08.2022
496 Clouds 26 1011 94 10000 2.41 114 19:24 23.08.2022
497 Clouds 28 1011 81 10000 2.63 108 18:18 23.08.2022
498 Clouds 28 1012 73 10000 2.86 96 17:28 23.08.2022
499 Clouds 29 1011 66 10000 3.29 92 16:26 23.08.2022
500 Clouds 29 1010 66 10000 3.58 90 14:30 23.08.2022
501 Clouds 30 1008 64 10000 4.09 49 12:46 23.08.2022
502 Haze 32 1006 52 5000 5.14 70 11:19 23.08.2022
503 Haze 33 1006 49 5000 4.63 60 10:33 23.08.2022
504 Haze 34 1006 46 5000 4.12 60 09:38 23.08.2022
505 Haze 34 1007 47 5000 2.57 50 08:47 23.08.2022
506 Haze 34 1007 45 5000 2.57 40 08:19 23.08.2022
507 Haze 33 1008 49 5000 1.54 40 07:33 23.08.2022
508 Haze 33 1009 49 5000 2.57 70 06:25 23.08.2022
509 Clouds 26 1011 98 10000 1.94 115 01:49 23.08.2022
510 Clouds 25 1010 97 10000 1.66 137 00:27 23.08.2022
511 Clouds 25 1010 93 10000 1.66 137 23:32 22.08.2022
512 Clouds 26 1009 92 10000 1.99 158 22:25 22.08.2022
513 Clouds 26 1009 90 10000 1.98 146 20:53 22.08.2022
514 Clouds 26 1010 89 10000 2.2 123 19:46 22.08.2022
515 Clouds 26 1011 85 10000 2.07 106 18:37 22.08.2022
516 Clouds 27 1011 80 10000 2.57 86 16:23 22.08.2022
517 Clouds 27 1011 76 10000 2.89 70 15:22 22.08.2022
518 Clouds 28 1009 75 10000 3.1 38 12:53 22.08.2022
519 Haze 30 1008 65 5000 5.14 30 09:57 22.08.2022
520 Haze 30 1009 66 5000 3.6 360 07:20 22.08.2022
521 Clouds 27 1011 79 10000 0.66 169 02:42 22.08.2022
522 Clouds 25 1010 92 10000 1.01 200 00:37 22.08.2022
523 Clouds 25 1010 91 10000 1.04 217 23:34 21.08.2022
524 Clouds 25 1009 89 10000 1.78 238 21:56 21.08.2022
525 Clouds 25 1009 89 10000 1.58 242 21:21 21.08.2022
526 Clouds 26 1010 91 10000 1.35 228 20:21 21.08.2022
527 Clouds 26 1011 91 10000 0.88 207 18:59 21.08.2022
528 Clouds 25 1011 94 10000 0.58 159 16:52 21.08.2022
529 Clouds 25 1011 99 10000 0.64 91 15:52 21.08.2022
530 Clouds 26 1011 93 10000 0.95 58 14:57 21.08.2022
531 Clouds 28 1010 78 9878 1.08 47 13:51 21.08.2022
532 Clouds 29 1009 68 8193 1.61 35 12:56 21.08.2022
533 Clouds 32 1007 61 8634 3.18 17 10:41 21.08.2022
534 Clouds 33 1007 51 10000 4.08 11 09:21 21.08.2022
535 Clouds 32 1007 59 10000 4.52 13 08:46 21.08.2022
536 Clouds 32 1007 52 10000 3.32 11 08:28 21.08.2022
537 Clouds 33 1008 47 10000 2.06 25 06:37 21.08.2022
538 Clouds 26 1009 74 10000 1.35 126 01:50 21.08.2022
539 Clouds 26 1009 75 10000 1 94 23:35 20.08.2022
540 Clouds 27 1008 75 10000 1.46 131 21:57 20.08.2022
541 Clouds 28 1008 70 10000 1.82 120 20:56 20.08.2022
542 Clouds 28 1008 66 10000 2.09 113 19:49 20.08.2022
543 Clouds 28 1009 68 10000 2.54 109 18:50 20.08.2022
544 Clouds 28 1009 68 10000 2.79 112 18:26 20.08.2022
545 Clouds 28 1010 67 10000 2.85 107 17:21 20.08.2022
546 Clouds 28 1009 64 10000 3.33 102 16:20 20.08.2022
547 Clouds 29 1009 60 10000 3.68 90 14:35 20.08.2022
548 Clouds 32 1006 41 10000 4.79 44 12:19 20.08.2022
549 Clouds 33 1006 40 10000 4.83 44 11:42 20.08.2022
550 Clouds 33 1007 56 10000 3.97 27 09:20 20.08.2022
551 Clouds 34 1007 45 10000 3.5 35 07:31 20.08.2022
552 Clouds 31 1009 53 10000 2.16 61 05:48 20.08.2022
553 Clouds 26 1010 81 10000 1.06 195 00:58 20.08.2022
554 Clouds 27 1009 80 10000 0.99 195 23:51 19.08.2022
555 Clouds 27 1009 78 10000 1.34 185 22:45 19.08.2022
556 Clouds 27 1009 76 10000 1.18 175 21:30 19.08.2022
557 Clouds 28 1010 70 10000 1.88 113 19:22 19.08.2022
558 Clouds 29 1010 66 10000 3.76 85 16:28 19.08.2022
559 Clouds 30 1008 57 10000 4.29 78 13:56 19.08.2022
560 Clouds 34 1006 46 6000 8.23 60 11:51 19.08.2022
561 Clouds 34 1006 46 6000 7.72 70 10:39 19.08.2022
562 Clouds 35 1007 42 6000 6.69 90 08:48 19.08.2022
563 Clear 32 1010 48 10000 0.92 123 04:43 19.08.2022
564 Clouds 25 1010 82 10000 1.21 166 00:42 19.08.2022
565 Clouds 25 1009 81 10000 1.05 141 00:19 19.08.2022
566 Clouds 26 1009 80 10000 1.16 134 22:57 18.08.2022
567 Clouds 26 1009 78 10000 1.32 130 22:26 18.08.2022
568 Clouds 26 1009 76 10000 1.32 130 21:50 18.08.2022
569 Clouds 27 1009 74 10000 1.57 135 20:55 18.08.2022
570 Clouds 27 1010 72 10000 1.74 137 19:39 18.08.2022
571 Clear 27 1010 72 10000 1.92 123 19:20 18.08.2022
572 Clear 27 1011 67 10000 2.4 107 17:33 18.08.2022
573 Clear 28 1010 66 10000 3.3 91 16:18 18.08.2022
574 Clouds 29 1009 60 10000 4.25 77 14:21 18.08.2022
575 Clouds 30 1009 58 10000 4.25 77 13:44 18.08.2022
576 Clouds 30 1009 58 10000 4.25 77 13:44 18.08.2022
577 Clouds 31 1008 52 10000 4.89 62 12:30 18.08.2022
578 Clouds 33 1007 46 10000 5.61 43 11:20 18.08.2022
579 Clouds 32 1007 45 10000 4.49 49 09:43 18.08.2022
580 Clouds 32 1009 48 6000 6.17 60 07:27 18.08.2022
581 Clouds 35 1009 40 10000 3.25 69 06:37 18.08.2022
582 Clouds 26 1011 76 10000 1.43 164 02:22 18.08.2022
583 Clouds 27 1009 78 10000 1.51 178 22:47 17.08.2022
584 Clouds 27 1009 89 10000 1.8 142 20:30 17.08.2022
585 Clouds 27 1010 90 10000 1.67 119 19:59 17.08.2022
586 Clouds 27 1010 93 10000 2.08 132 18:39 17.08.2022
587 Clouds 27 1011 89 10000 2.22 120 17:21 17.08.2022
588 Clouds 27 1011 91 10000 2.63 111 16:20 17.08.2022
589 Clouds 26 1010 90 10000 2.67 101 14:41 17.08.2022
590 Clouds 30 1009 77 10000 3.43 93 12:36 17.08.2022
591 Clouds 31 1008 64 10000 3.42 58 11:25 17.08.2022
592 Clouds 32 1009 60 10000 4.2 44 09:29 17.08.2022
593 Clouds 31 1010 56 10000 2.52 81 06:50 17.08.2022
594 Clouds 25 1011 86 10000 1.69 137 01:23 17.08.2022
595 Clouds 25 1010 86 10000 1.48 126 23:33 16.08.2022
596 Clouds 25 1010 86 10000 1.57 134 21:48 16.08.2022
597 Clouds 25 1011 84 10000 1.19 117 20:25 16.08.2022
598 Clouds 26 1011 84 10000 1.19 117 19:40 16.08.2022
599 Clouds 25 1012 83 10000 1.48 104 18:18 16.08.2022
600 Clouds 26 1012 81 10000 1.65 99 17:24 16.08.2022
601 Clouds 26 1012 80 10000 1.26 76 15:46 16.08.2022
602 Clouds 26 1011 78 8728 1.25 47 14:55 16.08.2022
603 Clouds 26 1011 78 8728 1.25 47 14:36 16.08.2022
604 Clouds 30 1009 75 10000 1.35 2 12:40 16.08.2022
605 Haze 32 1008 62 5000 2.06 300 10:29 16.08.2022
606 Haze 32 1008 62 5000 1.54 270 09:29 16.08.2022
607 Haze 32 1009 62 5000 1.54 220 08:26 16.08.2022
608 Haze 32 1010 62 5000 2.57 180 07:23 16.08.2022
609 Clouds 25 1011 90 10000 1.83 124 01:23 16.08.2022
610 Clouds 26 1010 80 10000 1.23 142 22:29 15.08.2022
611 Clouds 26 1010 80 10000 1.23 142 21:51 15.08.2022
612 Clouds 27 1010 80 10000 1.5 119 20:39 15.08.2022
613 Clouds 26 1011 79 10000 1.95 112 20:00 15.08.2022
614 Clouds 27 1012 78 10000 2.15 103 18:31 15.08.2022
615 Clouds 27 1012 75 10000 2.75 97 16:40 15.08.2022
616 Clouds 27 1012 75 10000 2.75 97 16:40 15.08.2022
617 Clouds 27 1011 74 10000 2.96 92 16:20 15.08.2022
618 Clouds 29 1010 71 10000 3.4 61 13:55 15.08.2022
619 Clouds 30 1008 64 10000 3.29 48 12:24 15.08.2022
620 Clouds 33 1008 52 6000 5.14 30 09:57 15.08.2022
621 Clouds 33 1010 49 6000 4.12 90 08:21 15.08.2022
622 Haze 30 1012 66 5000 4.12 120 04:36 15.08.2022
623 Clouds 25 1010 85 10000 1.49 157 01:26 15.08.2022
624 Clouds 25 1010 85 10000 1.36 131 22:39 14.08.2022
625 Clouds 25 1010 84 10000 1.3 114 21:38 14.08.2022
626 Clouds 26 1010 80 10000 1.05 121 19:58 14.08.2022
627 Clouds 27 1011 78 10000 1.11 120 18:59 14.08.2022
628 Clouds 27 1011 77 9652 1.09 101 18:19 14.08.2022
629 Clouds 27 1011 76 10000 1.33 68 16:53 14.08.2022
630 Clouds 26 1011 76 10000 1.58 57 15:49 14.08.2022
631 Clouds 28 1010 78 10000 2.27 58 14:33 14.08.2022
632 Clouds 28 1010 79 10000 2.64 35 13:50 14.08.2022
633 Clouds 29 1009 75 10000 3.49 31 13:20 14.08.2022
634 Clouds 30 1009 75 10000 3.52 31 12:34 14.08.2022
635 Clouds 32 1007 60 10000 5.48 18 10:50 14.08.2022
636 Clouds 33 1007 53 10000 4.42 22 08:52 14.08.2022
637 Clouds 33 1010 55 10000 1.44 100 06:22 14.08.2022
638 Clouds 29 1011 67 10000 1.17 88 03:36 14.08.2022
639 Clouds 24 1009 82 10000 1.59 149 00:33 14.08.2022
640 Clouds 25 1008 82 10000 1.92 123 22:56 13.08.2022
641 Clouds 25 1008 82 10000 2.04 121 21:43 13.08.2022
642 Clouds 25 1009 81 10000 2.11 133 20:46 13.08.2022
643 Clouds 27 1009 81 10000 2.26 131 19:45 13.08.2022
644 Clouds 28 1010 75 10000 1.77 94 18:19 13.08.2022
645 Clouds 28 1010 74 10000 1.75 53 15:40 13.08.2022
646 Clouds 29 1010 73 10000 2.06 51 14:32 13.08.2022
647 Clouds 29 1009 74 10000 2.58 59 13:46 13.08.2022
648 Clouds 31 1007 67 10000 4.67 24 11:53 13.08.2022
649 Clouds 32 1007 66 10000 5.27 22 10:33 13.08.2022
650 Clouds 33 1007 53 10000 4.06 18 09:22 13.08.2022
651 Clouds 30 1010 54 10000 2.03 83 05:57 13.08.2022
652 Clear 24 1010 84 10000 1.6 120 00:36 13.08.2022
653 Clear 24 1009 84 10000 1.72 138 22:26 12.08.2022
654 Clear 24 1009 84 10000 1.88 130 21:20 12.08.2022
655 Clouds 26 1010 83 10000 1.6 138 19:44 12.08.2022
656 Clouds 26 1010 81 10000 1.72 135 18:58 12.08.2022
657 Clouds 26 1011 80 10000 1.61 144 17:58 12.08.2022
658 Clouds 26 1011 77 10000 1.21 132 16:25 12.08.2022
659 Clouds 29 1010 76 10000 0.94 119 14:50 12.08.2022
660 Clouds 30 1008 71 10000 2.07 1 12:59 12.08.2022
661 Clouds 32 1006 55 6000 3.09 340 11:39 12.08.2022
662 Clouds 33 1008 52 6000 5.14 70 08:48 12.08.2022
663 Haze 32 1009 58 5000 2.06 90 07:45 12.08.2022
664 Clouds 29 1011 67 10000 0.67 137 03:56 12.08.2022
665 Clear 26 1010 84 10000 1.29 118 00:31 12.08.2022
666 Clear 26 1009 83 10000 1.14 101 23:52 11.08.2022
667 Clear 26 1009 83 10000 1.51 93 22:42 11.08.2022
668 Clouds 27 1009 82 10000 1.57 94 21:52 11.08.2022
669 Clear 27 1009 82 10000 1.87 92 21:23 11.08.2022
670 Clear 27 1009 82 10000 1.87 92 20:30 11.08.2022
671 Clouds 28 1009 80 10000 1.38 98 19:33 11.08.2022
672 Clouds 28 1010 79 10000 1.06 99 18:41 11.08.2022
673 Clouds 29 1011 77 8878 0.51 63 16:46 11.08.2022
674 Clouds 29 1010 75 10000 1.18 50 15:42 11.08.2022
675 Clouds 29 1010 75 10000 1.18 50 15:42 11.08.2022
676 Clouds 29 1009 70 10000 2.56 36 14:20 11.08.2022
677 Clouds 31 1007 64 10000 4.32 27 11:53 11.08.2022
678 Clouds 34 1008 52 6000 3.09 90 08:48 11.08.2022
679 Clouds 32 1010 58 6000 4.12 120 05:44 11.08.2022
680 Clouds 26 1010 81 10000 0.56 154 02:26 11.08.2022
681 Clouds 26 1009 83 10000 1.26 178 22:55 10.08.2022
682 Clouds 26 1009 83 10000 1.02 162 21:45 10.08.2022
683 Clouds 26 1009 82 10000 0.81 159 20:56 10.08.2022
684 Clouds 26 1009 81 10000 0.84 142 20:24 10.08.2022
685 Clouds 26 1010 78 10000 1.55 126 18:46 10.08.2022
686 Clouds 27 1011 76 10000 1.64 105 17:26 10.08.2022
687 Clouds 29 1009 71 10000 2.82 44 14:25 10.08.2022
688 Clouds 31 1007 58 6000 6.17 50 12:54 10.08.2022
689 Clouds 33 1007 49 6000 5.14 80 10:31 10.08.2022
690 Clouds 33 1008 49 6000 6.17 50 08:37 10.08.2022
691 Clouds 33 1009 49 6000 5.14 90 07:22 10.08.2022
692 Haze 30 1011 70 5000 1.54 230 04:50 10.08.2022
693 Clouds 25 1009 78 10000 1.06 174 00:50 10.08.2022
694 Clouds 25 1009 76 10000 1.37 169 23:29 09.08.2022
695 Clouds 25 1009 75 10000 1 160 21:41 09.08.2022
696 Clear 25 1009 74 10000 1.25 146 21:22 09.08.2022
697 Clouds 26 1009 74 10000 0.66 145 18:56 09.08.2022
698 Clouds 27 1010 73 10000 0.95 121 17:31 09.08.2022
699 Clouds 27 1010 72 10000 1.14 102 16:46 09.08.2022
700 Clouds 27 1010 70 10000 1.48 68 16:22 09.08.2022
701 Clouds 30 1009 60 10000 1.99 30 14:50 09.08.2022
702 Clouds 32 1006 58 10000 4.72 356 11:30 09.08.2022
703 Clouds 36 1007 47 10000 2.95 344 08:53 09.08.2022
704 Clear 36 1008 45 10000 2.32 339 07:58 09.08.2022
705 Clear 30 1010 58 10000 0.95 273 05:25 09.08.2022
706 Clear 26 1009 74 10000 1.25 212 00:59 09.08.2022
707 Clear 26 1009 74 10000 1.25 212 00:59 09.08.2022
708 Clear 27 1009 76 10000 1.66 199 23:25 08.08.2022
709 Clear 27 1009 76 10000 1.66 199 22:42 08.08.2022
710 Clear 27 1009 78 10000 0.97 197 21:47 08.08.2022
711 Clear 26 1009 77 10000 0.39 180 20:43 08.08.2022
712 Clouds 27 1009 79 10000 0.35 203 19:39 08.08.2022
713 Clouds 28 1010 68 10000 0.42 136 18:18 08.08.2022
714 Clear 29 1010 63 10000 1.67 57 15:55 08.08.2022
715 Clear 29 1010 63 10000 1.67 57 15:37 08.08.2022
716 Clouds 30 1007 62 10000 3.43 2 12:31 08.08.2022
717 Clouds 33 1006 51 10000 5.03 4 10:38 08.08.2022
718 Clouds 34 1007 49 10000 1.56 347 08:20 08.08.2022
719 Clouds 30 1010 57 10000 0.74 170 04:45 08.08.2022
720 Clouds 25 1010 88 10000 1.82 164 01:29 08.08.2022
721 Clouds 25 1009 99 10000 1.75 176 21:49 07.08.2022
722 Clouds 25 1009 99 10000 1.75 176 21:30 07.08.2022
723 Clear 25 1010 99 10000 1.47 157 20:25 07.08.2022
724 Clear 24 1010 99 10000 1.47 157 19:53 07.08.2022
725 Clear 25 1010 99 10000 1.15 132 19:24 07.08.2022
726 Clear 25 1011 70 10000 1.07 86 17:58 07.08.2022
727 Clear 24 1011 68 10000 0.95 78 16:53 07.08.2022
728 Clear 24 1011 67 10000 0.97 55 15:45 07.08.2022
729 Clear 27 1010 90 10000 1.22 35 14:32 07.08.2022
730 Clouds 30 1009 62 10000 2.44 9 12:50 07.08.2022
731 Clouds 30 1009 62 10000 2.44 9 12:50 07.08.2022
732 Clouds 33 1007 54 10000 4.83 3 10:54 07.08.2022
733 Clear 33 1007 54 10000 4.35 357 10:21 07.08.2022
734 Clouds 30 1011 63 10000 1.46 82 04:42 07.08.2022
735 Clouds 28 1011 69 10000 1.75 129 02:37 07.08.2022
736 Clouds 26 1010 80 10000 1.77 128 22:57 06.08.2022
737 Clouds 26 1010 81 10000 2.03 123 22:19 06.08.2022
738 Clouds 27 1010 79 10000 1.73 105 20:20 06.08.2022
739 Clouds 27 1010 78 10000 1.5 114 19:38 06.08.2022
740 Clear 27 1011 74 10000 0.42 161 18:19 06.08.2022
741 Clear 27 1011 73 10000 0.33 246 16:33 06.08.2022
742 Clouds 28 1010 73 10000 1.87 329 14:31 06.08.2022
743 Clouds 28 1009 71 10000 2.81 329 13:39 06.08.2022
744 Clouds 32 1007 50 10000 4.02 342 11:21 06.08.2022
745 Clouds 34 1007 45 10000 3.59 344 09:50 06.08.2022
746 Clouds 32 1008 54 10000 1.86 352 07:51 06.08.2022
747 Clouds 28 1011 64 10000 1.07 163 03:24 06.08.2022
748 Clouds 25 1009 87 10000 1.37 165 23:27 05.08.2022
749 Clouds 25 1010 86 10000 1.2 160 21:51 05.08.2022
750 Clouds 27 1011 81 10000 0.67 173 19:29 05.08.2022
751 Clouds 27 1011 80 10000 0.67 173 18:44 05.08.2022
752 Clouds 27 1011 78 10000 0.37 311 17:26 05.08.2022
753 Clouds 27 1011 78 10000 0.37 311 16:48 05.08.2022
754 Clouds 27 1011 73 10000 1.9 332 15:21 05.08.2022
755 Clouds 28 1010 71 10000 2.72 338 13:53 05.08.2022
756 Clouds 28 1008 70 10000 3.35 1 13:22 05.08.2022
757 Clouds 29 1008 65 10000 4.3 2 12:24 05.08.2022
758 Clouds 31 1007 61 10000 4.9 1 10:35 05.08.2022
759 Clouds 33 1009 44 10000 2.51 334 07:58 05.08.2022
760 Clouds 30 1011 64 10000 0.8 348 05:32 05.08.2022
761 Clouds 26 1009 87 10000 1.55 216 00:30 05.08.2022
762 Clouds 26 1009 90 10000 1.82 227 22:26 04.08.2022
763 Clouds 26 1010 90 10000 1.76 232 21:26 04.08.2022
764 Clouds 26 1010 89 10000 1.76 232 20:42 04.08.2022
765 Clouds 26 1010 89 10000 1.44 236 19:37 04.08.2022
766 Clouds 27 1011 89 10000 1.31 251 18:36 04.08.2022
767 Clouds 26 1011 90 10000 1.27 254 17:37 04.08.2022
768 Clouds 27 1009 85 10000 0.96 293 13:57 04.08.2022
769 Clouds 28 1008 76 10000 1.31 316 12:43 04.08.2022
770 Clouds 31 1007 65 7698 2.38 358 10:51 04.08.2022
771 Clouds 32 1008 63 10000 2.18 9 07:53 04.08.2022
772 Clouds 31 1011 59 10000 0.49 50 04:43 04.08.2022
773 Clouds 26 1010 86 10000 1.01 166 02:27 04.08.2022
774 Clouds 25 1009 87 10000 0.91 225 23:44 03.08.2022
775 Rain 25 1009 85 10000 0.95 215 22:30 03.08.2022
776 Rain 26 1010 84 10000 1.49 191 20:50 03.08.2022
777 Clouds 26 1010 83 10000 1.53 179 19:44 03.08.2022
778 Clouds 26 1011 83 10000 1.47 157 18:36 03.08.2022
779 Clouds 27 1011 80 10000 1.17 103 16:25 03.08.2022
780 Clouds 29 1010 70 10000 0.89 75 14:51 03.08.2022
781 Clouds 30 1008 61 9561 1.21 42 12:32 03.08.2022
782 Clouds 34 1007 52 10000 4.75 6 08:50 03.08.2022
783 Clouds 31 1011 62 10000 0.76 37 04:47 03.08.2022
784 Clouds 30 1011 66 10000 0.38 42 03:37 03.08.2022
785 Clouds 26 1009 84 10000 0.5 105 01:36 03.08.2022
786 Clouds 26 1008 81 10000 0.46 78 23:27 02.08.2022
787 Clouds 27 1008 80 10000 0.57 98 21:55 02.08.2022
788 Clouds 27 1008 75 10000 0.57 98 21:33 02.08.2022
789 Clouds 28 1009 73 10000 0.75 198 19:19 02.08.2022
790 Clouds 29 1010 67 10000 0.42 40 16:38 02.08.2022
791 Clouds 30 1007 60 10000 3.67 20 13:21 02.08.2022
792 Clear 34 1006 51 10000 4.62 15 09:53 02.08.2022
793 Clouds 35 1007 46 10000 3.52 31 08:26 02.08.2022
794 Clouds 32 1007 44 10000 3.49 31 07:50 02.08.2022
795 Clouds 30 1010 55 10000 1.45 76 04:55 02.08.2022
796 Clouds 26 1009 81 10000 1.91 107 01:26 02.08.2022
797 Clouds 27 1008 81 10000 1.89 103 22:57 01.08.2022
798 Clouds 27 1008 76 10000 2.12 108 21:19 01.08.2022
799 Clouds 28 1009 73 10000 2.24 119 19:44 01.08.2022
800 Clouds 28 1010 71 10000 2.81 110 18:53 01.08.2022
801 Clouds 28 1010 70 10000 3.3 96 16:55 01.08.2022
802 Clouds 28 1010 70 10000 3.3 96 16:55 01.08.2022
803 Clouds 28 1010 70 10000 3.13 86 16:29 01.08.2022
804 Clouds 28 1010 69 10000 3.15 86 15:34 01.08.2022
805 Clouds 29 1009 64 10000 3.6 79 14:44 01.08.2022
806 Clouds 30 1007 62 10000 4.62 49 13:29 01.08.2022
807 Clouds 32 1006 56 10000 5.01 33 10:47 01.08.2022
808 Clouds 35 1006 44 10000 3.42 31 08:53 01.08.2022
809 Clouds 34 1007 46 10000 3.4 49 06:51 01.08.2022
810 Clouds 30 1009 62 10000 3.37 92 04:31 01.08.2022
811 Clouds 25 1008 78 10000 2.73 117 00:58 01.08.2022
812 Clouds 26 1007 83 10000 3.24 117 22:44 31.07.2022
813 Clear 26 1008 83 10000 3.24 116 22:25 31.07.2022
814 Clouds 27 1008 82 10000 3.36 104 20:28 31.07.2022
815 Clear 27 1009 76 10000 3.7 99 18:39 31.07.2022
816 Clear 28 1009 74 10000 4.05 88 16:26 31.07.2022
817 Clear 29 1009 71 10000 4.41 82 14:37 31.07.2022
818 Clouds 30 1007 62 10000 4.77 55 12:58 31.07.2022
819 Clouds 31 1006 59 10000 4.53 47 11:38 31.07.2022
820 Clear 34 1006 44 10000 4.75 29 08:46 31.07.2022
821 Clouds 32 1009 50 10000 2.61 61 05:38 31.07.2022
822 Clouds 26 1009 83 10000 1.7 106 01:21 31.07.2022
823 Clouds 26 1008 82 10000 1.62 128 22:46 30.07.2022
824 Clouds 27 1009 81 10000 1.22 133 21:52 30.07.2022
825 Clouds 27 1009 81 10000 1.25 133 21:33 30.07.2022
826 Clouds 27 1009 75 10000 0.83 153 20:33 30.07.2022
827 Clouds 28 1010 74 10000 2.17 116 19:50 30.07.2022
828 Clouds 28 1011 72 10000 2.24 102 17:53 30.07.2022
829 Clouds 27 1011 74 10000 2.25 100 16:38 30.07.2022
830 Clouds 28 1010 73 10000 2.21 93 15:33 30.07.2022
831 Clouds 29 1008 70 10000 4.12 25 13:23 30.07.2022
832 Clouds 31 1007 62 10000 4.84 18 12:22 30.07.2022
833 Clouds 31 1007 61 10000 4.84 18 11:51 30.07.2022
834 Clouds 33 1006 53 10000 4.75 5 10:20 30.07.2022
835 Clouds 34 1007 52 10000 4.23 6 08:55 30.07.2022
836 Clouds 32 1008 52 10000 1.91 340 06:58 30.07.2022
837 Clouds 28 1010 72 10000 1.5 147 02:33 30.07.2022
838 Clouds 26 1009 79 10000 1.15 125 00:30 30.07.2022
839 Clouds 27 1009 78 10000 1.68 132 21:38 29.07.2022
840 Clouds 26 1009 81 10000 2.21 131 20:50 29.07.2022
841 Clouds 26 1010 81 10000 2.16 127 19:46 29.07.2022
842 Clouds 26 1011 79 10000 2.73 109 17:25 29.07.2022
843 Clouds 29 1010 65 10000 3.42 81 14:48 29.07.2022
844 Clouds 31 1008 63 10000 5.16 51 12:52 29.07.2022
845 Clouds 33 1006 52 10000 4.31 45 08:52 29.07.2022
846 Clouds 33 1007 53 10000 3.55 55 08:24 29.07.2022
847 Clouds 33 1010 52 10000 2.98 89 05:22 29.07.2022
848 Clouds 27 1009 79 10000 2.25 112 01:19 29.07.2022
849 Clouds 28 1008 79 10000 2.87 113 21:41 28.07.2022
850 Clouds 28 1008 75 10000 3.26 108 20:54 28.07.2022
851 Clouds 28 1009 76 10000 3.23 106 20:20 28.07.2022
852 Clouds 27 1009 76 10000 3.23 106 19:40 28.07.2022
853 Clouds 28 1010 74 10000 3.61 100 18:20 28.07.2022
854 Clouds 28 1010 74 10000 3.63 100 17:36 28.07.2022
855 Clouds 28 1010 72 10000 3.57 93 16:41 28.07.2022
856 Clouds 30 1009 63 10000 4.04 81 14:30 28.07.2022
857 Clouds 32 1007 60 10000 4.03 54 12:41 28.07.2022
858 Clouds 35 1006 46 10000 4.41 71 09:25 28.07.2022
859 Clouds 32 1010 56 10000 4.94 89 05:45 28.07.2022
860 Clouds 32 1010 60 10000 4.84 93 05:21 28.07.2022
861 Clouds 26 1008 76 10000 2.25 100 00:28 28.07.2022
862 Clouds 27 1008 75 10000 2.32 115 22:25 27.07.2022
863 Clouds 27 1009 73 10000 2.44 120 20:20 27.07.2022
864 Clouds 27 1009 74 10000 2.13 130 19:30 27.07.2022
865 Clouds 28 1010 65 10000 2.78 105 16:34 27.07.2022
866 Clouds 28 1010 63 10000 2.76 101 15:51 27.07.2022
867 Clouds 27 1009 63 10000 2.47 84 14:42 27.07.2022
868 Clouds 27 1009 62 10000 3.16 55 13:58 27.07.2022
869 Clouds 30 1007 59 10000 4.56 31 11:49 27.07.2022
870 Clouds 32 1008 50 10000 2.03 11 07:53 27.07.2022
871 Clouds 31 1010 56 10000 1.29 101 05:23 27.07.2022
872 Clouds 25 1009 75 10000 2.16 118 00:28 27.07.2022
873 Clouds 26 1009 75 10000 2.12 121 22:24 26.07.2022
874 Clouds 27 1009 75 10000 2.37 114 21:19 26.07.2022
875 Clouds 26 1010 72 10000 2.44 110 19:40 26.07.2022
876 Clouds 27 1010 71 10000 2.45 103 18:41 26.07.2022
877 Clouds 27 1011 70 10000 2.48 101 17:57 26.07.2022
878 Clouds 27 1010 67 10000 3 96 15:47 26.07.2022
879 Clouds 28 1010 65 10000 3.17 79 14:44 26.07.2022
880 Clouds 28 1008 60 10000 3.64 53 12:41 26.07.2022
881 Clouds 30 1006 54 10000 4.6 32 10:57 26.07.2022
882 Clouds 32 1007 51 10000 3.34 35 08:31 26.07.2022
883 Clouds 28 1011 67 10000 1.37 73 03:58 26.07.2022
884 Clouds 26 1009 82 10000 2.15 70 00:24 26.07.2022
885 Clouds 26 1009 81 10000 2.44 84 22:43 25.07.2022
886 Clouds 27 1009 81 10000 2.6 91 22:21 25.07.2022
887 Clouds 26 1009 82 10000 2.6 91 21:38 25.07.2022
888 Clouds 27 1010 82 10000 2.26 94 20:39 25.07.2022
889 Clouds 28 1010 73 10000 1.66 104 19:26 25.07.2022
890 Clouds 28 1011 70 10000 1.99 96 18:18 25.07.2022
891 Clouds 28 1011 63 10000 2.24 83 17:26 25.07.2022
892 Clouds 29 1009 63 10000 2.51 48 14:23 25.07.2022
893 Clouds 31 1007 60 10000 2.84 24 11:39 25.07.2022
894 Clouds 32 1007 63 10000 3.82 28 08:32 25.07.2022
895 Clouds 27 1008 85 10000 1.54 127 02:21 25.07.2022
896 Clouds 26 1007 86 10000 1.05 139 23:51 24.07.2022
897 Clouds 26 1007 87 10000 1.09 144 22:54 24.07.2022
898 Clouds 26 1007 89 10000 1.14 151 22:24 24.07.2022
899 Rain 26 1008 89 10000 1.18 156 21:19 24.07.2022
900 Rain 26 1008 87 10000 1.18 156 20:47 24.07.2022
901 Clouds 27 1008 89 10000 0.93 166 19:54 24.07.2022
902 Clouds 27 1009 90 10000 1.01 142 18:30 24.07.2022
903 Clouds 27 1009 90 10000 0.98 108 16:28 24.07.2022
904 Clouds 27 1009 92 10000 0.98 108 15:45 24.07.2022
905 Clouds 29 1008 69 10000 1.14 10 14:19 24.07.2022
906 Clouds 30 1007 65 10000 1.28 28 12:52 24.07.2022
907 Clouds 31 1006 72 8426 2.01 16 11:38 24.07.2022
908 Clouds 31 1005 67 10000 2.87 9 10:59 24.07.2022
909 Clouds 32 1006 57 10000 3.64 15 08:32 24.07.2022
910 Clouds 32 1007 57 10000 2.71 20 07:52 24.07.2022
911 Clouds 31 1009 60 10000 1.65 73 05:44 24.07.2022
912 Clouds 25 1008 88 10000 1.66 143 00:28 24.07.2022
913 Clouds 25 1008 84 10000 2.01 130 21:28 23.07.2022
914 Clouds 25 1009 84 10000 1.94 124 20:19 23.07.2022
915 Clouds 26 1009 82 10000 1.55 107 18:50 23.07.2022
916 Clouds 27 1010 77 10000 1.64 82 17:28 23.07.2022
917 Clouds 28 1010 78 10000 1.64 82 16:35 23.07.2022
918 Clouds 28 1009 78 10000 1.51 70 15:22 23.07.2022
919 Clouds 29 1009 78 10000 1.5 70 14:58 23.07.2022
920 Rain 29 1009 76 10000 2.01 38 14:27 23.07.2022
921 Rain 29 1008 72 10000 2.54 38 13:26 23.07.2022
922 Clouds 28 1007 75 10000 3.63 30 10:45 23.07.2022
923 Clouds 28 1007 73 10000 3.98 24 10:21 23.07.2022
924 Clouds 33 1008 50 10000 3.71 20 08:39 23.07.2022
925 Clouds 29 1011 66 10000 2.32 111 03:39 23.07.2022
926 Clouds 26 1011 84 10000 2.25 113 01:33 23.07.2022
927 Clouds 26 1009 83 10000 2.72 104 22:56 22.07.2022
928 Clouds 26 1010 81 10000 2.6 111 20:56 22.07.2022
929 Clouds 26 1011 81 10000 2.26 127 19:46 22.07.2022
930 Clouds 27 1012 77 10000 2.73 110 18:28 22.07.2022
931 Rain 27 1012 74 10000 2.92 105 17:28 22.07.2022
932 Clouds 28 1011 73 10000 3.58 95 14:55 22.07.2022
933 Clouds 31 1008 58 10000 5.66 63 11:36 22.07.2022
934 Clouds 32 1008 56 10000 4.24 55 09:26 22.07.2022
935 Rain 32 1008 49 10000 4.24 55 08:43 22.07.2022
936 Clouds 30 1010 66 10000 2.72 59 07:20 22.07.2022
937 Clouds 31 1011 65 10000 0.88 185 03:43 22.07.2022
938 Clouds 27 1009 77 10000 1.66 192 22:45 21.07.2022
939 Clouds 27 1010 80 10000 1.43 185 21:34 21.07.2022
940 Clouds 27 1010 78 10000 1.64 137 19:30 21.07.2022
941 Clouds 28 1011 63 10000 2.14 125 17:45 21.07.2022
942 Clouds 28 1011 63 10000 2.73 112 17:19 21.07.2022
943 Clouds 29 1010 64 10000 2.27 79 15:22 21.07.2022
944 Clouds 29 1010 62 10000 2.3 79 14:39 21.07.2022
945 Clouds 31 1008 56 10000 4.4 14 12:28 21.07.2022
946 Clouds 30 1007 59 10000 5 7 11:19 21.07.2022
947 Clouds 31 1007 53 10000 4.56 7 09:41 21.07.2022
948 Clouds 35 1007 46 10000 3.45 5 08:52 21.07.2022
949 Clouds 32 1008 52 10000 2.27 353 07:50 21.07.2022
950 Clear 31 1010 57 10000 0.77 359 06:24 21.07.2022
951 Clouds 25 1009 88 10000 1.43 158 00:48 21.07.2022
952 Clouds 26 1009 82 10000 1.62 115 22:22 20.07.2022
953 Clear 26 1010 80 10000 1.81 111 20:59 20.07.2022
954 Clouds 27 1010 79 10000 1.62 102 19:54 20.07.2022
955 Clouds 27 1011 80 10000 2.14 110 19:25 20.07.2022
956 Clouds 27 1011 75 10000 2.18 110 18:52 20.07.2022
957 Clouds 28 1011 74 10000 1.9 115 18:26 20.07.2022
958 Clouds 28 1011 72 10000 1.68 116 16:46 20.07.2022
959 Clouds 29 1011 69 10000 1.67 127 15:32 20.07.2022
960 Clouds 29 1009 71 10000 2.18 80 14:20 20.07.2022
961 Clouds 32 1008 64 10000 3.67 46 11:55 20.07.2022
962 Clouds 32 1007 56 10000 4.16 36 09:43 20.07.2022
963 Clouds 31 1010 55 10000 2.23 95 04:36 20.07.2022
964 Clear 26 1009 88 10000 2.17 136 00:52 20.07.2022
965 Clear 26 1009 87 10000 2.27 128 00:25 20.07.2022
966 Clear 26 1008 84 10000 2.33 116 22:33 19.07.2022
967 Clear 27 1008 83 10000 2.22 115 21:46 19.07.2022
968 Clear 27 1008 82 10000 2.25 112 20:48 19.07.2022
969 Clouds 27 1010 77 10000 2.39 109 19:21 19.07.2022
970 Clouds 28 1010 76 10000 2.39 109 18:34 19.07.2022
971 Clouds 28 1010 76 10000 2.52 103 17:49 19.07.2022
972 Clouds 28 1009 70 10000 2.95 80 15:21 19.07.2022
973 Clouds 31 1007 62 10000 3.88 42 12:27 19.07.2022
974 Clouds 30 1007 63 10000 3.88 42 11:31 19.07.2022
975 Clouds 32 1006 56 10000 3.8 29 09:44 19.07.2022
976 Clouds 35 1006 50 10000 3.28 38 08:42 19.07.2022
977 Clear 32 1008 56 10000 1.67 68 07:19 19.07.2022
978 Clear 31 1009 59 10000 1.45 76 05:48 19.07.2022
979 Clear 31 1010 64 10000 1.13 87 05:18 19.07.2022
980 Clouds 27 1010 80 10000 1.54 142 02:33 19.07.2022
981 Clouds 26 1009 90 10000 1.76 142 23:50 18.07.2022
982 Clouds 26 1008 89 10000 2.15 147 23:19 18.07.2022
983 Clouds 27 1009 89 10000 2.54 129 22:26 18.07.2022
984 Clouds 27 1009 87 10000 2.67 117 21:20 18.07.2022
985 Clouds 27 1010 83 10000 2.46 113 19:54 18.07.2022
986 Clouds 28 1010 74 10000 2.53 112 18:24 18.07.2022
987 Clouds 28 1010 71 10000 2.48 105 16:30 18.07.2022
988 Clouds 29 1009 71 10000 2.4 65 15:26 18.07.2022
989 Clouds 29 1008 65 10000 2.55 42 13:31 18.07.2022
990 Clouds 31 1007 62 10000 3.21 22 11:34 18.07.2022
991 Clouds 33 1007 57 10000 3.07 20 09:55 18.07.2022
992 Clouds 32 1008 62 10000 2.81 52 07:54 18.07.2022
993 Clouds 28 1011 71 10000 1.33 72 03:32 18.07.2022
994 Clear 25 1008 91 10000 0.49 279 22:57 17.07.2022
995 Clear 25 1008 90 10000 0.49 279 22:31 17.07.2022
996 Clouds 25 1008 89 10000 1.24 248 21:39 17.07.2022
997 Clear 25 1008 87 10000 1.41 232 20:46 17.07.2022
998 Clouds 26 1009 85 10000 1.52 202 19:50 17.07.2022
999 Clouds 26 1010 83 10000 1.37 155 19:22 17.07.2022
1000 Clouds 27 1010 81 10000 2.29 111 17:54 17.07.2022
1001 Clouds 27 1010 80 10000 2.29 111 17:36 17.07.2022
1002 Clouds 27 1010 76 10000 2.68 108 16:33 17.07.2022
1003 Clouds 27 1010 76 10000 3.14 102 15:50 17.07.2022
1004 Clouds 28 1009 67 10000 4.57 91 13:51 17.07.2022
1005 Clouds 29 1009 62 10000 5 87 12:43 17.07.2022
1006 Rain 32 1008 55 10000 4.57 76 10:21 17.07.2022
1007 Clouds 32 1009 57 10000 2.34 33 07:31 17.07.2022
1008 Clouds 26 1011 84 10000 1.38 198 02:35 17.07.2022
1009 Clouds 25 1009 92 10000 2.42 112 23:28 16.07.2022
1010 Clouds 25 1009 91 10000 2.42 112 22:33 16.07.2022
1011 Clouds 25 1010 88 10000 2.91 121 20:45 16.07.2022
1012 Clouds 26 1011 81 10000 3.26 115 18:58 16.07.2022
1013 Clouds 26 1011 80 10000 2.78 122 17:48 16.07.2022
1014 Clouds 26 1010 78 10000 2.47 111 16:22 16.07.2022
1015 Clouds 28 1009 68 10000 1.27 70 13:26 16.07.2022
1016 Clouds 29 1009 85 10000 1.72 92 10:34 16.07.2022
1017 Clouds 29 1009 85 10000 2.33 108 09:28 16.07.2022
1018 Clouds 28 1009 85 10000 2.33 108 08:41 16.07.2022
1019 Clouds 26 1011 74 10000 1.32 214 07:40 16.07.2022
1020 Rain 23 1012 99 10000 2.23 223 03:38 16.07.2022
1021 Rain 23 1011 98 10000 1.68 256 00:48 16.07.2022
1022 Rain 24 1010 99 10000 2.7 243 22:57 15.07.2022
1023 Rain 24 1010 98 10000 2.7 243 22:37 15.07.2022
1024 Clouds 24 1010 99 10000 3.64 221 20:44 15.07.2022
1025 Clouds 25 1010 99 10000 3.98 207 19:49 15.07.2022
1026 Clouds 25 1011 99 10000 3.52 199 18:30 15.07.2022
1027 Clouds 25 1011 99 7739 2.73 165 17:19 15.07.2022
1028 Clouds 25 1009 83 5115 2.29 109 14:35 15.07.2022
1029 Clouds 26 1008 88 6568 3.96 84 12:43 15.07.2022
1030 Clouds 29 1007 71 10000 4.14 63 10:53 15.07.2022
1031 Clouds 36 1006 47 10000 4.35 67 07:55 15.07.2022
1032 Clouds 33 1008 51 10000 4.41 90 05:55 15.07.2022
1033 Clouds 26 1009 84 10000 2.67 103 00:51 15.07.2022
1034 Clouds 27 1008 84 10000 3.51 107 23:25 14.07.2022
1035 Clouds 27 1008 84 10000 3.51 107 22:42 14.07.2022
1036 Clouds 27 1008 83 10000 3.59 108 21:43 14.07.2022
1037 Clouds 27 1008 83 10000 3.61 106 21:24 14.07.2022
1038 Clouds 27 1008 83 10000 3.61 106 20:43 14.07.2022
1039 Clouds 27 1009 81 10000 3.78 107 20:19 14.07.2022
1040 Clouds 27 1009 77 10000 3.92 106 18:41 14.07.2022
1041 Clouds 28 1009 74 10000 4.6 101 16:21 14.07.2022
1042 Clouds 29 1009 73 10000 4.58 99 15:26 14.07.2022
1043 Clouds 29 1008 68 10000 4.87 87 13:53 14.07.2022
1044 Clouds 30 1007 62 10000 4.37 82 12:48 14.07.2022
1045 Clouds 31 1007 58 10000 4.79 71 11:41 14.07.2022
1046 Clouds 32 1006 51 10000 4.77 58 11:22 14.07.2022
1047 Clouds 33 1006 49 10000 4.29 51 09:49 14.07.2022
1048 Clouds 31 1009 67 10000 2.55 91 05:25 14.07.2022
1049 Clouds 25 1008 99 10000 1.26 120 01:24 14.07.2022
1050 Rain 25 1008 98 10000 1.26 120 00:53 14.07.2022
1051 Rain 25 1007 96 10000 1.61 132 22:33 13.07.2022
1052 Clouds 25 1007 97 10000 2.16 122 21:55 13.07.2022
1053 Rain 25 1008 98 10000 2.29 113 20:45 13.07.2022
1054 Clouds 25 1009 97 10000 2.68 88 19:21 13.07.2022
1055 Rain 25 1010 97 10000 2.73 91 17:51 13.07.2022
1056 Clouds 25 1010 98 10000 2.81 91 16:39 13.07.2022
1057 Clouds 25 1009 99 10000 2.99 96 15:24 13.07.2022
1058 Rain 25 1007 97 10000 3.9 110 12:55 13.07.2022
1059 Clouds 26 1006 91 9813 3.87 72 10:46 13.07.2022
1060 Clouds 29 1006 62 10000 3.39 64 10:24 13.07.2022
1061 Clouds 29 1006 62 10000 3.39 64 10:24 13.07.2022
1062 Clouds 30 1007 62 10000 3.36 62 09:24 13.07.2022
1063 Clouds 30 1009 71 10000 2.61 39 06:20 13.07.2022
1064 Clouds 27 1010 80 10000 0.93 134 02:38 13.07.2022
1065 Clouds 26 1008 83 10000 1.72 124 23:52 12.07.2022
1066 Clouds 26 1008 83 10000 1.94 129 21:58 12.07.2022
1067 Clouds 26 1008 83 10000 1.94 129 21:34 12.07.2022
1068 Clouds 26 1008 82 10000 1.86 131 20:42 12.07.2022
1069 Clouds 26 1009 80 10000 1.52 124 19:36 12.07.2022
1070 Clouds 26 1010 82 10000 1.51 99 17:54 12.07.2022
1071 Clouds 28 1009 71 10000 1.97 111 16:20 12.07.2022
1072 Clouds 28 1009 71 10000 1.97 111 16:20 12.07.2022
1073 Clouds 29 1009 67 10000 2.49 105 14:31 12.07.2022
1074 Clouds 30 1007 65 10000 4 84 13:20 12.07.2022
1075 Clouds 31 1006 62 10000 4.62 68 11:37 12.07.2022
1076 Clouds 32 1006 55 10000 4.66 59 10:18 12.07.2022
1077 Clouds 32 1006 55 10000 4.66 59 10:18 12.07.2022
1078 Clouds 32 1007 53 10000 4.13 64 08:26 12.07.2022
1079 Rain 32 1007 54 10000 2.28 45 07:38 12.07.2022
1080 Clouds 30 1010 57 10000 0.68 37 05:42 12.07.2022
1081 Clouds 28 1011 73 10000 1.16 147 03:29 12.07.2022
1082 Clouds 26 1009 77 10000 1 148 23:42 11.07.2022
1083 Clouds 27 1008 77 10000 1.45 139 22:36 11.07.2022
1084 Clouds 28 1009 75 10000 1.86 126 20:54 11.07.2022
1085 Clouds 28 1010 75 10000 2.07 119 20:25 11.07.2022
1086 Clouds 27 1010 74 10000 1.99 121 18:38 11.07.2022
1087 Clouds 27 1010 73 10000 2.03 113 17:55 11.07.2022
1088 Clouds 27 1011 70 10000 1.27 112 16:22 11.07.2022
1089 Clouds 28 1011 66 10000 1.91 71 14:52 11.07.2022
1090 Clouds 30 1008 58 10000 3.94 24 12:28 11.07.2022
1091 Clouds 31 1008 55 10000 4.01 19 10:54 11.07.2022
1092 Clouds 32 1007 49 10000 3.77 10 09:54 11.07.2022
1093 Clouds 32 1008 47 10000 2.45 13 08:36 11.07.2022
1094 Clouds 31 1008 47 10000 1.75 4 07:32 11.07.2022
1095 Clouds 25 1009 77 10000 1.66 156 00:47 11.07.2022
1096 Clouds 25 1009 76 10000 1.71 145 23:48 10.07.2022
1097 Clouds 26 1009 76 10000 1.84 128 22:34 10.07.2022
1098 Clouds 26 1009 74 10000 2.77 127 20:55 10.07.2022
1099 Clouds 26 1010 73 10000 2.35 128 20:00 10.07.2022
1100 Clouds 26 1010 72 10000 2.2 121 19:21 10.07.2022
1101 Clouds 27 1011 71 10000 2.43 119 17:51 10.07.2022
1102 Clouds 27 1011 69 10000 2.49 103 16:59 10.07.2022
1103 Clouds 27 1010 68 10000 2.74 91 16:20 10.07.2022
1104 Clouds 27 1010 67 10000 3.18 75 14:44 10.07.2022
1105 Clouds 28 1008 64 10000 3.91 46 13:18 10.07.2022
1106 Clouds 30 1007 58 10000 4.12 35 11:36 10.07.2022
1107 Clouds 34 1007 48 10000 4.03 32 09:44 10.07.2022
1108 Clouds 34 1007 41 10000 2.98 41 08:43 10.07.2022
1109 Clouds 34 1009 37 10000 1.97 50 06:39 10.07.2022
1110 Clouds 25 1008 73 10000 2.03 151 23:47 09.07.2022
1111 Clouds 25 1009 72 10000 1.37 161 22:26 09.07.2022
1112 Clouds 25 1009 71 10000 1.37 161 21:41 09.07.2022
1113 Clouds 27 1009 67 10000 1.74 181 19:44 09.07.2022
1114 Clouds 28 1010 60 10000 1.74 150 18:26 09.07.2022
1115 Clouds 28 1010 60 10000 1.74 150 18:26 09.07.2022
1116 Clouds 28 1010 63 10000 1.95 98 17:27 09.07.2022
1117 Clouds 29 1009 64 10000 2.5 72 16:25 09.07.2022
1118 Clouds 29 1009 66 10000 2.5 72 15:38 09.07.2022
1119 Clouds 29 1008 68 10000 2.82 39 14:23 09.07.2022
1120 Clouds 29 1008 68 10000 2.82 39 13:48 09.07.2022
1121 Clouds 31 1006 60 10000 4.18 8 11:54 09.07.2022
1122 Clear 34 1006 45 10000 3.89 356 10:27 09.07.2022
1123 Clear 34 1006 42 10000 3.89 356 09:56 09.07.2022
1124 Clear 32 1007 48 10000 2.43 335 07:44 09.07.2022
1125 Clear 29 1010 59 10000 0.52 229 04:45 09.07.2022
1126 Clear 25 1009 70 10000 1.71 220 00:38 09.07.2022
1127 Clear 26 1009 69 10000 1.18 179 22:34 08.07.2022
1128 Clear 26 1009 70 10000 1.48 155 21:27 08.07.2022
1129 Clear 26 1009 70 10000 1.48 155 20:39 08.07.2022
1130 Clouds 27 1010 69 10000 1.59 134 19:48 08.07.2022
1131 Clouds 28 1010 62 10000 2.13 127 17:56 08.07.2022
1132 Clouds 28 1010 62 10000 1.83 122 16:33 08.07.2022
1133 Clouds 29 1009 69 10000 1.53 35 14:51 08.07.2022
1134 Clouds 31 1008 68 10000 4.03 357 12:42 08.07.2022
1135 Clouds 34 1006 51 10000 4.24 354 11:24 08.07.2022
1136 Clouds 34 1006 50 10000 3.46 350 10:21 08.07.2022
1137 Clouds 36 1008 38 10000 1.76 320 07:55 08.07.2022
1138 Clouds 32 1010 52 10000 1.14 278 06:23 08.07.2022
1139 Clouds 26 1010 84 10000 2.11 179 00:41 08.07.2022
1140 Clear 27 1009 81 10000 1.98 164 22:57 07.07.2022
1141 Clear 27 1009 77 10000 1.81 155 21:52 07.07.2022
1142 Clouds 28 1009 75 10000 2.17 143 19:35 07.07.2022
1143 Clouds 29 1010 72 10000 2.14 114 17:50 07.07.2022
1144 Clouds 29 1010 71 10000 1.57 86 16:32 07.07.2022
1145 Clouds 29 1009 71 10000 1.88 46 14:21 07.07.2022
1146 Clouds 30 1008 65 10000 3.27 23 12:45 07.07.2022
1147 Clouds 31 1008 64 10000 4.17 17 12:23 07.07.2022
1148 Clouds 33 1008 54 10000 4.17 17 11:34 07.07.2022
1149 Clouds 34 1007 51 10000 3.98 11 10:46 07.07.2022
1150 Clouds 34 1007 51 10000 3.48 12 10:27 07.07.2022
1151 Clouds 34 1007 52 10000 3.48 12 09:32 07.07.2022
1152 Clear 30 1010 58 10000 1.11 114 06:26 07.07.2022
1153 Clouds 26 1010 92 10000 1.68 130 00:28 07.07.2022
1154 Clouds 26 1010 90 10000 1.68 130 23:36 06.07.2022
1155 Clouds 26 1010 90 10000 1.66 126 23:18 06.07.2022
1156 Clouds 26 1010 89 10000 1.66 126 22:51 06.07.2022
1157 Clouds 26 1010 89 10000 1.66 126 22:33 06.07.2022
1158 Clouds 26 1011 88 10000 1.9 127 20:23 06.07.2022
1159 Clear 27 1011 87 10000 2.02 114 19:22 06.07.2022
1160 Clear 27 1011 83 10000 2.28 99 17:21 06.07.2022
1161 Clear 27 1011 80 10000 2.4 90 15:55 06.07.2022
1162 Clouds 29 1009 71 10000 2.06 51 12:44 06.07.2022
1163 Clouds 31 1009 62 10000 1.69 43 11:52 06.07.2022
1164 Clouds 28 1008 63 10000 1.54 26 10:54 06.07.2022
1165 Clouds 31 1009 62 10000 2.64 9 09:25 06.07.2022
1166 Rain 28 1009 56 10000 2.36 353 07:44 06.07.2022
1167 Rain 28 1009 59 10000 2.36 355 07:44 06.07.2022
1168 Rain 28 1010 57 10000 1.45 350 06:44 06.07.2022
1169 Clouds 24 1010 99 10000 1.17 189 00:24 06.07.2022
1170 Clouds 24 1010 93 10000 0.91 174 22:43 05.07.2022
1171 Clouds 28 1010 74 10000 0.84 148 20:49 05.07.2022
1172 Clouds 28 1010 74 10000 0.32 140 20:21 05.07.2022
1173 Clouds 28 1010 74 10000 0.51 207 19:37 05.07.2022
1174 Clouds 28 1011 72 10000 0.83 182 17:50 05.07.2022
1175 Clouds 29 1011 71 10000 0.55 119 17:19 05.07.2022
1176 Clouds 29 1010 71 10000 0.86 59 16:25 05.07.2022
1177 Clouds 29 1010 70 10000 1.6 29 14:54 05.07.2022
1178 Clouds 30 1009 70 10000 1.97 27 13:34 05.07.2022
1179 Clouds 31 1007 63 10000 3.73 13 12:24 05.07.2022
1180 Clouds 32 1007 65 10000 4.29 12 10:46 05.07.2022
1181 Clouds 34 1007 54 10000 4.01 10 09:57 05.07.2022
1182 Clouds 33 1008 54 10000 1.9 26 08:21 05.07.2022
1183 Clouds 33 1008 56 10000 1.81 51 06:51 05.07.2022
1184 Clouds 30 1010 63 10000 2.23 80 04:37 05.07.2022
1185 Clouds 26 1009 83 10000 1.1 132 01:33 05.07.2022
1186 Clouds 26 1008 83 10000 1.21 135 23:37 04.07.2022
1187 Clouds 26 1008 83 10000 1.67 134 22:56 04.07.2022
1188 Clouds 27 1008 84 10000 1.83 134 22:18 04.07.2022
1189 Clouds 28 1008 79 10000 1.95 129 20:56 04.07.2022
1190 Clouds 28 1008 78 10000 1.95 129 20:36 04.07.2022
1191 Clouds 28 1008 79 10000 2.24 114 19:56 04.07.2022
1192 Clouds 28 1008 78 10000 2.24 114 19:37 04.07.2022
1193 Clouds 28 1009 76 10000 2.37 113 18:35 04.07.2022
1194 Clouds 28 1009 71 10000 3.21 109 16:54 04.07.2022
1195 Clouds 28 1009 67 10000 3.47 98 15:35 04.07.2022
1196 Clouds 30 1008 62 10000 3.79 64 13:47 04.07.2022
1197 Clouds 32 1007 60 10000 4.38 57 12:42 04.07.2022
1198 Clouds 34 1006 45 10000 4.96 49 10:40 04.07.2022
1199 Clouds 34 1005 48 10000 5.17 45 10:22 04.07.2022
1200 Clouds 34 1006 44 10000 4.47 53 09:21 04.07.2022
1201 Clouds 33 1008 51 10000 4.32 81 06:27 04.07.2022
1202 Clouds 27 1008 75 10000 2.37 97 01:49 04.07.2022
1203 Clouds 27 1007 81 10000 2.05 111 23:39 03.07.2022
1204 Clouds 28 1007 80 10000 2.11 116 22:29 03.07.2022
1205 Clouds 27 1007 84 10000 2.12 122 20:45 03.07.2022
1206 Clouds 28 1008 80 10000 2.26 124 19:43 03.07.2022
1207 Clouds 28 1008 79 10000 2.2 119 19:24 03.07.2022
1208 Clouds 28 1008 78 10000 2.12 108 18:23 03.07.2022
1209 Clouds 28 1008 78 10000 2.12 108 17:31 03.07.2022
1210 Clouds 29 1008 77 10000 2.2 97 15:26 03.07.2022
1211 Clouds 29 1008 77 10000 2.2 97 14:49 03.07.2022
1212 Clouds 29 1007 71 10000 1.87 80 13:49 03.07.2022
1213 Clouds 30 1006 65 9696 2.49 59 12:44 03.07.2022
1214 Clouds 32 1005 61 10000 2.91 60 11:47 03.07.2022
1215 Clouds 33 1005 53 10000 3.83 58 10:51 03.07.2022
1216 Clouds 33 1005 52 10000 3.83 58 10:33 03.07.2022
1217 Clouds 34 1007 59 10000 2.27 65 07:38 03.07.2022
1218 Clouds 31 1008 60 10000 1.4 84 05:34 03.07.2022
1219 Clouds 26 1007 82 10000 1.56 183 00:26 03.07.2022
1220 Clouds 27 1007 82 10000 1.56 183 23:36 02.07.2022
1221 Clouds 27 1007 82 10000 1.39 175 22:31 02.07.2022
1222 Clouds 27 1008 75 10000 0.63 162 20:26 02.07.2022
1223 Clouds 27 1008 73 10000 0.63 162 19:49 02.07.2022
1224 Clear 28 1009 72 10000 0.13 69 18:20 02.07.2022
1225 Clear 28 1009 70 10000 0.13 69 17:38 02.07.2022
1226 Clear 29 1009 71 10000 0.78 312 15:46 02.07.2022
1227 Clouds 30 1007 67 10000 3.19 349 12:56 02.07.2022
1228 Clouds 31 1006 61 10000 4.58 357 11:48 02.07.2022
1229 Clouds 33 1005 50 10000 4.6 5 10:50 02.07.2022
1230 Clouds 34 1005 48 10000 3.55 11 09:49 02.07.2022
1231 Clouds 34 1006 49 10000 2.03 8 08:37 02.07.2022
1232 Clouds 34 1006 43 10000 0.61 318 08:19 02.07.2022
1233 Clouds 28 1009 72 10000 1.5 221 02:53 02.07.2022
1234 Clouds 26 1007 76 10000 1.34 194 00:28 02.07.2022
1235 Clouds 27 1007 79 10000 1.34 174 22:59 01.07.2022
1236 Clouds 27 1007 78 10000 1.6 163 22:29 01.07.2022
1237 Clouds 27 1007 74 10000 1.6 163 21:37 01.07.2022
1238 Clouds 27 1008 73 10000 1.87 148 20:58 01.07.2022
1239 Clouds 27 1008 70 10000 2.13 135 20:20 01.07.2022
1240 Clouds 27 1008 73 10000 2.08 138 19:36 01.07.2022
1241 Clouds 28 1009 67 10000 2.6 98 16:41 01.07.2022
1242 Clouds 29 1008 61 10000 3.64 67 14:29 01.07.2022
1243 Clouds 30 1008 60 10000 3.52 66 13:39 01.07.2022
1244 Clouds 33 1006 50 10000 3.87 63 10:54 01.07.2022
1245 Clouds 33 1006 49 10000 3.58 63 10:19 01.07.2022
1246 Clouds 31 1008 54 10000 2.68 76 06:31 01.07.2022
1247 Clouds 27 1010 75 10000 1.87 110 02:43 01.07.2022
1248 Clouds 25 1008 83 10000 1.92 104 23:44 30.06.2022
1249 Clouds 26 1007 81 10000 2.06 99 22:50 30.06.2022
1250 Clouds 26 1007 80 10000 2.06 99 22:31 30.06.2022
1251 Clouds 26 1007 79 10000 2.32 107 21:53 30.06.2022
1252 Clouds 27 1008 77 10000 2.38 114 20:49 30.06.2022
1253 Clouds 27 1009 77 10000 2.05 112 20:21 30.06.2022
1254 Clouds 27 1009 78 10000 2.05 112 19:48 30.06.2022
1255 Clouds 27 1009 79 10000 0.81 145 18:54 30.06.2022
1256 Clouds 27 1010 70 10000 0.54 294 17:56 30.06.2022
1257 Clouds 28 1010 66 10000 1.46 310 17:18 30.06.2022
1258 Clouds 29 1010 67 10000 1.97 313 16:20 30.06.2022
1259 Clouds 29 1008 66 10000 2.6 345 14:20 30.06.2022
1260 Clouds 29 1008 62 10000 3.32 338 13:21 30.06.2022
1261 Clouds 30 1008 61 10000 3.32 338 12:34 30.06.2022
1262 Clouds 30 1007 60 10000 3.74 348 12:34 30.06.2022
1263 Clouds 32 1006 57 10000 4.32 357 10:57 30.06.2022
1264 Clouds 31 1006 63 10000 4.44 0 09:51 30.06.2022
1265 Clouds 31 1007 60 10000 4.24 354 09:23 30.06.2022
1266 Clouds 31 1007 62 10000 3.98 354 07:41 30.06.2022
1267 Clouds 31 1009 61 10000 2.02 28 05:46 30.06.2022
1268 Clouds 24 1008 71 10000 2.63 153 23:56 29.06.2022
1269 Clouds 25 1008 71 10000 2.58 159 22:42 29.06.2022
1270 Clouds 25 1008 72 10000 2.5 161 22:20 29.06.2022
1271 Clouds 25 1008 72 10000 2.43 163 20:56 29.06.2022
1272 Clouds 26 1008 71 10000 2.43 163 20:32 29.06.2022
1273 Clouds 27 1008 78 10000 1.89 174 19:33 29.06.2022
1274 Clouds 27 1009 74 10000 1.08 195 17:40 29.06.2022
1275 Clouds 27 1009 75 10000 0.67 240 16:31 29.06.2022
1276 Clouds 28 1008 75 10000 2.89 351 13:58 29.06.2022
1277 Clouds 29 1007 71 10000 3.41 351 12:38 29.06.2022
1278 Clouds 34 1006 53 10000 3.97 353 10:20 29.06.2022
1279 Clouds 30 1006 55 10000 3.97 353 09:31 29.06.2022
1280 Clear 31 1008 51 10000 0.82 18 07:23 29.06.2022
1281 Clear 30 1009 59 10000 0.94 178 04:48 29.06.2022
1282 Clouds 25 1008 76 10000 1.64 216 00:55 29.06.2022
1283 Clouds 25 1008 75 10000 1.64 216 00:35 29.06.2022
1284 Clouds 26 1007 77 10000 1.98 211 22:53 28.06.2022
1285 Clouds 26 1008 76 10000 2.09 220 22:21 28.06.2022
1286 Clouds 26 1008 79 10000 2.09 220 21:50 28.06.2022
1287 Clouds 26 1008 78 10000 2.09 220 21:30 28.06.2022
1288 Clouds 27 1008 77 10000 1.9 246 20:20 28.06.2022
1289 Clouds 27 1008 79 10000 1.69 229 19:32 28.06.2022
1290 Clouds 27 1009 80 8880 1.03 216 18:42 28.06.2022
1291 Clouds 27 1009 80 10000 0.26 245 17:37 28.06.2022
1292 Clouds 27 1009 81 10000 0.29 104 15:56 28.06.2022
1293 Clouds 27 1009 81 10000 0.29 104 15:56 28.06.2022
1294 Clouds 27 1009 81 10000 0.29 104 15:56 28.06.2022
1295 Clouds 27 1008 80 10000 0.7 88 14:59 28.06.2022
1296 Clouds 28 1008 69 10000 0.68 12 14:20 28.06.2022
1297 Clouds 30 1008 65 10000 1.39 333 13:49 28.06.2022
1298 Clouds 30 1007 65 10000 1.86 344 12:48 28.06.2022
1299 Clouds 31 1006 69 10000 3.41 357 10:46 28.06.2022
1300 Clouds 33 1006 52 10000 3.5 351 09:25 28.06.2022
1301 Clouds 31 1006 60 10000 3.5 351 08:43 28.06.2022
1302 Clouds 31 1008 58 10000 2.13 275 07:26 28.06.2022
1303 Clouds 29 1010 62 10000 1.8 258 04:59 28.06.2022
1304 Clouds 26 1009 80 10000 0.57 155 23:59 27.06.2022
1305 Clouds 26 1009 80 10000 0.57 155 23:36 27.06.2022
1306 Clouds 26 1008 83 10000 0.54 150 22:51 27.06.2022
1307 Clouds 26 1008 83 10000 0.54 143 21:33 27.06.2022
1308 Clouds 26 1008 83 10000 1.11 157 20:44 27.06.2022
1309 Clouds 26 1010 84 10000 2.11 137 18:58 27.06.2022
1310 Clouds 26 1010 83 10000 2.25 128 17:46 27.06.2022
1311 Clouds 27 1010 78 10000 1.42 89 16:18 27.06.2022
1312 Clouds 28 1010 75 10000 0.98 33 14:44 27.06.2022
1313 Clouds 29 1008 69 10000 2.09 355 13:25 27.06.2022
1314 Clouds 29 1008 69 10000 2.09 355 12:52 27.06.2022
1315 Clouds 30 1007 55 10000 1.71 4 10:22 27.06.2022
1316 Clouds 32 1007 56 10000 0.81 334 08:47 27.06.2022
1317 Clouds 32 1008 58 10000 1.26 351 08:19 27.06.2022
1318 Clouds 31 1009 60 10000 0.56 352 06:38 27.06.2022
1319 Clouds 27 1011 90 10000 1.32 210 02:23 27.06.2022
1320 Clouds 26 1010 92 10000 0.88 221 23:49 26.06.2022
1321 Clouds 26 1009 89 10000 0.59 87 21:58 26.06.2022
1322 Clouds 26 1009 90 10000 0.65 96 20:43 26.06.2022
1323 Clouds 26 1010 89 10000 1.55 83 19:27 26.06.2022
1324 Clouds 26 1011 88 10000 2.28 90 18:28 26.06.2022
1325 Clouds 26 1011 85 10000 2.37 97 16:33 26.06.2022
1326 Rain 26 1011 82 10000 3.31 93 14:40 26.06.2022
1327 Rain 27 1010 82 10000 2.99 68 13:38 26.06.2022
1328 Clouds 27 1009 83 10000 2.54 58 13:18 26.06.2022
1329 Clouds 28 1008 68 10000 1.18 16 11:26 26.06.2022
1330 Clouds 30 1008 64 10000 1.11 332 10:26 26.06.2022
1331 Clouds 31 1008 64 10000 1.36 318 09:19 26.06.2022
1332 Clouds 32 1008 56 10000 2.09 323 07:30 26.06.2022
1333 Clouds 26 1009 91 10000 2.23 244 00:49 26.06.2022
1334 Clouds 26 1009 91 10000 2.38 239 00:20 26.06.2022
1335 Clouds 26 1009 93 10000 2.4 238 23:41 25.06.2022
1336 Clouds 25 1008 92 10000 2.42 241 22:55 25.06.2022
1337 Clouds 25 1008 92 10000 2.27 244 22:27 25.06.2022
1338 Clouds 25 1008 92 10000 2.27 244 21:40 25.06.2022
1339 Clouds 25 1009 92 10000 2.28 242 21:18 25.06.2022
1340 Clouds 25 1009 92 10000 2.03 241 20:25 25.06.2022
1341 Clouds 26 1010 90 10000 1.58 250 19:20 25.06.2022
1342 Rain 26 1010 88 10000 1.28 248 17:53 25.06.2022
1343 Clouds 26 1010 88 10000 0.97 261 17:19 25.06.2022
1344 Clouds 26 1010 86 10000 1.38 329 14:59 25.06.2022
1345 Clouds 26 1008 87 10000 2.95 25 13:27 25.06.2022
1346 Clouds 27 1007 83 10000 3.7 19 12:37 25.06.2022
1347 Rain 31 1006 59 10000 3.4 12 10:32 25.06.2022
1348 Clouds 34 1006 50 10000 2.42 16 08:57 25.06.2022
1349 Clouds 34 1006 46 10000 2.42 16 08:35 25.06.2022
1350 Clouds 31 1007 57 10000 1.87 6 07:45 25.06.2022
1351 Clouds 27 1010 70 10000 0.76 204 03:30 25.06.2022
1352 Clouds 26 1008 87 10000 1.52 166 00:34 25.06.2022
1353 Rain 26 1008 86 10000 1.2 161 22:53 24.06.2022
1354 Clouds 26 1008 85 10000 0.89 135 21:34 24.06.2022
1355 Clouds 26 1008 85 10000 0.88 105 20:44 24.06.2022
1356 Clouds 26 1009 84 10000 1.76 107 20:18 24.06.2022
1357 Clouds 26 1009 85 10000 2.31 110 19:20 24.06.2022
1358 Clouds 26 1009 84 10000 2.31 110 18:48 24.06.2022
1359 Clouds 26 1009 84 10000 2.31 110 18:30 24.06.2022
1360 Clouds 27 1010 81 10000 2.66 97 17:19 24.06.2022
1361 Clouds 27 1010 80 10000 3.15 94 15:29 24.06.2022
1362 Clouds 26 1009 80 10000 3.03 103 14:26 24.06.2022
1363 Clouds 27 1009 79 10000 3 103 13:54 24.06.2022
1364 Rain 30 1007 65 10000 2.9 65 11:43 24.06.2022
1365 Clouds 31 1007 64 7930 2.99 47 10:55 24.06.2022
1366 Clouds 30 1007 70 6720 3.47 29 09:49 24.06.2022
1367 Clouds 30 1007 59 10000 2.86 17 09:27 24.06.2022
1368 Clouds 31 1007 61 10000 2.86 17 08:51 24.06.2022
1369 Clouds 33 1009 45 10000 1.86 312 06:48 24.06.2022
1370 Clouds 30 1009 55 10000 1.86 312 06:30 24.06.2022
1371 Clouds 29 1010 58 10000 1.45 305 05:52 24.06.2022
1372 Clouds 26 1009 86 10000 0.99 191 01:21 24.06.2022
1373 Clouds 26 1009 81 10000 1.02 237 22:44 23.06.2022
1374 Clouds 26 1009 80 10000 1.39 216 21:54 23.06.2022
1375 Clouds 27 1009 77 10000 1.48 185 20:54 23.06.2022
1376 Clouds 27 1008 76 10000 2.34 207 20:32 23.06.2022
1377 Clouds 27 1010 75 10000 1.77 133 18:44 23.06.2022
1378 Clouds 28 1010 74 10000 1.99 117 17:45 23.06.2022
1379 Clouds 28 1011 72 10000 2.6 105 16:36 23.06.2022
1380 Clouds 28 1011 70 10000 3.02 88 15:29 23.06.2022
1381 Clouds 28 1011 66 10000 3.02 88 14:59 23.06.2022
1382 Clouds 31 1009 55 10000 3.96 59 12:43 23.06.2022
1383 Clouds 33 1007 45 10000 4.09 45 11:20 23.06.2022
1384 Clouds 34 1007 41 10000 3.58 51 09:30 23.06.2022
1385 Clouds 33 1008 53 10000 0.98 68 07:51 23.06.2022
1386 Clouds 26 1011 91 10000 2.15 127 01:29 23.06.2022
1387 Clouds 25 1010 88 10000 2.08 111 00:25 23.06.2022
1388 Clouds 26 1010 89 10000 1.97 102 23:23 22.06.2022
1389 Clouds 26 1010 86 10000 1.68 109 21:45 22.06.2022
1390 Clouds 26 1010 86 10000 1.68 109 21:45 22.06.2022
1391 Clouds 26 1010 84 10000 1.89 118 20:57 22.06.2022
1392 Clouds 27 1011 81 10000 2.15 127 20:21 22.06.2022
1393 Clouds 27 1011 82 10000 2.15 127 19:48 22.06.2022
1394 Clouds 27 1012 75 10000 3.01 118 17:50 22.06.2022
1395 Clouds 27 1012 74 10000 3.12 102 17:20 22.06.2022
1396 Clouds 28 1012 71 10000 3.29 92 15:53 22.06.2022
1397 Clouds 28 1011 71 10000 3.52 86 15:24 22.06.2022
1398 Clouds 29 1010 70 6878 3.48 81 13:50 22.06.2022
1399 Clouds 29 1009 67 6596 4.26 83 13:25 22.06.2022
1400 Clouds 30 1009 64 6596 4.26 83 12:44 22.06.2022
1401 Clouds 31 1008 62 8335 4.26 71 11:47 22.06.2022
1402 Clouds 30 1007 70 10000 4.65 53 10:54 22.06.2022
1403 Clouds 32 1007 57 10000 4.65 42 09:44 22.06.2022
1404 Clouds 31 1008 67 10000 1.15 41 07:56 22.06.2022
1405 Clouds 28 1010 81 10000 0.42 103 03:30 22.06.2022
1406 Clouds 25 1009 96 10000 1.43 153 01:22 22.06.2022
1407 Clouds 24 1009 95 10000 1.28 148 23:39 21.06.2022
1408 Rain 25 1008 91 10000 0.81 113 21:32 21.06.2022
1409 Clouds 27 1009 83 10000 0.98 80 19:47 21.06.2022
1410 Clouds 27 1009 81 10000 1.18 90 18:30 21.06.2022
1411 Clouds 27 1009 80 10000 2.46 105 16:52 21.06.2022
1412 Clouds 30 1007 62 10000 3.66 103 13:33 21.06.2022
1413 Clouds 32 1006 51 10000 4.12 78 11:30 21.06.2022
1414 Clouds 35 1006 47 10000 3.76 71 09:48 21.06.2022
1415 Clouds 31 1007 57 10000 4.1 74 08:22 21.06.2022
1416 Clouds 33 1008 50 10000 1.76 70 05:41 21.06.2022
1417 Clouds 25 1008 84 10000 0.97 169 00:43 21.06.2022
1418 Clouds 26 1007 83 10000 1.26 208 22:25 20.06.2022
1419 Clouds 26 1007 83 10000 1.26 208 21:50 20.06.2022
1420 Clouds 26 1007 83 10000 1.01 188 20:32 20.06.2022
1421 Clouds 26 1008 82 10000 1 180 19:38 20.06.2022
1422 Clouds 26 1009 81 10000 1.18 170 18:44 20.06.2022
1423 Rain 26 1009 80 10000 1.24 159 17:52 20.06.2022
1424 Clouds 26 1009 78 10000 0.98 158 17:29 20.06.2022
1425 Rain 26 1009 78 10000 0.55 107 15:55 20.06.2022
1426 Clouds 28 1007 71 10000 2.69 8 12:44 20.06.2022
1427 Clouds 32 1006 63 10000 3.97 6 10:41 20.06.2022
1428 Clouds 33 1005 54 10000 3.45 9 09:41 20.06.2022
1429 Clouds 35 1006 50 10000 2.36 10 08:44 20.06.2022
1430 Clouds 31 1008 56 10000 0.76 19 05:55 20.06.2022
1431 Clear 27 1009 84 10000 1.25 135 02:27 20.06.2022
1432 Clear 25 1008 92 10000 1.24 160 00:26 20.06.2022
1433 Clear 26 1008 90 10000 1.2 165 22:59 19.06.2022
1434 Clear 26 1008 88 10000 1.18 146 21:58 19.06.2022
1435 Clear 26 1008 87 10000 1.18 146 21:40 19.06.2022
1436 Clear 27 1009 85 10000 1.41 138 20:39 19.06.2022
1437 Clouds 27 1009 83 10000 1.86 140 19:47 19.06.2022
1438 Clouds 27 1010 81 10000 1.9 140 18:57 19.06.2022
1439 Clouds 27 1010 77 10000 1.9 140 18:30 19.06.2022
1440 Clouds 28 1010 73 10000 2.25 113 17:22 19.06.2022
1441 Clouds 28 1010 73 10000 2.25 113 16:35 19.06.2022
1442 Clouds 29 1010 72 10000 2.25 98 15:42 19.06.2022
1443 Clouds 29 1010 71 10000 2.3 64 14:58 19.06.2022
1444 Clouds 29 1009 71 10000 2.72 51 14:20 19.06.2022
1445 Clouds 29 1009 70 10000 2.72 51 13:36 19.06.2022
1446 Clouds 30 1007 63 10000 3.73 33 11:38 19.06.2022
1447 Clouds 31 1007 60 10000 4.21 29 10:47 19.06.2022
1448 Clear 32 1007 52 10000 3.49 42 08:54 19.06.2022
1449 Clouds 32 1009 63 10000 3.08 70 08:22 19.06.2022
1450 Clouds 32 1010 67 10000 3.22 95 05:44 19.06.2022
1451 Clouds 25 1010 76 10000 1.59 121 02:32 19.06.2022
1452 Clouds 24 1009 84 10000 1.75 145 00:26 19.06.2022
1453 Clouds 24 1009 84 10000 1.75 145 23:36 18.06.2022
1454 Clouds 24 1009 83 10000 1.53 141 22:45 18.06.2022
1455 Clouds 24 1009 82 10000 1.05 114 21:43 18.06.2022
1456 Clouds 24 1010 81 10000 1.15 116 20:49 18.06.2022
1457 Clouds 24 1010 81 10000 1.15 116 20:49 18.06.2022
1458 Clouds 24 1010 82 10000 1.88 121 19:48 18.06.2022
1459 Clouds 25 1011 81 10000 2.06 123 18:54 18.06.2022
1460 Clouds 26 1011 80 10000 2.22 122 17:44 18.06.2022
1461 Clouds 26 1011 78 10000 2.29 108 17:22 18.06.2022
1462 Clouds 27 1011 74 10000 2.31 88 15:38 18.06.2022
1463 Clouds 27 1011 74 10000 2.45 84 14:49 18.06.2022
1464 Clouds 28 1010 71 10000 2.49 68 13:53 18.06.2022
1465 Clouds 31 1009 66 10000 2.78 30 11:58 18.06.2022
1466 Clouds 31 1009 68 10000 2.83 33 10:57 18.06.2022
1467 Clouds 32 1009 62 10000 3.11 19 09:29 18.06.2022
1468 Clouds 32 1010 60 10000 3.11 19 08:37 18.06.2022
1469 Clouds 31 1010 67 10000 1.99 30 07:32 18.06.2022
1470 Clouds 30 1012 69 10000 1.13 108 04:43 18.06.2022
1471 Clouds 24 1010 95 10000 0.84 163 01:27 18.06.2022
1472 Clouds 24 1010 95 10000 0.84 163 01:27 18.06.2022
1473 Clouds 24 1010 97 10000 0.84 163 00:55 18.06.2022
1474 Clouds 24 1010 97 10000 0.92 164 00:22 18.06.2022
1475 Clouds 24 1010 98 10000 0.92 164 23:33 17.06.2022
1476 Clouds 24 1009 94 10000 1.15 150 21:57 17.06.2022
1477 Clouds 24 1010 91 10000 0.22 50 20:29 17.06.2022
1478 Clouds 25 1010 89 10000 0.9 70 19:19 17.06.2022
1479 Clouds 25 1010 84 10000 1.22 92 17:47 17.06.2022
1480 Clouds 26 1011 82 10000 1.46 103 16:44 17.06.2022
1481 Clouds 26 1011 81 10000 1.55 125 16:21 17.06.2022
1482 Clouds 26 1011 80 10000 1.55 125 15:37 17.06.2022
1483 Clouds 26 1011 79 10000 1.94 160 14:23 17.06.2022
1484 Rain 26 1010 79 10000 2.39 109 13:58 17.06.2022
1485 Clouds 26 1010 80 10000 2.39 109 13:38 17.06.2022
1486 Clouds 27 1009 77 10000 3.61 103 12:24 17.06.2022
1487 Clouds 30 1009 69 10000 3.61 103 11:50 17.06.2022
1488 Clouds 30 1009 69 10000 3.61 103 11:32 17.06.2022
1489 Clouds 30 1010 71 10000 4.84 64 08:56 17.06.2022
1490 Clouds 30 1011 70 10000 3.63 71 08:25 17.06.2022
1491 Clouds 30 1011 71 10000 2.35 81 06:42 17.06.2022
1492 Rain 29 1012 71 10000 2.32 87 03:42 17.06.2022
1493 Clouds 25 1011 96 10000 1.38 132 01:55 17.06.2022
1494 Rain 25 1009 93 10000 1.89 112 23:35 16.06.2022
1495 Clouds 25 1009 92 10000 1.65 114 22:41 16.06.2022
1496 Clouds 25 1009 92 10000 1.43 117 21:21 16.06.2022
1497 Clouds 25 1009 92 10000 1.43 117 20:51 16.06.2022
1498 Clouds 25 1009 92 10000 1.43 117 20:32 16.06.2022
1499 Clouds 26 1010 91 10000 2.04 159 19:32 16.06.2022
1500 Clouds 26 1011 89 10000 2.15 126 17:57 16.06.2022
1501 Clouds 26 1011 88 10000 2.15 126 17:35 16.06.2022
1502 Clouds 26 1011 86 10000 2.4 109 16:30 16.06.2022
1503 Clouds 27 1011 85 10000 2.98 96 15:21 16.06.2022
1504 Rain 27 1010 81 10000 3.11 98 14:28 16.06.2022
1505 Clouds 28 1009 75 10000 4.36 86 13:19 16.06.2022
1506 Clouds 28 1009 72 10000 4.36 86 12:35 16.06.2022
1507 Clouds 30 1008 68 10000 4.84 81 11:49 16.06.2022
1508 Clouds 30 1007 65 10000 4.87 78 10:51 16.06.2022
1509 Clouds 31 1007 64 10000 4.49 74 09:43 16.06.2022
1510 Rain 30 1008 65 10000 4.15 77 09:20 16.06.2022
1511 Rain 30 1009 65 10000 4.35 78 07:57 16.06.2022
1512 Rain 30 1009 62 10000 2.54 84 07:24 16.06.2022
1513 Clouds 30 1011 67 10000 1.75 113 04:33 16.06.2022
1514 Clouds 25 1010 98 10000 1.34 174 01:54 16.06.2022
1515 Clouds 24 1010 98 10000 1.34 174 01:34 16.06.2022
1516 Clouds 24 1010 98 10000 1.41 170 00:38 16.06.2022
1517 Clouds 24 1009 99 10000 0.94 170 23:25 15.06.2022
1518 Clouds 24 1009 99 10000 1 177 22:28 15.06.2022
1519 Clouds 24 1009 99 10000 1.43 180 21:21 15.06.2022
1520 Clouds 25 1009 99 10000 1.43 180 20:38 15.06.2022
1521 Clouds 24 1010 99 10000 1.41 164 20:19 15.06.2022
1522 Clouds 24 1010 74 10000 2.26 124 19:19 15.06.2022
1523 Clouds 25 1011 73 10000 2.43 108 17:55 15.06.2022
1524 Clouds 25 1011 71 10000 2.53 106 16:40 15.06.2022
1525 Rain 25 1011 69 10000 2.8 103 15:35 15.06.2022
1526 Clouds 31 1010 69 10000 3.64 88 13:44 15.06.2022
1527 Clouds 31 1009 68 10000 3.98 85 12:54 15.06.2022
1528 Rain 31 1009 66 10000 4.71 78 11:52 15.06.2022
1529 Rain 31 1009 63 10000 5.03 69 10:24 15.06.2022
1530 Clouds 32 1008 63 10000 5.03 69 09:39 15.06.2022
1531 Rain 31 1009 66 10000 5 70 08:37 15.06.2022
1532 Rain 30 1010 66 10000 2.47 68 06:34 15.06.2022
1533 Rain 27 1011 83 10000 1.42 114 03:59 15.06.2022
1534 Clouds 26 1010 92 10000 1.27 128 01:54 15.06.2022
1535 Clouds 25 1009 93 10000 1.43 149 00:50 15.06.2022
1536 Clouds 25 1009 92 10000 1.48 135 23:39 14.06.2022
1537 Rain 25 1008 92 10000 1.68 135 23:18 14.06.2022
1538 Clouds 25 1008 91 10000 1.83 122 22:18 14.06.2022
1539 Clouds 25 1008 90 10000 1.83 122 21:33 14.06.2022
1540 Clouds 25 1009 88 10000 1.67 121 20:54 14.06.2022
1541 Clouds 25 1009 87 10000 1.8 123 20:28 14.06.2022
1542 Clouds 25 1010 85 10000 2.16 117 18:56 14.06.2022
1543 Clouds 25 1010 83 10000 2.33 115 17:40 14.06.2022
1544 Clouds 25 1011 81 10000 2.32 112 16:43 14.06.2022
1545 Clouds 25 1011 81 10000 2.39 101 15:50 14.06.2022
1546 Clouds 25 1010 81 10000 2.52 98 15:24 14.06.2022
1547 Clouds 26 1010 80 10000 2.52 98 14:32 14.06.2022
1548 Clouds 26 1009 77 10000 1.85 63 13:41 14.06.2022
1549 Clouds 28 1008 72 10000 2.92 48 12:44 14.06.2022
1550 Clouds 32 1008 56 10000 3.71 37 11:32 14.06.2022
1551 Rain 32 1008 55 10000 3.38 36 10:47 14.06.2022
1552 Clouds 32 1007 62 10000 2.59 37 10:20 14.06.2022
1553 Clouds 32 1008 57 10000 2 47 08:47 14.06.2022
1554 Clouds 32 1009 58 10000 1.56 2 07:33 14.06.2022
1555 Clouds 32 1011 64 10000 0.51 97 05:22 14.06.2022
1556 Clouds 27 1011 78 10000 1.19 185 02:58 14.06.2022
1557 Clouds 26 1009 91 10000 0.79 140 00:53 14.06.2022
1558 Clouds 25 1009 93 10000 0.91 169 23:39 13.06.2022
1559 Clouds 25 1009 94 10000 0.95 169 22:26 13.06.2022
1560 Clouds 25 1009 95 10000 0.95 169 21:52 13.06.2022
1561 Clouds 25 1009 96 10000 1.26 182 20:42 13.06.2022
1562 Clouds 25 1010 96 10000 1.27 157 19:35 13.06.2022
1563 Clouds 25 1011 97 10000 0.99 113 18:28 13.06.2022
1564 Clouds 25 1011 98 10000 0.99 112 17:47 13.06.2022
1565 Clouds 25 1011 98 10000 0.95 125 16:53 13.06.2022
1566 Clouds 26 1011 77 10000 0.92 115 15:40 13.06.2022
1567 Clouds 26 1010 75 10000 0.17 286 14:47 13.06.2022
1568 Clouds 26 1009 74 10000 0.69 277 13:55 13.06.2022
1569 Rain 27 1009 73 10000 0.99 290 12:49 13.06.2022
1570 Rain 30 1008 66 10000 1.76 308 11:37 13.06.2022
1571 Clouds 33 1008 59 10000 1.97 301 10:27 13.06.2022
1572 Clouds 33 1008 63 10000 1.97 301 09:42 13.06.2022
1573 Clouds 33 1009 63 10000 1.24 331 08:25 13.06.2022
1574 Clouds 32 1010 63 10000 0.76 309 06:34 13.06.2022
1575 Clouds 28 1012 70 10000 0.61 144 03:45 13.06.2022
1576 Clouds 25 1010 99 10000 0.42 264 01:38 13.06.2022
1577 Clouds 25 1010 96 10000 0.38 238 00:48 13.06.2022
1578 Clouds 25 1009 96 10000 0.77 196 23:31 12.06.2022
1579 Clouds 26 1009 99 10000 1.08 173 22:23 12.06.2022
1580 Clouds 26 1009 99 10000 1.08 173 21:40 12.06.2022
1581 Clouds 25 1009 99 10000 1.64 135 20:40 12.06.2022
1582 Clouds 26 1009 99 10000 1.67 139 19:41 12.06.2022
1583 Clouds 26 1010 99 10000 1.56 151 18:44 12.06.2022
1584 Rain 26 1011 99 10000 0.68 161 16:44 12.06.2022
1585 Clouds 26 1011 99 10000 0.06 310 15:32 12.06.2022
1586 Clouds 27 1010 72 10000 0.45 287 14:41 12.06.2022
1587 Clouds 27 1009 70 10000 1.07 287 14:18 12.06.2022
1588 Clouds 27 1009 71 10000 1.87 275 13:43 12.06.2022
1589 Clouds 30 1008 67 10000 1.85 347 11:58 12.06.2022
1590 Clouds 31 1007 66 10000 2.13 9 10:46 12.06.2022
1591 Clouds 30 1007 60 10000 2.03 12 09:36 12.06.2022
1592 Clouds 33 1007 64 10000 1.73 7 08:49 12.06.2022
1593 Clouds 33 1008 65 10000 0.67 346 07:47 12.06.2022
1594 Clouds 30 1010 66 10000 0.51 177 05:51 12.06.2022
1595 Clouds 28 1011 73 10000 0.6 89 03:38 12.06.2022
1596 Clouds 26 1010 93 10000 1.01 131 01:49 12.06.2022
1597 Clouds 25 1009 93 10000 1.16 136 01:22 12.06.2022
1598 Clouds 25 1009 93 10000 1.16 136 00:36 12.06.2022
1599 Clouds 25 1009 92 10000 1.55 142 00:18 12.06.2022
1600 Clouds 25 1009 93 10000 1.34 167 22:53 11.06.2022
1601 Clouds 25 1009 93 10000 1.95 196 22:29 11.06.2022
1602 Clouds 26 1010 91 10000 3.09 214 21:18 11.06.2022
1603 Clouds 25 1010 90 10000 3.44 219 20:26 11.06.2022
1604 Clouds 26 1010 90 10000 2.13 208 19:33 11.06.2022
1605 Clouds 26 1011 88 10000 2.18 203 18:37 11.06.2022
1606 Clouds 26 1011 88 10000 2.18 203 18:37 11.06.2022
1607 Clouds 26 1011 87 10000 1.82 179 17:58 11.06.2022
1608 Clouds 26 1011 86 10000 1.82 179 17:38 11.06.2022
1609 Clouds 26 1011 86 10000 1.67 115 17:19 11.06.2022
1610 Clouds 26 1011 84 10000 1.67 115 16:38 11.06.2022
1611 Rain 27 1010 84 9492 2.08 81 15:46 11.06.2022
1612 Clouds 28 1009 78 10000 2.8 56 13:54 11.06.2022
1613 Clouds 28 1009 78 10000 2.8 56 13:36 11.06.2022
1614 Clouds 31 1007 66 10000 2.64 48 11:36 11.06.2022
1615 Clouds 32 1007 61 10000 3.83 46 10:29 11.06.2022
1616 Clouds 32 1007 56 10000 3.83 46 09:40 11.06.2022
1617 Rain 32 1008 69 10000 3.07 69 07:58 11.06.2022
1618 Clouds 33 1009 69 10000 2.32 61 06:32 11.06.2022
1619 Clouds 32 1010 70 10000 1.75 86 05:26 11.06.2022
1620 Clouds 27 1010 87 10000 1.3 133 02:34 11.06.2022
1621 Clouds 26 1010 97 10000 1.31 142 01:41 11.06.2022
1622 Rain 25 1009 95 10000 1.46 135 00:37 11.06.2022
1623 Clouds 26 1008 94 10000 1.58 144 22:38 10.06.2022
1624 Rain 26 1008 93 10000 1.49 137 22:20 10.06.2022
1625 Clouds 26 1008 85 10000 1.7 127 21:22 10.06.2022
1626 Clouds 26 1008 83 10000 1.7 127 20:36 10.06.2022
1627 Rain 26 1009 83 10000 1.58 108 20:18 10.06.2022
1628 Clouds 26 1010 85 10000 1.29 90 19:18 10.06.2022
1629 Clouds 26 1010 85 10000 1.29 90 19:18 10.06.2022
1630 Clouds 27 1010 85 10000 0.79 91 18:20 10.06.2022
1631 Clouds 27 1010 84 10000 0.79 91 17:41 10.06.2022
1632 Clouds 27 1010 83 10000 0.61 78 16:59 10.06.2022
1633 Clouds 28 1010 77 10000 0.85 60 16:20 10.06.2022
1634 Clouds 29 1010 71 10000 0.85 60 15:36 10.06.2022
1635 Clouds 29 1009 70 10000 2.58 33 13:55 10.06.2022
1636 Clouds 30 1008 67 10000 3.3 29 12:48 10.06.2022
1637 Clouds 31 1007 64 10000 3.87 30 11:41 10.06.2022
1638 Clouds 32 1006 65 10000 3.86 34 10:44 10.06.2022
1639 Clouds 32 1006 61 10000 3.52 34 09:44 10.06.2022
1640 Clouds 32 1007 63 10000 2.58 36 08:30 10.06.2022
1641 Clouds 32 1007 65 10000 1.09 123 07:24 10.06.2022
1642 Clouds 32 1008 58 10000 1.09 123 06:43 10.06.2022
1643 Clouds 31 1008 66 10000 1.47 116 06:24 10.06.2022
1644 Clouds 29 1009 72 10000 2.11 123 03:52 10.06.2022
1645 Clouds 24 1009 99 10000 1.66 168 01:41 10.06.2022
1646 Clouds 24 1009 99 10000 1.32 174 00:28 10.06.2022
1647 Clouds 24 1009 99 10000 1.32 174 23:38 09.06.2022
1648 Clouds 24 1008 99 10000 1.11 164 22:18 09.06.2022
1649 Clouds 24 1008 99 10000 1.11 164 21:33 09.06.2022
1650 Clouds 24 1009 99 10000 1.16 156 20:54 09.06.2022
1651 Clouds 24 1009 99 10000 0.74 143 20:21 09.06.2022
1652 Clouds 25 1010 99 10000 0.64 155 19:19 09.06.2022
1653 Clouds 25 1010 99 10000 0.94 208 18:21 09.06.2022
1654 Clouds 25 1011 99 10000 0.94 212 16:51 09.06.2022
1655 Rain 25 1011 99 10000 0.8 202 15:48 09.06.2022
1656 Rain 25 1011 99 10000 0.8 202 15:48 09.06.2022
1657 Rain 25 1011 99 10000 0.97 220 14:35 09.06.2022
1658 Rain 25 1010 71 10000 1.18 83 13:51 09.06.2022
1659 Rain 31 1010 72 10000 1.79 70 13:27 09.06.2022
1660 Rain 31 1009 69 10000 2.33 63 11:54 09.06.2022
1661 Rain 25 1008 67 10000 2.76 59 11:18 09.06.2022
1662 Rain 29 1008 68 10000 3.91 54 09:44 09.06.2022
1663 Clouds 32 1008 68 10000 4.42 48 09:23 09.06.2022
1664 Clouds 31 1009 66 10000 1.57 37 07:45 09.06.2022
1665 Clouds 31 1009 66 10000 1.57 37 07:45 09.06.2022
1666 Clouds 32 1010 68 10000 0.61 86 06:28 09.06.2022
1667 Clouds 28 1010 80 10000 0.56 127 02:52 09.06.2022
1668 Clouds 25 1008 90 10000 1.51 126 23:39 08.06.2022
1669 Clouds 25 1008 89 10000 1.72 125 22:58 08.06.2022
1670 Clouds 26 1008 89 10000 2.05 130 22:27 08.06.2022
1671 Clouds 26 1008 88 10000 2.05 130 21:54 08.06.2022
1672 Clouds 26 1008 88 10000 2.14 123 21:21 08.06.2022
1673 Clouds 26 1009 85 10000 2.36 116 20:20 08.06.2022
1674 Clouds 26 1009 84 10000 2.12 117 19:38 08.06.2022
1675 Clouds 27 1010 84 10000 2.16 116 18:43 08.06.2022
1676 Rain 27 1010 83 10000 1.76 119 17:18 08.06.2022
1677 Clouds 27 1010 80 10000 1.7 110 15:44 08.06.2022
1678 Clouds 28 1009 70 10000 1.73 62 13:51 08.06.2022
1679 Clouds 31 1007 63 10000 3.18 34 11:52 08.06.2022
1680 Clouds 31 1008 63 10000 3.98 25 11:29 08.06.2022
1681 Rain 31 1007 66 10000 4.03 19 09:59 08.06.2022
1682 Rain 31 1007 68 10000 3.34 27 09:21 08.06.2022
1683 Rain 31 1008 68 10000 2.69 38 08:26 08.06.2022
1684 Rain 32 1010 66 10000 2.87 101 05:55 08.06.2022
1685 Clouds 30 1010 71 10000 2.21 115 03:55 08.06.2022
1686 Clouds 25 1009 99 10000 1.92 123 00:38 08.06.2022
1687 Clouds 25 1008 98 10000 2.11 121 23:28 07.06.2022
1688 Clouds 25 1008 97 10000 2.11 121 22:45 07.06.2022
1689 Rain 25 1008 97 10000 2.26 125 22:26 07.06.2022
1690 Rain 25 1008 96 10000 2.26 125 21:34 07.06.2022
1691 Rain 25 1009 96 10000 2.2 123 20:58 07.06.2022
1692 Rain 25 1009 96 10000 2.2 123 20:32 07.06.2022
1693 Rain 27 1009 86 10000 2.18 123 19:38 07.06.2022
1694 Clouds 27 1010 82 10000 2.52 113 18:23 07.06.2022
1695 Clouds 28 1010 77 10000 2.73 103 17:27 07.06.2022
1696 Clouds 28 1010 74 10000 2.73 103 16:43 07.06.2022
1697 Clouds 28 1010 74 10000 2.75 97 15:54 07.06.2022
1698 Clouds 28 1010 74 10000 2.97 90 15:26 07.06.2022
1699 Clouds 28 1010 74 10000 2.97 90 14:50 07.06.2022
1700 Clouds 28 1010 72 10000 2.97 90 14:32 07.06.2022
1701 Clouds 29 1008 74 10000 4.14 76 13:31 07.06.2022
1702 Clouds 29 1008 71 10000 4.14 76 12:49 07.06.2022
1703 Clouds 32 1007 61 10000 4.62 69 11:47 07.06.2022
1704 Clouds 32 1007 63 10000 4.18 66 10:27 07.06.2022
1705 Clouds 32 1007 62 10000 4.27 69 08:50 07.06.2022
1706 Clouds 33 1008 51 10000 3.19 69 07:34 07.06.2022
1707 Clouds 32 1009 61 10000 2.77 81 06:22 07.06.2022
1708 Clouds 28 1010 73 10000 2.29 107 03:32 07.06.2022
1709 Clouds 24 1008 97 10000 1.08 118 00:45 07.06.2022
1710 Clouds 24 1007 96 10000 1.17 117 23:46 06.06.2022
1711 Clouds 24 1007 96 10000 0.72 120 22:54 06.06.2022
1712 Clouds 24 1007 96 10000 0.59 159 22:28 06.06.2022
1713 Clouds 25 1007 94 10000 0.38 117 20:42 06.06.2022
1714 Clouds 25 1008 93 10000 1.69 149 19:24 06.06.2022
1715 Clouds 25 1008 93 10000 1.72 148 18:48 06.06.2022
1716 Clouds 24 1009 96 10000 1.92 140 17:59 06.06.2022
1717 Clouds 24 1009 97 10000 2.71 141 16:57 06.06.2022
1718 Clouds 24 1009 97 10000 2.71 141 16:57 06.06.2022
1719 Rain 25 1010 98 10000 2.81 130 15:57 06.06.2022
1720 Rain 24 1009 99 10000 1.91 140 14:59 06.06.2022
1721 Rain 25 1009 74 10000 1.3 146 14:26 06.06.2022
1722 Rain 28 1008 72 10000 0.3 170 13:20 06.06.2022
1723 Clouds 29 1008 70 10000 0.3 170 12:35 06.06.2022
1724 Clouds 30 1008 68 10000 1.01 309 11:49 06.06.2022
1725 Clouds 31 1008 65 10000 2.51 304 09:53 06.06.2022
1726 Rain 30 1008 69 10000 3.19 273 09:18 06.06.2022
1727 Clouds 30 1008 69 10000 3.19 273 08:31 06.06.2022
1728 Clouds 30 1010 80 10000 2.95 262 07:24 06.06.2022
1729 Clouds 29 1011 82 10000 2.65 238 04:42 06.06.2022
1730 Clouds 26 1010 87 10000 2.79 221 02:19 06.06.2022
1731 Clouds 25 1009 88 10000 2.52 141 00:57 06.06.2022
1732 Clouds 25 1009 88 10000 2.52 141 00:57 06.06.2022
1733 Clouds 25 1009 88 10000 2.54 141 00:35 06.06.2022
1734 Clouds 25 1008 90 10000 2 134 23:28 05.06.2022
1735 Clouds 25 1008 90 10000 2 134 22:33 05.06.2022
1736 Rain 25 1009 90 10000 1.8 184 20:34 05.06.2022
1737 Rain 25 1010 89 10000 0.87 202 19:26 05.06.2022
1738 Clouds 26 1010 86 10000 0.78 174 18:26 05.06.2022
1739 Clouds 26 1010 86 10000 0.76 174 17:50 05.06.2022
1740 Clouds 26 1010 85 10000 0.28 87 17:23 05.06.2022
1741 Clouds 26 1010 84 10000 0.28 85 16:49 05.06.2022
1742 Clouds 25 1010 71 10000 0.56 32 15:47 05.06.2022
1743 Clouds 26 1009 80 10000 1.42 15 14:22 05.06.2022
1744 Clouds 27 1008 82 10000 2.97 15 12:43 05.06.2022
1745 Rain 28 1007 81 10000 4.04 19 11:35 05.06.2022
1746 Clouds 31 1007 67 10000 2.75 24 10:25 05.06.2022
1747 Clouds 31 1007 69 10000 2.75 24 09:58 05.06.2022
1748 Clouds 33 1008 57 10000 1.69 42 08:26 05.06.2022
1749 Clouds 34 1009 48 10000 1.16 33 06:54 05.06.2022
1750 Clouds 31 1011 60 10000 0.32 101 05:20 05.06.2022
1751 Clouds 29 1011 66 10000 0.73 173 03:38 05.06.2022
1752 Clouds 26 1010 82 10000 1.42 158 01:32 05.06.2022
1753 Clouds 26 1009 80 10000 1.39 162 23:58 04.06.2022
1754 Clouds 26 1009 76 10000 1.63 164 21:49 04.06.2022
1755 Clouds 26 1010 78 10000 1.43 160 20:21 04.06.2022
1756 Clouds 26 1011 81 10000 0.5 131 18:18 04.06.2022
1757 Clouds 27 1011 81 10000 0.28 66 16:43 04.06.2022
1758 Clouds 27 1011 80 10000 0.5 359 16:18 04.06.2022
1759 Clouds 27 1010 72 10000 0.97 355 14:47 04.06.2022
1760 Clouds 31 1008 65 10000 2.86 2 12:28 04.06.2022
1761 Clouds 32 1007 60 10000 3.77 11 10:58 04.06.2022
1762 Rain 32 1007 53 10000 3.53 13 10:26 04.06.2022
1763 Rain 33 1007 52 10000 3.53 13 09:42 04.06.2022
1764 Clouds 33 1008 64 10000 2.62 6 08:40 04.06.2022
1765 Clouds 33 1008 56 10000 1.64 360 07:40 04.06.2022
1766 Clouds 30 1011 65 10000 0.66 64 04:57 04.06.2022
1767 Clouds 25 1010 86 10000 1.52 168 01:25 04.06.2022
1768 Clouds 26 1009 87 10000 1.59 157 23:59 03.06.2022
1769 Clouds 26 1009 86 10000 1.55 149 22:40 03.06.2022
1770 Clouds 26 1010 85 10000 1.73 131 21:24 03.06.2022
1771 Clouds 26 1010 84 10000 1.73 131 20:33 03.06.2022
1772 Clouds 27 1010 80 10000 1.4 127 18:23 03.06.2022
1773 Clouds 27 1011 77 10000 0.86 145 16:47 03.06.2022
1774 Clouds 27 1010 71 10000 0.82 295 15:23 03.06.2022
1775 Clouds 29 1009 71 10000 2.41 2 13:22 03.06.2022
1776 Clouds 30 1008 62 10000 2.88 15 11:40 03.06.2022
1777 Clouds 33 1007 53 10000 2.63 5 09:45 03.06.2022
1778 Clouds 34 1007 51 10000 2.05 359 08:58 03.06.2022
1779 Clouds 32 1009 64 10000 0.73 56 07:27 03.06.2022
1780 Clouds 32 1009 64 10000 0.73 56 06:35 03.06.2022
1781 Clouds 31 1010 70 10000 0.71 75 05:52 03.06.2022
1782 Clouds 25 1009 99 10000 2.04 190 00:30 03.06.2022
1783 Clouds 25 1010 99 10000 1.78 189 22:47 02.06.2022
1784 Clouds 25 1010 99 10000 2.19 182 21:51 02.06.2022
1785 Rain 25 1011 99 10000 2.85 197 20:22 02.06.2022
1786 Rain 25 1011 99 10000 2.85 197 20:22 02.06.2022
1787 Rain 25 1011 99 10000 2.85 197 19:50 02.06.2022
1788 Rain 25 1010 99 10000 1.76 180 19:31 02.06.2022
1789 Clouds 26 1011 99 10000 2.88 158 17:35 02.06.2022
1790 Rain 25 1011 99 10000 1.69 149 16:28 02.06.2022
1791 Rain 30 1010 69 10000 1.19 64 14:22 02.06.2022
1792 Rain 30 1010 68 10000 1.28 71 13:30 02.06.2022
1793 Rain 28 1008 65 10000 1.57 18 12:21 02.06.2022
1794 Rain 28 1007 53 10000 2.78 358 10:20 02.06.2022
1795 Clouds 33 1007 52 10000 2.34 351 09:28 02.06.2022
1796 Clouds 34 1008 50 10000 1.7 338 08:27 02.06.2022
1797 Clouds 32 1008 54 10000 2.32 344 07:33 02.06.2022
1798 Clouds 31 1010 61 10000 0.45 181 04:54 02.06.2022
1799 Clouds 28 1010 72 10000 1.16 180 02:48 02.06.2022
1800 Clouds 26 1009 84 10000 1.24 189 23:50 01.06.2022
1801 Clouds 26 1008 83 10000 1.46 161 22:51 01.06.2022
1802 Clouds 26 1008 81 10000 1.79 144 21:37 01.06.2022
1803 Clouds 26 1008 81 10000 2.26 134 20:59 01.06.2022
1804 Clouds 26 1008 80 10000 2.26 134 20:37 01.06.2022
1805 Clouds 27 1009 77 10000 2.34 150 19:31 01.06.2022
1806 Clouds 27 1009 75 10000 2.36 139 17:46 01.06.2022
1807 Clouds 28 1010 72 10000 1.99 159 16:40 01.06.2022
1808 Rain 28 1009 72 10000 1.75 219 15:18 01.06.2022
1809 Rain 30 1008 68 10000 3.16 234 13:54 01.06.2022
1810 Clouds 31 1007 63 10000 3.44 265 12:28 01.06.2022
1811 Clouds 34 1006 58 10000 3.26 277 10:25 01.06.2022
1812 Clouds 33 1007 64 10000 3.08 270 09:24 01.06.2022
1813 Clouds 32 1008 62 10000 0.14 66 07:25 01.06.2022
1814 Clouds 32 1009 66 10000 0.14 66 06:40 01.06.2022
1815 Clouds 25 1008 93 10000 2.13 216 01:29 01.06.2022
1816 Clouds 24 1008 94 10000 2.54 231 23:41 31.05.2022
1817 Clouds 25 1008 93 10000 2.57 227 22:37 31.05.2022
1818 Clouds 25 1008 92 10000 2.5 241 21:46 31.05.2022
1819 Clouds 25 1008 93 10000 2.27 233 20:52 31.05.2022
1820 Clouds 25 1008 93 10000 2.27 233 20:31 31.05.2022
1821 Clouds 25 1009 92 10000 1.78 211 18:54 31.05.2022
1822 Clouds 25 1009 93 10000 2.26 205 17:51 31.05.2022
1823 Clouds 25 1009 93 10000 2.63 220 17:20 31.05.2022
1824 Clouds 26 1009 91 10000 3.24 233 15:42 31.05.2022
1825 Clouds 30 1009 75 10000 3.84 249 14:34 31.05.2022
1826 Rain 31 1008 66 10000 3.88 271 12:22 31.05.2022
1827 Rain 31 1007 65 10000 3.86 271 11:42 31.05.2022
1828 Clouds 32 1007 62 10000 4.4 294 09:49 31.05.2022
1829 Clouds 31 1008 64 10000 3.49 281 07:41 31.05.2022
1830 Clouds 31 1008 64 10000 3.49 281 07:41 31.05.2022
1831 Clouds 31 1009 65 10000 1.95 229 05:24 31.05.2022
1832 Clear 27 1010 71 10000 1.28 202 02:33 31.05.2022
1833 Clouds 25 1008 86 10000 1.55 214 23:29 30.05.2022
1834 Clouds 25 1008 91 10000 1.55 214 22:59 30.05.2022
1835 Clouds 25 1008 92 10000 1.55 214 22:31 30.05.2022
1836 Clear 25 1008 91 10000 1.83 223 21:35 30.05.2022
1837 Clear 25 1008 91 10000 1.68 231 20:31 30.05.2022
1838 Clouds 26 1009 92 10000 1.64 243 19:26 30.05.2022
1839 Clouds 26 1009 88 10000 1.75 237 17:43 30.05.2022
1840 Clouds 26 1009 86 10000 1.73 234 16:54 30.05.2022
1841 Clear 26 1009 85 10000 1.14 241 15:43 30.05.2022
1842 Clouds 30 1007 72 10000 1.5 330 12:58 30.05.2022
1843 Clouds 30 1006 68 10000 3.4 350 11:26 30.05.2022
1844 Clouds 31 1007 67 10000 3.76 351 09:39 30.05.2022
1845 Clear 31 1009 64 10000 1.71 352 07:24 30.05.2022
1846 Clear 32 1010 63 10000 0.76 349 05:51 30.05.2022
1847 Clear 29 1010 72 10000 1.08 152 03:18 30.05.2022
1848 Clouds 26 1008 77 10000 1.97 236 23:32 29.05.2022
1849 Clouds 26 1008 77 10000 2.31 243 22:40 29.05.2022
1850 Clouds 26 1008 76 10000 2.47 252 21:40 29.05.2022
1851 Clouds 26 1008 81 10000 2.96 244 19:57 29.05.2022
1852 Clouds 26 1009 81 10000 3.23 250 19:28 29.05.2022
1853 Clouds 26 1009 80 10000 3.56 254 17:56 29.05.2022
1854 Clouds 27 1009 77 10000 4.2 260 15:59 29.05.2022
1855 Clouds 27 1009 76 10000 4.2 260 15:40 29.05.2022
1856 Clouds 27 1009 71 10000 4.64 256 14:44 29.05.2022
1857 Clouds 32 1007 64 10000 5.19 278 12:21 29.05.2022
1858 Clouds 32 1007 64 10000 5.98 289 10:45 29.05.2022
1859 Clouds 32 1006 63 10000 5.57 290 09:52 29.05.2022
1860 Clouds 32 1008 66 10000 3.53 255 07:28 29.05.2022
1861 Clouds 30 1010 68 10000 2.89 233 04:51 29.05.2022
1862 Clouds 29 1010 70 10000 2.89 233 04:31 29.05.2022
1863 Rain 23 1010 99 10000 3.55 245 00:48 29.05.2022
1864 Rain 23 1010 99 10000 4.04 266 23:42 28.05.2022
1865 Rain 23 1009 99 10000 4.52 255 22:56 28.05.2022
1866 Rain 23 1009 99 10000 4.95 243 21:45 28.05.2022
1867 Rain 23 1009 77 6091 2.53 234 20:40 28.05.2022
1868 Clouds 30 1010 73 10000 1.74 203 19:19 28.05.2022
1869 Clouds 27 1011 81 10000 1.48 217 18:19 28.05.2022
1870 Clouds 30 1010 72 10000 1.37 242 16:57 28.05.2022
1871 Clouds 30 1010 71 10000 1.01 280 15:45 28.05.2022
1872 Clouds 31 1010 71 10000 1.41 333 15:19 28.05.2022
1873 Clouds 30 1008 68 10000 2.98 312 13:27 28.05.2022
1874 Clouds 30 1008 68 10000 2.98 312 13:27 28.05.2022
1875 Clouds 30 1008 65 10000 2.98 312 12:42 28.05.2022
1876 Clouds 31 1008 63 10000 4.41 340 11:28 28.05.2022
1877 Clouds 31 1007 61 10000 4.41 340 10:32 28.05.2022
1878 Clouds 32 1007 58 10000 4.67 345 09:46 28.05.2022
1879 Rain 31 1008 66 10000 1.81 345 07:56 28.05.2022
1880 Clouds 30 1009 66 10000 0.84 333 06:32 28.05.2022
1881 Rain 30 1010 66 10000 1.01 38 04:39 28.05.2022
1882 Rain 23 1010 84 10000 2.31 104 01:30 28.05.2022
1883 Clouds 25 1009 87 10000 2.69 112 23:55 27.05.2022
1884 Clouds 25 1009 86 10000 2.28 126 22:32 27.05.2022
1885 Rain 25 1009 83 7215 0.9 131 21:22 27.05.2022
1886 Rain 26 1009 83 7215 0.9 131 20:42 27.05.2022
1887 Clouds 25 1009 80 10000 0.55 174 20:18 27.05.2022
1888 Clouds 26 1009 79 10000 0.49 88 19:36 27.05.2022
1889 Clouds 27 1010 79 10000 0.4 101 19:18 27.05.2022
1890 Clouds 28 1010 75 8119 0.76 12 16:43 27.05.2022
1891 Clouds 28 1010 73 10000 1.05 2 15:47 27.05.2022
1892 Clouds 29 1009 63 10000 1.43 357 14:47 27.05.2022
1893 Clouds 30 1008 61 10000 2.27 337 13:40 27.05.2022
1894 Clouds 32 1007 59 10000 3.11 357 11:53 27.05.2022
1895 Clouds 32 1006 58 10000 3.67 352 11:27 27.05.2022
1896 Clouds 33 1006 56 10000 3.68 353 10:37 27.05.2022
1897 Clouds 33 1006 56 10000 4.02 343 09:58 27.05.2022
1898 Clear 34 1007 55 10000 3.92 333 09:28 27.05.2022
1899 Clouds 32 1008 64 10000 1.84 323 06:58 27.05.2022
1900 Clouds 29 1010 61 10000 1.13 220 03:38 27.05.2022
1901 Clouds 25 1009 96 10000 1.5 216 01:19 27.05.2022
1902 Clouds 25 1008 94 10000 1.38 223 23:23 26.05.2022
1903 Clouds 25 1008 89 10000 1.76 228 21:53 26.05.2022
1904 Clouds 26 1009 87 10000 1.56 238 21:27 26.05.2022
1905 Clouds 26 1010 82 10000 1.25 263 19:34 26.05.2022
1906 Clouds 26 1010 80 10000 1.36 279 18:31 26.05.2022
1907 Clouds 26 1010 78 10000 1.12 281 17:36 26.05.2022
1908 Clouds 27 1010 76 10000 0.98 26 16:18 26.05.2022
1909 Clouds 27 1010 71 10000 1.88 45 15:19 26.05.2022
1910 Clouds 28 1009 67 10000 2.19 49 13:58 26.05.2022
1911 Clouds 29 1008 64 10000 2.93 81 11:59 26.05.2022
1912 Clouds 30 1007 65 10000 3.38 93 11:18 26.05.2022
1913 Rain 30 1007 62 10000 4.07 101 09:38 26.05.2022
1914 Rain 30 1008 65 10000 2.89 96 08:39 26.05.2022
1915 Clouds 29 1011 70 10000 2.72 3 05:30 26.05.2022
1916 Clouds 26 1011 86 10000 1.29 266 02:20 26.05.2022
1917 Clouds 26 1010 89 10000 2.03 251 23:53 25.05.2022
1918 Clouds 26 1010 91 10000 2.28 249 22:52 25.05.2022
1919 Clouds 26 1010 91 10000 2.56 249 21:42 25.05.2022
1920 Clouds 26 1010 92 10000 2.4 257 20:49 25.05.2022
1921 Clouds 26 1010 89 10000 2.37 258 19:42 25.05.2022
1922 Clouds 26 1011 90 10000 2.39 259 18:47 25.05.2022
1923 Clouds 26 1011 88 10000 2.04 261 17:24 25.05.2022
1924 Clouds 26 1011 86 10000 2.04 261 16:33 25.05.2022
1925 Clouds 26 1011 79 10000 1.55 252 15:36 25.05.2022
1926 Clouds 27 1010 77 10000 0.99 261 14:50 25.05.2022
1927 Clouds 27 1010 77 10000 0.99 261 14:32 25.05.2022
1928 Rain 27 1009 77 10000 2.62 20 13:23 25.05.2022
1929 Rain 30 1009 70 10000 3.49 20 11:50 25.05.2022
1930 Rain 31 1008 67 10000 3.71 23 10:41 25.05.2022
1931 Rain 31 1008 67 10000 3.65 32 09:38 25.05.2022
1932 Clouds 32 1010 63 10000 3.64 53 07:36 25.05.2022
1933 Clouds 33 1011 60 10000 3.68 81 05:41 25.05.2022
1934 Clouds 29 1011 76 10000 2.93 103 02:41 25.05.2022
1935 Clouds 27 1010 83 10000 1.79 123 23:50 24.05.2022
1936 Rain 27 1010 83 10000 1.96 132 22:59 24.05.2022
1937 Rain 27 1010 83 10000 1.96 132 22:59 24.05.2022
1938 Clouds 28 1010 82 10000 2.29 135 21:58 24.05.2022
1939 Clouds 28 1010 82 10000 2.29 135 21:37 24.05.2022
1940 Clouds 28 1010 77 10000 1.83 140 21:19 24.05.2022
1941 Clouds 28 1011 75 10000 2.24 124 19:27 24.05.2022
1942 Clouds 28 1012 74 10000 2.46 113 18:29 24.05.2022
1943 Clouds 29 1012 71 10000 2.62 94 16:39 24.05.2022
1944 Clouds 29 1011 69 10000 3.01 82 15:52 24.05.2022
1945 Clouds 29 1011 65 10000 3.64 74 14:41 24.05.2022
1946 Clouds 30 1010 64 10000 4.06 72 13:48 24.05.2022
1947 Clouds 33 1008 60 10000 5.39 77 12:31 24.05.2022
1948 Clouds 33 1008 57 10000 5.58 78 09:52 24.05.2022
1949 Clouds 33 1008 56 10000 5.6 78 09:27 24.05.2022
1950 Clouds 34 1008 57 10000 5.6 78 08:42 24.05.2022
1951 Clouds 33 1010 60 10000 4.65 82 06:42 24.05.2022
1952 Clouds 32 1010 65 10000 3.82 102 03:48 24.05.2022
1953 Clouds 28 1009 72 10000 3.04 107 01:47 24.05.2022
1954 Clouds 27 1009 77 10000 2.63 115 00:53 24.05.2022
1955 Clouds 27 1008 76 10000 2.78 116 22:29 23.05.2022
1956 Clouds 27 1008 78 10000 2.78 116 21:53 23.05.2022
1957 Clouds 27 1008 79 10000 3.28 108 20:55 23.05.2022
1958 Clouds 27 1009 80 10000 3.78 103 20:21 23.05.2022
1959 Clouds 27 1009 76 10000 3.59 98 19:30 23.05.2022
1960 Clouds 28 1009 74 10000 4.14 104 18:42 23.05.2022
1961 Clouds 28 1010 73 10000 4.28 103 18:22 23.05.2022
1962 Clouds 29 1010 71 10000 4.43 101 16:51 23.05.2022
1963 Clouds 29 1009 70 10000 4.36 91 14:49 23.05.2022
1964 Clouds 31 1007 62 10000 4.52 78 12:30 23.05.2022
1965 Clouds 32 1007 57 10000 4.36 66 11:26 23.05.2022
1966 Clouds 33 1006 59 10000 4.35 67 09:50 23.05.2022
1967 Clouds 33 1006 60 10000 4.3 73 09:23 23.05.2022
1968 Clouds 32 1007 59 10000 3.78 73 07:48 23.05.2022
1969 Clouds 32 1008 60 10000 3.46 80 06:45 23.05.2022
1970 Clouds 31 1009 64 10000 2.99 94 05:25 23.05.2022
1971 Clouds 26 1009 88 10000 1.94 143 02:23 23.05.2022
1972 Clouds 26 1009 95 10000 2.48 112 01:37 23.05.2022
1973 Clouds 25 1008 93 10000 2.11 129 23:51 22.05.2022
1974 Clouds 26 1007 90 10000 2.44 140 22:35 22.05.2022
1975 Clouds 26 1007 88 10000 2.76 129 21:55 22.05.2022
1976 Clouds 26 1007 86 10000 2.84 114 20:54 22.05.2022
1977 Clouds 26 1007 85 10000 2.84 114 20:31 22.05.2022
1978 Clouds 26 1008 84 10000 2.82 101 19:56 22.05.2022
1979 Clouds 27 1009 83 10000 2.39 96 18:55 22.05.2022
1980 Clouds 26 1009 75 10000 2.91 101 18:25 22.05.2022
1981 Clouds 26 1009 75 10000 2.91 101 17:34 22.05.2022
1982 Clouds 26 1009 74 10000 2.95 109 16:36 22.05.2022
1983 Clouds 26 1008 72 10000 3.54 101 14:49 22.05.2022
1984 Clouds 28 1007 76 10000 2.85 102 13:48 22.05.2022
1985 Clouds 28 1007 70 10000 3.06 85 12:52 22.05.2022
1986 Clouds 31 1006 66 10000 3.54 73 11:47 22.05.2022
1987 Clouds 32 1006 63 10000 3.99 64 09:45 22.05.2022
1988 Clouds 32 1006 63 10000 3.83 69 08:54 22.05.2022
1989 Rain 31 1008 64 10000 4.04 87 07:22 22.05.2022
1990 Clouds 31 1009 64 10000 3.49 90 06:24 22.05.2022
1991 Clouds 27 1010 86 10000 2.83 94 02:33 22.05.2022
1992 Rain 26 1009 82 10000 1.7 107 00:44 22.05.2022
1993 Clouds 26 1008 77 10000 0.88 118 23:55 21.05.2022
1994 Clouds 26 1008 80 10000 0.08 148 23:21 21.05.2022
1995 Clouds 27 1007 75 10000 0.61 139 21:47 21.05.2022
1996 Clouds 27 1007 75 10000 1.55 161 21:26 21.05.2022
1997 Clouds 27 1008 76 10000 2.31 175 20:25 21.05.2022
1998 Clouds 27 1009 75 7199 1.85 325 19:37 21.05.2022
1999 Clouds 26 1010 81 10000 1.25 322 18:21 21.05.2022
2000 Clouds 26 1010 83 10000 0.54 96 16:55 21.05.2022
2001 Clouds 26 1010 81 10000 2.23 112 14:38 21.05.2022
2002 Clouds 28 1009 71 10000 2.56 100 13:53 21.05.2022
2003 Clouds 30 1009 70 10000 3.03 92 12:57 21.05.2022
2004 Clouds 30 1009 62 10000 3.03 92 12:37 21.05.2022
2005 Clouds 33 1008 54 10000 3.59 78 10:45 21.05.2022
2006 Clouds 32 1008 63 10000 3.37 74 09:49 21.05.2022
2007 Clouds 32 1008 62 10000 3.28 74 08:58 21.05.2022
2008 Clouds 30 1008 67 10000 3.28 74 08:34 21.05.2022
2009 Clouds 30 1011 66 10000 3.46 80 05:28 21.05.2022
2010 Rain 25 1009 99 10000 1.06 179 00:58 21.05.2022
2011 Rain 25 1009 99 10000 1.35 192 23:29 20.05.2022
2012 Rain 25 1009 97 10000 1.59 188 22:24 20.05.2022
2013 Clouds 25 1009 98 10000 1.59 188 21:49 20.05.2022
2014 Clouds 25 1009 96 10000 1.68 188 20:58 20.05.2022
2015 Clouds 25 1010 95 10000 1.8 183 20:29 20.05.2022
2016 Clouds 25 1010 92 10000 1.48 211 19:29 20.05.2022
2017 Clouds 25 1010 91 10000 1.48 211 18:47 20.05.2022
2018 Clouds 26 1011 91 9338 0.85 235 17:43 20.05.2022
2019 Clouds 26 1011 91 10000 1 297 16:21 20.05.2022
2020 Clouds 26 1011 94 10000 1 297 15:53 20.05.2022
2021 Clouds 25 1010 75 10000 1.23 296 14:31 20.05.2022
2022 Clouds 25 1009 73 10000 1.43 316 13:56 20.05.2022
2023 Rain 30 1008 67 10000 2.78 353 11:49 20.05.2022
2024 Clouds 32 1007 67 10000 2.8 30 10:24 20.05.2022
2025 Clouds 31 1007 71 10000 2.94 40 08:50 20.05.2022
2026 Clouds 34 1008 54 10000 2.23 49 07:40 20.05.2022
2027 Clouds 34 1009 51 10000 1.75 48 06:38 20.05.2022
2028 Clouds 33 1011 57 10000 0.82 61 05:28 20.05.2022
2029 Clouds 26 1010 98 10000 0.78 213 00:54 20.05.2022
2030 Clouds 25 1009 99 10000 1.13 248 23:25 19.05.2022
2031 Clouds 25 1009 99 10000 1.13 248 22:33 19.05.2022
2032 Clouds 25 1009 99 10000 0.96 245 21:49 19.05.2022
2033 Clouds 25 1009 99 10000 0.84 258 21:23 19.05.2022
2034 Clouds 25 1009 99 10000 0.84 258 20:40 19.05.2022
2035 Clouds 25 1010 99 10000 0.5 265 19:54 19.05.2022
2036 Clouds 25 1011 99 8467 0.6 260 18:58 19.05.2022
2037 Clouds 26 1011 99 10000 0.95 276 17:35 19.05.2022
2038 Clouds 25 1012 99 10000 0.44 356 15:33 19.05.2022
2039 Clouds 25 1011 76 8419 0.91 5 14:30 19.05.2022
2040 Clouds 25 1010 71 10000 1.91 357 13:53 19.05.2022
2041 Rain 31 1010 70 10000 3.56 6 11:52 19.05.2022
2042 Clouds 32 1009 69 10000 4.41 356 10:25 19.05.2022
2043 Clouds 33 1009 59 10000 3.68 357 08:31 19.05.2022
2044 Clouds 32 1011 64 10000 1.94 6 06:39 19.05.2022
2045 Clouds 30 1012 76 10000 1.02 140 02:57 19.05.2022
2046 Clouds 25 1011 99 10000 1.06 172 00:56 19.05.2022
2047 Clouds 25 1010 77 10000 0.85 200 23:00 18.05.2022
2048 Clouds 25 1010 77 10000 0.86 201 22:40 18.05.2022
2049 Clouds 25 1010 77 10000 0.63 212 21:32 18.05.2022
2050 Clouds 26 1010 76 10000 0.93 239 20:55 18.05.2022
2051 Clouds 26 1010 76 10000 0.91 239 20:55 18.05.2022
2052 Clouds 26 1010 99 10000 1.31 242 20:19 18.05.2022
2053 Clouds 26 1011 99 10000 1.95 255 18:46 18.05.2022
2054 Clouds 26 1011 99 10000 2.02 261 17:41 18.05.2022
2055 Clouds 26 1012 99 10000 1.51 264 17:23 18.05.2022
2056 Clouds 26 1012 99 10000 1.3 284 16:36 18.05.2022
2057 Clouds 26 1012 73 10000 1.29 284 15:42 18.05.2022
2058 Clouds 26 1012 72 10000 1.42 317 15:19 18.05.2022
2059 Clouds 27 1011 69 10000 1.77 333 13:53 18.05.2022
2060 Clouds 27 1009 69 10000 2.22 338 12:53 18.05.2022
2061 Rain 27 1009 66 10000 2.82 334 11:47 18.05.2022
2062 Clouds 34 1010 63 10000 3.83 346 11:29 18.05.2022
2063 Clouds 33 1008 63 10000 3.57 5 09:59 18.05.2022
2064 Clouds 34 1009 58 10000 1.72 53 07:56 18.05.2022
2065 Clouds 34 1010 59 10000 0.99 50 06:50 18.05.2022
2066 Clouds 28 1012 80 10000 1.84 130 02:47 18.05.2022
2067 Clouds 26 1010 93 10000 2.23 128 00:31 18.05.2022
2068 Clouds 26 1009 91 10000 2.25 124 22:59 17.05.2022
2069 Clouds 27 1010 93 10000 2.41 113 21:21 17.05.2022
2070 Clouds 27 1010 93 10000 2.41 113 21:21 17.05.2022
2071 Clouds 27 1010 93 10000 2.41 113 20:38 17.05.2022
2072 Clouds 27 1010 95 10000 2.23 109 19:29 17.05.2022
2073 Rain 27 1011 98 10000 2.32 107 18:22 17.05.2022
2074 Clouds 26 1011 99 10000 2.38 98 17:28 17.05.2022
2075 Clouds 26 1011 99 10000 2.38 98 16:36 17.05.2022
2076 Clouds 28 1011 96 10000 2.71 91 15:43 17.05.2022
2077 Clouds 30 1011 71 10000 2.85 77 14:31 17.05.2022
2078 Clouds 30 1010 72 10000 2.69 62 13:54 17.05.2022
2079 Clouds 31 1009 70 10000 2.83 53 12:32 17.05.2022
2080 Clouds 33 1008 63 10000 4.25 30 09:53 17.05.2022
2081 Clouds 33 1008 60 10000 2.75 35 08:45 17.05.2022
2082 Clouds 33 1009 57 10000 1.57 45 07:40 17.05.2022
2083 Clouds 31 1011 65 10000 1.24 125 04:33 17.05.2022
2084 Clouds 26 1009 92 10000 1.1 225 00:47 17.05.2022
2085 Clouds 26 1008 89 10000 1.67 228 22:51 16.05.2022
2086 Clouds 26 1008 90 10000 1.67 228 22:30 16.05.2022
2087 Clouds 26 1009 92 10000 1.23 206 20:56 16.05.2022
2088 Clouds 26 1009 93 10000 1.12 205 20:25 16.05.2022
2089 Clouds 26 1010 90 10000 0.62 161 18:39 16.05.2022
2090 Clouds 27 1010 73 10000 0.6 354 16:41 16.05.2022
2091 Clouds 26 1010 71 10000 1.12 3 14:48 16.05.2022
2092 Clouds 27 1009 70 10000 1.65 349 13:27 16.05.2022
2093 Rain 28 1008 67 10000 2.42 342 11:42 16.05.2022
2094 Clouds 33 1007 64 10000 2.99 358 10:30 16.05.2022
2095 Clouds 34 1009 60 10000 2.46 340 07:47 16.05.2022
2096 Clouds 33 1010 61 10000 0.86 316 05:40 16.05.2022
2097 Clouds 25 1010 96 10000 1.1 182 00:35 16.05.2022
2098 Clouds 25 1009 95 10000 1.66 174 22:39 15.05.2022
2099 Clouds 26 1009 94 10000 1.32 166 21:54 15.05.2022
2100 Clouds 26 1009 95 10000 1.32 166 21:34 15.05.2022
2101 Clouds 26 1009 95 10000 1.34 191 20:35 15.05.2022
2102 Clouds 26 1010 96 10000 1.57 221 18:30 15.05.2022
2103 Clouds 26 1011 94 10000 2.31 213 16:37 15.05.2022
2104 Rain 26 1010 75 4246 0.43 250 14:18 15.05.2022
2105 Rain 26 1010 75 4246 0.43 250 13:44 15.05.2022
2106 Rain 30 1008 69 10000 2.64 357 11:55 15.05.2022
2107 Clouds 31 1008 64 10000 3.37 360 10:43 15.05.2022
2108 Clouds 31 1008 72 10000 4.1 360 08:58 15.05.2022
2109 Clouds 34 1009 59 10000 1.26 18 07:22 15.05.2022
2110 Clouds 34 1010 58 10000 1.26 18 06:42 15.05.2022
2111 Clouds 29 1012 74 10000 0.92 131 02:38 15.05.2022
2112 Clouds 26 1010 89 10000 0.92 159 00:22 15.05.2022
2113 Clouds 27 1010 88 10000 0.92 159 23:35 14.05.2022
2114 Clouds 27 1009 91 10000 1.3 148 21:45 14.05.2022
2115 Clouds 27 1010 93 10000 1.1 126 21:25 14.05.2022
2116 Clouds 27 1010 91 10000 1.54 100 20:25 14.05.2022
2117 Clouds 28 1011 86 10000 1.09 57 19:20 14.05.2022
2118 Clouds 28 1011 85 10000 1.09 57 18:57 14.05.2022
2119 Clouds 28 1011 84 10000 0.98 66 17:44 14.05.2022
2120 Clouds 28 1011 81 10000 1.07 52 15:58 14.05.2022
2121 Clouds 29 1011 77 10000 1.65 41 14:38 14.05.2022
2122 Clouds 30 1009 72 10000 2.81 24 13:24 14.05.2022
2123 Clouds 30 1008 85 10000 3.69 18 11:42 14.05.2022
2124 Clouds 34 1007 62 10000 4.71 16 10:43 14.05.2022
2125 Clouds 33 1007 61 10000 4.11 11 10:18 14.05.2022
2126 Clouds 34 1008 63 10000 2.35 10 09:23 14.05.2022
2127 Clouds 34 1009 58 10000 0.6 86 07:26 14.05.2022
2128 Clouds 33 1011 59 10000 0.84 132 04:32 14.05.2022
2129 Clouds 27 1009 82 10000 1.88 220 00:25 14.05.2022
2130 Clouds 27 1008 83 10000 1.92 228 23:25 13.05.2022
2131 Clouds 27 1008 83 10000 1.92 228 22:54 13.05.2022
2132 Clouds 27 1008 83 10000 2.03 227 22:21 13.05.2022
2133 Clouds 27 1008 82 10000 2.13 238 20:58 13.05.2022
2134 Clouds 27 1008 82 10000 1.87 223 20:32 13.05.2022
2135 Clouds 27 1009 82 10000 2.33 234 19:51 13.05.2022
2136 Clouds 27 1009 82 10000 2.36 244 18:56 13.05.2022
2137 Clouds 27 1010 75 10000 2.64 255 17:30 13.05.2022
2138 Clouds 28 1010 74 10000 3.29 269 16:29 13.05.2022
2139 Clouds 29 1010 73 10000 3.29 269 15:45 13.05.2022
2140 Clouds 30 1009 65 10000 3.36 292 14:29 13.05.2022
2141 Clouds 32 1008 59 10000 4.14 299 12:51 13.05.2022
2142 Clouds 33 1007 59 10000 3.97 313 11:39 13.05.2022
2143 Clouds 34 1007 57 10000 4.71 327 09:54 13.05.2022
2144 Clouds 35 1007 56 10000 4.78 325 09:26 13.05.2022
2145 Clouds 35 1008 54 10000 4.23 311 07:51 13.05.2022
2146 Clouds 34 1009 59 10000 4.72 286 06:50 13.05.2022
2147 Clouds 33 1010 63 10000 4.3 270 04:54 13.05.2022
2148 Clouds 26 1009 80 10000 2.07 230 00:57 13.05.2022
2149 Clouds 26 1008 82 10000 3.54 242 22:49 12.05.2022
2150 Clouds 26 1008 82 10000 3.54 242 22:30 12.05.2022
2151 Clouds 27 1008 76 10000 4.32 243 20:49 12.05.2022
2152 Clouds 28 1009 78 10000 4.72 242 19:49 12.05.2022
2153 Clouds 28 1009 77 10000 5.97 236 18:25 12.05.2022
2154 Clouds 28 1009 77 10000 5.97 236 18:25 12.05.2022
2155 Clouds 28 1010 74 10000 6.01 241 16:44 12.05.2022
2156 Clouds 29 1009 75 10000 5.96 246 14:57 12.05.2022
2157 Clouds 31 1008 68 10000 5.7 246 13:48 12.05.2022
2158 Clouds 31 1006 71 10000 6.91 250 11:48 12.05.2022
2159 Clouds 31 1006 52 10000 6.65 252 10:32 12.05.2022
2160 Clouds 34 1006 51 10000 5.01 261 08:52 12.05.2022
2161 Clouds 32 1007 50 10000 4.96 256 07:59 12.05.2022
2162 Clouds 31 1008 51 10000 3.49 256 07:22 12.05.2022
2163 Clouds 32 1010 62 10000 1.51 204 03:50 12.05.2022
2164 Rain 27 1009 79 10000 2.01 206 01:29 12.05.2022
2165 Clouds 27 1008 78 10000 1.69 202 23:18 11.05.2022
2166 Clouds 27 1008 81 10000 1.5 211 22:18 11.05.2022
2167 Clouds 27 1008 90 10000 1.34 236 21:25 11.05.2022
2168 Clouds 27 1008 83 10000 0.88 270 20:20 11.05.2022
2169 Clouds 28 1009 81 10000 1.38 113 17:33 11.05.2022
2170 Clouds 29 1009 79 10000 1.33 81 16:27 11.05.2022
2171 Clouds 29 1008 76 10000 1.67 65 14:48 11.05.2022
2172 Clouds 29 1007 75 10000 1.61 48 14:25 11.05.2022
2173 Clouds 30 1007 71 10000 1.6 321 12:54 11.05.2022
2174 Clouds 32 1006 64 10000 2.78 321 11:48 11.05.2022
2175 Clouds 34 1005 59 10000 4.45 335 09:29 11.05.2022
2176 Clouds 33 1009 62 10000 3.3 307 06:30 11.05.2022
2177 Rain 26 1009 94 10000 1 190 02:18 11.05.2022
2178 Rain 25 1007 99 10000 1.7 140 22:58 10.05.2022
2179 Rain 24 1007 79 10000 1.51 140 22:24 10.05.2022
2180 Rain 24 1007 79 10000 1.51 140 21:40 10.05.2022
2181 Rain 23 1007 79 10000 1.37 136 20:34 10.05.2022
2182 Clouds 30 1008 77 10000 1.77 127 18:49 10.05.2022
2183 Clouds 30 1009 72 10000 1.7 124 17:38 10.05.2022
2184 Clouds 30 1009 70 10000 2.5 76 16:24 10.05.2022
2185 Rain 31 1008 71 10000 2.7 50 13:31 10.05.2022
2186 Clouds 33 1006 61 10000 3.42 34 11:54 10.05.2022
2187 Clouds 33 1006 61 10000 3.44 34 11:32 10.05.2022
2188 Clouds 33 1005 60 10000 4.32 26 10:56 10.05.2022
2189 Clouds 34 1005 59 10000 4.78 20 09:47 10.05.2022
2190 Clouds 34 1006 62 10000 2.87 14 08:18 10.05.2022
2191 Clouds 34 1008 58 10000 2.37 52 06:20 10.05.2022
2192 Clouds 27 1008 88 10000 0.91 168 01:54 10.05.2022
2193 Clouds 26 1007 91 10000 1.3 121 23:45 09.05.2022
2194 Clouds 26 1007 90 10000 1.71 135 22:36 09.05.2022
2195 Clouds 26 1007 89 10000 1.63 132 21:39 09.05.2022
2196 Clouds 26 1008 88 10000 1.13 116 20:20 09.05.2022
2197 Clouds 26 1009 86 10000 1.74 113 18:25 09.05.2022
2198 Rain 26 1009 77 10000 2.11 105 17:25 09.05.2022
2199 Rain 26 1009 76 10000 2.88 99 16:19 09.05.2022
2200 Rain 26 1009 76 10000 2.88 99 15:47 09.05.2022
2201 Rain 27 1009 73 10000 2.96 79 14:36 09.05.2022
2202 Rain 29 1008 73 10000 3.18 68 13:57 09.05.2022
2203 Rain 28 1007 85 10000 3.65 54 13:21 09.05.2022
2204 Rain 31 1006 60 10000 3.97 36 11:53 09.05.2022
2205 Clouds 33 1006 60 10000 4.16 29 10:48 09.05.2022
2206 Clouds 33 1005 61 10000 4.1 27 10:23 09.05.2022
2207 Clouds 34 1007 60 10000 3.62 44 07:57 09.05.2022
2208 Clouds 32 1008 66 10000 2.08 93 04:52 09.05.2022
2209 Clouds 27 1007 84 10000 0.85 135 00:59 09.05.2022
2210 Clouds 27 1007 75 10000 1.26 137 23:28 08.05.2022
2211 Clouds 27 1007 77 10000 1.26 137 22:32 08.05.2022
2212 Clouds 28 1007 77 10000 1.28 108 21:20 08.05.2022
2213 Clouds 27 1007 77 10000 1.75 160 20:23 08.05.2022
2214 Clouds 27 1007 76 10000 1.75 160 19:33 08.05.2022
2215 Clouds 28 1008 74 10000 1.39 174 18:38 08.05.2022
2216 Clouds 29 1008 72 10000 1.56 182 17:39 08.05.2022
2217 Clouds 30 1008 67 10000 0.72 234 15:46 08.05.2022
2218 Clouds 30 1008 65 10000 1.48 281 15:22 08.05.2022
2219 Clouds 33 1006 51 10000 3.17 305 12:48 08.05.2022
2220 Clouds 33 1005 54 10000 3.06 302 11:45 08.05.2022
2221 Clouds 36 1004 47 10000 1.98 285 10:25 08.05.2022
2222 Clouds 35 1004 51 10000 1.98 285 09:53 08.05.2022
2223 Clouds 35 1006 61 10000 2.33 251 07:44 08.05.2022
2224 Clouds 31 1008 59 10000 3.47 242 05:57 08.05.2022
2225 Clouds 29 1009 73 10000 3.78 247 03:22 08.05.2022
2226 Clouds 26 1008 82 10000 3.39 237 00:48 08.05.2022
2227 Clouds 26 1007 82 10000 2.44 234 23:56 07.05.2022
2228 Clouds 26 1007 83 10000 2.07 219 23:28 07.05.2022
2229 Clouds 26 1007 83 10000 2.11 220 22:35 07.05.2022
2230 Clouds 26 1007 84 10000 1.95 204 21:55 07.05.2022
2231 Clouds 27 1007 84 10000 2.1 216 21:21 07.05.2022
2232 Clouds 27 1008 84 10000 2.06 227 20:23 07.05.2022
2233 Clouds 27 1008 76 10000 1.31 213 18:41 07.05.2022
2234 Clouds 27 1009 76 10000 1.35 194 16:34 07.05.2022
2235 Clouds 28 1008 75 10000 1.76 234 14:53 07.05.2022
2236 Clouds 31 1005 70 10000 2.39 324 11:23 07.05.2022
2237 Clouds 31 1005 74 10000 3.31 332 09:42 07.05.2022
2238 Clouds 35 1006 62 10000 3.67 345 08:30 07.05.2022
2239 Clouds 34 1007 60 10000 1.91 7 07:19 07.05.2022
2240 Clouds 35 1008 57 10000 1.91 7 06:42 07.05.2022
2241 Clouds 30 1009 69 10000 0.71 105 03:57 07.05.2022
2242 Clouds 27 1006 86 10000 1.45 175 23:44 06.05.2022
2243 Clouds 27 1006 86 10000 1.22 189 22:35 06.05.2022
2244 Clouds 27 1007 83 10000 0.69 171 21:52 06.05.2022
2245 Clouds 27 1007 83 10000 0.71 164 21:24 06.05.2022
2246 Clouds 27 1007 76 10000 1 135 19:43 06.05.2022
2247 Clouds 27 1008 75 10000 1.12 142 19:21 06.05.2022
2248 Clouds 28 1008 75 10000 1.44 135 18:29 06.05.2022
2249 Clouds 28 1008 74 10000 1.44 135 17:34 06.05.2022
2250 Clouds 29 1008 72 10000 2.06 90 15:51 06.05.2022
2251 Clouds 29 1007 72 7800 2.34 74 15:18 06.05.2022
2252 Clouds 30 1006 71 10000 3.21 41 13:45 06.05.2022
2253 Clouds 31 1005 69 10000 3.87 31 12:47 06.05.2022
2254 Clouds 32 1005 57 10000 4.25 28 11:58 06.05.2022
2255 Clouds 32 1004 58 10000 4.32 31 10:41 06.05.2022
2256 Clouds 35 1004 51 10000 4.22 36 09:47 06.05.2022
2257 Clouds 36 1005 51 10000 3.76 45 09:18 06.05.2022
2258 Clouds 35 1006 60 10000 3.49 52 07:40 06.05.2022
2259 Clouds 33 1007 57 10000 2.93 86 06:25 06.05.2022
2260 Clouds 29 1008 71 10000 2.15 98 02:54 06.05.2022
2261 Clouds 28 1007 80 10000 2.17 107 01:57 06.05.2022
2262 Clouds 27 1006 80 10000 2.56 124 22:50 05.05.2022
2263 Clouds 27 1007 78 10000 2.59 125 21:46 05.05.2022
2264 Clear 28 1007 76 10000 2.59 116 20:34 05.05.2022
2265 Clouds 27 1008 77 10000 3.01 104 18:43 05.05.2022
2266 Clouds 29 1008 72 10000 3.3 86 16:40 05.05.2022
2267 Clouds 29 1008 71 10000 3.67 84 14:59 05.05.2022
2268 Clouds 30 1006 68 10000 3.72 43 13:29 05.05.2022
2269 Clouds 31 1006 64 10000 3.7 43 12:55 05.05.2022
2270 Clouds 32 1005 62 10000 4.05 38 10:59 05.05.2022
2271 Clouds 34 1005 50 10000 4 37 09:40 05.05.2022
2272 Clouds 35 1006 55 10000 3.24 40 08:34 05.05.2022
2273 Clouds 34 1008 62 10000 0.81 31 06:23 05.05.2022
2274 Clouds 27 1009 81 10000 1.16 221 02:23 05.05.2022
2275 Clouds 26 1009 93 10000 1.42 229 01:37 05.05.2022
2276 Clouds 26 1008 93 10000 1.57 247 23:57 04.05.2022
2277 Clouds 26 1008 92 10000 1.47 240 22:54 04.05.2022
2278 Clouds 26 1008 91 10000 1.3 208 21:59 04.05.2022
2279 Clouds 26 1008 88 10000 1.3 208 21:30 04.05.2022
2280 Clouds 26 1009 88 10000 1.34 179 20:42 04.05.2022
2281 Clouds 26 1009 87 10000 1.58 155 19:59 04.05.2022
2282 Clouds 26 1009 85 10000 1.51 164 19:35 04.05.2022
2283 Clouds 26 1011 85 10000 1.54 116 18:23 04.05.2022
2284 Clouds 26 1011 85 10000 1.54 116 17:59 04.05.2022
2285 Clouds 26 1011 80 10000 2.16 57 16:29 04.05.2022
2286 Rain 27 1011 78 10000 2.16 57 15:32 04.05.2022
2287 Rain 27 1011 77 10000 2.2 44 14:38 04.05.2022
2288 Clouds 27 1010 75 10000 2.62 31 14:18 04.05.2022
2289 Clouds 29 1009 77 8356 3.72 3 12:36 04.05.2022
2290 Clouds 32 1008 68 10000 4.66 355 11:25 04.05.2022
2291 Rain 33 1008 63 10000 5.47 355 09:50 04.05.2022
2292 Rain 33 1008 61 10000 4 352 08:56 04.05.2022
2293 Clouds 33 1008 65 10000 3.18 330 07:33 04.05.2022
2294 Clouds 32 1010 66 10000 2.02 260 04:34 04.05.2022
2295 Clouds 28 1010 81 10000 1.71 241 02:33 04.05.2022
2296 Clouds 26 1008 92 10000 2.16 247 22:59 03.05.2022
2297 Clouds 26 1008 90 10000 2.09 247 21:47 03.05.2022
2298 Clouds 26 1008 89 10000 1.68 240 21:23 03.05.2022
2299 Clouds 26 1008 89 10000 1.68 240 20:39 03.05.2022
2300 Clouds 26 1009 89 10000 1.28 185 19:21 03.05.2022
2301 Clouds 27 1009 89 10000 1.28 185 18:42 03.05.2022
2302 Clouds 27 1009 87 10000 1.96 133 17:20 03.05.2022
2303 Clouds 27 1009 87 10000 1.96 133 17:20 03.05.2022
2304 Clouds 28 1010 83 10000 2.16 121 15:51 03.05.2022
2305 Rain 28 1008 80 10000 2.65 78 14:23 03.05.2022
2306 Rain 29 1007 75 10000 2.02 54 12:35 03.05.2022
2307 Rain 32 1007 65 10000 3.96 44 11:24 03.05.2022
2308 Clouds 33 1007 62 10000 4.62 39 10:26 03.05.2022
2309 Clouds 34 1008 58 10000 4.18 72 08:19 03.05.2022
2310 Clouds 33 1009 56 10000 3.35 87 06:45 03.05.2022
2311 Clouds 25 1009 99 10000 1.54 143 01:59 03.05.2022
2312 Clouds 25 1007 99 10000 1.61 127 22:56 02.05.2022
2313 Clouds 25 1007 99 10000 1.68 131 22:28 02.05.2022
2314 Clouds 25 1007 99 10000 1.65 131 21:37 02.05.2022
2315 Clouds 25 1008 99 10000 1.83 168 19:26 02.05.2022
2316 Clouds 25 1009 99 10000 2.3 170 18:26 02.05.2022
2317 Clouds 25 1009 99 10000 2.32 170 17:39 02.05.2022
2318 Rain 25 1009 99 10000 2.38 170 16:43 02.05.2022
2319 Rain 25 1009 80 10000 1.23 142 15:41 02.05.2022
2320 Rain 24 1009 78 10000 0.74 108 14:45 02.05.2022
2321 Rain 24 1008 77 10000 1.13 48 13:42 02.05.2022
2322 Rain 28 1006 79 7228 2.25 49 11:41 02.05.2022
2323 Clouds 33 1006 69 9342 2.95 40 09:45 02.05.2022
2324 Clouds 33 1007 68 10000 2.44 56 08:29 02.05.2022
2325 Clouds 34 1008 61 10000 1.9 68 06:53 02.05.2022
2326 Clouds 26 1009 96 10000 0.96 156 00:47 02.05.2022
2327 Clouds 26 1009 96 10000 0.96 156 00:47 02.05.2022
2328 Clouds 26 1008 98 10000 1.14 138 00:22 02.05.2022
2329 Clouds 26 1007 97 10000 1.15 136 22:55 01.05.2022
2330 Clouds 26 1007 96 10000 1.06 145 21:43 01.05.2022
2331 Clouds 26 1007 96 10000 1.03 153 20:36 01.05.2022
2332 Clouds 26 1008 94 10000 1.64 154 19:27 01.05.2022
2333 Clouds 26 1008 92 10000 1.64 154 18:53 01.05.2022
2334 Clouds 26 1009 92 10000 1.65 140 17:50 01.05.2022
2335 Clouds 26 1009 90 10000 1.62 115 16:38 01.05.2022
2336 Clouds 27 1009 88 10000 1.48 89 15:57 01.05.2022
2337 Clouds 27 1009 87 10000 2.05 74 14:45 01.05.2022
2338 Clouds 30 1007 75 6992 2.73 71 12:52 01.05.2022
2339 Clouds 33 1005 63 10000 3.98 46 10:36 01.05.2022
2340 Clouds 33 1006 59 10000 3.13 46 08:50 01.05.2022
2341 Clouds 28 1008 72 10000 2.46 91 06:50 01.05.2022
2342 Rain 27 1009 95 10000 1.94 125 02:31 01.05.2022
2343 Clouds 26 1007 97 10000 1.4 144 22:51 30.04.2022
2344 Clouds 26 1007 97 10000 1.4 144 22:51 30.04.2022
2345 Clouds 26 1007 94 10000 0.99 122 21:33 30.04.2022
2346 Clouds 26 1007 94 10000 0.99 122 21:33 30.04.2022
2347 Clouds 26 1008 92 10000 3.11 138 20:22 30.04.2022
2348 Clouds 27 1008 90 10000 3.11 138 19:31 30.04.2022
2349 Clouds 27 1009 89 10000 3.65 115 17:32 30.04.2022
2350 Clouds 27 1009 87 10000 0.86 75 16:28 30.04.2022
2351 Clouds 28 1009 84 8619 0.47 340 15:19 30.04.2022
2352 Clouds 28 1008 76 10000 0.44 328 14:19 30.04.2022
2353 Clouds 30 1006 71 4679 0.58 355 11:59 30.04.2022
2354 Clouds 31 1006 66 4679 0.58 355 11:31 30.04.2022
2355 Clouds 32 1005 76 10000 2.23 29 10:25 30.04.2022
2356 Clouds 33 1007 65 10000 2.25 6 08:25 30.04.2022
2357 Clouds 32 1009 61 10000 0.77 265 04:58 30.04.2022
2358 Clouds 26 1008 90 10000 0.77 200 00:34 30.04.2022
2359 Clouds 26 1007 90 10000 0.93 191 22:58 29.04.2022
2360 Clouds 26 1007 88 10000 1.15 188 22:21 29.04.2022
2361 Clouds 26 1007 89 10000 0.99 179 21:26 29.04.2022
2362 Clouds 26 1007 87 10000 1.11 181 20:24 29.04.2022
2363 Clouds 26 1007 85 10000 1.44 189 19:28 29.04.2022
2364 Clouds 27 1008 83 10000 1.78 195 17:37 29.04.2022
2365 Clouds 27 1008 81 10000 2.19 193 16:43 29.04.2022
2366 Clouds 28 1008 75 10000 3.06 215 14:38 29.04.2022
2367 Clouds 28 1008 75 10000 3.06 215 14:38 29.04.2022
2368 Clouds 28 1007 72 10000 4.28 237 13:59 29.04.2022
2369 Rain 30 1006 65 10000 5.02 252 12:41 29.04.2022
2370 Clouds 35 1005 57 10000 5.22 271 10:56 29.04.2022
2371 Clouds 34 1007 57 10000 4.14 273 08:18 29.04.2022
2372 Clouds 34 1007 64 10000 3.27 257 07:27 29.04.2022
2373 Clouds 33 1008 66 10000 3.27 257 06:34 29.04.2022
2374 Clouds 29 1010 70 10000 2.42 216 03:23 29.04.2022
2375 Clouds 26 1008 91 10000 2.63 245 00:18 29.04.2022
2376 Clouds 26 1007 88 10000 2.81 248 23:26 28.04.2022
2377 Clouds 26 1007 88 10000 2.81 248 22:37 28.04.2022
2378 Clouds 26 1007 86 10000 2.63 257 21:45 28.04.2022
2379 Clouds 27 1007 85 10000 2.2 226 20:49 28.04.2022
2380 Clouds 27 1007 84 10000 2.67 233 19:57 28.04.2022
2381 Clouds 27 1008 84 10000 3.58 250 19:39 28.04.2022
2382 Clouds 27 1008 83 10000 3.86 250 19:19 28.04.2022
2383 Clouds 27 1009 78 10000 3.91 248 17:56 28.04.2022
2384 Clouds 27 1009 82 10000 4.28 247 16:59 28.04.2022
2385 Clouds 27 1009 81 10000 5.16 249 16:21 28.04.2022
2386 Clouds 27 1009 77 10000 5.16 249 15:56 28.04.2022
2387 Clouds 27 1009 75 10000 5.7 251 15:23 28.04.2022
2388 Clouds 28 1008 73 10000 6.11 253 13:43 28.04.2022
2389 Clouds 29 1007 70 10000 6.49 258 12:34 28.04.2022
2390 Clouds 30 1006 70 10000 5.94 260 11:51 28.04.2022
2391 Clouds 32 1006 62 10000 5.79 261 10:29 28.04.2022
2392 Clouds 33 1006 60 10000 5.79 261 09:51 28.04.2022
2393 Clouds 31 1007 72 10000 4.87 253 07:45 28.04.2022
2394 Clouds 30 1008 76 10000 5.25 242 06:54 28.04.2022
2395 Clouds 29 1009 79 10000 5.7 242 05:54 28.04.2022
2396 Clouds 27 1010 81 10000 5.31 247 04:44 28.04.2022
2397 Clouds 26 1010 81 10000 4.25 256 03:40 28.04.2022
2398 Clouds 25 1009 99 10000 6.68 296 23:52 27.04.2022
2399 Clouds 24 1008 99 9742 6.81 297 22:30 27.04.2022
2400 Clouds 24 1008 99 7963 5.42 289 21:50 27.04.2022
2401 Clouds 23 1007 99 7266 3.83 278 20:51 27.04.2022
2402 Rain 23 1007 99 7266 3.83 278 20:32 27.04.2022
2403 Rain 24 1008 81 10000 2.67 275 19:37 27.04.2022
2404 Rain 24 1009 80 10000 1.81 274 18:52 27.04.2022
2405 Rain 24 1009 79 10000 1.28 281 18:21 27.04.2022
2406 Rain 24 1009 77 10000 0.81 359 16:23 27.04.2022
2407 Clouds 29 1007 73 10000 2.28 3 13:51 27.04.2022
2408 Clouds 30 1005 69 10000 3.26 354 11:39 27.04.2022
2409 Rain 32 1005 65 10000 4.07 360 11:18 27.04.2022
2410 Clouds 33 1006 61 10000 4.1 360 08:58 27.04.2022
2411 Clouds 33 1007 61 10000 2.48 294 06:45 27.04.2022
2412 Clouds 33 1007 61 10000 2.48 294 06:45 27.04.2022
2413 Clouds 31 1008 64 10000 0.49 144 03:41 27.04.2022
2414 Rain 27 1008 77 10000 1.76 134 01:30 27.04.2022
2415 Rain 26 1007 75 10000 1.43 156 00:36 27.04.2022
2416 Rain 27 1007 77 10000 1.38 190 23:25 26.04.2022
2417 Rain 26 1007 76 10000 1.38 190 22:52 26.04.2022
2418 Rain 26 1007 77 10000 1.38 190 22:34 26.04.2022
2419 Rain 26 1007 76 10000 0.53 271 21:26 26.04.2022
2420 Clouds 27 1007 76 10000 0.53 271 20:40 26.04.2022
2421 Clouds 27 1007 71 10000 0.58 269 19:48 26.04.2022
2422 Clouds 27 1007 69 10000 0.97 238 19:26 26.04.2022
2423 Clouds 28 1007 65 10000 0.97 238 18:42 26.04.2022
2424 Clouds 28 1008 62 10000 1.4 266 17:50 26.04.2022
2425 Clouds 29 1008 61 10000 1.01 283 16:26 26.04.2022
2426 Clouds 30 1006 62 10000 1.72 300 13:58 26.04.2022
2427 Rain 30 1006 64 10000 1.09 275 13:31 26.04.2022
2428 Clouds 35 1005 52 10000 2.64 324 11:48 26.04.2022
2429 Clouds 34 1004 60 10000 3.19 328 10:31 26.04.2022
2430 Clouds 34 1005 61 10000 3.82 324 08:47 26.04.2022
2431 Clouds 33 1007 61 10000 2.99 300 06:57 26.04.2022
2432 Clouds 28 1009 69 10000 2 255 04:23 26.04.2022
2433 Clouds 28 1009 69 10000 2 255 04:23 26.04.2022
2434 Clouds 26 1006 83 10000 1.5 254 00:57 26.04.2022
2435 Clouds 27 1006 81 10000 1.79 245 00:25 26.04.2022
2436 Clouds 26 1005 84 10000 2.89 162 22:21 25.04.2022
2437 Clouds 27 1005 80 10000 2.89 162 21:34 25.04.2022
2438 Clouds 27 1005 82 10000 3.71 107 20:35 25.04.2022
2439 Clouds 28 1006 81 10000 5.42 100 18:54 25.04.2022
2440 Rain 27 1007 83 10000 4.59 108 17:43 25.04.2022
2441 Rain 28 1008 67 10000 1.91 117 16:52 25.04.2022
2442 Rain 29 1007 68 10000 0.28 5 15:24 25.04.2022
2443 Rain 28 1006 81 10000 0.28 5 14:34 25.04.2022
2444 Clouds 29 1005 65 10000 1.75 267 13:30 25.04.2022
2445 Clouds 32 1003 60 10000 3.67 322 11:37 25.04.2022
2446 Clouds 34 1003 55 10000 4.32 350 10:20 25.04.2022
2447 Clouds 34 1005 53 10000 2.92 346 08:33 25.04.2022
2448 Clouds 33 1007 60 10000 1.24 343 06:37 25.04.2022
2449 Clouds 32 1008 57 10000 0.48 198 03:44 25.04.2022
2450 Clouds 27 1005 72 10000 1.14 219 00:33 25.04.2022
2451 Clouds 27 1005 70 10000 1.11 190 23:51 24.04.2022
2452 Clouds 28 1005 70 10000 1.29 174 22:41 24.04.2022
2453 Clouds 28 1005 71 10000 1.47 160 22:18 24.04.2022
2454 Clouds 28 1005 69 10000 1.61 152 21:24 24.04.2022
2455 Clouds 28 1005 69 10000 1.61 152 20:48 24.04.2022
2456 Clouds 28 1005 68 10000 1.62 133 20:22 24.04.2022
2457 Clouds 29 1006 64 10000 1.43 150 19:19 24.04.2022
2458 Clouds 29 1007 62 10000 0.92 193 18:20 24.04.2022
2459 Clouds 30 1007 59 10000 1.15 270 17:27 24.04.2022
2460 Clouds 30 1007 59 10000 1.15 270 16:58 24.04.2022
2461 Rain 30 1007 59 10000 1.15 270 16:30 24.04.2022
2462 Rain 30 1007 59 10000 1.96 289 15:53 24.04.2022
2463 Clouds 31 1007 56 10000 2.26 309 14:57 24.04.2022
2464 Clouds 31 1006 56 10000 1.92 336 13:51 24.04.2022
2465 Clouds 31 1005 54 10000 2.3 335 13:23 24.04.2022
2466 Clouds 33 1005 52 10000 2.51 320 11:56 24.04.2022
2467 Clouds 33 1005 51 10000 2.66 310 11:27 24.04.2022
2468 Clouds 34 1004 53 10000 3.1 303 09:51 24.04.2022
2469 Clouds 34 1005 54 10000 3.18 298 08:51 24.04.2022
2470 Clouds 33 1008 69 10000 2.81 272 06:18 24.04.2022
2471 Clouds 29 1009 75 10000 1.2 254 03:37 24.04.2022
2472 Rain 27 1008 78 10000 1.5 186 01:18 24.04.2022
2473 Clouds 27 1007 77 10000 1.44 198 23:55 23.04.2022
2474 Rain 27 1006 77 10000 1.71 196 23:25 23.04.2022
2475 Clouds 27 1006 77 10000 1.71 196 22:46 23.04.2022
2476 Clouds 27 1006 77 10000 1.68 207 21:49 23.04.2022
2477 Clouds 28 1006 75 10000 1.68 207 21:31 23.04.2022
2478 Clouds 28 1006 72 10000 1.69 215 20:27 23.04.2022
2479 Rain 28 1007 72 10000 1 214 19:41 23.04.2022
2480 Rain 28 1007 74 10000 0.64 200 19:18 23.04.2022
2481 Rain 28 1008 73 10000 0.64 200 18:46 23.04.2022
2482 Clouds 29 1008 70 10000 0.16 115 17:48 23.04.2022
2483 Clouds 29 1008 69 10000 0.34 34 16:47 23.04.2022
2484 Clouds 29 1008 70 10000 0.82 24 16:21 23.04.2022
2485 Clouds 30 1006 65 10000 2.29 16 14:27 23.04.2022
2486 Clouds 32 1006 61 10000 3.16 12 11:59 23.04.2022
2487 Clouds 32 1005 58 10000 3.4 13 10:40 23.04.2022
2488 Clouds 33 1005 58 10000 3.87 18 08:42 23.04.2022
2489 Clouds 33 1008 56 10000 2.23 34 05:45 23.04.2022
2490 Clouds 31 1008 65 10000 1.47 98 03:54 23.04.2022
2491 Clouds 25 1006 85 10000 1.5 122 00:18 23.04.2022
2492 Clouds 26 1006 85 10000 1.33 128 23:25 22.04.2022
2493 Clouds 26 1007 84 10000 0.92 135 21:59 22.04.2022
2494 Clouds 26 1007 84 10000 0.92 135 21:40 22.04.2022
2495 Clouds 26 1007 83 10000 1.31 133 20:44 22.04.2022
2496 Clouds 26 1007 83 10000 1.42 239 20:25 22.04.2022
2497 Clouds 26 1007 84 10000 0.71 235 19:18 22.04.2022
2498 Clouds 25 1010 98 10000 0.71 235 18:34 22.04.2022
2499 Clouds 26 1008 85 5479 0.46 164 17:37 22.04.2022
2500 Rain 26 1008 83 6268 0.85 102 16:30 22.04.2022
2501 Rain 26 1009 83 10000 1.4 92 15:32 22.04.2022
2502 Rain 26 1008 76 10000 1.92 79 14:41 22.04.2022
2503 Rain 26 1007 76 10000 2.01 67 13:42 22.04.2022
2504 Rain 26 1007 79 10000 2.14 46 12:55 22.04.2022
2505 Rain 27 1006 72 10000 2.72 29 11:41 22.04.2022
2506 Rain 32 1008 63 10000 3.09 23 11:18 22.04.2022
2507 Rain 32 1008 64 10000 3.09 23 10:47 22.04.2022
2508 Rain 32 1008 64 10000 3.5 20 10:25 22.04.2022
2509 Rain 32 1008 63 10000 3.5 20 09:42 22.04.2022
2510 Rain 33 1009 63 10000 3.4 22 08:49 22.04.2022
2511 Clouds 32 1007 61 9378 3.19 47 06:54 22.04.2022
2512 Clouds 26 1009 90 10000 2.29 111 01:41 22.04.2022
2513 Clouds 26 1006 80 10000 1.91 131 23:49 21.04.2022
2514 Clouds 26 1006 80 10000 1.84 131 22:52 21.04.2022
2515 Clouds 26 1006 77 10000 1.88 127 21:49 21.04.2022
2516 Clouds 27 1006 77 10000 1.59 116 20:34 21.04.2022
2517 Clouds 27 1007 78 10000 1.45 103 19:51 21.04.2022
2518 Clouds 27 1008 75 10000 1.64 92 18:34 21.04.2022
2519 Clouds 28 1008 75 10000 1.44 103 17:47 21.04.2022
2520 Clouds 28 1007 72 10000 0.65 231 16:24 21.04.2022
2521 Clouds 28 1006 73 10000 1.17 241 15:19 21.04.2022
2522 Rain 28 1006 73 10000 1.17 241 14:31 21.04.2022
2523 Rain 28 1006 68 10000 2.35 256 13:23 21.04.2022
2524 Rain 28 1006 68 10000 2.35 256 13:23 21.04.2022
2525 Rain 29 1005 66 10000 2.06 263 12:29 21.04.2022
2526 Rain 30 1005 61 10000 1.76 279 10:20 21.04.2022
2527 Rain 29 1006 61 10000 1.91 268 08:53 21.04.2022
2528 Rain 29 1008 70 9430 3.11 317 06:55 21.04.2022
2529 Rain 27 1009 80 10000 2.66 282 04:34 21.04.2022
2530 Clouds 27 1009 79 10000 3.2 265 03:24 21.04.2022
2531 Clouds 27 1008 79 10000 3.2 265 02:46 21.04.2022
2532 Clouds 27 1007 73 10000 2.54 261 00:43 21.04.2022
2533 Clouds 27 1005 72 10000 2.91 254 23:48 20.04.2022
2534 Clouds 27 1006 72 10000 3.24 252 23:21 20.04.2022
2535 Clouds 27 1006 73 10000 3.24 252 22:45 20.04.2022
2536 Clouds 27 1006 73 10000 3.44 249 22:18 20.04.2022
2537 Clouds 27 1006 72 10000 3.71 252 21:24 20.04.2022
2538 Clouds 28 1006 70 10000 3.75 259 20:22 20.04.2022
2539 Clouds 28 1007 68 10000 3.22 256 19:51 20.04.2022
2540 Clouds 28 1007 68 10000 3.22 256 19:51 20.04.2022
2541 Clouds 28 1007 67 10000 3.12 257 18:55 20.04.2022
2542 Clouds 28 1008 66 10000 2.84 253 17:53 20.04.2022
2543 Clouds 28 1007 65 10000 2.64 242 16:40 20.04.2022
2544 Clouds 29 1007 64 10000 3.09 239 15:50 20.04.2022
2545 Clouds 30 1005 64 10000 3.78 245 13:41 20.04.2022
2546 Clouds 31 1004 58 10000 3.94 244 11:44 20.04.2022
2547 Clouds 30 1003 67 9230 3.54 265 10:56 20.04.2022
2548 Clouds 32 1004 53 10000 3.55 293 09:46 20.04.2022
2549 Clouds 32 1007 63 10000 3.67 315 08:59 20.04.2022
2550 Clouds 34 1004 46 10000 3.44 302 08:20 20.04.2022
2551 Clouds 32 1008 62 10000 3.04 287 06:56 20.04.2022
2552 Clouds 30 1008 66 10000 1.81 251 03:34 20.04.2022
2553 Clouds 27 1006 79 10000 1 191 00:22 20.04.2022
2554 Clouds 27 1006 78 10000 1 191 23:35 19.04.2022
2555 Clouds 27 1006 76 10000 3.32 131 22:25 19.04.2022
2556 Clouds 26 1008 90 10000 3.32 131 21:55 19.04.2022
2557 Clouds 26 1009 89 10000 4.24 126 21:22 19.04.2022
2558 Clouds 26 1009 91 10000 4.24 126 20:41 19.04.2022
2559 Clouds 28 1008 76 10000 3.11 141 19:52 19.04.2022
2560 Rain 27 1008 77 10000 2 187 18:47 19.04.2022
2561 Rain 28 1009 75 4062 1.9 199 17:32 19.04.2022
2562 Rain 28 1008 77 10000 1.76 191 16:43 19.04.2022
2563 Clouds 28 1008 75 10000 1.08 248 16:22 19.04.2022
2564 Clouds 28 1008 77 10000 1.19 282 14:48 19.04.2022
2565 Clouds 28 1007 79 7582 2.84 338 13:49 19.04.2022
2566 Rain 29 1006 67 10000 3.58 336 12:50 19.04.2022
2567 Clouds 29 1006 67 10000 4.9 343 11:55 19.04.2022
2568 Clouds 33 1006 58 10000 3.97 342 10:25 19.04.2022
2569 Clouds 34 1005 54 10000 3.31 330 09:19 19.04.2022
2570 Clouds 32 1009 58 10000 1.53 301 04:56 19.04.2022
2571 Clouds 30 1007 62 10000 0.95 283 03:25 19.04.2022
2572 Clouds 27 1006 73 10000 0.61 187 00:55 19.04.2022
2573 Clouds 28 1006 71 10000 0.58 160 23:30 18.04.2022
2574 Clouds 28 1007 69 10000 0.92 119 21:30 18.04.2022
2575 Clouds 28 1007 71 10000 1 118 20:55 18.04.2022
2576 Clouds 28 1007 71 10000 1.25 122 20:32 18.04.2022
2577 Clouds 28 1008 70 10000 1.28 113 19:49 18.04.2022
2578 Clouds 28 1008 69 10000 1.32 109 18:57 18.04.2022
2579 Clouds 28 1008 70 10000 1.4 101 17:57 18.04.2022
2580 Clouds 28 1008 70 10000 1.4 101 17:33 18.04.2022
2581 Clouds 29 1009 70 10000 1.39 77 16:55 18.04.2022
2582 Clouds 29 1009 69 10000 1.39 77 16:31 18.04.2022
2583 Clouds 30 1008 68 10000 1.94 38 14:51 18.04.2022
2584 Rain 30 1005 67 10000 2.43 24 13:36 18.04.2022
2585 Clouds 31 1005 64 10000 3.21 17 12:30 18.04.2022
2586 Clouds 32 1004 63 10000 4.19 16 11:34 18.04.2022
2587 Clouds 33 1003 54 10000 4.63 21 10:31 18.04.2022
2588 Clouds 33 1003 51 10000 5.05 18 09:31 18.04.2022
2589 Clouds 33 1006 58 10000 3.16 24 07:54 18.04.2022
2590 Clouds 32 1008 63 10000 1.87 69 05:41 18.04.2022
2591 Clouds 26 1008 92 10000 1.77 129 00:47 18.04.2022
2592 Clouds 27 1007 82 10000 1.78 131 22:41 17.04.2022
2593 Clouds 29 1006 74 10000 1.8 132 21:49 17.04.2022
2594 Rain 29 1006 74 10000 1.67 123 21:26 17.04.2022
2595 Clouds 29 1006 73 10000 1.67 123 20:41 17.04.2022
2596 Clouds 29 1008 77 10000 1.72 105 19:38 17.04.2022
2597 Clouds 29 1009 75 10000 2.64 90 18:21 17.04.2022
2598 Clouds 30 1009 73 10000 3.25 73 16:27 17.04.2022
2599 Clouds 30 1008 71 10000 3.73 67 15:26 17.04.2022
2600 Clouds 30 1007 72 10000 4.15 58 14:25 17.04.2022
2601 Clouds 30 1006 71 10000 4.2 40 13:18 17.04.2022
2602 Clouds 31 1005 65 10000 4.28 38 12:27 17.04.2022
2603 Clouds 33 1005 56 10000 4.28 36 10:46 17.04.2022
2604 Clouds 34 1005 56 10000 4.56 32 10:28 17.04.2022
2605 Clouds 33 1005 66 10000 4.56 32 09:37 17.04.2022
2606 Clouds 34 1006 55 10000 5.31 23 08:53 17.04.2022
2607 Clouds 35 1007 54 10000 3.01 35 07:37 17.04.2022
2608 Clouds 33 1009 59 10000 2.4 68 04:51 17.04.2022
2609 Clouds 26 1009 83 10000 1.7 104 01:38 17.04.2022
2610 Clouds 27 1007 84 10000 1.34 108 23:54 16.04.2022
2611 Clouds 27 1007 83 10000 1.81 134 22:39 16.04.2022
2612 Clouds 27 1007 82 10000 1.98 124 21:41 16.04.2022
2613 Clouds 27 1007 82 10000 1.94 116 20:35 16.04.2022
2614 Clouds 27 1009 76 10000 2 110 19:18 16.04.2022
2615 Clouds 28 1009 74 10000 2.04 92 18:28 16.04.2022
2616 Clouds 28 1009 73 10000 1.82 85 16:40 16.04.2022
2617 Clouds 29 1009 73 10000 1.59 68 15:46 16.04.2022
2618 Clouds 29 1009 70 10000 1.89 49 14:57 16.04.2022
2619 Clouds 29 1008 66 10000 2.15 29 13:58 16.04.2022
2620 Clouds 30 1008 65 10000 1.76 16 13:37 16.04.2022
2621 Clouds 30 1008 65 10000 1.76 16 13:37 16.04.2022
2622 Clouds 31 1006 64 10000 3.01 17 12:27 16.04.2022
2623 Clouds 32 1006 61 10000 3.69 12 11:18 16.04.2022
2624 Clouds 33 1006 58 10000 4.21 8 09:57 16.04.2022
2625 Clouds 34 1006 54 10000 3.61 6 08:59 16.04.2022
2626 Clouds 35 1007 58 10000 2.73 11 08:18 16.04.2022
2627 Clouds 34 1008 56 10000 1.91 15 06:59 16.04.2022
2628 Clouds 29 1011 68 10000 0.62 54 03:36 16.04.2022
2629 Clouds 26 1009 90 10000 0.28 112 00:35 16.04.2022
2630 Clouds 26 1008 88 10000 0.6 153 23:27 15.04.2022
2631 Clouds 26 1008 85 10000 0.6 153 22:37 15.04.2022
2632 Clouds 26 1008 84 10000 0.75 144 21:58 15.04.2022
2633 Clouds 26 1008 82 10000 1.02 134 21:18 15.04.2022
2634 Clouds 26 1008 82 10000 1.02 134 21:18 15.04.2022
2635 Clouds 26 1008 80 10000 1.4 125 20:27 15.04.2022
2636 Clouds 27 1009 77 10000 1.37 135 19:40 15.04.2022
2637 Clouds 27 1009 75 10000 1.79 138 18:55 15.04.2022
2638 Clouds 28 1010 74 10000 1.76 133 18:25 15.04.2022
2639 Clouds 28 1010 75 10000 1.76 133 17:49 15.04.2022
2640 Clouds 28 1010 75 10000 1.53 111 17:22 15.04.2022
2641 Clouds 28 1010 75 10000 1.47 88 16:24 15.04.2022
2642 Clouds 28 1010 73 10000 1.47 88 15:37 15.04.2022
2643 Clouds 29 1009 71 10000 1.83 41 13:55 15.04.2022
2644 Clouds 31 1008 65 10000 2.11 2 12:46 15.04.2022
2645 Clouds 32 1007 60 10000 3.35 9 11:59 15.04.2022
2646 Clouds 32 1007 65 10000 3.35 9 11:40 15.04.2022
2647 Clouds 32 1006 66 10000 4.57 14 10:45 15.04.2022
2648 Clouds 33 1006 60 10000 5.23 13 09:57 15.04.2022
2649 Clouds 35 1006 56 10000 3.87 17 09:21 15.04.2022
2650 Clouds 35 1007 53 10000 2.32 28 08:24 15.04.2022
2651 Clouds 34 1009 63 10000 1.15 49 06:47 15.04.2022
2652 Clouds 31 1010 66 10000 2.08 120 04:28 15.04.2022
2653 Clouds 26 1009 88 10000 2.29 128 23:42 14.04.2022
2654 Clouds 26 1008 88 10000 2.14 127 23:19 14.04.2022
2655 Clouds 26 1008 88 10000 2.14 127 22:42 14.04.2022
2656 Clouds 26 1008 88 10000 2.17 124 22:24 14.04.2022
2657 Clouds 26 1008 87 10000 2.17 124 21:39 14.04.2022
2658 Clouds 27 1009 83 10000 2.16 122 19:24 14.04.2022
2659 Clouds 27 1009 83 10000 2.16 122 18:38 14.04.2022
2660 Clouds 27 1009 82 10000 2.08 112 17:45 14.04.2022
2661 Clouds 27 1010 80 10000 2.15 98 16:49 14.04.2022
2662 Clouds 28 1010 72 10000 2.35 78 15:50 14.04.2022
2663 Clouds 30 1008 70 10000 2.66 47 13:52 14.04.2022
2664 Clouds 30 1007 69 10000 2.27 33 13:19 14.04.2022
2665 Clouds 31 1007 64 10000 2.27 33 12:32 14.04.2022
2666 Clouds 31 1006 62 10000 2.51 33 11:37 14.04.2022
2667 Clouds 33 1006 60 10000 2.9 27 10:58 14.04.2022
2668 Clouds 33 1006 66 10000 2.9 27 10:31 14.04.2022
2669 Clouds 34 1006 54 10000 3.97 21 09:28 14.04.2022
2670 Clouds 34 1007 58 10000 3.7 24 07:54 14.04.2022
2671 Clouds 33 1009 64 10000 1.94 52 05:52 14.04.2022
2672 Clouds 26 1008 89 10000 1.66 121 00:29 14.04.2022
2673 Clouds 26 1008 88 10000 1.81 115 22:37 13.04.2022
2674 Clouds 25 1008 89 10000 1.64 116 21:42 13.04.2022
2675 Clouds 25 1008 87 10000 1.76 109 20:39 13.04.2022
2676 Clouds 27 1008 83 10000 1.73 83 19:48 13.04.2022
2677 Clouds 27 1009 84 10000 1.16 48 18:37 13.04.2022
2678 Clouds 27 1010 85 10000 1.11 21 17:25 13.04.2022
2679 Clouds 28 1010 76 10000 1.11 21 16:53 13.04.2022
2680 Clouds 28 1009 72 10000 1.26 6 15:47 13.04.2022
2681 Clouds 28 1009 71 10000 1.81 4 15:27 13.04.2022
2682 Clouds 29 1009 71 10000 1.81 4 14:40 13.04.2022
2683 Clouds 29 1008 73 10000 1.81 4 13:43 13.04.2022
2684 Clouds 30 1007 64 10000 2.04 1 12:52 13.04.2022
2685 Clouds 32 1006 65 10000 2.95 3 11:47 13.04.2022
2686 Clouds 33 1005 64 10000 3.65 10 10:34 13.04.2022
2687 Clouds 33 1006 67 10000 3.34 19 08:49 13.04.2022
2688 Clouds 32 1007 68 10000 3.32 15 08:23 13.04.2022
2689 Clouds 32 1009 63 10000 2.85 25 06:49 13.04.2022
2690 Clouds 32 1009 67 10000 2.17 46 06:24 13.04.2022
2691 Clouds 28 1009 84 10000 1.89 111 02:27 13.04.2022
2692 Clouds 26 1008 92 10000 1.7 120 00:20 13.04.2022
2693 Clouds 26 1008 92 10000 1.41 132 22:36 12.04.2022
2694 Clouds 27 1008 92 10000 1.35 139 21:56 12.04.2022
2695 Clouds 27 1008 93 10000 1.22 137 20:48 12.04.2022
2696 Clear 27 1008 93 10000 1.14 134 20:22 12.04.2022
2697 Clouds 27 1008 92 10000 0.51 145 19:40 12.04.2022
2698 Clouds 27 1008 93 10000 0.32 158 19:18 12.04.2022
2699 Clouds 27 1009 90 10000 0.41 141 17:49 12.04.2022
2700 Clouds 27 1009 89 10000 0.24 311 16:48 12.04.2022
2701 Clouds 27 1009 89 10000 0.93 342 15:38 12.04.2022
2702 Clouds 27 1009 88 10000 1.38 344 15:20 12.04.2022
2703 Clouds 27 1008 86 10000 1.49 352 13:53 12.04.2022
2704 Clouds 28 1007 88 10000 1.55 4 13:27 12.04.2022
2705 Clouds 28 1007 88 10000 1.55 4 13:27 12.04.2022
2706 Clouds 28 1006 80 10000 1.47 360 12:26 12.04.2022
2707 Clouds 31 1006 69 10000 1.47 360 11:39 12.04.2022
2708 Clouds 32 1006 70 10000 2.34 355 09:59 12.04.2022
2709 Clouds 33 1007 63 10000 2.55 354 08:53 12.04.2022
2710 Clouds 33 1008 65 10000 2.04 4 07:21 12.04.2022
2711 Clouds 32 1010 69 10000 1.93 26 05:42 12.04.2022
2712 Clouds 28 1011 80 10000 1.63 106 02:49 12.04.2022
2713 Clouds 25 1009 94 10000 4.05 96 23:25 11.04.2022
2714 Clouds 26 1009 94 10000 4.05 96 22:43 11.04.2022
2715 Clouds 25 1008 95 10000 3.19 94 21:35 11.04.2022
2716 Clouds 26 1008 94 8270 1.87 94 20:37 11.04.2022
2717 Clouds 26 1009 93 7883 0.88 81 20:19 11.04.2022
2718 Clouds 26 1009 91 10000 0.58 348 19:29 11.04.2022
2719 Clouds 26 1009 91 10000 0.58 348 18:59 11.04.2022
2720 Clouds 26 1009 90 10000 0.58 348 18:33 11.04.2022
2721 Clouds 26 1010 91 9372 0.89 305 17:43 11.04.2022
2722 Clouds 26 1010 93 10000 1.24 280 16:36 11.04.2022
2723 Clouds 26 1009 92 5578 1.06 284 15:24 11.04.2022
2724 Rain 26 1009 92 10000 2.52 268 13:44 11.04.2022
2725 Rain 28 1008 89 6284 2.37 271 12:41 11.04.2022
2726 Clouds 29 1007 79 7056 1.96 285 12:22 11.04.2022
2727 Clouds 32 1007 77 9852 1.58 322 10:47 11.04.2022
2728 Clouds 30 1007 75 7658 1.85 2 09:58 11.04.2022
2729 Rain 32 1008 67 8545 2.37 13 08:23 11.04.2022
2730 Clouds 32 1010 62 10000 1.93 33 04:57 11.04.2022
2731 Clouds 27 1010 78 10000 1.56 128 00:30 11.04.2022
2732 Clouds 27 1008 74 10000 1.97 120 22:27 10.04.2022
2733 Clouds 27 1008 73 10000 1.97 120 21:54 10.04.2022
2734 Clouds 27 1008 74 10000 2 115 21:23 10.04.2022
2735 Clouds 27 1009 74 10000 1.94 116 20:18 10.04.2022
2736 Clouds 27 1009 77 10000 1.64 120 19:36 10.04.2022
2737 Clouds 27 1010 77 9206 1.56 109 18:50 10.04.2022
2738 Clouds 27 1010 77 10000 1.49 110 18:26 10.04.2022
2739 Clouds 27 1010 76 10000 1.49 110 17:46 10.04.2022
2740 Clouds 28 1011 71 10000 1.48 95 16:59 10.04.2022
2741 Clouds 28 1011 70 10000 1.56 94 15:40 10.04.2022
2742 Clouds 28 1010 71 10000 1.47 91 14:42 10.04.2022
2743 Clouds 28 1009 73 8903 1.15 61 13:44 10.04.2022
2744 Clouds 30 1008 67 10000 1.84 4 12:32 10.04.2022
2745 Clouds 31 1007 65 10000 3.91 335 11:44 10.04.2022
2746 Clouds 32 1007 62 10000 5.19 345 11:18 10.04.2022
2747 Clouds 33 1006 63 10000 5.19 345 10:31 10.04.2022
2748 Clouds 33 1006 66 10000 5.44 1 09:41 10.04.2022
2749 Clouds 34 1007 58 10000 2.78 347 08:28 10.04.2022
2750 Clouds 34 1008 56 10000 2.78 347 07:56 10.04.2022
2751 Clouds 33 1009 59 10000 2.07 341 06:59 10.04.2022
2752 Clouds 29 1011 81 10000 1.08 195 03:37 10.04.2022
2753 Clouds 28 1010 81 10000 1.45 182 02:18 10.04.2022
2754 Clouds 26 1009 88 10000 1.78 178 23:53 09.04.2022
2755 Clouds 25 1008 86 10000 2.01 178 22:54 09.04.2022
2756 Clouds 25 1008 86 10000 2.01 178 22:54 09.04.2022
2757 Clouds 27 1008 87 10000 2.24 168 22:24 09.04.2022
2758 Clouds 27 1009 86 10000 1.58 167 21:19 09.04.2022
2759 Clouds 27 1009 84 10000 1.58 167 20:30 09.04.2022
2760 Clouds 27 1009 84 10000 1.8 152 19:56 09.04.2022
2761 Clouds 27 1009 83 10000 1.8 152 19:38 09.04.2022
2762 Clouds 27 1010 80 10000 0.76 140 18:23 09.04.2022
2763 Clouds 27 1010 80 10000 0.76 140 17:48 09.04.2022
2764 Clouds 28 1010 75 10000 0.83 112 16:56 09.04.2022
2765 Clouds 28 1010 74 10000 0.83 112 16:38 09.04.2022
2766 Clouds 28 1010 73 10000 0.72 65 15:49 09.04.2022
2767 Clouds 28 1010 73 10000 0.72 65 15:49 09.04.2022
2768 Clouds 28 1010 73 10000 0.72 65 15:49 09.04.2022
2769 Clouds 28 1009 73 10000 1.12 30 15:25 09.04.2022
2770 Clouds 29 1008 69 10000 2.14 24 14:25 09.04.2022
2771 Clouds 30 1008 69 10000 3.44 353 13:26 09.04.2022
2772 Clouds 30 1008 68 10000 3.44 353 12:53 09.04.2022
2773 Clouds 30 1007 66 10000 4.8 353 11:44 09.04.2022
2774 Clear 33 1006 58 10000 4.45 355 10:51 09.04.2022
2775 Clear 34 1006 49 10000 3.02 346 10:18 09.04.2022
2776 Clear 33 1007 57 10000 1.88 336 09:22 09.04.2022
2777 Clouds 36 1008 46 10000 1.91 338 07:49 09.04.2022
2778 Clouds 30 1011 75 10000 0.78 175 03:57 09.04.2022
2779 Clouds 25 1009 85 10000 1.95 209 00:34 09.04.2022
2780 Clouds 26 1008 83 10000 2.04 231 23:22 08.04.2022
2781 Clouds 27 1008 85 10000 2.29 235 21:44 08.04.2022
2782 Clouds 26 1009 84 10000 2.13 242 20:43 08.04.2022
2783 Clouds 26 1009 82 10000 1.91 223 19:46 08.04.2022
2784 Clouds 26 1010 81 10000 2.04 210 18:46 08.04.2022
2785 Clouds 26 1010 83 10000 2.67 187 18:20 08.04.2022
2786 Clouds 26 1010 85 10000 2.88 178 17:28 08.04.2022
2787 Clouds 27 1010 84 10000 2.88 178 16:55 08.04.2022
2788 Clouds 27 1010 86 10000 2.53 163 16:27 08.04.2022
2789 Clouds 28 1010 84 10000 2.53 163 15:33 08.04.2022
2790 Clouds 28 1009 83 10000 2.1 150 14:45 08.04.2022
2791 Rain 29 1008 80 10000 1.69 130 14:19 08.04.2022
2792 Clouds 29 1008 74 10000 3.5 219 13:31 08.04.2022
2793 Clouds 30 1007 77 10000 3.58 238 12:49 08.04.2022
2794 Clouds 31 1006 69 10000 3.68 278 11:26 08.04.2022
2795 Clouds 33 1007 65 10000 3.08 308 09:59 08.04.2022
2796 Clouds 33 1007 60 10000 2.25 313 09:19 08.04.2022
2797 Clouds 32 1008 62 10000 1.91 317 07:44 08.04.2022
2798 Clouds 31 1009 62 10000 1.11 270 06:45 08.04.2022
2799 Clouds 28 1011 74 10000 2.32 230 02:55 08.04.2022
2800 Clouds 26 1009 87 10000 2.27 225 00:30 08.04.2022
2801 Clouds 25 1009 85 10000 2.47 226 23:47 07.04.2022
2802 Clouds 26 1009 84 10000 2.72 232 22:55 07.04.2022
2803 Clouds 26 1009 84 10000 2.72 232 22:36 07.04.2022
2804 Clouds 26 1009 82 10000 2.6 235 22:18 07.04.2022
2805 Clouds 27 1009 82 10000 2.6 235 21:30 07.04.2022
2806 Clouds 26 1009 81 10000 2.47 229 20:46 07.04.2022
2807 Clouds 26 1010 81 10000 2.66 229 20:21 07.04.2022
2808 Clouds 27 1011 85 10000 3.09 218 17:43 07.04.2022
2809 Clouds 27 1011 85 10000 2.88 200 17:23 07.04.2022
2810 Clouds 27 1011 81 10000 2.88 200 16:35 07.04.2022
2811 Clouds 28 1011 79 10000 2.38 202 15:52 07.04.2022
2812 Clouds 29 1009 82 10000 1.85 257 13:59 07.04.2022
2813 Clouds 31 1008 83 10000 2.41 289 13:26 07.04.2022
2814 Clouds 32 1007 78 10000 4.01 317 11:54 07.04.2022
2815 Clouds 32 1007 73 10000 5.14 341 10:55 07.04.2022
2816 Clouds 34 1008 52 10000 2.03 339 09:28 07.04.2022
2817 Clouds 33 1009 57 10000 0.97 319 07:38 07.04.2022
2818 Clouds 31 1011 73 10000 1.3 217 05:32 07.04.2022
2819 Clouds 28 1011 80 10000 0.7 212 02:37 07.04.2022
2820 Clouds 25 1010 90 10000 1.26 235 00:47 07.04.2022
2821 Clouds 26 1009 86 10000 1.31 231 23:39 06.04.2022
2822 Clouds 26 1009 85 10000 1.76 226 22:45 06.04.2022
2823 Clouds 27 1009 86 10000 1.86 217 22:21 06.04.2022
2824 Clouds 27 1009 85 10000 2.02 212 20:54 06.04.2022
2825 Clouds 27 1010 83 10000 1.84 206 20:27 06.04.2022
2826 Clouds 27 1010 81 10000 1.84 206 19:52 06.04.2022
2827 Clouds 27 1011 83 10000 1.82 162 18:49 06.04.2022
2828 Clouds 27 1011 82 10000 2.18 137 17:51 06.04.2022
2829 Clouds 27 1011 81 10000 2.34 124 17:21 06.04.2022
2830 Clouds 27 1011 81 10000 2.34 124 16:34 06.04.2022
2831 Clouds 27 1011 81 10000 2.48 113 15:46 06.04.2022
2832 Rain 28 1009 71 10000 2.42 152 14:20 06.04.2022
2833 Rain 31 1008 62 10000 0.6 215 12:37 06.04.2022
2834 Clouds 34 1008 49 10000 2.13 326 11:54 06.04.2022
2835 Clouds 34 1007 52 10000 3.4 333 10:43 06.04.2022
2836 Clouds 34 1007 55 10000 3.13 329 10:19 06.04.2022
2837 Clouds 33 1008 57 10000 2.17 309 09:26 06.04.2022
2838 Clouds 33 1009 59 10000 1.89 298 08:26 06.04.2022
2839 Clouds 33 1009 61 10000 2.4 275 07:38 06.04.2022
2840 Clouds 28 1013 77 10000 2.4 246 02:57 06.04.2022
2841 Clouds 24 1011 93 10000 1.5 287 23:51 05.04.2022
2842 Clouds 25 1010 96 10000 2.61 291 22:28 05.04.2022
2843 Clouds 25 1010 96 8710 2.1 276 21:18 05.04.2022
2844 Clouds 25 1010 96 7732 1.79 228 20:25 05.04.2022
2845 Clouds 26 1011 95 10000 2.58 186 18:56 05.04.2022
2846 Clouds 26 1011 93 10000 2.38 186 17:52 05.04.2022
2847 Clouds 26 1011 92 10000 1.89 190 16:51 05.04.2022
2848 Clouds 27 1011 80 10000 1.15 195 15:53 05.04.2022
2849 Clouds 25 1011 74 10000 1.15 195 15:33 05.04.2022
2850 Rain 30 1010 83 10000 2 182 14:22 05.04.2022
2851 Rain 28 1009 81 10000 1.28 267 12:56 05.04.2022
2852 Thunderstorm 27 1009 85 1000 2.57 150 11:50 05.04.2022
2853 Thunderstorm 28 1009 86 1000 2.57 150 11:32 05.04.2022
2854 Thunderstorm 31 1008 65 5000 3.09 320 09:52 05.04.2022
2855 Clouds 33 1009 57 6000 2.57 30 08:52 05.04.2022
2856 Clouds 33 1011 56 6000 1.54 180 06:52 05.04.2022
2857 Mist 25 1011 89 4000 0 0 01:51 05.04.2022
2858 Clouds 27 1010 75 10000 1.17 186 22:42 04.04.2022
2859 Clouds 27 1010 72 10000 1.6 174 22:22 04.04.2022
2860 Clouds 27 1010 74 10000 2.07 160 21:21 04.04.2022
2861 Clouds 27 1010 74 10000 2.07 160 21:21 04.04.2022
2862 Clouds 27 1010 72 10000 2.07 160 20:49 04.04.2022
2863 Clouds 27 1011 72 10000 2.4 150 19:45 04.04.2022
2864 Clouds 27 1011 71 10000 2.53 147 19:25 04.04.2022
2865 Clouds 27 1012 70 10000 2.48 151 18:20 04.04.2022
2866 Clouds 28 1012 70 10000 2.5 158 16:36 04.04.2022
2867 Clouds 28 1012 68 10000 2.4 179 15:43 04.04.2022
2868 Clouds 28 1011 68 10000 1.98 194 15:25 04.04.2022
2869 Clouds 27 1009 85 6000 0 0 14:46 04.04.2022
2870 Clouds 29 1008 76 4000 2.06 150 13:30 04.04.2022
2871 Clouds 33 1007 59 6000 4.12 10 11:55 04.04.2022
2872 Clouds 33 1007 58 7000 3.09 360 11:29 04.04.2022
2873 Clouds 35 1008 50 7000 3.6 40 08:54 04.04.2022
2874 Clouds 30 1012 71 6000 1.54 10 04:45 04.04.2022
2875 Haze 25 1010 94 5000 0 0 01:28 04.04.2022
2876 Clouds 26 1009 95 10000 0.61 123 22:43 03.04.2022
2877 Clouds 26 1009 93 10000 0.9 138 21:46 03.04.2022
2878 Clouds 26 1010 93 10000 0.85 136 20:57 03.04.2022
2879 Clouds 26 1010 93 10000 1.2 127 19:51 03.04.2022
2880 Clouds 26 1011 92 10000 1.66 136 18:33 03.04.2022
2881 Clouds 26 1011 94 10000 2.15 172 17:48 03.04.2022
2882 Clouds 26 1011 92 10000 2.68 203 16:59 03.04.2022
2883 Clouds 26 1011 92 10000 2.68 203 16:41 03.04.2022
2884 Rain 25 1009 100 5000 2.06 240 14:52 03.04.2022
2885 Rain 25 1009 91 4000 1.54 210 13:55 03.04.2022
2886 Rain 26 1009 86 4000 1.54 250 12:48 03.04.2022
2887 Rain 26 1009 87 4000 5.14 250 11:33 03.04.2022
2888 Thunderstorm 27 1009 82 5000 0 0 09:39 03.04.2022
2889 Rain 27 1009 84 4000 7.72 300 08:40 03.04.2022
2890 Clouds 32 1011 64 6000 5.14 230 05:42 03.04.2022
2891 Clouds 29 1011 71 10000 1.54 221 02:54 03.04.2022
2892 Clouds 27 1009 82 10000 2.67 235 23:22 02.04.2022
2893 Clouds 27 1009 80 10000 2.67 235 22:38 02.04.2022
2894 Clouds 27 1009 77 10000 2.99 239 21:49 02.04.2022
2895 Clouds 27 1009 76 10000 3.51 241 21:19 02.04.2022
2896 Clouds 27 1009 78 10000 3.51 241 20:35 02.04.2022
2897 Clouds 27 1010 74 10000 3.7 243 18:45 02.04.2022
2898 Clouds 27 1011 74 10000 3.93 246 18:18 02.04.2022
2899 Clouds 27 1011 75 10000 4.27 250 16:39 02.04.2022
2900 Clouds 29 1010 75 10000 4.68 261 15:23 02.04.2022
2901 Rain 28 1010 72 10000 4.68 261 14:51 02.04.2022
2902 Haze 28 1008 80 5000 1.54 280 13:57 02.04.2022
2903 Haze 29 1008 77 5000 1.54 280 13:23 02.04.2022
2904 Haze 30 1007 75 5000 0 0 11:56 02.04.2022
2905 Clouds 27 1008 91 5000 2.06 360 09:57 02.04.2022
2906 Clouds 33 1009 55 6000 5.14 240 07:33 02.04.2022
2907 Clouds 31 1011 69 10000 0.98 200 04:25 02.04.2022
2908 Clouds 27 1009 83 10000 1.31 167 00:27 02.04.2022
2909 Clouds 27 1009 82 10000 1.31 167 23:53 01.04.2022
2910 Clouds 27 1009 81 10000 1.26 157 22:46 01.04.2022
2911 Clouds 27 1009 81 10000 1.7 203 20:55 01.04.2022
2912 Clouds 27 1009 82 10000 1.7 203 20:35 01.04.2022
2913 Clouds 27 1009 81 10000 2.57 233 19:41 01.04.2022
2914 Clouds 27 1010 82 10000 2.81 241 19:23 01.04.2022
2915 Clouds 27 1010 82 10000 2.78 241 18:36 01.04.2022
2916 Clouds 27 1010 76 10000 2.78 249 17:38 01.04.2022
2917 Clouds 28 1010 72 10000 2.75 288 15:46 01.04.2022
2918 Clouds 28 1010 72 10000 2.75 288 15:46 01.04.2022
2919 Clouds 29 1009 74 6000 0 0 14:53 01.04.2022
2920 Clouds 30 1008 71 6000 1.54 300 13:39 01.04.2022
2921 Clouds 30 1008 71 6000 1.54 300 13:20 01.04.2022
2922 Clouds 31 1007 68 6000 1.54 290 12:24 01.04.2022
2923 Thunderstorm 31 1007 68 5000 2.06 300 10:50 01.04.2022
2924 Clouds 31 1008 63 6000 2.57 290 09:39 01.04.2022
2925 Haze 32 1010 63 5000 2.06 300 07:31 01.04.2022
2926 Haze 29 1012 78 5000 0 0 05:38 01.04.2022
2927 Haze 29 1011 75 4000 2.06 90 04:41 01.04.2022
2928 Haze 28 1011 79 4000 1.54 110 03:18 01.04.2022
2929 Haze 26 1009 86 3000 1.54 20 01:34 01.04.2022
2930 Clouds 26 1009 84 10000 1.57 164 22:31 31.03.2022
2931 Clouds 27 1009 82 10000 1.71 161 21:40 31.03.2022
2932 Clouds 27 1009 80 10000 1.43 174 20:51 31.03.2022
2933 Clouds 27 1010 82 10000 1.92 185 20:28 31.03.2022
2934 Clouds 27 1010 82 10000 2.62 223 19:29 31.03.2022
2935 Clouds 28 1010 82 10000 2.62 223 18:33 31.03.2022
2936 Clouds 28 1011 81 10000 3.94 246 16:47 31.03.2022
2937 Rain 27 1011 80 10000 4.15 251 15:56 31.03.2022
2938 Rain 28 1010 79 10000 4.15 251 15:29 31.03.2022
2939 Rain 28 1009 82 4000 2.06 250 14:48 31.03.2022
2940 Haze 28 1008 82 4000 2.57 240 13:42 31.03.2022
2941 Thunderstorm 29 1006 75 3000 6.17 240 11:31 31.03.2022
2942 Haze 31 1006 77 4000 3.09 60 10:26 31.03.2022
2943 Thunderstorm 29 1007 70 4000 2.57 60 09:40 31.03.2022
2944 Haze 33 1008 59 5000 4.12 30 07:49 31.03.2022
2945 Haze 29 1011 73 4000 1.54 150 03:30 31.03.2022
2946 Clouds 27 1009 91 10000 1.27 256 23:25 30.03.2022
2947 Clouds 26 1008 80 10000 1.33 243 21:57 30.03.2022
2948 Clouds 26 1008 80 10000 1.33 243 21:31 30.03.2022
2949 Clouds 26 1009 79 10000 1.28 243 20:44 30.03.2022
2950 Clouds 27 1009 75 10000 1.2 237 19:48 30.03.2022
2951 Clouds 28 1010 71 10000 0.98 251 18:44 30.03.2022
2952 Clouds 28 1011 70 10000 1.32 287 17:52 30.03.2022
2953 Clouds 29 1011 70 10000 1.61 294 17:23 30.03.2022
2954 Clouds 29 1011 70 10000 1.61 294 16:41 30.03.2022
2955 Clouds 29 1010 67 10000 1.97 317 15:59 30.03.2022
2956 Haze 29 1008 67 5000 1.54 330 14:36 30.03.2022
2957 Haze 30 1007 65 5000 3.09 350 13:23 30.03.2022
2958 Haze 32 1006 59 5000 3.09 360 12:32 30.03.2022
2959 Haze 34 1006 55 4000 2.57 60 10:48 30.03.2022
2960 Haze 32 1006 61 4000 0 0 09:55 30.03.2022
2961 Haze 34 1007 51 5000 1.54 120 08:27 30.03.2022
2962 Haze 32 1008 58 5000 0 0 07:28 30.03.2022
2963 Haze 32 1010 60 5000 2.57 180 05:40 30.03.2022
2964 Clouds 29 1011 74 10000 1.08 150 02:32 30.03.2022
2965 Clouds 27 1008 85 10000 1.38 212 22:42 29.03.2022
2966 Clouds 27 1008 85 10000 1.66 215 21:49 29.03.2022
2967 Clouds 27 1008 83 10000 2.04 230 21:28 29.03.2022
2968 Clouds 27 1009 81 10000 2.75 234 20:26 29.03.2022
2969 Clouds 27 1009 80 10000 2.75 234 19:32 29.03.2022
2970 Clouds 28 1010 78 10000 3.19 250 18:53 29.03.2022
2971 Clouds 27 1010 72 10000 3.47 266 17:52 29.03.2022
2972 Clouds 28 1010 72 10000 3.39 277 17:18 29.03.2022
2973 Clouds 28 1010 72 10000 3.39 277 16:53 29.03.2022
2974 Clouds 30 1009 74 10000 2.95 309 15:29 29.03.2022
2975 Clouds 29 1008 78 6000 0 0 14:43 29.03.2022
2976 Clouds 29 1008 78 6000 0 0 14:43 29.03.2022
2977 Clouds 30 1007 71 6000 2.06 350 13:35 29.03.2022
2978 Clouds 32 1006 62 6000 2.06 340 12:22 29.03.2022
2979 Clouds 33 1006 55 6000 3.09 310 11:18 29.03.2022
2980 Haze 32 1007 64 5000 3.09 270 09:58 29.03.2022
2981 Haze 33 1008 61 5000 2.57 240 08:44 29.03.2022
2982 Clouds 33 1009 67 6000 3.09 270 06:48 29.03.2022
2983 Haze 27 1009 79 3000 0 0 02:27 29.03.2022
2984 Clouds 25 1009 91 10000 2.98 229 23:26 28.03.2022
2985 Clouds 25 1009 91 10000 2.98 229 22:57 28.03.2022
2986 Clouds 25 1009 93 10000 2.98 229 22:31 28.03.2022
2987 Clouds 26 1008 95 10000 2.97 227 21:38 28.03.2022
2988 Clouds 26 1008 94 10000 3.05 235 20:35 28.03.2022
2989 Clouds 27 1009 93 10000 2.97 238 19:48 28.03.2022
2990 Clouds 27 1009 91 10000 2.97 238 19:30 28.03.2022
2991 Clouds 27 1009 92 10000 3.45 233 18:50 28.03.2022
2992 Clouds 26 1010 97 10000 3.74 235 17:41 28.03.2022
2993 Clouds 26 1010 96 10000 4.17 255 16:48 28.03.2022
2994 Clouds 28 1008 75 6000 1.54 350 14:56 28.03.2022
2995 Clouds 29 1008 75 6000 1.54 350 14:23 28.03.2022
2996 Clouds 30 1008 70 6000 2.06 20 13:19 28.03.2022
2997 Clouds 31 1007 63 6000 2.57 350 11:52 28.03.2022
2998 Clouds 34 1007 55 6000 2.57 330 09:55 28.03.2022
2999 Clouds 33 1007 60 6000 4.12 330 09:21 28.03.2022
3000 Clouds 33 1008 57 6000 3.09 310 08:24 28.03.2022
3001 Clouds 33 1009 58 6000 3.09 330 07:59 28.03.2022
3002 Clouds 31 1010 67 6000 1.54 270 06:30 28.03.2022
3003 Clouds 25 1010 97 10000 0.95 174 00:30 28.03.2022
3004 Rain 26 1009 99 10000 1.81 218 22:35 27.03.2022
3005 Rain 25 1009 99 10000 2.03 234 21:43 27.03.2022
3006 Rain 26 1009 98 10000 2.61 238 21:18 27.03.2022
3007 Rain 26 1010 95 10000 2.68 253 20:21 27.03.2022
3008 Rain 25 1010 97 10000 2.68 253 19:37 27.03.2022
3009 Rain 26 1010 88 10000 3.1 267 18:42 27.03.2022
3010 Rain 26 1011 87 10000 3.25 280 18:23 27.03.2022
3011 Rain 27 1011 88 10000 3.27 280 17:35 27.03.2022
3012 Clouds 27 1011 88 10000 3.92 289 15:47 27.03.2022
3013 Clouds 28 1008 84 4000 2.57 10 13:57 27.03.2022
3014 Clouds 28 1008 84 3000 2.06 240 13:20 27.03.2022
3015 Clouds 31 1006 76 6000 3.09 350 11:33 27.03.2022
3016 Haze 31 1007 70 5000 1.54 210 09:37 27.03.2022
3017 Clouds 33 1009 55 7000 4.12 290 07:31 27.03.2022
3018 Haze 29 1012 80 4000 1.54 220 03:45 27.03.2022
3019 Mist 25 1010 97 2000 0 0 00:26 27.03.2022
3020 Clouds 25 1009 97 10000 2.08 209 22:49 26.03.2022
3021 Clouds 25 1009 97 10000 2.08 220 21:54 26.03.2022
3022 Clouds 25 1009 96 10000 2.4 228 21:29 26.03.2022
3023 Clouds 25 1009 97 10000 2.65 232 19:32 26.03.2022
3024 Clouds 25 1009 97 10000 3.12 223 19:32 26.03.2022
3025 Clouds 25 1010 96 10000 3.13 229 18:40 26.03.2022
3026 Clouds 26 1010 94 10000 3.45 245 17:34 26.03.2022
3027 Clouds 26 1011 93 10000 3.57 246 16:34 26.03.2022
3028 Clouds 26 1011 90 10000 3.21 243 15:39 26.03.2022
3029 Mist 25 1010 97 4000 2.06 110 13:56 26.03.2022
3030 Rain 26 1010 94 4000 2.06 110 13:20 26.03.2022
3031 Haze 26 1008 86 5000 0 0 11:48 26.03.2022
3032 Haze 26 1008 90 5000 0 0 10:48 26.03.2022
3033 Rain 26 1009 91 5000 1.54 230 08:48 26.03.2022
3034 Thunderstorm 26 1012 90 3000 2.57 350 06:38 26.03.2022
3035 Haze 30 1012 70 5000 2.06 20 05:29 26.03.2022
3036 Haze 28 1012 87 4000 0 0 01:46 26.03.2022
3037 Clouds 27 1009 87 10000 0.64 121 22:21 25.03.2022
3038 Clouds 26 1009 84 10000 1.21 150 20:57 25.03.2022
3039 Clouds 27 1009 83 10000 1.62 148 20:26 25.03.2022
3040 Clouds 28 1010 80 10000 1.34 139 19:18 25.03.2022
3041 Clouds 28 1011 76 10000 1.36 112 18:22 25.03.2022
3042 Clouds 28 1011 76 10000 1.64 80 17:28 25.03.2022
3043 Clouds 28 1011 73 10000 1.93 60 16:27 25.03.2022
3044 Clouds 29 1011 74 10000 1.91 47 15:26 25.03.2022
3045 Clouds 29 1009 76 6000 4.12 30 13:28 25.03.2022
3046 Clouds 31 1007 67 6000 4.12 90 10:50 25.03.2022
3047 Haze 33 1007 64 5000 5.14 30 09:28 25.03.2022
3048 Haze 32 1008 60 5000 5.14 30 08:43 25.03.2022
3049 Haze 33 1008 54 5000 1.54 90 07:32 25.03.2022
3050 Haze 34 1009 51 5000 2.06 150 06:29 25.03.2022
3051 Mist 29 1011 79 2000 2.06 120 02:28 25.03.2022
3052 Clouds 26 1009 84 10000 1.24 186 22:56 24.03.2022
3053 Clouds 27 1009 84 10000 1.26 196 21:56 24.03.2022
3054 Clouds 27 1009 82 10000 0.81 199 20:45 24.03.2022
3055 Clouds 27 1009 83 10000 1.17 207 19:49 24.03.2022
3056 Clouds 27 1009 83 10000 1.17 207 19:49 24.03.2022
3057 Clouds 27 1009 81 10000 1.41 219 18:34 24.03.2022
3058 Clouds 28 1010 76 10000 1.31 234 17:32 24.03.2022
3059 Clouds 28 1010 71 10000 1.42 275 15:56 24.03.2022
3060 Clouds 29 1010 71 10000 1.47 304 14:51 24.03.2022
3061 Clouds 29 1009 70 10000 2.06 334 14:21 24.03.2022
3062 Clouds 29 1008 75 6000 1.54 350 13:31 24.03.2022
3063 Clouds 30 1007 72 6000 2.57 330 12:23 24.03.2022
3064 Rain 33 1006 54 10000 3.81 325 10:32 24.03.2022
3065 Clouds 32 1007 56 6000 5.14 330 09:23 24.03.2022
3066 Clouds 34 1007 54 6000 4.12 300 07:42 24.03.2022
3067 Clouds 31 1010 60 6000 5.14 240 04:43 24.03.2022
3068 Clouds 24 1008 94 6000 0 0 23:41 23.03.2022
3069 Clouds 25 1007 88 10000 2.55 227 22:18 23.03.2022
3070 Clouds 26 1007 86 10000 2.6 234 21:20 23.03.2022
3071 Clouds 26 1008 83 10000 2.8 238 19:51 23.03.2022
3072 Clouds 26 1009 81 10000 3.42 243 19:25 23.03.2022
3073 Clouds 27 1009 79 10000 3.8 244 17:47 23.03.2022
3074 Clouds 27 1010 77 10000 3.87 253 16:55 23.03.2022
3075 Rain 27 1010 75 10000 4.53 258 15:21 23.03.2022
3076 Clouds 26 1010 79 10000 4.53 258 14:41 23.03.2022
3077 Clouds 27 1009 82 6000 6.17 260 13:30 23.03.2022
3078 Clouds 30 1007 67 6000 4.12 250 10:37 23.03.2022
3079 Rain 28 1009 81 6000 1.54 270 07:56 23.03.2022
3080 Clouds 31 1010 66 7000 6.17 250 05:40 23.03.2022
3081 Clouds 28 1010 77 6000 0 0 01:59 23.03.2022
3082 Clouds 27 1009 83 6000 2.57 240 00:25 23.03.2022
3083 Clouds 27 1009 83 6000 2.57 240 00:25 23.03.2022
3084 Clouds 27 1008 78 10000 3.93 254 21:36 22.03.2022
3085 Clouds 27 1008 77 10000 3.52 250 20:57 22.03.2022
3086 Clouds 27 1008 76 10000 3.6 247 19:59 22.03.2022
3087 Clouds 27 1009 77 10000 3.45 242 19:25 22.03.2022
3088 Rain 27 1009 78 10000 3.52 241 18:45 22.03.2022
3089 Rain 27 1010 73 10000 3.43 242 17:42 22.03.2022
3090 Rain 28 1010 72 10000 3.82 244 16:37 22.03.2022
3091 Clouds 28 1011 71 10000 4.39 254 15:40 22.03.2022
3092 Clouds 28 1010 71 10000 4.33 260 15:19 22.03.2022
3093 Rain 28 1010 71 10000 4.33 260 14:42 22.03.2022
3094 Clouds 29 1009 65 6000 4.12 270 13:42 22.03.2022
3095 Clouds 30 1007 72 6000 1.54 270 11:53 22.03.2022
3096 Rain 31 1007 68 6000 1.54 260 10:54 22.03.2022
3097 Clouds 30 1007 70 6000 3.6 10 09:21 22.03.2022
3098 Clouds 33 1008 57 6000 5.14 270 07:30 22.03.2022
3099 Clouds 30 1010 75 6000 5.14 240 03:55 22.03.2022
3100 Clouds 27 1009 85 6000 2.57 240 00:46 22.03.2022
3101 Clouds 27 1008 83 10000 4.19 235 22:46 21.03.2022
3102 Clouds 27 1008 81 10000 4.56 234 21:30 21.03.2022
3103 Clouds 26 1008 81 10000 4.5 239 20:43 21.03.2022
3104 Clouds 27 1009 81 10000 4.45 241 20:23 21.03.2022
3105 Clouds 27 1009 76 10000 4.45 241 19:35 21.03.2022
3106 Clouds 28 1009 75 10000 4.8 241 18:47 21.03.2022
3107 Clouds 27 1010 73 10000 4.94 239 17:35 21.03.2022
3108 Clouds 27 1010 70 10000 4.91 240 16:59 21.03.2022
3109 Clouds 27 1010 71 10000 5.22 238 16:27 21.03.2022
3110 Clouds 27 1010 72 10000 5.22 238 15:43 21.03.2022
3111 Clouds 28 1009 71 10000 5.85 247 14:36 21.03.2022
3112 Clouds 29 1008 68 7000 5.14 260 13:20 21.03.2022
3113 Clouds 30 1007 62 7000 8.23 230 11:58 21.03.2022
3114 Clouds 30 1007 58 7000 7.72 240 11:25 21.03.2022
3115 Rain 31 1007 55 7000 7.72 240 09:49 21.03.2022
3116 Clouds 33 1008 58 6000 7.2 240 07:33 21.03.2022
3117 Clouds 33 1009 59 6000 5.14 270 06:18 21.03.2022
3118 Clouds 28 1009 77 7000 4.12 240 01:42 21.03.2022
3119 Clouds 27 1008 78 10000 3.73 239 22:57 20.03.2022
3120 Clouds 27 1008 78 10000 3.73 234 22:25 20.03.2022
3121 Clouds 27 1008 78 10000 3.79 234 21:38 20.03.2022
3122 Clouds 27 1008 77 10000 3.87 235 20:56 20.03.2022
3123 Clouds 27 1008 79 10000 3.87 235 20:36 20.03.2022
3124 Clouds 27 1008 78 10000 3.36 233 19:54 20.03.2022
3125 Clouds 27 1008 77 10000 3.61 228 19:24 20.03.2022
3126 Clouds 28 1009 74 10000 4.43 223 17:48 20.03.2022
3127 Clouds 28 1009 75 10000 4.77 229 17:26 20.03.2022
3128 Clouds 28 1009 73 10000 4.77 229 16:36 20.03.2022
3129 Clouds 28 1009 71 10000 5.13 239 14:42 20.03.2022
3130 Rain 29 1008 70 6000 4.63 280 13:39 20.03.2022
3131 Rain 29 1007 67 6000 7.72 220 12:19 20.03.2022
3132 Clouds 33 1006 59 6000 8.23 250 09:59 20.03.2022
3133 Clouds 35 1006 52 7000 8.75 290 08:21 20.03.2022
3134 Clouds 35 1007 51 7000 9.26 240 06:39 20.03.2022
3135 Clouds 31 1008 62 6000 4.63 240 03:25 20.03.2022
3136 Clouds 26 1007 83 6000 1.54 240 00:54 20.03.2022
3137 Clouds 26 1007 83 6000 1.54 240 00:54 20.03.2022
3138 Clouds 26 1007 83 6000 2.06 240 00:34 20.03.2022
3139 Clouds 27 1007 82 10000 3.44 246 22:39 19.03.2022
3140 Clouds 27 1006 81 10000 3.18 243 21:27 19.03.2022
3141 Clouds 27 1006 78 10000 3 236 19:39 19.03.2022
3142 Clouds 28 1006 75 10000 3.17 223 18:44 19.03.2022
3143 Clouds 28 1007 77 10000 3.51 222 17:55 19.03.2022
3144 Clouds 28 1007 75 10000 3.51 222 17:33 19.03.2022
3145 Clouds 27 1008 69 10000 3.76 224 15:41 19.03.2022
3146 Rain 29 1007 65 10000 4.53 243 14:21 19.03.2022
3147 Rain 29 1005 66 6000 6.17 240 12:56 19.03.2022
3148 Clouds 30 1005 69 6000 6.17 240 12:37 19.03.2022
3149 Clouds 31 1004 66 6000 7.72 240 11:47 19.03.2022
3150 Clouds 33 1004 60 6000 7.72 240 09:55 19.03.2022
3151 Rain 31 1008 72 6000 4.12 240 05:48 19.03.2022
3152 Clouds 29 1008 82 6000 4.12 230 02:37 19.03.2022
3153 Clouds 26 1008 90 6000 1.54 240 00:54 19.03.2022
3154 Clouds 26 1006 86 10000 3.13 246 23:19 18.03.2022
3155 Clouds 26 1006 85 10000 2.42 247 22:23 18.03.2022
3156 Clouds 27 1006 86 10000 2.23 245 20:40 18.03.2022
3157 Clouds 27 1006 87 10000 2.44 247 19:48 18.03.2022
3158 Clouds 27 1006 88 10000 2.23 206 19:19 18.03.2022
3159 Clouds 27 1006 88 10000 2.61 233 19:19 18.03.2022
3160 Clouds 27 1007 92 10000 2.5 229 17:27 18.03.2022
3161 Clouds 27 1007 89 10000 2.5 229 16:42 18.03.2022
3162 Rain 28 1007 80 10000 3.41 262 14:30 18.03.2022
3163 Haze 28 1006 85 5000 1.54 260 13:41 18.03.2022
3164 Haze 28 1005 82 5000 1.54 140 12:18 18.03.2022
3165 Rain 30 1004 75 6000 3.6 220 10:38 18.03.2022
3166 Rain 30 1004 79 5000 7.2 230 09:21 18.03.2022
3167 Rain 32 1005 72 6000 2.57 290 07:45 18.03.2022
3168 Haze 31 1008 74 5000 2.06 300 05:39 18.03.2022
3169 Mist 28 1008 88 2000 1.54 220 02:44 18.03.2022
3170 Mist 25 1007 100 2000 0 0 00:21 18.03.2022
3171 Clouds 25 1007 99 10000 1.13 137 22:54 17.03.2022
3172 Clouds 25 1006 99 10000 1.51 132 22:21 17.03.2022
3173 Clouds 25 1006 99 10000 1.51 132 21:47 17.03.2022
3174 Clouds 25 1006 99 10000 1.68 151 21:18 17.03.2022
3175 Clouds 25 1006 99 10000 1.68 151 20:32 17.03.2022
3176 Clouds 25 1007 99 10000 1.62 165 19:41 17.03.2022
3177 Clouds 26 1007 99 10000 1.56 174 18:57 17.03.2022
3178 Clouds 26 1008 99 10000 1.08 108 17:55 17.03.2022
3179 Clouds 26 1008 99 10000 1.19 100 16:34 17.03.2022
3180 Clouds 27 1008 99 10000 1.66 86 15:44 17.03.2022
3181 Clouds 27 1008 99 10000 2.01 86 15:21 17.03.2022
3182 Haze 27 1006 94 5000 2.06 240 13:49 17.03.2022
3183 Haze 27 1005 96 5000 2.57 240 12:49 17.03.2022
3184 Haze 28 1005 89 5000 3.09 240 11:53 17.03.2022
3185 Haze 29 1004 89 5000 4.12 240 11:22 17.03.2022
3186 Haze 32 1004 68 5000 1.54 90 09:47 17.03.2022
3187 Haze 31 1005 79 5000 2.57 270 08:31 17.03.2022
3188 Clouds 30 1004 89 10000 5 35 07:32 17.03.2022
3189 Haze 30 1008 86 2000 3.09 90 05:39 17.03.2022
3190 Rain 27 1007 94 2000 1.54 60 00:45 17.03.2022
3191 Clouds 26 1006 95 10000 0.19 232 22:59 16.03.2022
3192 Clouds 26 1006 93 10000 0.18 227 22:40 16.03.2022
3193 Rain 26 1006 93 10000 0.42 222 22:19 16.03.2022
3194 Clouds 26 1006 93 10000 0.51 151 21:29 16.03.2022
3195 Clouds 26 1007 89 10000 1.25 100 19:27 16.03.2022
3196 Clouds 27 1007 88 10000 1.25 100 18:58 16.03.2022
3197 Clouds 27 1008 87 10000 2.2 118 18:24 16.03.2022
3198 Clouds 27 1008 85 10000 2.2 118 17:37 16.03.2022
3199 Clouds 28 1008 81 10000 2.03 109 16:50 16.03.2022
3200 Clouds 27 1008 80 10000 2.08 130 15:41 16.03.2022
3201 Clouds 29 1008 76 10000 1.8 91 14:24 16.03.2022
3202 Clouds 29 1005 71 6000 1.54 80 13:22 16.03.2022
3203 Clouds 31 1004 62 6000 2.57 30 11:51 16.03.2022
3204 Clouds 31 1004 59 6000 4.12 60 11:19 16.03.2022
3205 Clouds 32 1004 56 6000 5.14 30 09:59 16.03.2022
3206 Clouds 33 1005 55 6000 4.12 30 08:38 16.03.2022
3207 Clouds 33 1005 55 6000 4.12 30 08:38 16.03.2022
3208 Haze 32 1008 62 5000 2.06 80 04:35 16.03.2022
3209 Mist 24 1007 100 1500 0 0 00:42 16.03.2022
3210 Clouds 24 1006 99 10000 0.88 172 22:37 15.03.2022
3211 Clouds 25 1006 99 10000 1.29 176 21:50 15.03.2022
3212 Clouds 25 1006 97 10000 1.45 214 19:53 15.03.2022
3213 Rain 25 1006 95 10000 1.27 253 18:45 15.03.2022
3214 Clouds 25 1008 95 10000 0.69 229 16:52 15.03.2022
3215 Clouds 25 1008 94 10000 1.28 256 16:18 15.03.2022
3216 Clouds 25 1007 97 10000 1.65 258 14:57 15.03.2022
3217 Clouds 25 1007 97 10000 1.65 258 14:31 15.03.2022
3218 Clouds 25 1006 96 6000 1.54 240 13:27 15.03.2022
3219 Haze 26 1006 96 5000 2.57 240 11:57 15.03.2022
3220 Haze 26 1005 95 5000 3.09 230 11:19 15.03.2022
3221 Clouds 26 1006 93 1000 5.14 270 09:37 15.03.2022
3222 Clouds 28 1006 80 3000 2.57 30 08:32 15.03.2022
3223 Clouds 29 1007 79 3000 2.57 60 07:50 15.03.2022
3224 Clouds 29 1008 79 4000 4.12 60 06:35 15.03.2022
3225 Haze 28 1008 84 4000 2.57 120 02:38 15.03.2022
3226 Clouds 27 1007 94 10000 1.47 170 23:38 14.03.2022
3227 Clouds 27 1007 94 10000 1.93 179 23:20 14.03.2022
3228 Clouds 27 1006 93 10000 1.98 182 21:59 14.03.2022
3229 Clouds 27 1006 96 10000 1.68 187 21:20 14.03.2022
3230 Clouds 27 1006 97 10000 1.68 187 20:34 14.03.2022
3231 Clouds 27 1006 97 10000 1.62 206 19:59 14.03.2022
3232 Clouds 27 1006 97 10000 0.86 222 18:30 14.03.2022
3233 Rain 27 1007 94 10000 1.18 244 17:44 14.03.2022
3234 Rain 28 1008 93 10000 1.27 261 16:57 14.03.2022
3235 Rain 27 1008 92 10000 1.7 297 15:29 14.03.2022
3236 Rain 27 1008 86 10000 1.7 297 14:33 14.03.2022
3237 Rain 27 1006 79 6000 2.06 260 11:53 14.03.2022
3238 Thunderstorm 31 1004 71 5000 2.06 330 10:35 14.03.2022
3239 Haze 34 1004 61 5000 3.6 10 09:39 14.03.2022
3240 Haze 34 1004 59 5000 3.6 10 09:20 14.03.2022
3241 Haze 34 1004 60 5000 4.12 340 08:49 14.03.2022
3242 Clouds 35 1006 54 6000 2.57 320 07:21 14.03.2022
3243 Clouds 31 1009 70 6000 2.06 210 04:27 14.03.2022
3244 Haze 28 1008 84 4000 1.54 170 01:52 14.03.2022
3245 Mist 26 1007 98 3000 1.54 250 00:40 14.03.2022
3246 Rain 27 1007 95 10000 1.25 246 21:56 13.03.2022
3247 Rain 27 1006 96 10000 1.01 247 21:28 13.03.2022
3248 Rain 27 1006 96 10000 1.01 247 20:53 13.03.2022
3249 Rain 27 1007 96 10000 0.85 250 20:28 13.03.2022
3250 Clouds 27 1007 96 10000 0.85 250 19:43 13.03.2022
3251 Rain 27 1007 96 10000 0.79 282 19:25 13.03.2022
3252 Clouds 28 1007 94 10000 0.79 282 18:50 13.03.2022
3253 Clouds 28 1007 94 10000 3.02 256 18:27 13.03.2022
3254 Rain 28 1007 93 10000 3.02 256 17:40 13.03.2022
3255 Rain 28 1008 90 10000 3.01 271 16:48 13.03.2022
3256 Rain 28 1008 90 10000 3.36 284 16:27 13.03.2022
3257 Rain 28 1008 92 10000 3.36 284 15:44 13.03.2022
3258 Rain 28 1008 92 10000 3.91 295 14:49 13.03.2022
3259 Clouds 27 1007 95 6000 1.54 210 13:30 13.03.2022
3260 Clouds 28 1007 92 6000 0 0 12:37 13.03.2022
3261 Rain 28 1005 92 6000 1.54 360 11:51 13.03.2022
3262 Clouds 28 1005 89 6000 1.54 320 11:25 13.03.2022
3263 Rain 27 1005 92 5000 1.54 10 10:44 13.03.2022
3264 Clouds 31 1004 71 6000 2.57 330 09:43 13.03.2022
3265 Clouds 30 1004 74 6000 2.57 330 09:20 13.03.2022
3266 Clouds 32 1005 64 6000 4.12 330 08:39 13.03.2022
3267 Clouds 32 1006 63 6000 4.12 340 07:37 13.03.2022
3268 Clouds 31 1007 70 6000 1.54 20 05:39 13.03.2022
3269 Haze 28 1007 86 5000 1.54 30 01:48 13.03.2022
3270 Clouds 26 1007 97 10000 2.56 266 23:30 12.03.2022
3271 Clouds 26 1006 93 10000 2.78 265 21:48 12.03.2022
3272 Clouds 26 1006 93 10000 3.27 262 20:27 12.03.2022
3273 Clouds 27 1006 90 10000 3.27 262 19:46 12.03.2022
3274 Clouds 27 1007 89 10000 3.15 266 18:44 12.03.2022
3275 Clouds 27 1007 89 10000 3.18 268 18:20 12.03.2022
3276 Clouds 27 1008 88 10000 3.29 262 16:32 12.03.2022
3277 Clouds 26 1008 92 10000 3.51 265 15:55 12.03.2022
3278 Clouds 27 1007 89 10000 3.95 272 15:22 12.03.2022
3279 Rain 26 1006 98 6000 0 0 13:54 12.03.2022
3280 Rain 27 1005 92 6000 0 0 12:33 12.03.2022
3281 Haze 28 1005 91 5000 0 0 11:55 12.03.2022
3282 Rain 27 1005 94 5000 0 0 11:34 12.03.2022
3283 Clouds 26 1004 96 5000 2.06 250 10:32 12.03.2022
3284 Clouds 27 1005 95 4000 4.12 240 09:44 12.03.2022
3285 Thunderstorm 28 1005 91 3000 3.09 270 08:24 12.03.2022
3286 Clouds 29 1006 83 2000 5.14 360 06:44 12.03.2022
3287 Clouds 28 1006 85 6000 1.54 250 01:44 12.03.2022
3288 Haze 26 1005 91 5000 2.57 260 23:46 11.03.2022
3289 Clouds 26 1006 90 10000 4.72 257 22:36 11.03.2022
3290 Clouds 26 1005 88 10000 4.39 253 21:24 11.03.2022
3291 Clouds 26 1005 88 10000 4.39 253 20:48 11.03.2022
3292 Clouds 26 1005 87 10000 4.49 251 20:26 11.03.2022
3293 Clouds 26 1005 86 10000 4.49 251 19:35 11.03.2022
3294 Clouds 26 1006 86 10000 4.64 252 18:43 11.03.2022
3295 Clouds 26 1007 86 10000 5.28 262 17:26 11.03.2022
3296 Clouds 26 1008 86 10000 4.83 266 16:26 11.03.2022
3297 Rain 26 1008 86 10000 4.83 266 15:51 11.03.2022
3298 Rain 26 1006 97 4000 2.06 210 13:45 11.03.2022
3299 Thunderstorm 26 1005 100 3000 4.12 240 12:41 11.03.2022
3300 Thunderstorm 27 1005 95 3000 4.12 240 12:20 11.03.2022
3301 Clouds 28 1004 85 2000 6.17 220 11:28 11.03.2022
3302 Clouds 32 1003 68 6000 4.12 330 09:36 11.03.2022
3303 Clouds 33 1004 65 6000 2.57 330 08:28 11.03.2022
3304 Haze 32 1004 64 5000 5.14 340 07:48 11.03.2022
3305 Haze 32 1006 66 4000 4.12 320 06:44 11.03.2022
3306 Haze 31 1008 71 4000 1.54 90 04:44 11.03.2022
3307 Haze 28 1007 81 4000 1.54 240 01:51 11.03.2022
3308 Clouds 26 1007 95 10000 1.1 201 22:33 10.03.2022
3309 Clouds 26 1007 93 10000 0.7 183 21:58 10.03.2022
3310 Clouds 26 1006 92 10000 0.8 161 21:26 10.03.2022
3311 Clouds 26 1006 91 10000 0.8 161 20:37 10.03.2022
3312 Clouds 26 1007 91 10000 1.59 97 19:22 10.03.2022
3313 Clouds 27 1008 89 10000 2.91 94 18:18 10.03.2022
3314 Rain 27 1008 84 10000 3.71 107 16:53 10.03.2022
3315 Rain 27 1008 87 10000 3.74 110 15:36 10.03.2022
3316 Rain 27 1007 87 8028 0.62 132 14:19 10.03.2022
3317 Rain 26 1006 88 6000 2.06 160 12:44 10.03.2022
3318 Rain 27 1006 83 10000 2.64 248 11:33 10.03.2022
3319 Haze 30 1004 69 5000 3.6 350 10:19 10.03.2022
3320 Clouds 32 1005 71 10000 4.41 339 08:40 10.03.2022
3321 Haze 33 1007 55 5000 1.54 280 05:48 10.03.2022
3322 Haze 29 1009 79 4000 1.54 140 03:22 10.03.2022
3323 Clouds 25 1007 94 6000 1.54 180 00:23 10.03.2022
3324 Clouds 25 1007 84 10000 1.27 209 22:43 09.03.2022
3325 Clouds 25 1007 84 10000 1.4 194 21:48 09.03.2022
3326 Clouds 25 1007 84 10000 0.92 165 20:53 09.03.2022
3327 Clouds 25 1008 83 10000 0.54 65 19:23 09.03.2022
3328 Clouds 26 1009 81 10000 0.63 133 17:57 09.03.2022
3329 Clouds 26 1009 82 10000 1.74 116 17:23 09.03.2022
3330 Clouds 25 1009 82 10000 2.56 109 15:41 09.03.2022
3331 Clouds 26 1008 80 10000 3.13 147 14:27 09.03.2022
3332 Clouds 26 1007 83 6000 0 0 13:50 09.03.2022
3333 Haze 26 1007 89 5000 1.54 180 12:25 09.03.2022
3334 Haze 26 1006 89 5000 2.57 180 11:48 09.03.2022
3335 Haze 26 1006 89 5000 5.14 210 10:55 09.03.2022
3336 Haze 31 1006 70 4000 6.17 240 09:28 09.03.2022
3337 Clouds 31 1006 62 10000 2.73 314 08:44 09.03.2022
3338 Haze 32 1008 62 5000 2.57 30 05:56 09.03.2022
3339 Mist 26 1008 94 4000 0 0 00:58 09.03.2022
3340 Mist 25 1007 98 3000 0 0 23:48 08.03.2022
3341 Clouds 26 1008 94 10000 1.27 205 22:46 08.03.2022
3342 Clouds 26 1007 94 10000 1.12 231 21:47 08.03.2022
3343 Clouds 26 1007 93 10000 1.37 233 21:19 08.03.2022
3344 Clouds 26 1007 92 10000 1.21 208 20:19 08.03.2022
3345 Clouds 26 1007 90 10000 1.22 196 18:57 08.03.2022
3346 Clouds 26 1008 89 10000 2.21 211 18:21 08.03.2022
3347 Clouds 27 1009 83 10000 2.9 203 16:40 08.03.2022
3348 Rain 27 1009 82 10000 3.01 198 14:55 08.03.2022
3349 Rain 26 1007 94 5000 0 0 13:39 08.03.2022
3350 Rain 27 1006 87 5000 2.06 230 12:20 08.03.2022
3351 Thunderstorm 26 1006 86 2000 1.54 210 11:42 08.03.2022
3352 Haze 31 1004 67 5000 5.14 220 10:28 08.03.2022
3353 Clouds 33 1005 63 6000 1.54 300 08:56 08.03.2022
3354 Clouds 32 1008 61 6000 1.54 210 05:51 08.03.2022
3355 Haze 28 1009 81 4000 1.54 200 01:53 08.03.2022
3356 Clouds 26 1008 86 10000 1.54 292 22:43 07.03.2022
3357 Clouds 25 1007 86 10000 1.21 286 21:44 07.03.2022
3358 Clouds 25 1007 85 10000 0.4 246 20:56 07.03.2022
3359 Clouds 25 1008 85 10000 0.8 117 20:29 07.03.2022
3360 Clouds 26 1008 85 10000 0.8 117 19:49 07.03.2022
3361 Clouds 26 1008 84 10000 1.56 108 18:57 07.03.2022
3362 Rain 26 1009 84 10000 1.2 141 18:29 07.03.2022
3363 Clouds 26 1010 84 10000 0.97 121 17:24 07.03.2022
3364 Rain 26 1010 82 10000 0.97 121 16:41 07.03.2022
3365 Clouds 27 1010 79 10000 0.6 56 14:49 07.03.2022
3366 Clouds 30 1007 65 6000 3.09 250 12:34 07.03.2022
3367 Clouds 31 1006 55 7000 3.09 220 11:26 07.03.2022
3368 Clouds 32 1005 57 6000 1.54 280 10:30 07.03.2022
3369 Clouds 32 1006 58 6000 3.6 240 08:34 07.03.2022
3370 Clouds 28 1009 73 6000 3.09 240 02:25 07.03.2022
3371 Clouds 26 1008 80 6000 1.54 270 00:20 07.03.2022
3372 Clouds 27 1008 76 10000 2.54 208 23:22 06.03.2022
3373 Rain 27 1007 75 10000 2.91 222 22:27 06.03.2022
3374 Clouds 27 1007 74 10000 4.16 235 21:24 06.03.2022
3375 Clouds 27 1007 73 10000 4.1 233 20:29 06.03.2022
3376 Clouds 27 1007 72 10000 4.1 233 19:39 06.03.2022
3377 Clouds 28 1008 72 10000 4.3 238 18:50 06.03.2022
3378 Clouds 27 1009 75 10000 4.89 238 17:46 06.03.2022
3379 Clouds 28 1010 71 10000 5.3 240 17:19 06.03.2022
3380 Clouds 28 1010 70 10000 5.82 248 16:28 06.03.2022
3381 Clouds 28 1010 71 10000 5.95 253 15:26 06.03.2022
3382 Clouds 28 1010 73 10000 5.91 253 14:42 06.03.2022
3383 Rain 27 1008 77 6000 5.14 240 13:49 06.03.2022
3384 Rain 28 1008 75 10000 6.22 253 12:40 06.03.2022
3385 Clouds 28 1007 73 6000 7.72 240 11:46 06.03.2022
3386 Clouds 29 1007 69 6000 7.72 270 10:40 06.03.2022
3387 Clouds 30 1007 70 6000 7.72 270 09:18 06.03.2022
3388 Clouds 29 1007 70 6000 7.72 270 08:28 06.03.2022
3389 Clouds 30 1008 66 6000 6.17 270 07:25 06.03.2022
3390 Clouds 28 1010 76 6000 3.09 240 02:45 06.03.2022
3391 Clouds 26 1008 85 6000 2.06 240 00:36 06.03.2022
3392 Clouds 25 1008 85 6000 2.06 240 00:18 06.03.2022
3393 Clouds 27 1008 79 10000 2.57 262 23:19 05.03.2022
3394 Clouds 28 1008 82 10000 2.57 262 22:34 05.03.2022
3395 Clouds 28 1008 82 10000 1.52 261 21:29 05.03.2022
3396 Clouds 29 1008 80 10000 1.52 261 20:32 05.03.2022
3397 Clouds 29 1009 82 10000 1.25 80 19:19 05.03.2022
3398 Rain 29 1009 82 10000 1.04 83 18:39 05.03.2022
3399 Rain 30 1010 80 10000 1.99 97 17:34 05.03.2022
3400 Rain 29 1010 76 10000 2.23 152 16:19 05.03.2022
3401 Rain 28 1010 74 10000 2.23 187 15:20 05.03.2022
3402 Clouds 28 1010 73 10000 2.21 186 14:36 05.03.2022
3403 Clouds 28 1008 76 6000 2.57 220 13:42 05.03.2022
3404 Clouds 28 1008 75 6000 2.06 220 12:45 05.03.2022
3405 Clouds 28 1006 80 6000 5.14 220 11:21 05.03.2022
3406 Clouds 28 1006 80 6000 4.12 240 10:52 05.03.2022
3407 Clouds 26 1008 93 4000 5.14 240 09:33 05.03.2022
3408 Rain 29 1006 76 10000 7.67 267 08:31 05.03.2022
3409 Haze 27 1010 76 5000 6.17 240 07:22 05.03.2022
3410 Clouds 32 1010 61 6000 5.14 240 05:39 05.03.2022
3411 Haze 26 1008 87 5000 1.54 220 00:49 05.03.2022
3412 Clouds 25 1008 70 10000 1.97 217 23:20 04.03.2022
3413 Clouds 25 1008 70 10000 1.92 216 22:39 04.03.2022
3414 Clouds 26 1007 69 10000 2.28 235 21:43 04.03.2022
3415 Clouds 26 1007 69 10000 2.41 246 20:45 04.03.2022
3416 Rain 26 1007 68 10000 2.33 244 19:38 04.03.2022
3417 Clouds 26 1008 68 10000 2.42 239 18:58 04.03.2022
3418 Clouds 26 1008 65 10000 3.48 244 18:36 04.03.2022
3419 Clouds 27 1010 62 10000 4.08 240 17:29 04.03.2022
3420 Clouds 29 1010 68 10000 4.78 241 16:26 04.03.2022
3421 Clouds 27 1009 62 10000 5.26 253 15:27 04.03.2022
3422 Clouds 29 1008 74 6000 4.12 290 13:36 04.03.2022
3423 Clouds 30 1006 62 6000 3.09 290 12:48 04.03.2022
3424 Clouds 31 1006 63 6000 3.09 240 11:37 04.03.2022
3425 Clouds 32 1006 63 6000 3.09 250 10:30 04.03.2022
3426 Clouds 32 1007 60 6000 3.09 350 09:28 04.03.2022
3427 Clouds 32 1008 60 6000 2.57 290 07:49 04.03.2022
3428 Clouds 31 1009 66 6000 1.54 210 06:55 04.03.2022
3429 Haze 27 1011 86 5000 2.06 240 02:52 04.03.2022
3430 Rain 24 1009 73 10000 2.26 239 23:43 03.03.2022
3431 Rain 24 1008 73 10000 3.18 248 22:18 03.03.2022
3432 Rain 24 1008 73 10000 3.18 248 21:37 03.03.2022
3433 Rain 26 1008 73 10000 3.43 255 20:50 03.03.2022
3434 Clouds 26 1008 72 10000 3.56 258 19:42 03.03.2022
3435 Clouds 27 1009 72 10000 4.02 258 18:44 03.03.2022
3436 Clouds 27 1009 71 10000 4.08 263 17:43 03.03.2022
3437 Clouds 27 1010 69 10000 3.89 270 17:24 03.03.2022
3438 Clouds 27 1010 68 10000 3.91 273 15:47 03.03.2022
3439 Clouds 27 1009 67 10000 3.76 274 14:52 03.03.2022
3440 Clouds 27 1009 67 10000 3.77 274 14:32 03.03.2022
3441 Clouds 30 1007 66 6000 2.57 250 12:52 03.03.2022
3442 Clouds 31 1007 60 10000 5.48 286 11:39 03.03.2022
3443 Clouds 32 1005 61 6000 4.12 270 10:40 03.03.2022
3444 Clouds 32 1006 64 6000 5.14 360 08:45 03.03.2022
3445 Clouds 33 1007 56 6000 2.57 360 07:25 03.03.2022
3446 Clouds 32 1008 62 6000 2.57 360 06:33 03.03.2022
3447 Clouds 25 1009 88 6000 5.14 240 01:21 03.03.2022
3448 Clouds 25 1008 76 10000 3.78 247 23:29 02.03.2022
3449 Clouds 25 1008 76 10000 3.78 247 22:49 02.03.2022
3450 Clouds 25 1007 74 10000 4.42 256 21:29 02.03.2022
3451 Clouds 25 1007 74 10000 4.42 256 20:44 02.03.2022
3452 Clouds 25 1007 73 10000 4.76 250 19:56 02.03.2022
3453 Clouds 25 1007 73 10000 4.76 250 19:34 02.03.2022
3454 Clouds 25 1008 73 10000 4.84 248 18:44 02.03.2022
3455 Clouds 26 1009 72 10000 5.11 251 17:57 02.03.2022
3456 Clouds 26 1009 71 10000 5.23 249 17:21 02.03.2022
3457 Clouds 26 1009 71 10000 5.23 249 16:42 02.03.2022
3458 Clouds 26 1009 69 10000 6.35 253 14:44 02.03.2022
3459 Clouds 28 1008 74 6000 5.14 240 13:24 02.03.2022
3460 Clouds 29 1007 73 6000 2.57 270 12:42 02.03.2022
3461 Clouds 30 1006 72 6000 4.12 300 11:40 02.03.2022
3462 Clouds 30 1006 72 6000 4.12 300 11:22 02.03.2022
3463 Clouds 30 1007 71 6000 5.14 270 09:41 02.03.2022
3464 Clouds 30 1007 69 6000 4.12 270 08:55 02.03.2022
3465 Clouds 30 1008 66 6000 7.72 270 07:38 02.03.2022
3466 Rain 31 1009 58 6000 6.69 270 06:51 02.03.2022
3467 Clouds 27 1010 89 6000 4.12 240 02:35 02.03.2022
3468 Clouds 25 1009 94 6000 2.06 240 23:49 01.03.2022
3469 Clouds 24 1008 74 10000 4.55 249 22:45 01.03.2022
3470 Clouds 25 1008 92 10000 4.55 253 22:19 01.03.2022
3471 Clouds 25 1008 92 10000 4.66 250 21:25 01.03.2022
3472 Clouds 25 1008 92 10000 4.62 250 20:30 01.03.2022
3473 Clouds 25 1008 92 10000 4.62 250 20:30 01.03.2022
3474 Clouds 25 1008 92 10000 4.62 250 20:30 01.03.2022
3475 Clouds 25 1009 92 10000 5.61 251 19:28 01.03.2022
3476 Clouds 25 1009 90 10000 5.45 252 18:49 01.03.2022
3477 Clouds 25 1009 88 10000 5.53 254 18:20 01.03.2022
3478 Clouds 26 1010 87 10000 5.3 253 17:22 01.03.2022
3479 Clouds 26 1010 88 10000 5.3 253 16:31 01.03.2022
3480 Clouds 26 1010 87 10000 5.4 250 15:38 01.03.2022
3481 Clouds 27 1010 84 10000 5.89 250 14:34 01.03.2022
3482 Clouds 27 1008 81 6000 2.57 230 13:52 01.03.2022
3483 Clouds 27 1008 81 6000 2.57 230 13:24 01.03.2022
3484 Clouds 28 1008 78 6000 3.6 250 12:30 01.03.2022
3485 Clouds 28 1007 77 6000 5.14 270 10:34 01.03.2022
3486 Haze 29 1008 77 5000 5.14 250 08:42 01.03.2022
3487 Clouds 29 1008 76 5000 5.14 280 07:52 01.03.2022
3488 Haze 27 1010 89 5000 3.6 260 05:54 01.03.2022
3489 Rain 24 1011 96 5000 1.54 260 02:33 01.03.2022
3490 Rain 24 1009 100 4000 3.09 240 00:34 01.03.2022
3491 Rain 25 1009 99 10000 3.54 242 23:30 28.02.2022
3492 Rain 24 1008 99 10000 3.06 247 22:18 28.02.2022
3493 Rain 25 1008 95 10000 3.01 247 21:37 28.02.2022
3494 Clouds 26 1008 83 10000 3.33 242 19:56 28.02.2022
3495 Clouds 26 1008 84 10000 3.33 242 19:36 28.02.2022
3496 Clouds 26 1008 83 10000 3.34 248 18:43 28.02.2022
3497 Clouds 26 1009 81 10000 3.44 251 17:33 28.02.2022
3498 Clouds 27 1009 81 10000 3.49 251 16:34 28.02.2022
3499 Clouds 28 1008 74 10000 4.08 248 15:24 28.02.2022
3500 Clouds 28 1008 73 10000 4.08 248 14:32 28.02.2022
3501 Haze 28 1007 72 6000 2.57 240 13:48 28.02.2022
3502 Haze 29 1006 72 6000 4.12 260 12:48 28.02.2022
3503 Haze 29 1006 68 6000 3.09 270 11:58 28.02.2022
3504 Haze 30 1006 64 6000 3.09 270 10:49 28.02.2022
3505 Haze 31 1006 66 6000 6.17 270 10:21 28.02.2022
3506 Haze 31 1007 63 6000 5.14 240 09:36 28.02.2022
3507 Clouds 31 1006 54 10000 6.33 278 08:44 28.02.2022
3508 Haze 29 1009 78 5000 5.14 210 07:43 28.02.2022
3509 Clouds 30 1010 66 6000 5.14 270 05:25 28.02.2022
3510 Clouds 29 1011 70 6000 4.12 270 04:27 28.02.2022
3511 Clouds 25 1009 91 10000 4.13 258 23:45 27.02.2022
3512 Clouds 25 1009 91 10000 4.06 261 22:36 27.02.2022
3513 Clouds 25 1008 90 10000 4 264 21:55 27.02.2022
3514 Clouds 25 1008 90 10000 4 264 21:35 27.02.2022
3515 Clouds 26 1008 88 10000 4.07 259 20:40 27.02.2022
3516 Clouds 26 1008 87 10000 4.17 254 19:59 27.02.2022
3517 Clouds 26 1009 86 10000 4.42 254 19:27 27.02.2022
3518 Clouds 26 1009 86 10000 4.42 254 18:56 27.02.2022
3519 Clouds 26 1010 88 10000 4.24 263 17:57 27.02.2022
3520 Clouds 26 1010 87 10000 4.38 262 17:26 27.02.2022
3521 Clouds 26 1010 83 10000 4.46 259 16:22 27.02.2022
3522 Clouds 27 1008 77 6000 2.57 250 13:49 27.02.2022
3523 Clouds 28 1007 72 6000 5.14 240 12:35 27.02.2022
3524 Clouds 30 1006 65 6000 7.72 270 11:28 27.02.2022
3525 Clouds 29 1007 70 6000 5.14 250 10:36 27.02.2022
3526 Clouds 31 1007 62 6000 7.72 240 09:52 27.02.2022
3527 Clouds 30 1008 67 6000 7.72 270 09:21 27.02.2022
3528 Clouds 30 1008 66 6000 3.6 270 08:38 27.02.2022
3529 Clouds 30 1011 70 6000 3.6 270 05:43 27.02.2022
3530 Clouds 29 1011 76 7000 3.6 240 02:57 27.02.2022
3531 Clouds 25 1009 95 6000 2.57 290 23:36 26.02.2022
3532 Clouds 25 1009 91 10000 3.85 241 22:42 26.02.2022
3533 Clouds 25 1009 94 10000 3.66 247 21:26 26.02.2022
3534 Clouds 25 1009 91 10000 3.66 247 20:37 26.02.2022
3535 Clouds 26 1009 89 10000 4.02 246 19:54 26.02.2022
3536 Clouds 25 1009 89 10000 4.02 246 19:33 26.02.2022
3537 Clouds 25 1010 88 10000 3.98 243 18:33 26.02.2022
3538 Clouds 25 1010 85 10000 4.21 245 17:34 26.02.2022
3539 Clouds 26 1010 84 10000 4.05 246 16:38 26.02.2022
3540 Clouds 26 1011 82 10000 4.19 245 15:37 26.02.2022
3541 Clouds 26 1010 81 10000 4.32 245 15:18 26.02.2022
3542 Clouds 26 1010 80 10000 4.28 245 14:41 26.02.2022
3543 Clouds 26 1010 81 6000 2.06 260 13:51 26.02.2022
3544 Clouds 27 1009 77 6000 2.06 270 12:53 26.02.2022
3545 Clouds 28 1009 75 6000 1.54 270 11:50 26.02.2022
3546 Clouds 28 1008 75 6000 2.57 260 11:25 26.02.2022
3547 Clouds 27 1009 77 6000 3.6 260 09:44 26.02.2022
3548 Clouds 25 1009 88 5000 7.2 220 08:28 26.02.2022
3549 Clouds 27 1011 78 4000 8.75 240 06:31 26.02.2022
3550 Clouds 25 1009 89 6000 1.54 180 23:52 25.02.2022
3551 Clouds 25 1009 88 10000 3.49 242 22:34 25.02.2022
3552 Clouds 25 1009 86 10000 3.63 243 21:32 25.02.2022
3553 Clouds 25 1008 85 10000 3.72 238 20:56 25.02.2022
3554 Clouds 25 1009 84 10000 4.2 245 20:27 25.02.2022
3555 Clouds 26 1010 80 10000 3.41 250 17:57 25.02.2022
3556 Clouds 26 1011 79 10000 3.49 239 16:59 25.02.2022
3557 Clouds 27 1011 74 10000 3.87 235 15:56 25.02.2022
3558 Clouds 27 1010 73 10000 4.34 236 15:23 25.02.2022
3559 Clouds 27 1010 72 10000 4.3 236 14:56 25.02.2022
3560 Clouds 27 1010 70 10000 4.3 236 14:37 25.02.2022
3561 Clouds 27 1009 64 6000 4.12 280 13:30 25.02.2022
3562 Rain 28 1008 61 6000 4.12 250 12:33 25.02.2022
3563 Rain 29 1007 61 6000 5.14 270 11:22 25.02.2022
3564 Clouds 30 1007 58 6000 5.14 250 10:23 25.02.2022
3565 Clouds 30 1008 62 6000 5.14 240 09:51 25.02.2022
3566 Clouds 29 1009 61 6000 6.17 270 08:42 25.02.2022
3567 Clouds 29 1009 65 6000 4.12 250 07:35 25.02.2022
3568 Rain 28 1012 77 6000 2.06 270 05:43 25.02.2022
3569 Rain 25 1013 88 5000 5.14 240 02:48 25.02.2022
3570 Clouds 26 1010 76 10000 3.41 252 22:55 24.02.2022
3571 Clouds 26 1009 74 10000 3.33 245 21:51 24.02.2022
3572 Clouds 26 1009 73 10000 3.33 245 21:31 24.02.2022
3573 Clouds 26 1009 74 10000 3.64 245 20:53 24.02.2022
3574 Clouds 27 1009 73 10000 3.34 245 19:38 24.02.2022
3575 Clouds 27 1010 70 10000 3.5 252 18:36 24.02.2022
3576 Clouds 27 1011 69 10000 3.7 257 18:18 24.02.2022
3577 Clouds 27 1011 68 10000 3.7 257 17:33 24.02.2022
3578 Clouds 28 1012 69 10000 3.68 257 16:28 24.02.2022
3579 Clouds 28 1012 69 10000 3.71 257 15:46 24.02.2022
3580 Clouds 29 1011 68 10000 3.69 256 14:52 24.02.2022
3581 Clouds 29 1010 65 10000 3.94 255 14:20 24.02.2022
3582 Clouds 31 1009 58 7000 2.57 240 13:39 24.02.2022
3583 Clouds 31 1008 56 7000 2.06 250 12:27 24.02.2022
3584 Clouds 32 1007 49 7000 5.14 270 10:39 24.02.2022
3585 Clouds 33 1008 46 7000 6.17 240 08:56 24.02.2022
3586 Clouds 32 1007 52 10000 4.82 260 08:38 24.02.2022
3587 Clouds 32 1010 51 7000 6.17 210 05:52 24.02.2022
3588 Clouds 24 1011 84 6000 4.63 230 00:32 24.02.2022
3589 Clouds 25 1010 78 10000 4.62 266 22:38 23.02.2022
3590 Clouds 25 1010 92 10000 4.51 263 21:34 23.02.2022
3591 Rain 24 1010 94 10000 3.99 264 20:30 23.02.2022
3592 Clouds 24 1010 95 10000 3.97 264 19:44 23.02.2022
3593 Clouds 25 1011 81 10000 2.26 255 18:32 23.02.2022
3594 Clouds 27 1011 75 10000 3.22 259 17:30 23.02.2022
3595 Clouds 29 1011 63 10000 4.05 256 14:34 23.02.2022
3596 Rain 29 1009 69 6000 2.06 30 12:37 23.02.2022
3597 Rain 31 1008 60 6000 1.54 360 11:24 23.02.2022
3598 Thunderstorm 31 1007 61 6000 2.06 260 10:31 23.02.2022
3599 Clouds 33 1008 57 6000 4.12 270 08:58 23.02.2022
3600 Clouds 32 1008 59 6000 3.6 260 07:57 23.02.2022
3601 Clouds 30 1012 52 6000 4.12 280 03:48 23.02.2022
3602 Clouds 25 1011 83 6000 3.09 240 00:26 23.02.2022
3603 Clouds 25 1010 83 10000 2.46 262 23:35 22.02.2022
3604 Clouds 24 1009 78 10000 2.54 269 22:31 22.02.2022
3605 Rain 25 1009 79 10000 2.16 264 21:49 22.02.2022
3606 Rain 25 1009 79 10000 2.17 270 21:28 22.02.2022
3607 Clouds 27 1009 79 10000 2.14 271 20:52 22.02.2022
3608 Clouds 27 1009 79 10000 2 241 20:29 22.02.2022
3609 Clouds 27 1009 81 10000 2 241 19:36 22.02.2022
3610 Clouds 27 1010 81 10000 2.17 226 19:18 22.02.2022
3611 Clouds 28 1011 77 10000 2.33 221 17:46 22.02.2022
3612 Clouds 28 1011 77 10000 2.43 231 17:20 22.02.2022
3613 Clouds 28 1011 78 10000 2.47 232 16:36 22.02.2022
3614 Rain 29 1010 75 10000 2.97 242 15:40 22.02.2022
3615 Rain 29 1010 64 10000 3.36 252 14:44 22.02.2022
3616 Haze 31 1009 68 5000 2.06 360 12:23 22.02.2022
3617 Haze 32 1008 61 5000 3.09 360 10:50 22.02.2022
3618 Clouds 32 1008 51 6000 5.14 270 08:41 22.02.2022
3619 Clouds 33 1009 50 6000 4.12 270 07:26 22.02.2022
3620 Clouds 32 1011 58 6000 5.14 270 04:59 22.02.2022
3621 Clouds 27 1010 82 6000 2.06 240 01:45 22.02.2022
3622 Clouds 25 1009 96 10000 2.98 268 22:46 21.02.2022
3623 Clouds 26 1009 92 10000 3.21 265 21:33 21.02.2022
3624 Clouds 26 1009 82 10000 3.28 269 20:35 21.02.2022
3625 Clouds 26 1009 82 10000 3.28 269 20:35 21.02.2022
3626 Clouds 28 1009 73 10000 3.29 277 18:46 21.02.2022
3627 Rain 28 1010 70 10000 2.99 288 16:58 21.02.2022
3628 Rain 29 1010 70 10000 2.15 302 15:20 21.02.2022
3629 Rain 29 1009 66 10000 2 311 14:21 21.02.2022
3630 Clouds 29 1009 69 6000 1.54 360 13:20 21.02.2022
3631 Clouds 30 1008 64 7000 2.06 360 12:23 21.02.2022
3632 Clouds 32 1006 55 7000 2.06 330 10:58 21.02.2022
3633 Clouds 33 1007 55 7000 1.54 280 09:34 21.02.2022
3634 Clouds 32 1010 54 6000 1.54 260 05:35 21.02.2022
3635 Haze 24 1009 91 5000 1.54 230 23:41 20.02.2022
3636 Rain 25 1008 83 10000 2.22 256 22:21 20.02.2022
3637 Clouds 25 1008 81 10000 2.22 256 21:42 20.02.2022
3638 Rain 26 1008 83 10000 2.68 247 20:53 20.02.2022
3639 Rain 26 1008 84 10000 2.68 247 20:35 20.02.2022
3640 Clouds 26 1008 85 10000 3.17 247 19:32 20.02.2022
3641 Clouds 26 1009 84 10000 1.05 226 18:50 20.02.2022
3642 Clouds 26 1009 84 10000 1.05 226 18:31 20.02.2022
3643 Clouds 26 1009 84 10000 0.94 224 17:48 20.02.2022
3644 Clouds 27 1010 82 10000 0.25 106 15:37 20.02.2022
3645 Clouds 27 1010 81 10000 0.55 17 14:42 20.02.2022
3646 Haze 27 1009 87 5000 0 0 13:23 20.02.2022
3647 Haze 28 1008 79 5000 1.54 230 12:25 20.02.2022
3648 Rain 28 1007 85 5000 4.12 200 10:38 20.02.2022
3649 Haze 28 1007 89 5000 4.12 200 10:19 20.02.2022
3650 Haze 29 1009 79 5000 1.54 110 08:25 20.02.2022
3651 Mist 26 1010 98 4000 0 0 00:54 20.02.2022
3652 Mist 25 1009 95 4000 0 0 00:29 20.02.2022
3653 Clouds 26 1008 93 10000 1.08 148 22:47 19.02.2022
3654 Clouds 26 1008 93 10000 0.78 121 22:22 19.02.2022
3655 Clouds 26 1008 92 10000 0.43 143 20:51 19.02.2022
3656 Clouds 26 1009 98 10000 0.63 226 19:53 19.02.2022
3657 Clouds 26 1009 98 10000 1.02 214 19:28 19.02.2022
3658 Clouds 26 1009 99 10000 0.78 180 18:32 19.02.2022
3659 Clouds 26 1010 99 10000 1.32 164 17:35 19.02.2022
3660 Clouds 26 1011 99 10000 1.09 281 16:22 19.02.2022
3661 Rain 26 1011 99 10000 1.69 303 14:56 19.02.2022
3662 Clouds 26 1011 99 10000 1.69 303 14:37 19.02.2022
3663 Rain 27 1009 85 6000 0 0 13:22 19.02.2022
3664 Clouds 29 1008 75 6000 0 0 11:37 19.02.2022
3665 Haze 29 1007 74 5000 2.57 60 09:45 19.02.2022
3666 Haze 28 1009 83 5000 1.54 120 06:54 19.02.2022
3667 Haze 28 1011 80 4000 0 0 02:52 19.02.2022
3668 Clouds 25 1008 93 10000 0.36 184 23:29 18.02.2022
3669 Clouds 26 1008 91 10000 0.39 203 21:49 18.02.2022
3670 Clouds 26 1008 89 10000 0.29 234 20:42 18.02.2022
3671 Clouds 26 1008 89 10000 0.93 299 19:52 18.02.2022
3672 Clouds 26 1009 88 10000 1.35 308 18:50 18.02.2022
3673 Clouds 26 1009 88 10000 0.89 67 18:20 18.02.2022
3674 Clouds 26 1009 86 10000 0.89 67 17:38 18.02.2022
3675 Clouds 27 1010 89 10000 2.51 102 14:50 18.02.2022
3676 Haze 27 1007 89 5000 3.09 90 13:55 18.02.2022
3677 Haze 27 1007 84 4000 1.54 120 12:53 18.02.2022
3678 Haze 27 1008 83 5000 2.57 110 11:58 18.02.2022
3679 Haze 28 1007 79 4000 2.57 60 11:22 18.02.2022
3680 Haze 30 1007 70 5000 4.12 360 09:52 18.02.2022
3681 Thunderstorm 28 1009 82 4000 1.54 360 06:54 18.02.2022
3682 Haze 29 1010 100 4000 0 0 05:39 18.02.2022
3683 Clouds 26 1007 86 10000 1.21 282 22:57 17.02.2022
3684 Clouds 26 1007 86 10000 0.83 243 21:44 17.02.2022
3685 Clouds 26 1007 85 10000 0.81 225 21:19 17.02.2022
3686 Clouds 26 1007 85 10000 0.81 225 20:36 17.02.2022
3687 Clouds 26 1007 85 10000 1.02 173 19:48 17.02.2022
3688 Clouds 26 1007 85 10000 1.13 223 18:41 17.02.2022
3689 Rain 26 1008 84 10000 0.85 243 17:50 17.02.2022
3690 Rain 27 1009 82 10000 0.12 329 16:25 17.02.2022
3691 Clouds 27 1009 81 10000 0.12 327 15:30 17.02.2022
3692 Clouds 27 1007 82 10000 1.82 334 14:25 17.02.2022
3693 Clouds 28 1006 74 6000 2.06 40 12:35 17.02.2022
3694 Clouds 29 1005 73 6000 3.6 20 11:21 17.02.2022
3695 Haze 31 1005 70 5000 2.57 360 08:45 17.02.2022
3696 Clouds 25 1007 95 10000 1.26 168 00:31 17.02.2022
3697 Clouds 25 1006 98 10000 1.95 169 22:59 16.02.2022
3698 Clouds 25 1005 94 10000 2.35 184 21:31 16.02.2022
3699 Clouds 25 1006 93 10000 2.24 191 19:46 16.02.2022
3700 Clouds 25 1006 96 10000 2.56 194 18:38 16.02.2022
3701 Clouds 25 1007 99 10000 2.61 195 17:53 16.02.2022
3702 Rain 25 1008 99 10000 1.68 142 15:38 16.02.2022
3703 Rain 25 1007 75 10000 1.27 77 14:59 16.02.2022
3704 Rain 29 1005 73 6000 2.57 360 12:35 16.02.2022
3705 Rain 30 1005 66 6000 3.6 340 11:55 16.02.2022
3706 Rain 30 1004 66 6000 6.17 30 11:24 16.02.2022
3707 Clouds 32 1003 61 6000 3.09 360 10:33 16.02.2022
3708 Clouds 34 1005 53 6000 3.09 20 07:21 16.02.2022
3709 Clouds 32 1007 55 6000 3.09 50 04:43 16.02.2022
3710 Clouds 24 1006 92 6000 1.54 100 23:44 15.02.2022
3711 Clouds 26 1006 88 10000 0.85 107 22:28 15.02.2022
3712 Clouds 25 1006 87 10000 0.85 107 21:46 15.02.2022
3713 Clouds 26 1005 88 10000 1.26 105 21:27 15.02.2022
3714 Clouds 26 1005 91 10000 1.27 105 20:56 15.02.2022
3715 Clouds 26 1006 91 10000 1.47 86 19:57 15.02.2022
3716 Clouds 26 1006 89 10000 1.95 101 18:52 15.02.2022
3717 Clouds 26 1007 85 10000 2.23 90 18:20 15.02.2022
3718 Clouds 27 1007 83 10000 2.23 90 17:49 15.02.2022
3719 Clouds 27 1008 83 10000 2.47 86 16:38 15.02.2022
3720 Clouds 27 1008 95 10000 2.45 49 15:26 15.02.2022
3721 Clouds 26 1008 94 6000 0 0 13:27 15.02.2022
3722 Rain 26 1007 100 5000 0 0 11:58 15.02.2022
3723 Thunderstorm 25 1006 100 5000 1.54 310 11:27 15.02.2022
3724 Haze 31 1006 67 5000 3.09 350 09:31 15.02.2022
3725 Haze 32 1008 58 5000 2.57 140 06:52 15.02.2022
3726 Haze 30 1010 65 4000 1.54 130 03:55 15.02.2022
3727 Haze 25 1007 88 5000 0 0 23:33 14.02.2022
3728 Clouds 25 1007 88 10000 1.07 156 21:36 14.02.2022
3729 Clouds 26 1007 86 10000 1.24 125 20:37 14.02.2022
3730 Clouds 26 1007 86 10000 1.86 112 19:34 14.02.2022
3731 Clouds 26 1008 85 10000 1.14 116 18:42 14.02.2022
3732 Clouds 26 1009 85 10000 0.98 146 18:22 14.02.2022
3733 Clouds 26 1009 84 10000 0.69 191 17:25 14.02.2022
3734 Clouds 27 1010 82 10000 1.21 257 16:24 14.02.2022
3735 Clouds 27 1008 72 10000 3.38 269 14:29 14.02.2022
3736 Clouds 28 1007 75 6000 0 0 13:31 14.02.2022
3737 Clouds 28 1007 72 7000 1.54 240 12:48 14.02.2022
3738 Clouds 29 1006 64 7000 2.06 260 11:54 14.02.2022
3739 Clouds 30 1006 63 7000 1.54 260 10:56 14.02.2022
3740 Clouds 31 1007 60 7000 0 0 08:45 14.02.2022
3741 Clouds 29 1008 71 6000 0 0 07:32 14.02.2022
3742 Haze 27 1009 83 5000 1.54 80 02:27 14.02.2022
3743 Clouds 25 1006 99 10000 0.69 247 22:42 13.02.2022
3744 Clouds 25 1006 99 10000 1.33 223 22:24 13.02.2022
3745 Clouds 25 1006 99 10000 1.33 223 21:32 13.02.2022
3746 Clouds 25 1006 99 10000 1.33 251 20:40 13.02.2022
3747 Clouds 25 1007 99 10000 1.47 257 19:45 13.02.2022
3748 Clouds 26 1007 99 10000 1.74 261 18:54 13.02.2022
3749 Clouds 25 1007 99 10000 1.74 261 18:35 13.02.2022
3750 Clouds 25 1007 99 10000 1.73 274 16:38 13.02.2022
3751 Rain 25 1007 98 10000 1.82 293 15:25 13.02.2022
3752 Clouds 25 1007 98 10000 1.82 293 14:37 13.02.2022
3753 Rain 24 1006 94 5000 0 0 12:52 13.02.2022
3754 Rain 25 1006 94 3000 2.06 240 11:59 13.02.2022
3755 Rain 27 1005 89 5000 2.06 240 10:35 13.02.2022
3756 Clouds 28 1005 75 6000 5.14 210 09:49 13.02.2022
3757 Clouds 30 1005 66 6000 1.54 310 07:52 13.02.2022
3758 Haze 25 1006 92 5000 0 0 00:36 13.02.2022
3759 Clouds 25 1006 91 6000 1.54 220 23:54 12.02.2022
3760 Clouds 27 1006 89 10000 3.43 261 22:34 12.02.2022
3761 Clouds 26 1005 91 10000 3.18 262 21:40 12.02.2022
3762 Clouds 27 1005 90 10000 3.15 262 20:52 12.02.2022
3763 Clouds 27 1006 89 10000 3.06 259 19:48 12.02.2022
3764 Clouds 27 1006 87 10000 3.02 261 18:53 12.02.2022
3765 Clouds 27 1006 86 10000 2.47 270 18:35 12.02.2022
3766 Clouds 27 1007 89 10000 2.74 268 17:38 12.02.2022
3767 Rain 26 1008 93 10000 2.72 277 16:43 12.02.2022
3768 Clouds 26 1008 95 10000 2.6 291 15:52 12.02.2022
3769 Clouds 26 1007 96 10000 2.73 297 15:20 12.02.2022
3770 Clouds 27 1007 99 10000 3.03 306 14:25 12.02.2022
3771 Clouds 27 1007 99 10000 3.03 306 14:25 12.02.2022
3772 Clouds 29 1004 73 6000 1.54 310 11:20 12.02.2022
3773 Haze 30 1004 72 5000 3.6 350 10:29 12.02.2022
3774 Haze 31 1004 67 5000 2.06 350 09:36 12.02.2022
3775 Haze 31 1005 63 5000 2.06 350 08:46 12.02.2022
3776 Clouds 31 1006 67 6000 1.54 330 06:46 12.02.2022
3777 Haze 30 1008 72 5000 1.54 280 04:44 12.02.2022
3778 Haze 29 1008 79 5000 2.06 240 02:19 12.02.2022
3779 Clouds 26 1007 87 10000 3.85 269 23:20 11.02.2022
3780 Clouds 26 1006 86 10000 4 261 22:20 11.02.2022
3781 Clouds 26 1006 84 10000 3.91 254 21:18 11.02.2022
3782 Clouds 26 1007 83 10000 3.99 252 20:26 11.02.2022
3783 Clouds 27 1007 82 10000 4.31 256 19:28 11.02.2022
3784 Rain 27 1008 82 10000 3.37 255 18:29 11.02.2022
3785 Rain 27 1008 80 10000 3.36 256 17:27 11.02.2022
3786 Clouds 27 1008 79 10000 3.36 256 16:39 11.02.2022
3787 Clouds 28 1008 73 10000 4.06 262 15:19 11.02.2022
3788 Clouds 27 1008 71 10000 4.06 262 14:37 11.02.2022
3789 Clouds 28 1008 71 10000 4.43 265 14:19 11.02.2022
3790 Haze 28 1007 77 5000 2.06 260 13:40 11.02.2022
3791 Haze 28 1006 77 5000 0 0 12:45 11.02.2022
3792 Rain 30 1005 76 5000 1.54 270 10:55 11.02.2022
3793 Clouds 28 1006 83 3000 0 0 09:32 11.02.2022
3794 Haze 30 1006 76 5000 1.54 20 08:31 11.02.2022
3795 Haze 31 1007 70 5000 2.57 330 07:40 11.02.2022
3796 Haze 31 1009 64 5000 1.54 280 05:34 11.02.2022
3797 Haze 28 1009 72 5000 1.54 230 02:20 11.02.2022
3798 Clouds 25 1008 82 10000 2.49 284 23:41 10.02.2022
3799 Clouds 25 1007 81 10000 2.31 275 22:25 10.02.2022
3800 Clouds 25 1007 81 10000 2.31 275 21:40 10.02.2022
3801 Clouds 26 1007 81 10000 2.46 272 20:48 10.02.2022
3802 Clouds 26 1007 80 10000 2.7 281 19:49 10.02.2022
3803 Clouds 26 1008 80 10000 2.65 286 19:21 10.02.2022
3804 Clouds 26 1009 80 10000 3.74 293 17:53 10.02.2022
3805 Clouds 26 1009 80 10000 3.82 289 17:21 10.02.2022
3806 Clouds 26 1009 78 10000 3.8 289 16:39 10.02.2022
3807 Clouds 27 1009 76 10000 4.12 289 15:39 10.02.2022
3808 Clouds 27 1009 75 10000 4.29 280 15:20 10.02.2022
3809 Clouds 27 1009 75 10000 4.29 280 14:34 10.02.2022
3810 Clouds 27 1008 75 6000 4.12 240 13:37 10.02.2022
3811 Rain 27 1008 75 6000 4.12 240 13:18 10.02.2022
3812 Clouds 29 1007 65 6000 3.6 250 11:50 10.02.2022
3813 Clouds 30 1007 64 6000 5.14 250 11:28 10.02.2022
3814 Clouds 29 1006 70 6000 5.14 240 10:22 10.02.2022
3815 Clouds 30 1006 63 6000 2.57 240 09:37 10.02.2022
3816 Clouds 30 1007 66 6000 5.14 240 08:21 10.02.2022
3817 Clouds 29 1008 70 6000 5.14 270 06:32 10.02.2022
3818 Rain 27 1009 83 6000 3.09 270 02:43 10.02.2022
3819 Rain 25 1008 90 6000 4.12 260 00:52 10.02.2022
3820 Clouds 25 1008 90 6000 4.63 260 00:30 10.02.2022
3821 Clouds 25 1008 90 6000 4.63 260 00:30 10.02.2022
3822 Clouds 24 1008 92 10000 4.24 229 23:53 09.02.2022
3823 Rain 24 1008 90 10000 3.81 225 22:51 09.02.2022
3824 Rain 24 1008 91 10000 3.81 225 22:30 09.02.2022
3825 Rain 24 1007 91 10000 3.82 225 21:46 09.02.2022
3826 Rain 24 1007 92 10000 4.29 231 21:26 09.02.2022
3827 Rain 24 1007 95 10000 4.25 231 20:42 09.02.2022
3828 Rain 24 1008 95 10000 5.06 236 20:21 09.02.2022
3829 Rain 25 1008 93 10000 5.02 236 19:39 09.02.2022
3830 Clouds 26 1008 85 10000 4.57 234 18:30 09.02.2022
3831 Rain 25 1010 82 10000 5.81 234 16:54 09.02.2022
3832 Rain 26 1010 81 10000 6.13 237 15:56 09.02.2022
3833 Rain 25 1010 82 10000 6.49 245 15:22 09.02.2022
3834 Rain 28 1008 74 6000 5.66 290 12:42 09.02.2022
3835 Rain 29 1007 69 6000 4.12 250 11:20 09.02.2022
3836 Rain 30 1006 69 6000 5.14 220 10:33 09.02.2022
3837 Rain 30 1006 70 6000 3.6 230 09:45 09.02.2022
3838 Rain 30 1007 70 6000 3.09 210 09:20 09.02.2022
3839 Clouds 32 1006 54 10000 5.57 276 08:43 09.02.2022
3840 Clouds 30 1010 70 6000 2.57 280 05:37 09.02.2022
3841 Clouds 29 1010 74 6000 2.06 250 03:51 09.02.2022
3842 Haze 27 1011 84 5000 1.54 330 01:55 09.02.2022
3843 Clouds 25 1009 99 10000 1.38 218 23:42 08.02.2022
3844 Clouds 25 1008 99 10000 1.75 235 22:53 08.02.2022
3845 Clouds 26 1008 99 10000 1.29 247 22:27 08.02.2022
3846 Clouds 25 1008 99 10000 1.29 247 21:58 08.02.2022
3847 Clouds 26 1008 97 10000 1.14 254 21:22 08.02.2022
3848 Clouds 26 1008 97 10000 1.14 254 20:56 08.02.2022
3849 Clouds 26 1008 97 10000 1.14 254 20:31 08.02.2022
3850 Clouds 26 1009 98 7668 1.45 271 18:55 08.02.2022
3851 Clouds 27 1009 95 10000 1.66 240 17:57 08.02.2022
3852 Clouds 27 1010 92 10000 1.28 251 16:55 08.02.2022
3853 Clouds 27 1010 91 10000 1.27 253 15:45 08.02.2022
3854 Clouds 27 1010 87 10000 1.59 269 14:58 08.02.2022
3855 Clouds 27 1009 83 10000 2.29 280 13:39 08.02.2022
3856 Haze 28 1008 83 5000 0 0 12:21 08.02.2022
3857 Haze 28 1008 78 5000 0 0 10:47 08.02.2022
3858 Haze 28 1008 82 4000 0 0 09:47 08.02.2022
3859 Rain 27 1009 88 4000 1.54 90 08:34 08.02.2022
3860 Rain 25 1011 100 3000 2.06 110 06:24 08.02.2022
3861 Rain 25 1009 63 10000 2.5 310 04:40 08.02.2022
3862 Rain 25 1011 100 2500 3.09 100 04:22 08.02.2022
3863 Rain 26 1011 94 3000 2.57 120 03:36 08.02.2022
3864 Rain 26 1011 91 3000 2.57 120 03:18 08.02.2022
3865 Haze 26 1011 90 3500 3.09 90 02:59 08.02.2022
3866 Rain 26 1011 90 4000 3.09 90 02:36 08.02.2022
3867 Rain 27 1011 90 4000 3.09 90 02:18 08.02.2022
3868 Haze 27 1009 86 4000 1.54 330 01:44 08.02.2022
3869 Haze 26 1009 86 4000 1.54 330 01:25 08.02.2022
3870 Mist 26 1009 93 4000 0 0 00:55 08.02.2022
3871 Haze 26 1009 90 5000 1.54 180 00:19 08.02.2022
3872 Clouds 26 1009 85 10000 1.6 118 23:43 07.02.2022
3873 Clouds 26 1008 84 10000 1.75 101 23:18 07.02.2022
3874 Clouds 26 1008 84 10000 1.75 101 22:59 07.02.2022
3875 Clouds 27 1008 84 10000 1.73 92 22:18 07.02.2022
3876 Clouds 27 1008 84 10000 1.73 92 21:49 07.02.2022
3877 Clouds 27 1008 83 10000 1.82 92 21:27 07.02.2022
3878 Clouds 27 1008 82 10000 1.82 92 20:41 07.02.2022
3879 Clouds 27 1008 83 10000 1.91 99 20:18 07.02.2022
3880 Clouds 27 1008 81 10000 1.91 99 19:46 07.02.2022
3881 Clouds 27 1009 79 10000 1.44 79 18:34 07.02.2022
3882 Clouds 28 1010 71 10000 1.61 189 16:53 07.02.2022
3883 Clouds 28 1010 71 10000 1.94 225 16:24 07.02.2022
3884 Clouds 28 1010 70 10000 1.94 225 15:48 07.02.2022
3885 Clouds 28 1008 71 6000 2.06 360 13:39 07.02.2022
3886 Clouds 28 1008 71 6000 2.06 360 13:21 07.02.2022
3887 Clouds 30 1007 67 6000 3.09 360 11:58 07.02.2022
3888 Clouds 30 1007 70 6000 3.09 360 11:38 07.02.2022
3889 Clouds 31 1006 62 6000 3.09 360 10:53 07.02.2022
3890 Clouds 31 1006 62 6000 4.12 360 10:33 07.02.2022
3891 Clouds 31 1006 62 6000 2.57 360 09:53 07.02.2022
3892 Clouds 31 1006 66 6000 4.12 360 09:18 07.02.2022
3893 Clouds 31 1007 66 6000 4.12 360 08:44 07.02.2022
3894 Clouds 31 1008 62 6000 4.12 360 07:34 07.02.2022
3895 Clouds 30 1009 70 6000 2.57 330 06:34 07.02.2022
3896 Haze 28 1010 83 5000 2.57 30 04:18 07.02.2022
3897 Rain 25 1008 100 4000 2.06 190 00:54 07.02.2022
3898 Rain 25 1008 100 4000 1.54 100 23:50 06.02.2022
3899 Rain 26 1008 99 10000 3.13 266 23:19 06.02.2022
3900 Rain 26 1008 99 10000 3.17 266 22:37 06.02.2022
3901 Rain 26 1007 96 9082 3.42 279 21:37 06.02.2022
3902 Rain 25 1007 95 10000 3.4 282 20:58 06.02.2022
3903 Rain 25 1007 92 10000 3.4 282 20:36 06.02.2022
3904 Rain 26 1008 90 10000 3.07 281 19:46 06.02.2022
3905 Clouds 26 1008 89 10000 2.79 268 18:52 06.02.2022
3906 Rain 26 1009 90 10000 3.15 257 18:26 06.02.2022
3907 Clouds 26 1009 91 10000 2.87 259 17:29 06.02.2022
3908 Clouds 26 1009 87 10000 2.87 259 16:50 06.02.2022
3909 Clouds 28 1010 70 10000 2.78 254 15:50 06.02.2022
3910 Clouds 28 1009 69 10000 2.65 251 15:28 06.02.2022
3911 Clouds 28 1009 69 10000 2.65 251 14:52 06.02.2022
3912 Clouds 28 1007 72 6000 2.66 250 13:53 06.02.2022
3913 Clouds 29 1007 72 6000 2.68 259 13:20 06.02.2022
3914 Clouds 30 1006 70 6000 2.57 30 11:45 06.02.2022
3915 Clouds 30 1006 68 6000 2.06 270 10:33 06.02.2022
3916 Clouds 31 1006 62 6000 4.12 310 09:29 06.02.2022
3917 Clouds 31 1007 62 6000 5.14 270 08:41 06.02.2022
3918 Clouds 29 1008 74 6000 4.63 230 06:27 06.02.2022
3919 Clouds 26 1010 83 4000 8.75 270 05:27 06.02.2022
3920 Clouds 27 1009 83 6000 3.6 260 02:25 06.02.2022
3921 Clouds 25 1008 93 6000 2.57 240 00:30 06.02.2022
3922 Clouds 24 1007 98 10000 4.77 275 23:27 05.02.2022
3923 Clouds 26 1007 90 10000 3.45 265 21:46 05.02.2022
3924 Clouds 26 1007 89 10000 3.64 259 20:39 05.02.2022
3925 Clouds 26 1008 88 10000 3.12 259 20:19 05.02.2022
3926 Clouds 26 1008 88 10000 3.15 259 19:41 05.02.2022
3927 Clouds 26 1009 87 10000 2.38 254 18:26 05.02.2022
3928 Clouds 25 1009 86 10000 2.38 254 17:34 05.02.2022
3929 Clouds 26 1010 82 10000 1.82 228 15:43 05.02.2022
3930 Clouds 26 1009 81 10000 1.63 228 15:25 05.02.2022
3931 Clouds 27 1008 80 6000 3.6 240 13:25 05.02.2022
3932 Clouds 27 1008 80 6000 3.6 240 13:25 05.02.2022
3933 Clouds 28 1007 73 6000 4.12 240 12:42 05.02.2022
3934 Clouds 29 1007 75 6000 1.54 250 11:29 05.02.2022
3935 Clouds 28 1007 89 6000 2.57 260 10:43 05.02.2022
3936 Rain 28 1006 81 6000 0 0 09:49 05.02.2022
3937 Clouds 26 1009 91 5000 2.06 280 08:34 05.02.2022
3938 Clouds 27 1009 87 5000 2.57 300 06:59 05.02.2022
3939 Clouds 29 1009 77 6000 2.57 280 06:27 05.02.2022
3940 Clouds 28 1010 78 7000 1.54 280 02:31 05.02.2022
3941 Clouds 26 1009 90 6000 1.54 260 01:18 05.02.2022
3942 Clouds 25 1008 93 6000 2.06 270 00:36 05.02.2022
3943 Clouds 25 1008 92 10000 2.5 292 23:33 04.02.2022
3944 Clouds 25 1008 93 10000 2.88 297 22:39 04.02.2022
3945 Clouds 25 1008 94 10000 3.12 304 21:36 04.02.2022
3946 Clouds 24 1008 94 10000 3.57 305 21:18 04.02.2022
3947 Clouds 25 1008 95 9949 2.99 298 20:29 04.02.2022
3948 Clouds 25 1009 93 10000 2.27 274 18:35 04.02.2022
3949 Rain 25 1009 92 4653 2.01 130 16:20 04.02.2022
3950 Rain 25 1009 90 3460 2.08 136 15:18 04.02.2022
3951 Rain 25 1009 88 3460 2.08 136 14:40 04.02.2022
3952 Thunderstorm 26 1007 100 3000 3.09 180 12:43 04.02.2022
3953 Rain 26 1007 94 3000 1.54 180 11:44 04.02.2022
3954 Clouds 28 1006 80 3000 5.14 180 10:53 04.02.2022
3955 Haze 32 1006 61 5000 3.09 360 09:35 04.02.2022
3956 Haze 31 1007 66 5000 3.09 360 07:44 04.02.2022
3957 Haze 28 1010 83 5000 1.54 210 03:28 04.02.2022
3958 Mist 27 1009 92 4000 1.54 240 02:33 04.02.2022
3959 Clouds 24 1008 99 10000 2.09 77 23:34 03.02.2022
3960 Clouds 24 1008 99 10000 2.63 83 22:48 03.02.2022
3961 Clouds 24 1008 99 10000 2.8 82 21:51 03.02.2022
3962 Clouds 25 1008 76 10000 2.53 97 21:18 03.02.2022
3963 Rain 25 1008 99 10000 2.4 108 20:21 03.02.2022
3964 Clouds 25 1008 99 10000 2.4 108 19:36 03.02.2022
3965 Clouds 27 1008 86 10000 1.72 138 18:50 03.02.2022
3966 Rain 29 1010 74 10000 3.38 148 17:55 03.02.2022
3967 Rain 29 1010 72 10000 3.37 157 16:48 03.02.2022
3968 Clouds 29 1010 71 7791 1.34 240 14:59 03.02.2022
3969 Clouds 29 1008 68 6000 2.06 10 13:19 03.02.2022
3970 Clouds 32 1007 59 6000 3.09 350 11:44 03.02.2022
3971 Clouds 32 1007 62 6000 3.09 340 08:55 03.02.2022
3972 Clouds 32 1008 53 6000 2.06 320 07:41 03.02.2022
3973 Mist 26 1009 90 4000 0 0 00:35 03.02.2022
3974 Haze 25 1009 91 5000 0 0 23:47 02.02.2022
3975 Clouds 26 1009 89 10000 1.17 235 22:38 02.02.2022
3976 Clouds 26 1008 88 10000 1.2 236 21:45 02.02.2022
3977 Clouds 26 1008 88 10000 1.18 262 21:27 02.02.2022
3978 Clouds 27 1009 86 10000 1.34 270 20:20 02.02.2022
3979 Clouds 27 1009 85 10000 1.34 270 19:45 02.02.2022
3980 Clouds 27 1009 82 10000 1.83 264 18:55 02.02.2022
3981 Clouds 27 1010 81 10000 1.99 266 18:23 02.02.2022
3982 Clouds 28 1011 75 10000 1.89 297 17:20 02.02.2022
3983 Clouds 28 1011 75 10000 1.89 297 17:20 02.02.2022
3984 Clouds 28 1011 74 10000 1.89 297 16:48 02.02.2022
3985 Clouds 28 1010 73 10000 3.72 330 14:21 02.02.2022
3986 Clouds 29 1009 70 7000 2.06 30 12:26 02.02.2022
3987 Clouds 30 1008 65 6000 2.57 360 11:42 02.02.2022
3988 Clouds 30 1008 65 6000 2.57 360 11:23 02.02.2022
3989 Clouds 31 1008 62 6000 3.6 360 07:59 02.02.2022
3990 Clouds 28 1011 79 10000 4.02 283 01:36 02.02.2022
3991 Clouds 26 1008 89 10000 1.71 272 22:29 01.02.2022
3992 Clouds 25 1008 86 10000 1.49 276 20:49 01.02.2022
3993 Clouds 26 1008 80 10000 2.08 302 18:55 01.02.2022
3994 Clouds 27 1009 80 10000 2.79 293 16:44 01.02.2022
3995 Rain 27 1009 78 10000 2.92 305 15:44 01.02.2022
3996 Haze 27 1008 82 4000 1.54 150 12:49 01.02.2022
3997 Haze 28 1007 76 5000 1.54 60 11:48 01.02.2022
3998 Haze 32 1007 62 5000 4.12 360 08:34 01.02.2022
3999 Haze 26 1008 91 5000 1.54 220 23:54 31.01.2022
4000 Haze 26 1008 91 5000 1.54 220 23:54 31.01.2022
4001 Haze 26 1008 90 5000 1.54 210 23:36 31.01.2022
4002 Haze 26 1008 90 5000 1.54 210 23:36 31.01.2022
4003 Clouds 26 1008 86 10000 2.4 262 22:30 31.01.2022
4004 Clouds 26 1007 85 10000 2.24 270 21:34 31.01.2022
4005 Clouds 26 1007 82 10000 1.9 266 20:34 31.01.2022
4006 Clouds 27 1008 81 10000 1.83 262 19:46 31.01.2022
4007 Clouds 28 1008 75 10000 0.77 251 18:31 31.01.2022
4008 Haze 28 1011 76 5000 1.54 220 17:55 31.01.2022
4009 Clouds 28 1010 75 6000 0 0 16:58 31.01.2022
4010 Clouds 28 1009 73 6000 1.54 310 15:46 31.01.2022
4011 Clouds 29 1009 68 6000 1.54 340 14:27 31.01.2022
4012 Clouds 29 1008 67 6000 1.54 360 12:55 31.01.2022
4013 Clouds 30 1008 63 10000 2.57 328 12:36 31.01.2022
4014 Clouds 31 1006 64 6000 4.12 10 10:58 31.01.2022
4015 Clouds 31 1006 63 6000 4.12 360 10:37 31.01.2022
4016 Clouds 32 1007 59 6000 2.06 360 09:35 31.01.2022
4017 Clouds 32 1007 66 6000 3.09 360 08:53 31.01.2022
4018 Clouds 32 1007 66 6000 3.6 340 08:20 31.01.2022
4019 Clouds 32 1009 62 6000 3.09 320 06:53 31.01.2022
4020 Clouds 31 1010 66 6000 3.09 320 05:24 31.01.2022
4021 Haze 26 1009 86 4000 0 0 23:37 30.01.2022
4022 Clouds 26 1008 87 10000 2.43 295 22:31 30.01.2022
4023 Clouds 26 1008 87 10000 2.42 296 21:44 30.01.2022
4024 Clouds 26 1008 87 10000 2.42 296 21:44 30.01.2022
4025 Clouds 26 1008 85 10000 2.98 292 21:22 30.01.2022
4026 Clouds 26 1008 83 10000 2.44 287 20:51 30.01.2022
4027 Clouds 26 1008 83 10000 2.44 287 20:30 30.01.2022
4028 Clouds 26 1008 82 10000 3.16 278 19:54 30.01.2022
4029 Clouds 26 1009 79 10000 3.26 274 18:51 30.01.2022
4030 Rain 27 1009 77 10000 3.35 276 18:21 30.01.2022
4031 Rain 27 1009 77 10000 3.35 275 17:30 30.01.2022
4032 Rain 27 1010 75 10000 3.6 279 16:42 30.01.2022
4033 Rain 28 1010 71 10000 3.74 288 16:22 30.01.2022
4034 Rain 28 1010 71 10000 3.74 288 16:22 30.01.2022
4035 Rain 28 1010 71 10000 3.74 288 15:54 30.01.2022
4036 Rain 28 1010 71 10000 3.74 288 15:54 30.01.2022
4037 Rain 28 1010 71 10000 3.74 288 15:32 30.01.2022
4038 Haze 27 1009 82 4000 0 0 14:47 30.01.2022
4039 Haze 27 1008 77 5000 0 0 13:44 30.01.2022
4040 Haze 28 1008 77 5000 1.54 190 12:44 30.01.2022
4041 Rain 31 1007 60 10000 5.05 343 10:39 30.01.2022
4042 Haze 29 1007 71 5000 2.57 270 09:58 30.01.2022
4043 Haze 29 1007 78 5000 3.6 280 09:21 30.01.2022
4044 Haze 32 1008 64 5000 2.57 350 07:58 30.01.2022
4045 Haze 29 1011 74 4000 0 0 02:44 30.01.2022
4046 Haze 27 1011 83 4000 0 0 01:52 30.01.2022
4047 Haze 25 1009 90 5000 0 0 23:49 29.01.2022
4048 Clouds 25 1009 84 10000 0.95 274 22:50 29.01.2022
4049 Clouds 26 1008 82 10000 1.28 269 21:29 29.01.2022
4050 Clouds 26 1008 81 10000 1.28 269 20:53 29.01.2022
4051 Clouds 26 1009 80 10000 1.13 269 19:51 29.01.2022
4052 Clouds 26 1009 79 10000 1.13 269 19:30 29.01.2022
4053 Clouds 26 1009 78 10000 1.28 277 18:43 29.01.2022
4054 Clouds 27 1010 77 10000 1.26 265 17:54 29.01.2022
4055 Clouds 27 1010 77 10000 1.15 289 16:44 29.01.2022
4056 Clouds 28 1009 77 6000 1.54 220 15:25 29.01.2022
4057 Clouds 28 1008 69 6000 0 0 13:48 29.01.2022
4058 Clouds 28 1008 69 6000 0 0 13:27 29.01.2022
4059 Clouds 28 1008 67 6000 1.54 330 12:58 29.01.2022
4060 Clouds 30 1007 62 6000 0 0 11:39 29.01.2022
4061 Clouds 31 1007 61 6000 1.54 270 10:32 29.01.2022
4062 Haze 32 1008 60 5000 3.09 10 07:57 29.01.2022
4063 Mist 26 1010 91 3000 0 0 01:39 29.01.2022
4064 Mist 24 1010 100 4000 0 0 00:31 29.01.2022
4065 Mist 24 1009 100 4000 0 0 23:29 28.01.2022
4066 Mist 25 1009 96 4000 0 0 22:46 28.01.2022
4067 Clouds 25 1009 99 10000 0.98 262 22:19 28.01.2022
4068 Clouds 25 1008 99 10000 1.32 253 20:41 28.01.2022
4069 Clouds 25 1009 98 10000 1.65 257 19:56 28.01.2022
4070 Rain 25 1009 96 10000 2.19 259 18:52 28.01.2022
4071 Clouds 25 1010 96 10000 2.83 266 17:53 28.01.2022
4072 Clouds 26 1011 92 10000 3.29 278 15:52 28.01.2022
4073 Clouds 26 1010 92 10000 3.12 285 14:50 28.01.2022
4074 Clouds 27 1009 85 6000 1.54 30 12:42 28.01.2022
4075 Rain 27 1008 83 6000 1.54 80 11:49 28.01.2022
4076 Haze 28 1007 74 5000 2.57 240 10:26 28.01.2022
4077 Haze 29 1008 78 5000 2.57 250 09:46 28.01.2022
4078 Clouds 32 1009 52 6000 2.06 240 07:41 28.01.2022
4079 Clouds 33 1010 52 6000 4.12 270 05:31 28.01.2022
4080 Clouds 30 1011 66 6000 4.12 250 03:51 28.01.2022
4081 Clouds 27 1011 78 6000 1.54 240 02:25 28.01.2022
4082 Clouds 27 1010 81 6000 2.06 240 01:37 28.01.2022
4083 Clouds 26 1009 89 6000 2.06 230 00:39 28.01.2022
4084 Clouds 26 1008 82 10000 2.32 248 22:20 27.01.2022
4085 Clouds 26 1008 81 10000 2.31 248 21:34 27.01.2022
4086 Clouds 26 1008 81 10000 2.62 259 20:59 27.01.2022
4087 Clouds 26 1009 82 10000 2.54 258 19:37 27.01.2022
4088 Clouds 27 1010 75 10000 2.64 262 18:18 27.01.2022
4089 Clouds 28 1010 73 10000 2.93 272 16:45 27.01.2022
4090 Clouds 29 1009 75 6000 1.54 330 13:57 27.01.2022
4091 Clouds 29 1008 72 6000 1.54 340 12:48 27.01.2022
4092 Clouds 31 1007 66 6000 3.6 330 11:24 27.01.2022
4093 Clouds 32 1007 55 6000 2.06 360 09:47 27.01.2022
4094 Clouds 33 1008 49 6000 5.14 330 08:40 27.01.2022
4095 Clouds 32 1009 55 6000 2.06 330 07:23 27.01.2022
4096 Clouds 29 1011 79 6000 2.06 240 03:19 27.01.2022
4097 Mist 25 1009 94 4000 0 0 00:23 27.01.2022
4098 Clouds 25 1008 90 6000 0 0 22:27 26.01.2022
4099 Clouds 26 1008 83 10000 2.9 280 21:42 26.01.2022
4100 Clouds 26 1008 83 10000 3.17 272 20:43 26.01.2022
4101 Clouds 26 1008 83 10000 3.16 269 20:24 26.01.2022
4102 Clouds 26 1008 82 10000 3.38 271 19:30 26.01.2022
4103 Clouds 26 1009 85 6000 0 0 18:46 26.01.2022
4104 Clouds 26 1009 88 6000 0 0 17:53 26.01.2022
4105 Clouds 26 1009 88 6000 0 0 17:32 26.01.2022
4106 Clouds 26 1009 87 6000 2.06 290 16:46 26.01.2022
4107 Clouds 27 1009 86 6000 1.54 240 15:56 26.01.2022
4108 Rain 26 1009 89 5000 0 0 14:32 26.01.2022
4109 Rain 28 1008 83 5000 2.06 40 12:18 26.01.2022
4110 Clouds 30 1006 67 6000 2.06 260 10:50 26.01.2022
4111 Haze 31 1006 68 5000 2.06 330 09:52 26.01.2022
4112 Rain 30 1007 74 6000 2.57 320 08:46 26.01.2022
4113 Haze 30 1009 72 5000 2.57 350 06:28 26.01.2022
4114 Haze 30 1009 72 5000 2.57 350 06:28 26.01.2022
4115 Haze 30 1009 73 5000 2.57 350 06:28 26.01.2022
4116 Haze 30 1009 72 5000 2.57 350 06:28 26.01.2022
4117 Clouds 25 1009 92 5000 2.57 290 00:21 26.01.2022
4118 Rain 26 1008 85 6000 0 0 23:37 25.01.2022
4119 Clouds 27 1008 87 6000 2.06 270 22:48 25.01.2022
4120 Clouds 26 1007 84 10000 3.76 281 22:18 25.01.2022
4121 Clouds 26 1007 82 10000 3.57 282 21:23 25.01.2022
4122 Clouds 27 1007 81 10000 3.57 282 20:45 25.01.2022
4123 Clouds 27 1007 80 10000 3.67 280 19:54 25.01.2022
4124 Clouds 27 1008 78 10000 3.53 279 19:23 25.01.2022
4125 Clouds 27 1008 75 10000 3.79 274 17:56 25.01.2022
4126 Clouds 27 1008 75 10000 4.27 273 17:18 25.01.2022
4127 Clouds 28 1009 77 6000 1.54 260 16:34 25.01.2022
4128 Clouds 28 1009 76 6000 5.14 290 15:39 25.01.2022
4129 Clouds 28 1009 76 6000 5.14 290 15:18 25.01.2022
4130 Clouds 29 1008 75 6000 5.14 270 14:43 25.01.2022
4131 Clouds 31 1006 65 6000 5.14 250 11:52 25.01.2022
4132 Thunderstorm 29 1006 74 6000 6.17 330 09:24 25.01.2022
4133 Clouds 33 1007 55 6000 6.17 240 07:52 25.01.2022
4134 Clouds 31 1008 70 6000 3.09 300 06:55 25.01.2022
4135 Clouds 30 1009 66 7000 6.17 280 05:23 25.01.2022
4136 Clouds 30 1009 66 7000 6.17 280 05:23 25.01.2022
4137 Clouds 27 1008 83 10000 3.7 261 00:31 25.01.2022
4138 Clouds 27 1007 83 10000 3.49 262 23:36 24.01.2022
4139 Clouds 27 1007 82 10000 3.72 256 23:18 24.01.2022
4140 Clouds 27 1007 83 10000 3.72 256 22:42 24.01.2022
4141 Clouds 27 1007 81 10000 4.28 252 22:19 24.01.2022
4142 Clouds 27 1007 77 10000 4.24 252 21:40 24.01.2022
4143 Clouds 27 1007 77 10000 4.49 252 21:19 24.01.2022
4144 Clouds 27 1007 81 10000 4.56 248 20:26 24.01.2022
4145 Clouds 27 1007 81 10000 4.56 248 20:26 24.01.2022
4146 Clouds 27 1007 83 10000 4.56 248 19:38 24.01.2022
4147 Clouds 27 1007 81 10000 5.11 250 18:50 24.01.2022
4148 Clouds 27 1008 74 10000 5.4 256 17:25 24.01.2022
4149 Clouds 27 1008 74 10000 5.37 256 16:59 24.01.2022
4150 Clouds 27 1008 74 10000 5.37 256 16:30 24.01.2022
4151 Clouds 28 1008 73 6000 2.57 240 15:25 24.01.2022
4152 Clouds 29 1007 70 6000 3.6 240 13:58 24.01.2022
4153 Clouds 30 1006 66 6000 5.14 240 12:34 24.01.2022
4154 Clouds 31 1005 63 6000 6.17 240 11:41 24.01.2022
4155 Clouds 33 1005 54 6000 4.63 210 10:19 24.01.2022
4156 Clouds 33 1005 48 6000 7.72 210 09:44 24.01.2022
4157 Clouds 34 1005 52 7000 3.09 240 07:45 24.01.2022
4158 Clouds 27 1008 80 6000 2.06 260 01:38 24.01.2022
4159 Clouds 26 1008 86 6000 1.54 280 00:55 24.01.2022
4160 Clouds 25 1008 87 6000 1.54 270 00:30 24.01.2022
4161 Clouds 25 1007 90 6000 1.54 260 23:39 23.01.2022
4162 Clouds 25 1007 84 10000 3.41 253 21:53 23.01.2022
4163 Clouds 25 1007 84 10000 3.25 258 21:29 23.01.2022
4164 Clouds 26 1007 83 10000 3.25 258 20:57 23.01.2022
4165 Clouds 26 1008 82 10000 3.09 256 20:22 23.01.2022
4166 Clouds 27 1008 79 10000 3.53 249 18:56 23.01.2022
4167 Clouds 27 1009 76 10000 3.83 248 18:24 23.01.2022
4168 Rain 28 1009 71 10000 4.19 254 16:56 23.01.2022
4169 Clouds 28 1009 72 6000 2.06 220 15:56 23.01.2022
4170 Clouds 29 1009 70 6000 2.57 210 14:52 23.01.2022
4171 Clouds 29 1009 68 6000 2.57 210 14:18 23.01.2022
4172 Clouds 29 1007 69 6000 3.09 230 12:46 23.01.2022
4173 Clouds 30 1007 65 6000 3.6 230 12:20 23.01.2022
4174 Clouds 32 1006 55 6000 4.12 290 11:26 23.01.2022
4175 Clouds 32 1005 62 6000 2.06 290 10:57 23.01.2022
4176 Clouds 32 1005 62 6000 2.06 290 10:25 23.01.2022
4177 Clouds 34 1006 59 6000 3.6 330 09:31 23.01.2022
4178 Clouds 33 1006 52 6000 4.63 260 08:49 23.01.2022
4179 Clouds 30 1010 66 7000 2.57 310 03:49 23.01.2022
4180 Clouds 26 1009 89 6000 0 0 01:37 23.01.2022
4181 Clouds 25 1009 94 6000 0 0 00:47 23.01.2022
4182 Clouds 25 1008 88 6000 0 0 23:59 22.01.2022
4183 Clouds 25 1008 91 6000 2.57 250 22:53 22.01.2022
4184 Clouds 25 1008 91 6000 2.57 250 22:19 22.01.2022
4185 Clouds 26 1008 83 10000 2.65 247 20:33 22.01.2022
4186 Clouds 26 1008 83 10000 2.81 250 19:46 22.01.2022
4187 Haze 26 1010 85 5000 1.54 270 18:38 22.01.2022
4188 Clouds 27 1009 81 10000 2.72 270 17:49 22.01.2022
4189 Rain 27 1010 82 6000 0 0 17:29 22.01.2022
4190 Clouds 27 1010 82 6000 0 0 16:54 22.01.2022
4191 Clouds 27 1010 79 6000 0 0 15:45 22.01.2022
4192 Clouds 28 1009 77 6000 0 0 14:55 22.01.2022
4193 Clouds 28 1008 75 6000 1.54 360 13:31 22.01.2022
4194 Clouds 29 1007 72 6000 1.54 320 12:40 22.01.2022
4195 Clouds 29 1007 71 6000 1.54 320 12:20 22.01.2022
4196 Clouds 30 1007 70 6000 1.54 320 10:55 22.01.2022
4197 Clouds 31 1006 62 6000 4.12 340 10:26 22.01.2022
4198 Clouds 31 1007 66 6000 3.09 340 09:43 22.01.2022
4199 Clouds 32 1007 58 6000 3.09 260 08:51 22.01.2022
4200 Clouds 30 1009 70 6000 3.09 250 07:27 22.01.2022
4201 Clouds 27 1011 83 6000 2.06 240 03:26 22.01.2022
4202 Haze 25 1010 94 5000 1.54 360 00:57 22.01.2022
4203 Haze 25 1010 95 5000 0 0 23:21 21.01.2022
4204 Rain 25 1009 97 10000 3.59 261 22:19 21.01.2022
4205 Clouds 24 1009 95 9818 3.48 295 19:55 21.01.2022
4206 Rain 24 1011 97 10000 3.02 311 18:23 21.01.2022
4207 Clouds 27 1011 85 6000 0 0 16:58 21.01.2022
4208 Clouds 27 1010 89 7000 0 0 15:26 21.01.2022
4209 Clouds 30 1009 70 10000 3.13 309 12:53 21.01.2022
4210 Clouds 29 1008 78 7000 2.06 270 12:26 21.01.2022
4211 Clouds 29 1007 74 7000 0 0 11:26 21.01.2022
4212 Clouds 29 1008 79 5000 3.6 330 09:34 21.01.2022
4213 Clouds 31 1008 62 6000 3.09 360 08:21 21.01.2022
4214 Clouds 30 1010 66 7000 4.12 230 04:37 21.01.2022
4215 Clouds 24 1009 94 6000 2.06 240 23:19 20.01.2022
4216 Clouds 24 1009 83 10000 2.74 266 21:50 20.01.2022
4217 Clouds 24 1009 83 10000 2.72 266 21:31 20.01.2022
4218 Clouds 24 1009 82 10000 3.33 269 20:21 20.01.2022
4219 Clouds 24 1009 82 10000 3.23 266 19:19 20.01.2022
4220 Clouds 25 1010 82 10000 2.82 261 18:18 20.01.2022
4221 Clouds 25 1011 81 10000 2.69 259 16:40 20.01.2022
4222 Clouds 26 1010 83 6000 1.54 270 15:40 20.01.2022
4223 Rain 26 1009 83 6000 2.57 280 14:40 20.01.2022
4224 Rain 26 1009 83 6000 2.06 250 13:32 20.01.2022
4225 Rain 26 1008 83 6000 3.09 250 12:31 20.01.2022
4226 Rain 26 1008 83 6000 2.57 260 11:36 20.01.2022
4227 Rain 25 1008 94 6000 3.09 250 10:37 20.01.2022
4228 Rain 24 1009 94 3000 3.6 260 09:29 20.01.2022
4229 Clouds 29 1010 66 6000 4.63 230 07:33 20.01.2022
4230 Clouds 24 1009 94 6000 2.57 240 00:43 20.01.2022
4231 Clouds 24 1009 100 5000 5.14 240 22:52 19.01.2022
4232 Clouds 25 1008 80 10000 3.95 274 21:45 19.01.2022
4233 Clouds 25 1008 79 10000 4.4 276 21:22 19.01.2022
4234 Rain 25 1008 79 10000 4.43 276 20:46 19.01.2022
4235 Rain 25 1009 78 10000 4.78 279 19:42 19.01.2022
4236 Clouds 24 1009 75 10000 4.8 271 17:55 19.01.2022
4237 Clouds 24 1009 75 10000 4.8 271 17:35 19.01.2022
4238 Clouds 25 1010 100 6000 1.54 330 16:27 19.01.2022
4239 Clouds 25 1008 94 6000 0 0 14:42 19.01.2022
4240 Clouds 29 1007 74 6000 1.54 270 12:41 19.01.2022
4241 Clouds 30 1006 70 6000 1.54 290 11:39 19.01.2022
4242 Clouds 31 1006 70 6000 1.54 270 10:20 19.01.2022
4243 Clouds 29 1006 63 10000 6.09 304 09:33 19.01.2022
4244 Clouds 30 1009 70 6000 5.14 270 06:35 19.01.2022
4245 Haze 26 1010 89 5000 2.06 240 02:38 19.01.2022
4246 Haze 24 1008 100 5000 0 0 23:19 18.01.2022
4247 Clouds 25 1008 80 10000 3.35 276 22:19 18.01.2022
4248 Clouds 25 1008 79 10000 3.59 273 20:55 18.01.2022
4249 Rain 25 1008 78 10000 3.76 277 19:54 18.01.2022
4250 Clouds 25 1008 79 4646 4.16 288 19:36 18.01.2022
4251 Haze 25 1010 94 5000 1.54 300 18:38 18.01.2022
4252 Clouds 25 1009 76 10000 3.15 281 17:57 18.01.2022
4253 Rain 26 1010 89 6000 0 0 16:38 18.01.2022
4254 Rain 26 1010 89 6000 0 0 15:40 18.01.2022
4255 Rain 26 1010 89 6000 0 0 15:20 18.01.2022
4256 Haze 28 1008 78 5000 1.54 340 12:30 18.01.2022
4257 Haze 28 1007 83 5000 2.57 350 10:46 18.01.2022
4258 Rain 27 1008 89 6000 3.09 20 08:49 18.01.2022
4259 Rain 26 1010 94 5000 3.09 340 07:46 18.01.2022
4260 Haze 26 1011 94 5000 2.06 240 02:33 18.01.2022
4261 Haze 25 1009 94 5000 2.57 270 23:22 17.01.2022
4262 Rain 25 1008 99 10000 2.99 267 22:26 17.01.2022
4263 Rain 25 1008 99 10000 2.99 267 21:33 17.01.2022
4264 Rain 27 1008 83 10000 3.33 269 19:57 17.01.2022
4265 Clouds 27 1010 79 10000 3.57 267 18:29 17.01.2022
4266 Rain 27 1010 75 10000 3.41 270 17:25 17.01.2022
4267 Haze 27 1010 79 5000 0 0 16:35 17.01.2022
4268 Rain 28 1010 76 6000 2.06 280 15:18 17.01.2022
4269 Rain 29 1009 74 6000 2.57 300 14:43 17.01.2022
4270 Haze 29 1009 73 5000 2.57 230 13:20 17.01.2022
4271 Haze 29 1008 73 5000 1.54 250 12:55 17.01.2022
4272 Clouds 30 1007 69 6000 3.09 330 11:48 17.01.2022
4273 Clouds 31 1006 70 6000 2.57 320 10:21 17.01.2022
4274 Clouds 31 1007 70 6000 2.57 330 09:34 17.01.2022
4275 Haze 31 1009 64 5000 4.12 330 07:23 17.01.2022
4276 Haze 28 1011 83 5000 1.54 270 02:55 17.01.2022
4277 Rain 26 1011 89 10000 2.99 261 00:55 17.01.2022
4278 Rain 26 1009 88 10000 2.52 282 22:18 16.01.2022
4279 Rain 26 1009 85 10000 2.44 281 20:35 16.01.2022
4280 Haze 27 1011 92 5000 1.54 330 18:51 16.01.2022
4281 Haze 27 1011 92 5000 1.54 330 17:59 16.01.2022
4282 Clouds 27 1011 91 6000 0 0 16:59 16.01.2022
4283 Clouds 27 1011 94 6000 0 0 16:31 16.01.2022
4284 Clouds 27 1010 84 6000 0 0 14:31 16.01.2022
4285 Clouds 28 1010 81 6000 0 0 13:45 16.01.2022
4286 Clouds 28 1009 80 6000 1.54 330 12:44 16.01.2022
4287 Clouds 29 1009 76 6000 2.06 320 11:41 16.01.2022
4288 Rain 29 1009 75 6000 2.06 330 10:53 16.01.2022
4289 Rain 30 1008 74 6000 2.06 360 09:59 16.01.2022
4290 Clouds 30 1009 73 6000 2.06 300 09:40 16.01.2022
4291 Clouds 30 1009 72 6000 3.09 330 09:22 16.01.2022
4292 Haze 29 1010 80 5000 2.57 330 07:30 16.01.2022
4293 Rain 25 1010 99 3000 0 0 00:38 16.01.2022
4294 Mist 25 1009 99 3000 1.54 250 23:40 15.01.2022
4295 Rain 26 1009 93 10000 2.59 278 21:23 15.01.2022
4296 Rain 26 1009 93 10000 2.59 278 20:56 15.01.2022
4297 Rain 26 1009 93 10000 2.59 278 20:38 15.01.2022
4298 Clouds 26 1010 91 10000 2.19 258 19:28 15.01.2022
4299 Clouds 26 1010 88 10000 1.63 266 18:31 15.01.2022
4300 Haze 27 1012 87 5000 0 0 16:57 15.01.2022
4301 Clouds 27 1012 84 6000 1.54 100 15:39 15.01.2022
4302 Clouds 28 1011 80 6000 0 0 13:39 15.01.2022
4303 Clouds 29 1009 72 6000 1.54 280 11:46 15.01.2022
4304 Haze 30 1009 70 5000 3.09 270 10:24 15.01.2022
4305 Haze 29 1011 74 5000 2.06 270 05:27 15.01.2022
4306 Clouds 24 1010 98 6000 1.54 270 23:49 14.01.2022
4307 Clouds 25 1009 96 10000 2.51 273 21:37 14.01.2022
4308 Clouds 25 1009 97 10000 2.49 285 20:37 14.01.2022
4309 Rain 24 1009 74 10000 2.27 280 19:58 14.01.2022
4310 Clouds 26 1011 91 5000 0 0 18:46 14.01.2022
4311 Clouds 26 1011 91 5000 0 0 17:54 14.01.2022
4312 Haze 26 1011 88 5000 0 0 16:47 14.01.2022
4313 Haze 27 1011 83 5000 0 0 15:33 14.01.2022
4314 Haze 28 1011 83 5000 1.54 140 14:30 14.01.2022
4315 Clouds 28 1010 79 6000 1.54 20 13:27 14.01.2022
4316 Rain 28 1009 78 6000 0 0 12:20 14.01.2022
4317 Clouds 30 1009 71 6000 2.57 330 10:47 14.01.2022
4318 Clouds 30 1009 70 6000 5.14 340 08:54 14.01.2022
4319 Clouds 30 1010 72 6000 3.09 330 07:56 14.01.2022
4320 Haze 28 1012 83 5000 2.57 230 03:50 14.01.2022
4321 Haze 24 1011 100 5000 0 0 00:44 14.01.2022
4322 Haze 24 1010 100 5000 0 0 22:35 13.01.2022
4323 Clouds 24 1010 80 10000 1.11 259 21:30 13.01.2022
4324 Clouds 24 1010 79 10000 1.62 296 20:54 13.01.2022
4325 Clouds 24 1010 79 9193 1.97 310 19:32 13.01.2022
4326 Clouds 24 1011 80 10000 1.98 305 18:57 13.01.2022
4327 Clouds 28 1012 83 3000 3.09 330 17:25 13.01.2022
4328 Clouds 27 1012 83 6000 2.06 40 16:19 13.01.2022
4329 Clouds 28 1012 83 6000 2.06 10 15:35 13.01.2022
4330 Clouds 28 1011 71 10000 2.3 328 13:48 13.01.2022
4331 Clouds 29 1010 74 6000 3.09 360 12:25 13.01.2022
4332 Clouds 31 1009 66 6000 3.6 330 09:38 13.01.2022
4333 Clouds 30 1009 70 6000 2.57 270 08:57 13.01.2022
4334 Clouds 31 1010 62 6000 3.09 340 08:26 13.01.2022
4335 Clouds 30 1011 70 6000 2.57 360 07:22 13.01.2022
4336 Haze 30 1011 66 5000 5.14 330 05:59 13.01.2022
4337 Clouds 30 1012 70 6000 2.57 330 05:19 13.01.2022
4338 Haze 26 1012 89 5000 1.54 250 01:53 13.01.2022
4339 Mist 24 1011 100 4000 0 0 00:40 13.01.2022
4340 Clouds 24 1010 100 6000 0 0 23:45 12.01.2022
4341 Clouds 24 1010 100 6000 1.54 230 22:59 12.01.2022
4342 Clouds 24 1011 81 9752 1.91 282 21:57 12.01.2022
4343 Clouds 24 1011 81 10000 1.56 294 21:22 12.01.2022
4344 Clouds 24 1011 81 10000 1.56 294 20:56 12.01.2022
4345 Clouds 24 1011 80 10000 1.52 319 19:41 12.01.2022
4346 Clouds 24 1012 100 5000 0 0 18:30 12.01.2022
4347 Clouds 24 1012 100 5000 0 0 18:30 12.01.2022
4348 Rain 24 1013 100 5000 1.54 200 17:00 12.01.2022
4349 Rain 24 1013 100 5000 1.54 210 16:28 12.01.2022
4350 Rain 24 1013 100 5000 0 0 14:48 12.01.2022
4351 Thunderstorm 24 1011 100 2000 2.57 290 12:59 12.01.2022
4352 Thunderstorm 24 1011 100 2000 2.57 290 12:59 12.01.2022
4353 Clouds 29 1009 74 6000 2.57 360 10:48 12.01.2022
4354 Rain 29 1010 74 6000 2.06 310 08:38 12.01.2022
4355 Clouds 30 1010 70 6000 2.06 310 07:49 12.01.2022
4356 Haze 30 1010 70 5000 3.09 330 07:31 12.01.2022
4357 Haze 24 1010 100 5000 1.54 200 23:53 11.01.2022
4358 Clouds 24 1010 100 5000 0 0 22:54 11.01.2022
4359 Clouds 24 1011 86 10000 3.73 278 22:22 11.01.2022
4360 Clouds 24 1011 88 10000 3.7 290 20:54 11.01.2022
4361 Rain 24 1011 89 10000 4.23 300 19:50 11.01.2022
4362 Rain 24 1012 92 3737 4.24 300 18:31 11.01.2022
4363 Rain 25 1013 100 5000 1.54 250 17:26 11.01.2022
4364 Clouds 25 1013 100 5000 0 0 16:37 11.01.2022
4365 Rain 25 1013 100 5000 0 0 15:39 11.01.2022
4366 Rain 25 1012 100 5000 1.54 360 14:42 11.01.2022
4367 Rain 25 1012 100 5000 0 0 13:55 11.01.2022
4368 Rain 25 1011 94 5000 0 0 13:35 11.01.2022
4369 Rain 25 1011 94 5000 2.06 260 12:48 11.01.2022
4370 Rain 26 1010 94 4000 0 0 11:45 11.01.2022
4371 Rain 30 1008 66 6000 1.54 270 09:39 11.01.2022
4372 Clouds 28 1010 83 5000 1.54 250 07:18 11.01.2022
4373 Clouds 24 1011 100 4000 3.09 240 00:33 11.01.2022
4374 Clouds 25 1011 100 4000 2.06 240 23:44 10.01.2022
4375 Clouds 25 1011 100 4000 2.06 240 23:24 10.01.2022
4376 Rain 24 1010 100 4000 1.54 270 22:19 10.01.2022
4377 Rain 24 1009 72 10000 5.08 296 21:54 10.01.2022
4378 Clouds 24 1009 70 10000 4.86 293 21:21 10.01.2022
4379 Rain 24 1009 70 10000 4.86 293 20:57 10.01.2022
4380 Rain 24 1009 69 10000 4.47 288 20:28 10.01.2022
4381 Clouds 24 1009 69 10000 4.43 288 19:44 10.01.2022
4382 Rain 25 1010 68 10000 4.21 290 19:21 10.01.2022
4383 Rain 26 1012 100 4000 2.57 280 18:50 10.01.2022
4384 Haze 26 1012 100 5000 2.06 280 17:56 10.01.2022
4385 Rain 26 1011 94 5000 1.54 360 16:42 10.01.2022
4386 Thunderstorm 26 1011 94 5000 1.54 360 15:49 10.01.2022
4387 Rain 26 1010 65 10000 4.7 287 14:34 10.01.2022
4388 Clouds 28 1008 78 6000 2.06 270 12:18 10.01.2022
4389 Clouds 29 1007 74 6000 5.14 240 11:25 10.01.2022
4390 Clouds 31 1007 66 6000 2.57 270 09:53 10.01.2022
4391 Clouds 31 1007 70 6000 5.14 360 08:22 10.01.2022
4392 Clouds 31 1009 66 6000 2.57 280 05:50 10.01.2022
4393 Haze 26 1009 94 5000 0 0 01:33 10.01.2022
4394 Mist 25 1009 100 4000 0 0 00:29 10.01.2022
4395 Clouds 25 1009 72 10000 2.65 243 23:43 09.01.2022
4396 Haze 25 1008 94 5000 0 0 22:42 09.01.2022
4397 Clouds 26 1008 72 10000 3.16 248 21:47 09.01.2022
4398 Clouds 26 1008 71 10000 3.28 245 21:24 09.01.2022
4399 Clouds 26 1008 71 10000 3.28 245 21:24 09.01.2022
4400 Clouds 26 1008 71 10000 3.28 245 20:54 09.01.2022
4401 Clouds 26 1008 70 10000 3.61 248 20:36 09.01.2022
4402 Clouds 26 1008 70 10000 3.67 248 20:18 09.01.2022
4403 Clouds 26 1008 70 10000 3.67 248 19:37 09.01.2022
4404 Clouds 27 1009 69 10000 3.33 249 19:18 09.01.2022
4405 Clouds 26 1009 69 10000 3.33 249 18:37 09.01.2022
4406 Clouds 27 1009 68 10000 3.46 245 17:48 09.01.2022
4407 Clouds 27 1009 67 10000 3.88 237 17:25 09.01.2022
4408 Clouds 27 1009 67 10000 3.88 237 16:38 09.01.2022
4409 Clouds 28 1010 78 6000 2.57 240 15:38 09.01.2022
4410 Clouds 28 1009 64 10000 4.23 256 14:41 09.01.2022
4411 Clouds 29 1009 74 6000 4.63 260 14:21 09.01.2022
4412 Clouds 29 1008 70 6000 3.6 250 13:41 09.01.2022
4413 Clouds 30 1007 74 6000 4.12 220 11:56 09.01.2022
4414 Clouds 31 1006 66 6000 3.6 260 11:24 09.01.2022
4415 Clouds 32 1006 62 6000 3.6 260 09:53 09.01.2022
4416 Clouds 31 1007 66 6000 3.6 350 08:56 09.01.2022
4417 Clouds 32 1009 62 6000 1.54 240 06:21 09.01.2022
4418 Clouds 27 1010 89 6000 3.09 200 01:28 09.01.2022
4419 Clouds 25 1010 94 6000 1.54 170 00:37 09.01.2022
4420 Haze 26 1009 83 5000 2.57 250 23:30 08.01.2022
4421 Rain 26 1009 73 10000 2.41 261 22:44 08.01.2022
4422 Rain 26 1008 73 10000 3.16 260 21:27 08.01.2022
4423 Rain 26 1008 73 10000 3.16 260 20:43 08.01.2022
4424 Clouds 26 1009 72 10000 3.36 261 20:21 08.01.2022
4425 Clouds 26 1010 71 10000 3.36 264 19:22 08.01.2022
4426 Clouds 27 1011 68 10000 3.41 265 17:31 08.01.2022
4427 Haze 26 1011 100 5000 0 0 16:42 08.01.2022
4428 Haze 26 1011 100 5000 1.54 200 15:28 08.01.2022
4429 Rain 27 1010 65 10000 2.84 297 13:57 08.01.2022
4430 Clouds 30 1008 64 10000 4.93 306 11:40 08.01.2022
4431 Clouds 31 1007 66 6000 2.57 320 10:33 08.01.2022
4432 Clouds 32 1007 62 6000 2.57 260 09:57 08.01.2022
4433 Clouds 32 1008 62 6000 6.17 350 09:34 08.01.2022
4434 Clouds 32 1010 55 6000 3.6 280 06:18 08.01.2022
4435 Clouds 28 1011 84 6000 1.54 220 01:41 08.01.2022
4436 Haze 25 1009 93 5000 0 0 23:31 07.01.2022
4437 Clouds 26 1008 79 10000 2.65 308 21:49 07.01.2022
4438 Clouds 27 1008 77 10000 1.83 303 20:32 07.01.2022
4439 Clouds 27 1009 77 10000 1.26 200 19:27 07.01.2022
4440 Clouds 27 1009 77 10000 1.26 200 19:27 07.01.2022
4441 Clouds 27 1009 79 10000 0.94 169 18:49 07.01.2022
4442 Clouds 27 1010 80 10000 1.56 170 18:21 07.01.2022
4443 Clouds 26 1011 65 10000 2.2 162 17:24 07.01.2022
4444 Clouds 25 1012 94 5000 1.54 110 14:56 07.01.2022
4445 Rain 25 1011 94 5000 1.54 120 13:52 07.01.2022
4446 Rain 27 1011 83 5000 3.09 190 12:51 07.01.2022
4447 Rain 27 1009 83 5000 2.06 180 11:28 07.01.2022
4448 Clouds 32 1012 58 6000 3.09 210 04:54 07.01.2022
4449 Haze 29 1013 79 5000 1.54 180 02:53 07.01.2022
4450 Haze 26 1012 94 5000 1.54 190 01:48 07.01.2022
4451 Haze 25 1012 100 5000 1.54 140 01:26 07.01.2022
4452 Haze 25 1011 92 5000 0 0 00:31 07.01.2022
4453 Haze 25 1011 92 5000 0 0 00:31 07.01.2022
4454 Clouds 26 1010 87 10000 1.56 241 22:33 06.01.2022
4455 Clouds 26 1010 84 10000 1.66 241 20:51 06.01.2022
4456 Clouds 26 1010 83 10000 1.85 226 20:18 06.01.2022
4457 Clouds 27 1010 82 10000 1.85 226 19:38 06.01.2022
4458 Clouds 27 1012 81 10000 1.54 171 17:51 06.01.2022
4459 Clouds 27 1012 82 10000 1.91 183 17:27 06.01.2022
4460 Haze 26 1012 95 5000 0 0 16:38 06.01.2022
4461 Mist 26 1011 94 4000 1.54 310 15:44 06.01.2022
4462 Mist 26 1011 94 4000 1.54 310 15:22 06.01.2022
4463 Haze 26 1011 94 5000 0 0 14:20 06.01.2022
4464 Haze 26 1010 95 5000 2.06 150 13:39 06.01.2022
4465 Clouds 25 1009 100 4000 1.54 120 12:28 06.01.2022
4466 Rain 27 1009 90 4000 1.54 140 11:31 06.01.2022
4467 Rain 26 1009 94 5000 2.57 170 10:59 06.01.2022
4468 Haze 32 1010 66 5000 2.06 20 06:54 06.01.2022
4469 Mist 26 1011 93 3000 0 0 00:34 06.01.2022
4470 Mist 26 1010 93 3000 0 0 23:34 05.01.2022
4471 Clouds 26 1010 83 10000 1.66 102 22:48 05.01.2022
4472 Clouds 26 1009 83 10000 1.77 94 22:29 05.01.2022
4473 Clouds 26 1009 81 10000 1.76 94 21:43 05.01.2022
4474 Clouds 27 1009 82 10000 2.31 105 20:44 05.01.2022
4475 Clouds 27 1010 81 10000 2.54 104 19:46 05.01.2022
4476 Clouds 28 1011 77 10000 2.75 83 18:27 05.01.2022
4477 Haze 27 1011 86 5000 0 0 16:58 05.01.2022
4478 Haze 27 1011 85 5000 1.54 130 16:21 05.01.2022
4479 Haze 27 1011 84 5000 1.54 40 15:20 05.01.2022
4480 Clouds 27 1009 84 4000 5.14 60 13:37 05.01.2022
4481 Clouds 28 1009 81 1500 3.09 360 12:46 05.01.2022
4482 Haze 32 1008 58 5000 1.54 360 08:47 05.01.2022
4483 Haze 34 1009 55 5000 3.09 50 07:20 05.01.2022
4484 Haze 29 1011 73 4000 0 0 01:58 05.01.2022
4485 Mist 25 1010 91 2000 0 0 23:44 04.01.2022
4486 Mist 25 1010 90 3000 0 0 23:26 04.01.2022
4487 Clouds 25 1011 89 6000 0 0 22:19 04.01.2022
4488 Clouds 26 1009 81 10000 1.11 53 20:46 04.01.2022
4489 Clouds 27 1010 78 10000 1.04 356 18:44 04.01.2022
4490 Clouds 27 1011 78 10000 1.34 357 17:37 04.01.2022
4491 Clouds 27 1011 73 10000 1.76 356 16:39 04.01.2022
4492 Haze 28 1011 81 5000 0 0 16:20 04.01.2022
4493 Clouds 28 1010 78 6000 1.54 40 14:46 04.01.2022
4494 Clouds 28 1010 78 6000 1.54 40 14:23 04.01.2022
4495 Haze 30 1009 68 5000 4.12 40 12:37 04.01.2022
4496 Clouds 31 1008 63 6000 3.09 20 10:28 04.01.2022
4497 Haze 32 1008 57 5000 4.12 30 08:59 04.01.2022
4498 Haze 34 1010 51 5000 3.09 340 06:46 04.01.2022
4499 Haze 26 1011 78 5000 0 0 00:50 04.01.2022
4500 Haze 25 1010 82 5000 0 0 00:31 04.01.2022
4501 Clouds 25 1009 80 10000 1.77 171 22:30 03.01.2022
4502 Clouds 25 1009 79 10000 2.17 174 21:41 03.01.2022
4503 Clouds 25 1009 77 10000 2.6 158 20:51 03.01.2022
4504 Clouds 25 1009 74 10000 2.89 149 19:44 03.01.2022
4505 Clouds 26 1009 72 10000 3.16 125 18:33 03.01.2022
4506 Clouds 27 1010 66 10000 3.3 122 17:40 03.01.2022
4507 Clouds 28 1010 65 10000 3.26 123 16:56 03.01.2022
4508 Haze 28 1010 83 5000 1.54 200 14:54 03.01.2022
4509 Haze 28 1009 80 5000 1.54 120 13:53 03.01.2022
4510 Clouds 31 1007 62 6000 3.6 30 12:33 03.01.2022
4511 Clouds 32 1007 54 6000 3.6 20 11:31 03.01.2022
4512 Clear 33 1006 46 10000 4.93 347 09:42 03.01.2022
4513 Clouds 34 1007 46 6000 4.12 40 08:28 03.01.2022
4514 Clouds 34 1009 38 7000 2.57 110 06:31 03.01.2022
4515 Clouds 25 1009 89 6000 1.54 170 23:47 02.01.2022
4516 Clouds 25 1009 88 6000 1.54 170 23:18 02.01.2022
4517 Clouds 25 1008 83 6000 2.57 230 22:42 02.01.2022
4518 Clouds 25 1009 70 10000 1.8 210 21:32 02.01.2022
4519 Clouds 24 1009 71 10000 1.77 236 20:31 02.01.2022
4520 Clouds 24 1009 71 10000 1.77 236 20:30 02.01.2022
4521 Clouds 24 1009 71 10000 1.77 236 20:30 02.01.2022
4522 Clouds 24 1009 71 10000 1.77 236 20:30 02.01.2022
4523 Clouds 24 1009 71 10000 2.1 239 19:31 02.01.2022
4524 Clouds 26 1010 83 6000 0 0 18:56 02.01.2022
4525 Clouds 26 1010 83 6000 0 0 17:58 02.01.2022
4526 Clouds 26 1010 83 6000 0 0 17:39 02.01.2022
4527 Clouds 27 1010 83 6000 2.06 240 17:21 02.01.2022
4528 Clouds 27 1010 82 6000 3.09 240 16:28 02.01.2022
4529 Clouds 27 1010 82 6000 3.09 270 15:18 02.01.2022
4530 Clouds 27 1008 82 6000 3.6 240 13:38 02.01.2022
4531 Clouds 28 1008 75 6000 2.06 270 12:32 02.01.2022
4532 Clouds 29 1007 73 6000 2.57 240 11:49 02.01.2022
4533 Clouds 30 1007 69 6000 2.06 270 10:54 02.01.2022
4534 Clouds 30 1007 62 6000 3.09 240 09:57 02.01.2022
4535 Clouds 33 1008 52 6000 3.6 270 07:35 02.01.2022
4536 Clouds 28 1011 83 6000 1.54 240 02:56 02.01.2022
4537 Clouds 25 1009 92 6000 0 0 23:45 01.01.2022
4538 Clouds 25 1009 94 6000 2.06 150 23:24 01.01.2022
4539 Clouds 25 1009 94 6000 2.06 150 22:25 01.01.2022
4540 Clouds 25 1009 70 10000 3.24 248 21:46 01.01.2022
4541 Clouds 25 1009 70 10000 3.1 253 21:28 01.01.2022
4542 Clouds 26 1008 70 10000 2.78 244 20:27 01.01.2022
4543 Clouds 26 1008 70 10000 2.78 244 19:36 01.01.2022
4544 Clouds 26 1009 68 10000 2.98 254 18:51 01.01.2022
4545 Clouds 27 1009 81 10000 3.6 252 17:38 01.01.2022
4546 Clouds 27 1011 82 6000 3.6 240 16:35 01.01.2022
4547 Clouds 27 1010 81 10000 4.07 237 15:37 01.01.2022
4548 Clouds 28 1009 77 6000 2.57 250 14:39 01.01.2022
4549 Clouds 28 1009 71 6000 2.57 240 13:41 01.01.2022
4550 Clouds 30 1008 69 6000 3.6 270 12:25 01.01.2022
4551 Clouds 31 1007 62 6000 3.6 270 11:25 01.01.2022
4552 Clouds 31 1007 62 6000 6.17 240 10:56 01.01.2022
4553 Clouds 33 1007 55 6000 3.6 240 09:48 01.01.2022
4554 Clouds 33 1008 55 6000 3.09 270 08:39 01.01.2022
4555 Clouds 32 1009 56 6000 5.14 270 07:57 01.01.2022
4556 Clouds 33 1009 53 6000 5.14 270 07:38 01.01.2022
4557 Clouds 33 1010 54 6000 6.17 240 06:44 01.01.2022
4558 Clouds 31 1011 63 7000 4.12 240 04:40 01.01.2022
4559 Clouds 30 1011 63 7000 1.54 240 03:52 01.01.2022
4560 Haze 25 1010 88 5000 1.54 240 23:55 31.12.2021
4561 Clouds 25 1009 71 10000 2.88 237 22:30 31.12.2021
4562 Clouds 25 1008 71 10000 3.05 244 21:47 31.12.2021
4563 Clouds 26 1009 69 10000 2.98 236 19:48 31.12.2021
4564 Clouds 26 1009 82 10000 2.76 236 19:28 31.12.2021
4565 Clouds 28 1011 77 6000 1.54 250 17:56 31.12.2021
4566 Clouds 27 1010 81 10000 3.54 234 17:26 31.12.2021
4567 Clouds 28 1011 76 6000 2.06 250 16:52 31.12.2021
4568 Clouds 28 1011 75 6000 2.06 280 16:18 31.12.2021
4569 Clouds 28 1011 74 6000 2.06 280 15:50 31.12.2021
4570 Clouds 29 1010 69 6000 2.06 230 15:26 31.12.2021
4571 Clouds 29 1009 67 6000 4.63 220 14:39 31.12.2021
4572 Clouds 30 1009 66 6000 2.57 220 13:51 31.12.2021
4573 Clouds 31 1008 64 6000 3.6 240 12:51 31.12.2021
4574 Clouds 31 1007 62 6000 3.6 240 12:21 31.12.2021
4575 Clouds 33 1006 56 7000 3.6 270 11:42 31.12.2021
4576 Clouds 34 1006 55 7000 3.6 300 10:55 31.12.2021
4577 Clouds 34 1006 52 7000 3.6 280 10:28 31.12.2021
4578 Clouds 32 1007 55 7000 4.63 240 09:34 31.12.2021
4579 Clouds 33 1007 51 7000 4.12 270 08:52 31.12.2021
4580 Clouds 33 1009 53 6000 3.09 280 07:59 31.12.2021
4581 Haze 29 1012 83 4000 1.54 300 04:55 31.12.2021
4582 Mist 25 1010 97 4000 0 0 23:18 30.12.2021
4583 Rain 26 1010 95 10000 1.27 181 22:32 30.12.2021
4584 Clouds 26 1009 93 10000 1.47 185 21:39 30.12.2021
4585 Clouds 26 1009 92 10000 1.56 209 21:19 30.12.2021
4586 Clouds 26 1009 90 10000 1.56 209 20:40 30.12.2021
4587 Clouds 26 1009 88 10000 1.63 218 19:58 30.12.2021
4588 Clouds 26 1009 87 10000 1.63 218 19:34 30.12.2021
4589 Clouds 26 1010 84 10000 2.02 236 18:29 30.12.2021
4590 Clouds 27 1010 83 10000 2.02 236 17:34 30.12.2021
4591 Haze 26 1011 91 5000 0 0 15:54 30.12.2021
4592 Haze 26 1011 91 5000 1.54 190 15:22 30.12.2021
4593 Mist 26 1010 90 5000 0 0 14:36 30.12.2021
4594 Clouds 27 1010 83 1000 6.17 30 13:31 30.12.2021
4595 Clouds 29 1008 72 10000 3 288 11:58 30.12.2021
4596 Clouds 30 1007 71 6000 2.57 360 10:40 30.12.2021
4597 Clouds 31 1007 70 6000 1.54 360 09:50 30.12.2021
4598 Clouds 31 1007 70 6000 1.54 360 09:50 30.12.2021
4599 Haze 32 1010 62 4000 2.57 340 07:25 30.12.2021
4600 Haze 32 1010 63 4000 1.54 320 06:32 30.12.2021
4601 Haze 29 1012 79 4000 1.54 230 03:41 30.12.2021
4602 Haze 28 1012 84 4000 1.54 220 02:35 30.12.2021
4603 Rain 26 1010 91 5000 2.06 260 23:40 29.12.2021
4604 Haze 26 1009 89 5000 1.54 230 22:59 29.12.2021
4605 Clouds 26 1009 85 10000 2.52 293 22:18 29.12.2021
4606 Clouds 26 1009 84 10000 3.44 295 21:27 29.12.2021
4607 Clouds 26 1009 82 10000 3.44 295 20:31 29.12.2021
4608 Clouds 26 1009 83 10000 2.7 275 19:44 29.12.2021
4609 Haze 27 1012 86 5000 0 0 18:45 29.12.2021
4610 Haze 27 1012 85 5000 0 0 17:53 29.12.2021
4611 Haze 27 1012 84 5000 0 0 17:27 29.12.2021
4612 Clouds 27 1012 84 6000 0 0 16:23 29.12.2021
4613 Clouds 28 1012 83 6000 0 0 15:45 29.12.2021
4614 Clouds 28 1010 77 6000 0 0 13:55 29.12.2021
4615 Clouds 29 1009 71 6000 1.54 360 12:36 29.12.2021
4616 Clouds 30 1008 68 6000 1.54 290 11:35 29.12.2021
4617 Clouds 31 1008 65 6000 3.09 360 09:58 29.12.2021
4618 Clouds 31 1009 70 6000 1.54 320 07:51 29.12.2021
4619 Clouds 32 1010 63 6000 1.54 290 06:38 29.12.2021
4620 Clouds 30 1011 67 6000 1.54 360 05:59 29.12.2021
4621 Clouds 30 1011 69 6000 1.54 250 05:36 29.12.2021
4622 Clouds 27 1012 89 6000 2.57 210 02:40 29.12.2021
4623 Mist 24 1010 100 5000 0 0 00:23 29.12.2021
4624 Rain 24 1010 100 5000 0 0 23:34 28.12.2021
4625 Rain 24 1010 99 10000 1.17 344 22:42 28.12.2021
4626 Rain 24 1009 99 7784 2.47 312 22:24 28.12.2021
4627 Rain 24 1009 99 7642 2.44 312 21:37 28.12.2021
4628 Rain 23 1009 99 6740 3.4 306 20:39 28.12.2021
4629 Rain 25 1010 95 6054 3.24 300 19:24 28.12.2021
4630 Rain 25 1010 93 5859 3.24 295 18:37 28.12.2021
4631 Rain 26 1010 89 4705 3.26 307 17:59 28.12.2021
4632 Mist 25 1011 96 5000 0 0 16:34 28.12.2021
4633 Rain 26 1011 95 4000 1.54 90 15:50 28.12.2021
4634 Thunderstorm 26 1011 94 4000 2.06 10 15:21 28.12.2021
4635 Clouds 26 1011 95 3000 3.09 190 14:48 28.12.2021
4636 Rain 27 1011 89 5000 1.54 100 14:21 28.12.2021
4637 Clouds 28 1010 78 10000 2.41 340 13:42 28.12.2021
4638 Clouds 28 1010 78 10000 2.41 340 13:42 28.12.2021
4639 Haze 28 1010 83 5000 2.57 160 13:24 28.12.2021
4640 Haze 28 1010 83 5000 2.57 160 13:24 28.12.2021
4641 Haze 28 1010 83 5000 2.57 160 12:49 28.12.2021
4642 Haze 29 1009 75 5000 1.54 20 11:46 28.12.2021
4643 Haze 31 1009 68 5000 2.57 330 08:35 28.12.2021
4644 Haze 30 1010 74 5000 3.6 340 06:42 28.12.2021
4645 Haze 25 1010 93 5000 0 0 23:44 27.12.2021
4646 Haze 25 1010 93 5000 0 0 23:24 27.12.2021
4647 Clouds 26 1010 85 10000 1.63 283 21:42 27.12.2021
4648 Clouds 26 1010 85 10000 1.38 290 21:21 27.12.2021
4649 Clouds 26 1010 83 10000 1.38 289 20:24 27.12.2021
4650 Clouds 26 1010 82 10000 1.38 289 19:41 27.12.2021
4651 Clouds 26 1011 81 10000 1.49 303 18:52 27.12.2021
4652 Clouds 26 1011 81 10000 1.81 319 17:49 27.12.2021
4653 Clouds 26 1012 86 6000 2.06 220 16:55 27.12.2021
4654 Clouds 26 1012 85 6000 1.54 230 15:52 27.12.2021
4655 Rain 27 1012 81 6000 2.06 200 14:33 27.12.2021
4656 Rain 28 1012 78 6000 2.57 240 13:40 27.12.2021
4657 Clouds 29 1011 72 6000 1.54 10 12:47 27.12.2021
4658 Clouds 31 1009 60 10000 4.19 343 10:32 27.12.2021
4659 Clouds 32 1009 55 7000 6.69 350 09:57 27.12.2021
4660 Clouds 32 1009 62 6000 5.14 340 08:39 27.12.2021
4661 Clouds 32 1011 63 6000 4.63 340 07:32 27.12.2021
4662 Haze 29 1013 79 5000 1.54 240 02:24 27.12.2021
4663 Mist 26 1012 92 3000 0 0 23:58 26.12.2021
4664 Mist 26 1012 92 3000 0 0 23:58 26.12.2021
4665 Mist 26 1011 95 4000 0 0 23:40 26.12.2021
4666 Mist 25 1011 92 4000 0 0 22:36 26.12.2021
4667 Clouds 26 1011 87 10000 1.82 237 20:59 26.12.2021
4668 Clouds 26 1011 84 10000 1.62 250 19:49 26.12.2021
4669 Clouds 27 1012 82 6000 0 0 18:25 26.12.2021
4670 Clouds 27 1012 74 10000 1.49 260 17:30 26.12.2021
4671 Clouds 28 1011 74 6000 0 0 14:32 26.12.2021
4672 Clouds 29 1010 70 6000 1.54 270 13:43 26.12.2021
4673 Clouds 29 1010 69 6000 1.54 270 13:20 26.12.2021
4674 Clouds 30 1009 66 6000 1.54 220 12:33 26.12.2021
4675 Clouds 31 1008 60 7000 3.6 260 10:43 26.12.2021
4676 Clouds 32 1008 55 7000 4.12 280 09:28 26.12.2021
4677 Clouds 33 1009 51 7000 2.57 310 08:44 26.12.2021
4678 Clouds 33 1009 51 7000 3.09 350 07:59 26.12.2021
4679 Clouds 25 1013 96 6000 2.06 240 01:36 26.12.2021
4680 Clouds 23 1012 100 6000 0 0 23:58 25.12.2021
4681 Haze 23 1012 100 5000 0 0 23:28 25.12.2021
4682 Mist 23 1011 100 4000 0 0 22:28 25.12.2021
4683 Rain 23 1010 79 10000 3.26 270 21:18 25.12.2021
4684 Rain 23 1011 77 10000 3.38 277 19:28 25.12.2021
4685 Rain 24 1011 80 10000 3.22 280 18:57 25.12.2021
4686 Rain 23 1012 99 10000 3.78 291 18:25 25.12.2021
4687 Rain 26 1013 93 5000 0 0 16:46 25.12.2021
4688 Haze 27 1012 91 5000 0 0 15:26 25.12.2021
4689 Haze 27 1010 90 5000 0 0 13:43 25.12.2021
4690 Haze 27 1009 88 5000 1.54 210 12:18 25.12.2021
4691 Clouds 27 1008 65 10000 3.65 297 10:36 25.12.2021
4692 Rain 27 1008 89 5000 3.6 240 09:48 25.12.2021
4693 Haze 31 1009 66 5000 1.54 270 07:21 25.12.2021
4694 Haze 29 1010 81 5000 1.54 240 01:34 25.12.2021
4695 Mist 25 1010 100 4000 0 0 00:18 25.12.2021
4696 Clouds 25 1009 99 10000 2.87 253 21:51 24.12.2021
4697 Clouds 25 1009 95 10000 3.04 249 19:27 24.12.2021
4698 Haze 25 1011 97 5000 0 0 18:41 24.12.2021
4699 Haze 26 1011 93 5000 0 0 16:44 24.12.2021
4700 Mist 26 1011 95 5000 0 0 15:50 24.12.2021
4701 Mist 26 1011 95 5000 0 0 15:20 24.12.2021
4702 Haze 25 1010 94 5000 0 0 14:34 24.12.2021
4703 Haze 26 1010 94 5000 0 0 13:54 24.12.2021
4704 Haze 26 1009 94 5000 1.54 230 13:32 24.12.2021
4705 Clouds 27 1009 89 6000 2.06 240 12:40 24.12.2021
4706 Rain 27 1008 89 6000 1.54 280 11:43 24.12.2021
4707 Clouds 27 1008 89 6000 1.54 280 11:24 24.12.2021
4708 Rain 26 1008 94 5000 2.06 180 10:35 24.12.2021
4709 Thunderstorm 30 1007 70 1000 7.72 280 08:48 24.12.2021
4710 Clouds 32 1007 63 6000 3.6 350 07:58 24.12.2021
4711 Clouds 32 1008 58 7000 3.6 360 06:59 24.12.2021
4712 Haze 24 1010 96 5000 0 0 00:22 24.12.2021
4713 Haze 24 1009 100 5000 0 0 23:50 23.12.2021
4714 Haze 24 1008 100 5000 0 0 22:53 23.12.2021
4715 Haze 24 1008 100 5000 0 0 22:24 23.12.2021
4716 Clouds 25 1009 99 10000 1.58 224 21:41 23.12.2021
4717 Clouds 24 1009 99 10000 1.58 211 20:31 23.12.2021
4718 Rain 24 1010 99 10000 1.89 219 19:30 23.12.2021
4719 Rain 24 1010 99 10000 1.89 219 19:30 23.12.2021
4720 Rain 24 1011 99 10000 4.43 274 18:27 23.12.2021
4721 Clouds 25 1011 99 10000 4.43 274 17:46 23.12.2021
4722 Clouds 25 1011 96 5000 2.06 260 16:27 23.12.2021
4723 Clouds 25 1011 96 5000 2.57 220 15:48 23.12.2021
4724 Clouds 25 1011 96 5000 2.06 250 15:30 23.12.2021
4725 Rain 25 1011 99 10000 5.97 275 14:42 23.12.2021
4726 Rain 25 1010 96 5000 1.54 260 13:49 23.12.2021
4727 Clouds 28 1008 79 6000 1.54 280 11:59 23.12.2021
4728 Rain 28 1007 78 6000 2.06 290 09:55 23.12.2021
4729 Rain 28 1007 78 6000 2.06 290 09:34 23.12.2021
4730 Rain 28 1006 58 10000 5.78 336 08:41 23.12.2021
4731 Thunderstorm 31 1010 62 5000 6.17 330 06:20 23.12.2021
4732 Clouds 30 1011 66 6000 1.54 230 03:22 23.12.2021
4733 Mist 24 1009 93 3000 0 0 22:53 22.12.2021
4734 Mist 25 1009 93 3000 0 0 22:22 22.12.2021
4735 Mist 25 1009 93 3000 0 0 22:22 22.12.2021
4736 Clouds 25 1009 92 10000 1.45 202 21:48 22.12.2021
4737 Clouds 25 1009 91 10000 1.59 219 21:25 22.12.2021
4738 Clouds 26 1009 88 10000 1.59 219 20:41 22.12.2021
4739 Clouds 26 1009 88 10000 1.71 220 19:57 22.12.2021
4740 Haze 26 1011 90 4000 0 0 18:56 22.12.2021
4741 Haze 26 1011 89 4000 0 0 17:38 22.12.2021
4742 Clouds 26 1011 85 5000 1.54 200 16:32 22.12.2021
4743 Clouds 27 1011 85 5000 1.54 90 15:21 22.12.2021
4744 Haze 28 1009 74 5000 1.54 190 12:59 22.12.2021
4745 Clouds 29 1009 68 6000 1.54 350 11:58 22.12.2021
4746 Clouds 31 1008 60 6000 3.09 360 09:53 22.12.2021
4747 Haze 32 1008 63 5000 3.09 350 08:58 22.12.2021
4748 Haze 33 1009 58 5000 3.09 20 07:21 22.12.2021
4749 Haze 31 1011 66 5000 1.54 170 05:39 22.12.2021
4750 Haze 31 1011 66 5000 1.54 170 05:20 22.12.2021
4751 Haze 30 1012 70 5000 1.54 120 04:43 22.12.2021
4752 Haze 29 1012 74 5000 0 0 03:56 22.12.2021
4753 Haze 28 1012 78 4000 0 0 03:31 22.12.2021
4754 Mist 24 1011 100 3000 1.54 280 23:57 21.12.2021
4755 Mist 24 1010 100 2000 0 0 22:44 21.12.2021
4756 Mist 24 1010 100 2000 0 0 22:24 21.12.2021
4757 Clouds 25 1010 99 10000 1.84 129 21:42 21.12.2021
4758 Clouds 25 1011 99 10000 1.96 120 20:53 21.12.2021
4759 Clouds 25 1011 99 10000 1.76 111 20:20 21.12.2021
4760 Clouds 25 1011 99 10000 1.76 111 19:41 21.12.2021
4761 Clouds 25 1011 99 10000 1.71 92 18:36 21.12.2021
4762 Clouds 25 1012 99 10000 1.82 98 17:59 21.12.2021
4763 Clouds 25 1012 99 10000 1.82 98 17:40 21.12.2021
4764 Haze 25 1013 100 4000 1.54 180 15:46 21.12.2021
4765 Haze 26 1012 92 4000 1.54 360 14:29 21.12.2021
4766 Haze 25 1011 93 4000 0 0 13:42 21.12.2021
4767 Haze 26 1010 94 4000 0 0 12:58 21.12.2021
4768 Haze 26 1009 91 4000 0 0 10:53 21.12.2021
4769 Clouds 26 1009 93 4000 1.54 200 09:57 21.12.2021
4770 Rain 26 1009 93 4000 2.57 180 09:18 21.12.2021
4771 Thunderstorm 27 1011 86 4000 2.57 330 07:45 21.12.2021
4772 Haze 27 1011 86 4000 6.17 30 07:24 21.12.2021
4773 Haze 29 1012 79 4000 2.57 140 04:48 21.12.2021
4774 Rain 26 1012 89 3000 1.54 120 02:39 21.12.2021
4775 Clouds 25 1011 99 2000 1.54 120 23:57 20.12.2021
4776 Mist 25 1010 100 3000 0 0 22:48 20.12.2021
4777 Mist 24 1010 100 3000 0 0 22:27 20.12.2021
4778 Clouds 25 1010 97 10000 2.19 229 21:28 20.12.2021
4779 Rain 25 1010 97 10000 2.19 229 20:57 20.12.2021
4780 Clouds 26 1010 96 10000 2.19 229 20:32 20.12.2021
4781 Rain 26 1010 98 10000 2.72 232 19:39 20.12.2021
4782 Clouds 26 1011 99 10000 3.23 241 19:20 20.12.2021
4783 Mist 25 1012 96 4000 0 0 18:35 20.12.2021
4784 Mist 25 1012 96 4000 0 0 17:51 20.12.2021
4785 Mist 25 1012 96 4000 0 0 16:53 20.12.2021
4786 Mist 25 1012 96 4000 2.57 260 16:35 20.12.2021
4787 Rain 25 1012 100 4000 1.54 250 15:43 20.12.2021
4788 Rain 25 1012 94 4000 2.57 240 14:40 20.12.2021
4789 Thunderstorm 26 1010 89 2500 3.09 280 12:41 20.12.2021
4790 Thunderstorm 27 1009 86 3000 3.09 160 10:51 20.12.2021
4791 Haze 28 1008 82 5000 1.54 90 09:44 20.12.2021
4792 Haze 27 1009 83 5000 0 0 08:56 20.12.2021
4793 Clouds 27 1009 86 4000 2.06 90 08:38 20.12.2021
4794 Thunderstorm 25 1010 94 2500 5.14 170 07:44 20.12.2021
4795 Clouds 33 1010 58 6000 2.06 210 06:39 20.12.2021
4796 Rain 28 1012 67 10000 2.8 247 02:32 20.12.2021
4797 Haze 25 1009 100 5000 1.54 220 23:37 19.12.2021
4798 Haze 25 1009 100 5000 0 0 22:44 19.12.2021
4799 Rain 26 1009 78 10000 0.88 182 21:44 19.12.2021
4800 Clouds 26 1009 78 10000 1.17 188 21:25 19.12.2021
4801 Clouds 26 1010 76 10000 1.08 200 20:24 19.12.2021
4802 Clouds 26 1010 76 10000 1.08 200 19:43 19.12.2021
4803 Clouds 27 1010 83 10000 0.77 216 18:50 19.12.2021
4804 Clouds 27 1010 83 10000 0.53 204 18:20 19.12.2021
4805 Clouds 27 1010 83 10000 0.53 204 17:45 19.12.2021
4806 Clouds 28 1011 79 10000 0.7 227 16:46 19.12.2021
4807 Clouds 27 1011 87 5000 1.54 280 15:56 19.12.2021
4808 Clouds 28 1011 88 5000 3.6 190 15:25 19.12.2021
4809 Clouds 29 1010 78 6000 1.54 180 14:48 19.12.2021
4810 Clouds 29 1010 76 6000 0 0 13:41 19.12.2021
4811 Clouds 30 1009 70 6000 0 0 13:20 19.12.2021
4812 Clouds 30 1008 70 6000 1.54 360 12:33 19.12.2021
4813 Clouds 31 1007 72 6000 2.57 300 11:39 19.12.2021
4814 Clouds 31 1007 71 6000 3.6 20 10:51 19.12.2021
4815 Clouds 31 1007 72 6000 3.09 340 10:23 19.12.2021
4816 Haze 33 1007 62 5000 3.09 360 09:20 19.12.2021
4817 Clouds 34 1008 49 6000 2.06 110 07:35 19.12.2021
4818 Haze 29 1011 76 4000 0 0 02:30 19.12.2021
4819 Mist 26 1010 92 4000 0 0 00:55 19.12.2021
4820 Mist 25 1008 97 4000 0 0 23:21 18.12.2021
4821 Clouds 26 1008 93 10000 1.29 114 22:30 18.12.2021
4822 Clouds 26 1008 91 10000 1.57 126 21:51 18.12.2021
4823 Clouds 26 1008 91 10000 1.57 126 21:30 18.12.2021
4824 Clouds 26 1008 90 10000 1.81 136 20:43 18.12.2021
4825 Clouds 26 1008 84 10000 2 142 19:50 18.12.2021
4826 Haze 26 1010 85 4000 0 0 18:26 18.12.2021
4827 Haze 26 1010 88 4000 0 0 17:50 18.12.2021
4828 Rain 26 1010 88 5000 0 0 16:55 18.12.2021
4829 Haze 26 1010 91 5000 0 0 16:21 18.12.2021
4830 Clouds 27 1009 84 5000 0 0 15:25 18.12.2021
4831 Rain 26 1009 85 5000 0 0 14:19 18.12.2021
4832 Haze 27 1007 83 5000 2.57 70 12:21 18.12.2021
4833 Thunderstorm 24 1006 94 4000 2.57 290 10:43 18.12.2021
4834 Clouds 33 1005 62 6000 3.6 350 09:32 18.12.2021
4835 Clouds 34 1006 49 6000 2.06 160 08:37 18.12.2021
4836 Rain 34 1007 55 7000 2.57 220 07:42 18.12.2021
4837 Clouds 28 1009 78 6000 0 0 01:48 18.12.2021
4838 Clouds 29 1009 72 6000 2.06 240 01:48 18.12.2021
4839 Clouds 26 1008 83 6000 2.57 210 00:23 18.12.2021
4840 Haze 26 1007 87 5000 3.09 200 23:35 17.12.2021
4841 Clouds 26 1007 86 10000 1.44 225 21:54 17.12.2021
4842 Clouds 26 1007 85 10000 1.89 244 20:50 17.12.2021
4843 Clouds 26 1007 84 10000 2.09 238 20:21 17.12.2021
4844 Clouds 26 1008 83 10000 1.97 227 18:50 17.12.2021
4845 Clouds 26 1009 82 10000 2.85 206 18:19 17.12.2021
4846 Clouds 26 1010 86 6000 1.54 230 17:20 17.12.2021
4847 Clouds 26 1009 87 6000 1.54 180 16:29 17.12.2021
4848 Rain 26 1009 90 5000 1.54 240 15:51 17.12.2021
4849 Haze 26 1008 90 5000 1.54 240 15:18 17.12.2021
4850 Haze 26 1008 90 5000 1.54 140 14:34 17.12.2021
4851 Clouds 27 1007 89 6000 0 0 12:38 17.12.2021
4852 Haze 27 1006 92 5000 1.54 270 11:18 17.12.2021
4853 Clouds 25 1006 94 3000 2.57 250 09:52 17.12.2021
4854 Haze 31 1006 67 5000 7.72 180 08:58 17.12.2021
4855 Haze 34 1006 58 5000 2.57 330 08:19 17.12.2021
4856 Clouds 32 1009 58 6000 0 0 05:21 17.12.2021
4857 Clouds 30 1010 70 6000 0 0 02:51 17.12.2021
4858 Clouds 25 1008 94 10000 1.19 249 22:52 16.12.2021
4859 Clouds 25 1007 94 10000 1.16 240 22:22 16.12.2021
4860 Clouds 26 1007 92 10000 1.16 240 21:44 16.12.2021
4861 Clouds 26 1007 89 10000 0.96 216 20:48 16.12.2021
4862 Clouds 26 1007 89 10000 0.67 191 20:22 16.12.2021
4863 Clouds 26 1007 88 10000 0.67 191 19:31 16.12.2021
4864 Mist 25 1009 95 4000 0 0 18:36 16.12.2021
4865 Mist 25 1009 95 5000 0 0 17:48 16.12.2021
4866 Mist 25 1009 96 5000 0 0 16:37 16.12.2021
4867 Mist 25 1009 96 5000 0 0 16:18 16.12.2021
4868 Mist 25 1008 100 5000 1.54 110 14:23 16.12.2021
4869 Rain 25 1007 100 4000 3.09 170 12:30 16.12.2021
4870 Clouds 26 1007 94 2000 5.14 220 11:19 16.12.2021
4871 Thunderstorm 27 1006 89 4000 5.14 160 10:44 16.12.2021
4872 Haze 29 1006 78 4000 5.14 210 09:50 16.12.2021
4873 Clouds 32 1007 67 4000 6.69 30 07:19 16.12.2021
4874 Haze 34 1008 52 5000 2.06 40 06:18 16.12.2021
4875 Clouds 27 1009 91 10000 1.44 146 00:35 16.12.2021
4876 Haze 26 1008 93 5000 1.54 230 23:20 15.12.2021
4877 Clouds 26 1007 91 10000 1.8 134 22:21 15.12.2021
4878 Clouds 26 1007 91 10000 1.8 134 21:45 15.12.2021
4879 Rain 26 1007 91 10000 1.82 135 21:25 15.12.2021
4880 Clouds 26 1008 90 10000 1.74 134 19:54 15.12.2021
4881 Clouds 26 1008 89 10000 1.67 125 19:19 15.12.2021
4882 Clouds 26 1008 88 10000 1.56 113 18:26 15.12.2021
4883 Clouds 26 1008 88 10000 1.56 113 17:47 15.12.2021
4884 Clouds 26 1009 87 10000 1.34 93 17:21 15.12.2021
4885 Clouds 26 1009 85 10000 1.52 79 16:25 15.12.2021
4886 Clouds 27 1009 84 10000 1.52 79 15:42 15.12.2021
4887 Haze 26 1009 83 5000 1.54 200 15:24 15.12.2021
4888 Haze 26 1008 88 5000 1.54 150 13:58 15.12.2021
4889 Haze 27 1007 83 5000 1.54 250 11:57 15.12.2021
4890 Clouds 28 1006 79 5000 6.69 250 10:23 15.12.2021
4891 Clouds 33 1005 60 10000 3.9 2 08:34 15.12.2021
4892 Clouds 34 1007 53 10000 1.78 36 05:59 15.12.2021
4893 Haze 28 1008 86 4000 0 0 00:45 15.12.2021
4894 Haze 26 1007 93 5000 0 0 23:41 14.12.2021
4895 Haze 26 1007 92 5000 0 0 22:47 14.12.2021
4896 Clouds 26 1007 91 10000 2.15 163 21:48 14.12.2021
4897 Rain 27 1007 89 10000 2.09 163 20:26 14.12.2021
4898 Clouds 27 1007 88 10000 2.09 163 19:40 14.12.2021
4899 Clouds 27 1007 87 10000 1.36 166 18:42 14.12.2021
4900 Haze 27 1009 87 5000 0 0 17:58 14.12.2021
4901 Haze 27 1009 82 5000 1.54 150 16:58 14.12.2021
4902 Clouds 27 1008 79 10000 0.98 138 16:35 14.12.2021
4903 Haze 28 1008 85 5000 0 0 14:52 14.12.2021
4904 Haze 28 1007 85 5000 1.54 90 13:24 14.12.2021
4905 Clouds 28 1006 87 6000 0 0 11:57 14.12.2021
4906 Clouds 27 1005 90 6000 0 0 11:23 14.12.2021
4907 Clouds 28 1005 86 5000 2.57 330 09:56 14.12.2021
4908 Haze 31 1005 70 5000 2.06 300 09:34 14.12.2021
4909 Clouds 33 1006 61 6000 3.09 330 08:23 14.12.2021
4910 Clouds 32 1007 61 6000 3.6 330 07:43 14.12.2021
4911 Clouds 29 1009 75 6000 3.09 270 01:46 14.12.2021
4912 Rain 27 1007 84 6000 2.06 240 22:50 13.12.2021
4913 Clouds 26 1007 85 10000 2.48 259 21:52 13.12.2021
4914 Clouds 27 1007 84 10000 2.96 258 20:59 13.12.2021
4915 Clouds 27 1007 81 10000 2.96 258 20:34 13.12.2021
4916 Clouds 27 1007 76 10000 2.95 261 19:52 13.12.2021
4917 Clouds 27 1008 74 10000 2.52 220 17:56 13.12.2021
4918 Clouds 27 1009 78 6000 2.06 130 17:23 13.12.2021
4919 Rain 28 1009 75 6000 1.54 110 15:50 13.12.2021
4920 Rain 28 1009 75 6000 1.54 210 15:19 13.12.2021
4921 Clouds 29 1007 68 6000 4.12 250 13:38 13.12.2021
4922 Clouds 30 1005 66 6000 3.09 260 12:42 13.12.2021
4923 Clouds 31 1005 67 6000 2.57 290 11:54 13.12.2021
4924 Clouds 31 1005 68 6000 2.57 320 11:35 13.12.2021
4925 Clouds 32 1005 64 6000 2.06 350 10:43 13.12.2021
4926 Clouds 32 1005 62 6000 3.6 340 08:57 13.12.2021
4927 Clouds 34 1007 50 7000 2.06 300 07:38 13.12.2021
4928 Clouds 32 1008 50 10000 2.15 311 05:35 13.12.2021
4929 Clouds 28 1009 75 10000 2.14 260 00:43 13.12.2021
4930 Clouds 25 1008 84 10000 1.89 262 22:22 12.12.2021
4931 Clouds 26 1008 83 10000 1.89 262 21:35 12.12.2021
4932 Clouds 26 1008 81 10000 2.1 248 19:47 12.12.2021
4933 Clouds 27 1008 76 10000 2.33 237 18:35 12.12.2021
4934 Clouds 27 1010 75 10000 2.4 239 17:26 12.12.2021
4935 Clouds 27 1010 75 10000 2.87 236 16:27 12.12.2021
4936 Clouds 28 1010 72 10000 2.87 236 15:41 12.12.2021
4937 Clouds 28 1009 71 10000 3.55 239 15:22 12.12.2021
4938 Clouds 28 1009 70 10000 4.42 249 14:30 12.12.2021
4939 Clouds 28 1009 70 10000 3.55 239 14:30 12.12.2021
4940 Clouds 28 1008 67 10000 4.97 260 13:22 12.12.2021
4941 Clouds 29 1007 64 10000 5.15 271 12:27 12.12.2021
4942 Clouds 31 1007 61 10000 5.15 271 11:44 12.12.2021
4943 Clouds 31 1007 61 10000 5.15 271 11:44 12.12.2021
4944 Clouds 31 1006 62 10000 5.22 281 11:20 12.12.2021
4945 Rain 32 1007 62 10000 5.05 286 10:22 12.12.2021
4946 Haze 31 1007 66 5000 3.6 230 08:58 12.12.2021
4947 Haze 33 1007 57 5000 8.75 210 07:32 12.12.2021
4948 Clouds 35 1009 51 10000 3.3 285 05:57 12.12.2021
4949 Clouds 32 1011 62 7000 6.17 240 04:55 12.12.2021
4950 Clouds 30 1011 70 6000 6.17 250 03:26 12.12.2021
4951 Mist 25 1010 100 2000 1.54 250 23:39 11.12.2021
4952 Clouds 25 1009 99 10000 2.35 244 22:22 11.12.2021
4953 Clouds 25 1009 99 10000 2.35 244 21:51 11.12.2021
4954 Clouds 25 1010 99 10000 1.72 252 20:29 11.12.2021
4955 Mist 25 1011 96 2500 0 0 19:21 11.12.2021
4956 Mist 25 1011 96 2500 0 0 18:52 11.12.2021
4957 Mist 25 1011 96 2500 0 0 18:19 11.12.2021
4958 Mist 25 1011 100 2000 0 0 17:20 11.12.2021
4959 Rain 25 1012 100 3000 1.54 140 15:52 11.12.2021
4960 Rain 25 1012 100 3000 1.54 140 15:18 11.12.2021
4961 Rain 25 1010 100 5000 1.54 110 12:49 11.12.2021
4962 Clouds 25 1009 94 3000 1.54 100 11:25 11.12.2021
4963 Haze 31 1007 67 5000 2.57 330 09:45 11.12.2021
4964 Clouds 32 1008 62 6000 2.57 10 07:49 11.12.2021
4965 Haze 28 1012 81 5000 1.54 250 02:20 11.12.2021
4966 Rain 25 1011 93 10000 2.47 282 23:50 10.12.2021
4967 Rain 25 1010 92 10000 2.36 290 23:20 10.12.2021
4968 Rain 25 1010 93 10000 2.43 300 21:56 10.12.2021
4969 Rain 25 1010 93 10000 2.98 304 20:57 10.12.2021
4970 Rain 24 1010 74 7382 2.94 299 19:21 10.12.2021
4971 Haze 25 1012 94 5000 2.57 250 17:59 10.12.2021
4972 Haze 25 1012 93 5000 2.06 230 16:56 10.12.2021
4973 Haze 26 1012 90 5000 2.57 130 16:28 10.12.2021
4974 Haze 27 1012 82 5000 4.63 130 15:40 10.12.2021
4975 Clouds 28 1011 72 10000 1.99 339 15:21 10.12.2021
4976 Clouds 29 1010 76 10000 2.36 351 13:51 10.12.2021
4977 Clouds 29 1010 74 10000 2.71 355 13:26 10.12.2021
4978 Clouds 29 1010 71 10000 3.11 315 12:36 10.12.2021
4979 Clouds 30 1008 63 10000 3.62 320 11:28 10.12.2021
4980 Clouds 32 1008 50 10000 4 321 10:26 10.12.2021
4981 Clouds 31 1008 61 10000 4.6 324 08:57 10.12.2021
4982 Clouds 31 1010 66 6000 2.06 350 06:50 10.12.2021
4983 Haze 28 1012 83 5000 1.54 270 02:48 10.12.2021
4984 Haze 28 1012 83 5000 1.54 270 02:48 10.12.2021
4985 Mist 26 1010 94 4000 2.06 240 00:32 10.12.2021
4986 Haze 26 1010 94 5000 1.54 210 23:22 09.12.2021
4987 Mist 26 1010 94 5000 0 0 22:26 09.12.2021
4988 Clouds 26 1009 95 10000 3.06 266 21:59 09.12.2021
4989 Clouds 26 1009 93 10000 3.38 265 21:18 09.12.2021
4990 Clouds 26 1009 93 10000 3.2 259 20:22 09.12.2021
4991 Haze 26 1011 93 5000 1.54 270 19:21 09.12.2021
4992 Haze 26 1011 93 5000 1.54 270 18:48 09.12.2021
4993 Haze 26 1011 93 5000 1.54 270 17:56 09.12.2021
4994 Haze 26 1011 93 5000 2.06 240 17:26 09.12.2021
4995 Haze 26 1011 92 5000 2.06 240 16:55 09.12.2021
4996 Mist 26 1011 92 5000 2.06 270 15:46 09.12.2021
4997 Clouds 27 1011 93 4000 1.54 210 14:48 09.12.2021
4998 Haze 27 1010 88 5000 2.06 180 13:23 09.12.2021
4999 Haze 28 1009 79 5000 0 0 12:42 09.12.2021
5000 Clouds 29 1008 75 5000 1.54 340 11:24 09.12.2021
5001 Clouds 31 1008 70 6000 2.57 320 09:44 09.12.2021
5002 Clouds 29 1010 79 5000 2.57 330 06:50 09.12.2021
5003 Haze 30 1012 74 5000 0 0 03:43 09.12.2021
5004 Rain 25 1010 99 10000 2.02 257 23:45 08.12.2021
5005 Clouds 25 1010 100 3000 3.09 280 23:21 08.12.2021
5006 Clouds 25 1010 100 3000 3.09 280 22:49 08.12.2021
5007 Mist 25 1010 98 4000 1.54 110 21:46 08.12.2021
5008 Clouds 25 1009 91 10000 2.16 254 21:27 08.12.2021
5009 Clouds 26 1009 92 10000 2.23 267 19:59 08.12.2021
5010 Clouds 25 1009 91 10000 2.23 267 19:36 08.12.2021
5011 Rain 26 1010 90 10000 2.23 284 18:53 08.12.2021
5012 Rain 25 1012 93 5000 4.12 350 17:47 08.12.2021
5013 Haze 27 1011 93 5000 0 0 15:58 08.12.2021
5014 Haze 28 1011 89 5000 1.54 60 15:29 08.12.2021
5015 Clouds 29 1011 79 10000 2.73 291 14:50 08.12.2021
5016 Clouds 29 1009 73 10000 3.25 323 12:32 08.12.2021
5017 Clouds 32 1008 60 10000 3.79 327 10:32 08.12.2021
5018 Clouds 33 1008 54 10000 4.01 328 09:25 08.12.2021
5019 Clouds 32 1009 59 6000 4.12 340 07:29 08.12.2021
5020 Haze 30 1011 70 5000 2.57 310 04:57 08.12.2021
5021 Clouds 25 1010 94 6000 1.54 230 23:34 07.12.2021
5022 Clouds 25 1009 97 6000 1.54 220 21:55 07.12.2021
5023 Clouds 26 1009 94 10000 2.3 258 21:23 07.12.2021
5024 Clouds 26 1009 94 10000 2.3 258 21:23 07.12.2021
5025 Clouds 26 1009 92 10000 2.57 261 20:24 07.12.2021
5026 Haze 26 1011 97 5000 1.54 250 18:55 07.12.2021
5027 Haze 26 1011 96 5000 0 0 17:53 07.12.2021
5028 Clouds 26 1011 96 6000 0 0 17:20 07.12.2021
5029 Clouds 26 1011 95 6000 0 0 16:34 07.12.2021
5030 Clouds 26 1011 96 6000 1.54 160 15:34 07.12.2021
5031 Clouds 26 1011 92 6000 2.57 190 14:36 07.12.2021
5032 Clouds 27 1010 87 6000 2.06 320 13:18 07.12.2021
5033 Clouds 28 1009 78 6000 2.06 310 12:21 07.12.2021
5034 Clouds 29 1008 75 6000 2.06 350 10:43 07.12.2021
5035 Rain 29 1009 75 5000 1.54 270 08:42 07.12.2021
5036 Haze 29 1010 79 5000 1.54 290 06:22 07.12.2021
5037 Haze 28 1011 84 5000 1.54 260 05:42 07.12.2021
5038 Rain 24 1009 100 4000 2.57 270 23:58 06.12.2021
5039 Rain 24 1009 100 4000 0 0 22:58 06.12.2021
5040 Rain 24 1009 100 5000 0 0 22:38 06.12.2021
5041 Rain 24 1009 99 8368 4.38 293 21:54 06.12.2021
5042 Rain 24 1009 99 10000 4.74 290 20:44 06.12.2021
5043 Rain 24 1009 99 10000 4.46 284 20:26 06.12.2021
5044 Rain 24 1009 99 6750 4.71 278 19:23 06.12.2021
5045 Rain 24 1010 99 10000 4.29 263 18:29 06.12.2021
5046 Rain 24 1010 99 10000 4.26 263 17:51 06.12.2021
5047 Rain 24 1010 99 10000 3.67 262 16:56 06.12.2021
5048 Rain 24 1011 100 5000 0 0 15:45 06.12.2021
5049 Rain 23 1010 100 4000 0 0 13:47 06.12.2021
5050 Rain 24 1009 72 10000 3.71 262 12:40 06.12.2021
5051 Clouds 29 1008 70 4000 3.09 320 11:54 06.12.2021
5052 Clouds 31 1007 61 10000 3.26 292 09:35 06.12.2021
5053 Rain 30 1009 70 6000 1.54 360 06:43 06.12.2021
5054 Haze 25 1009 92 3000 1.54 220 23:52 05.12.2021
5055 Haze 26 1009 85 4000 0 0 21:53 05.12.2021
5056 Clouds 26 1009 87 10000 2.86 284 21:25 05.12.2021
5057 Clouds 26 1009 87 10000 2.47 281 20:20 05.12.2021
5058 Clouds 26 1009 86 10000 2.47 281 19:49 05.12.2021
5059 Clouds 26 1009 85 10000 2.31 261 19:21 05.12.2021
5060 Haze 25 1010 90 4000 0 0 18:20 05.12.2021
5061 Haze 25 1010 90 4000 0 0 17:49 05.12.2021
5062 Clouds 26 1011 86 6000 0 0 16:52 05.12.2021
5063 Rain 26 1011 86 6000 0 0 16:27 05.12.2021
5064 Rain 26 1011 83 10000 2.83 287 15:58 05.12.2021
5065 Clouds 26 1010 86 6000 1.54 210 14:45 05.12.2021
5066 Rain 26 1010 82 5000 1.54 260 14:27 05.12.2021
5067 Haze 26 1009 79 5000 1.54 290 13:28 05.12.2021
5068 Clouds 27 1009 78 5000 1.54 270 12:40 05.12.2021
5069 Clouds 27 1009 78 5000 1.54 270 12:21 05.12.2021
5070 Rain 27 1008 69 6000 3.6 300 11:35 05.12.2021
5071 Clouds 28 1008 66 6000 3.09 310 10:19 05.12.2021
5072 Clouds 28 1009 65 6000 2.57 330 08:50 05.12.2021
5073 Clouds 25 1013 94 3000 5.14 270 04:56 05.12.2021
5074 Clouds 26 1012 92 10000 4.18 288 01:23 05.12.2021
5075 Clouds 25 1009 79 10000 3.59 294 22:24 04.12.2021
5076 Clouds 24 1009 79 10000 3.59 294 21:36 04.12.2021
5077 Clouds 24 1009 78 10000 2.99 285 20:32 04.12.2021
5078 Clouds 24 1010 77 10000 2.43 270 19:33 04.12.2021
5079 Clouds 24 1010 77 10000 1.81 284 18:23 04.12.2021
5080 Clouds 25 1010 77 10000 1.81 284 17:45 04.12.2021
5081 Clouds 25 1012 78 10000 1.8 282 17:20 04.12.2021
5082 Clouds 25 1012 78 10000 1.8 282 16:46 04.12.2021
5083 Clouds 26 1012 80 10000 1.24 256 16:27 04.12.2021
5084 Clouds 26 1010 82 10000 4.3 291 12:44 04.12.2021
5085 Clouds 27 1009 82 10000 4.69 290 11:34 04.12.2021
5086 Clouds 27 1009 80 10000 4.82 289 10:57 04.12.2021
5087 Clouds 27 1010 79 5000 3.6 260 09:40 04.12.2021
5088 Clouds 28 1008 74 10000 5.57 307 08:28 04.12.2021
5089 Rain 25 1010 50 10000 5.03 285 04:43 04.12.2021
5090 Rain 27 1009 76 6000 0 0 00:56 04.12.2021
5091 Clouds 26 1009 77 6000 0 0 23:43 03.12.2021
5092 Clouds 26 1009 77 6000 1.54 240 22:53 03.12.2021
5093 Clouds 27 1009 65 10000 3.67 251 21:54 03.12.2021
5094 Clouds 27 1009 70 10000 4.02 252 21:22 03.12.2021
5095 Clouds 27 1009 72 10000 4.02 252 20:42 03.12.2021
5096 Clouds 27 1009 70 10000 4.82 267 19:28 03.12.2021
5097 Clouds 28 1011 74 6000 2.57 270 18:23 03.12.2021
5098 Clouds 28 1011 73 6000 3.09 250 17:31 03.12.2021
5099 Clouds 29 1009 70 6000 2.06 270 13:38 03.12.2021
5100 Clouds 30 1008 69 6000 2.57 260 12:44 03.12.2021
5101 Clouds 31 1007 62 6000 2.57 300 11:23 03.12.2021
5102 Clouds 33 1007 55 7000 2.57 240 09:22 03.12.2021
5103 Clouds 33 1008 54 6000 1.54 310 08:18 03.12.2021
5104 Rain 33 1010 57 6000 4.12 260 06:44 03.12.2021
5105 Clouds 28 1011 72 10000 2.11 212 00:50 03.12.2021
5106 Clouds 27 1010 80 10000 2.47 221 00:21 03.12.2021
5107 Clouds 26 1010 83 10000 2.47 221 23:38 02.12.2021
5108 Clouds 27 1009 80 10000 3.43 234 21:41 02.12.2021
5109 Clouds 27 1009 79 10000 3.87 238 20:46 02.12.2021
5110 Clouds 27 1009 79 10000 4.33 240 20:26 02.12.2021
5111 Clouds 27 1009 78 10000 4.82 241 19:23 02.12.2021
5112 Clouds 27 1010 80 6000 2.06 240 17:30 02.12.2021
5113 Clouds 28 1010 75 6000 5.14 240 15:41 02.12.2021
5114 Clouds 28 1010 75 6000 6.17 240 14:57 02.12.2021
5115 Clouds 30 1010 70 10000 6.46 255 13:45 02.12.2021
5116 Clouds 30 1008 68 7000 6.69 240 12:52 02.12.2021
5117 Clouds 32 1007 57 7000 7.72 240 11:53 02.12.2021
5118 Clouds 35 1006 52 7000 6.69 240 09:28 02.12.2021
5119 Clouds 35 1007 47 10000 6.27 266 08:20 02.12.2021
5120 Clouds 28 1009 69 8000 3.6 220 01:59 02.12.2021
5121 Clouds 26 1009 78 7000 2.06 250 00:51 02.12.2021
5122 Clouds 26 1008 77 6000 1.54 250 22:41 01.12.2021
5123 Clouds 26 1008 77 6000 1.54 250 22:23 01.12.2021
5124 Clouds 27 1008 70 10000 2.46 219 20:35 01.12.2021
5125 Clouds 27 1008 70 10000 2.55 216 19:51 01.12.2021
5126 Clouds 27 1009 65 10000 3.11 219 19:21 01.12.2021
5127 Clouds 28 1009 65 10000 3.53 238 17:42 01.12.2021
5128 Clouds 28 1010 63 10000 3.69 234 16:38 01.12.2021
5129 Clouds 28 1010 62 10000 3.85 234 14:49 01.12.2021
5130 Clouds 29 1010 61 10000 4.64 235 13:44 01.12.2021
5131 Clouds 31 1008 58 10000 6.51 247 11:42 01.12.2021
5132 Clouds 32 1007 56 10000 6.9 246 10:42 01.12.2021
5133 Clouds 34 1007 50 10000 6.8 254 08:55 01.12.2021
5134 Clouds 35 1007 48 10000 6.45 251 08:26 01.12.2021
5135 Clouds 34 1007 48 10000 6.45 251 07:33 01.12.2021
5136 Clouds 30 1010 58 6000 2.57 250 04:22 01.12.2021
5137 Clouds 31 1011 71 10000 3.75 228 03:39 01.12.2021
5138 Haze 26 1009 83 5000 1.54 210 00:52 01.12.2021
5139 Haze 27 1009 78 5000 2.06 250 23:45 30.11.2021
5140 Haze 26 1008 89 5000 0 0 22:49 30.11.2021
5141 Clouds 27 1009 78 10000 4.64 266 21:28 30.11.2021
5142 Clouds 27 1009 80 10000 4.64 266 20:37 30.11.2021
5143 Clouds 27 1008 79 10000 4.55 256 19:53 30.11.2021
5144 Clouds 28 1008 80 10000 4.55 256 19:30 30.11.2021
5145 Clouds 28 1009 74 10000 5.9 261 18:35 30.11.2021
5146 Haze 27 1010 78 5000 2.06 250 16:35 30.11.2021
5147 Haze 28 1009 75 5000 0 0 14:58 30.11.2021
5148 Haze 28 1009 76 5000 0 0 14:20 30.11.2021
5149 Haze 28 1009 76 5000 0 0 14:19 30.11.2021
5150 Haze 28 1008 78 5000 2.57 150 13:25 30.11.2021
5151 Haze 29 1008 75 5000 2.57 150 12:45 30.11.2021
5152 Haze 29 1006 70 5000 1.54 160 11:27 30.11.2021
5153 Haze 30 1006 69 5000 1.54 160 10:56 30.11.2021
5154 Haze 29 1006 78 5000 3.09 200 10:31 30.11.2021
5155 Thunderstorm 29 1006 74 5000 4.12 90 08:52 30.11.2021
5156 Haze 31 1006 66 5000 1.54 270 08:20 30.11.2021
5157 Haze 32 1006 58 5000 2.06 240 07:47 30.11.2021
5158 Clouds 28 1010 78 7000 0 0 02:29 30.11.2021
5159 Rain 28 1009 77 7000 0 0 01:40 30.11.2021
5160 Rain 27 1008 82 6000 0 0 00:19 30.11.2021
5161 Clouds 26 1007 86 6000 0 0 23:23 29.11.2021
5162 Clouds 26 1007 86 6000 1.54 180 22:52 29.11.2021
5163 Clouds 26 1007 85 6000 1.54 180 22:32 29.11.2021
5164 Clouds 27 1007 79 10000 1.94 216 21:23 29.11.2021
5165 Clouds 27 1007 79 10000 1.94 216 20:59 29.11.2021
5166 Clouds 27 1007 78 10000 2.28 226 20:29 29.11.2021
5167 Clouds 27 1007 77 10000 2.28 226 19:55 29.11.2021
5168 Clouds 26 1007 77 10000 2.28 226 19:35 29.11.2021
5169 Haze 27 1009 79 5000 1.54 180 18:51 29.11.2021
5170 Clouds 27 1008 77 10000 1.61 165 17:49 29.11.2021
5171 Clouds 27 1009 76 10000 1.8 194 17:18 29.11.2021
5172 Clouds 28 1009 74 10000 2.36 216 16:29 29.11.2021
5173 Clouds 28 1009 74 10000 2.29 215 15:45 29.11.2021
5174 Clouds 28 1009 72 10000 3.33 228 14:42 29.11.2021
5175 Clouds 28 1009 72 10000 3.78 248 13:32 29.11.2021
5176 Clouds 29 1007 65 10000 4.92 244 12:28 29.11.2021
5177 Clouds 30 1006 62 10000 5.43 246 11:36 29.11.2021
5178 Clouds 30 1006 62 10000 5.47 246 10:41 29.11.2021
5179 Rain 30 1005 66 6000 7.72 250 09:25 29.11.2021
5180 Clouds 31 1007 62 7000 3.6 250 06:20 29.11.2021
5181 Clouds 26 1009 89 7000 1.54 260 01:40 29.11.2021
5182 Clouds 25 1008 88 6000 1.54 220 00:39 29.11.2021
5183 Clouds 24 1008 23 6000 1.54 270 23:43 28.11.2021
5184 Clouds 25 1008 76 10000 2.22 219 22:47 28.11.2021
5185 Clouds 25 1007 75 10000 2.22 227 21:47 28.11.2021
5186 Clouds 24 1007 75 10000 2.39 231 21:20 28.11.2021
5187 Clouds 24 1008 75 10000 2.18 224 20:23 28.11.2021
5188 Clouds 24 1008 75 10000 2.56 233 18:46 28.11.2021
5189 Clouds 24 1009 75 10000 2.68 234 18:27 28.11.2021
5190 Clouds 24 1009 75 10000 2.68 234 17:54 28.11.2021
5191 Clouds 25 1009 75 10000 2.68 234 17:31 28.11.2021
5192 Clouds 25 1010 74 10000 3.14 239 16:29 28.11.2021
5193 Clouds 25 1010 94 6000 2.57 240 15:58 28.11.2021
5194 Clouds 25 1010 94 6000 2.57 240 15:24 28.11.2021
5195 Rain 25 1010 94 5000 1.54 270 14:44 28.11.2021
5196 Rain 26 1009 89 6000 2.57 220 12:58 28.11.2021
5197 Rain 26 1008 89 6000 3.09 250 12:37 28.11.2021
5198 Rain 29 1006 74 6000 8.23 220 10:54 28.11.2021
5199 Clouds 29 1006 74 6000 8.23 220 10:20 28.11.2021
5200 Clouds 30 1006 74 10000 5.14 247 09:37 28.11.2021
5201 Clouds 32 1008 62 7000 7.2 250 06:30 28.11.2021
5202 Haze 23 1008 94 5000 3.09 240 23:37 27.11.2021
5203 Rain 23 1009 82 10000 5.59 224 20:44 27.11.2021
5204 Rain 24 1010 77 10000 6.81 230 18:57 27.11.2021
5205 Rain 24 1012 88 5000 6.17 270 16:56 27.11.2021
5206 Haze 24 1012 94 5000 4.63 230 15:56 27.11.2021
5207 Rain 25 1011 100 3000 3.6 240 13:47 27.11.2021
5208 Rain 25 1009 94 4000 3.6 230 12:31 27.11.2021
5209 Clouds 27 1008 78 6000 7.72 270 10:48 27.11.2021
5210 Clouds 29 1007 74 7000 8.75 250 09:53 27.11.2021
5211 Clouds 30 1006 66 7000 8.75 250 08:43 27.11.2021
5212 Clouds 31 1009 62 7000 7.72 240 05:18 27.11.2021
5213 Clouds 26 1010 83 7000 6.17 270 01:55 27.11.2021
5214 Clouds 25 1009 88 6000 6.17 260 23:36 26.11.2021
5215 Clouds 25 1008 75 10000 1.24 273 22:25 26.11.2021
5216 Clouds 25 1008 75 10000 1.24 273 21:37 26.11.2021
5217 Clouds 25 1008 77 10000 0.31 256 20:59 26.11.2021
5218 Clouds 25 1008 78 10000 0.84 93 20:19 26.11.2021
5219 Clouds 25 1008 78 10000 0.84 93 19:47 26.11.2021
5220 Clouds 25 1009 77 10000 1.18 101 18:39 26.11.2021
5221 Clouds 25 1011 100 5000 1.54 290 17:23 26.11.2021
5222 Rain 26 1011 76 10000 4.6 80 15:57 26.11.2021
5223 Rain 27 1009 94 5000 3.09 70 13:36 26.11.2021
5224 Rain 27 1008 94 5000 2.06 90 12:51 26.11.2021
5225 Thunderstorm 26 1006 88 5000 1.54 310 10:39 26.11.2021
5226 Clouds 30 1005 67 5000 5.14 360 08:59 26.11.2021
5227 Clouds 32 1005 61 6000 5.14 360 08:39 26.11.2021
5228 Clouds 32 1005 61 6000 5.14 360 08:19 26.11.2021
5229 Clouds 35 1007 47 7000 5.14 240 06:28 26.11.2021
5230 Clouds 32 1009 55 7000 2.57 270 04:52 26.11.2021
5231 Haze 31 1009 67 5000 0 0 03:26 26.11.2021
5232 Mist 26 1008 91 5000 1.54 240 23:28 25.11.2021
5233 Clouds 26 1008 87 6000 0 0 21:51 25.11.2021
5234 Rain 27 1007 77 10000 1.48 230 20:40 25.11.2021
5235 Clouds 27 1008 79 10000 2.15 200 18:49 25.11.2021
5236 Clouds 26 1009 88 6000 0 0 17:59 25.11.2021
5237 Clouds 26 1009 88 6000 0 0 17:26 25.11.2021
5238 Haze 26 1010 88 5000 1.54 100 16:38 25.11.2021
5239 Clouds 26 1010 88 5000 3.09 70 15:58 25.11.2021
5240 Clouds 27 1009 89 7000 3.09 250 14:21 25.11.2021
5241 Clouds 26 1007 89 7000 2.57 240 12:48 25.11.2021
5242 Clouds 26 1006 94 5000 3.09 240 11:55 25.11.2021
5243 Thunderstorm 25 1007 94 3000 2.57 200 10:31 25.11.2021
5244 Clouds 33 1007 52 7000 4.12 240 06:36 25.11.2021
5245 Clouds 31 1009 58 7000 5.14 260 02:54 25.11.2021
5246 Clouds 25 1008 80 6000 1.54 250 23:39 24.11.2021
5247 Clouds 26 1008 79 6000 1.54 240 22:28 24.11.2021
5248 Clouds 26 1007 73 10000 1.94 252 21:45 24.11.2021
5249 Clouds 26 1007 73 10000 1.49 253 21:19 24.11.2021
5250 Clouds 26 1007 72 10000 1.04 242 20:26 24.11.2021
5251 Clouds 27 1008 72 10000 2.47 251 18:58 24.11.2021
5252 Clouds 27 1008 71 10000 2.75 242 18:18 24.11.2021
5253 Clouds 28 1009 68 6000 1.54 270 16:20 24.11.2021
5254 Clouds 29 1008 66 6000 3.6 260 14:57 24.11.2021
5255 Clouds 29 1008 65 6000 2.57 260 14:21 24.11.2021
5256 Clouds 30 1007 59 6000 4.12 240 12:51 24.11.2021
5257 Clouds 31 1006 59 6000 4.12 60 11:24 24.11.2021
5258 Clouds 31 1006 62 6000 4.12 50 10:52 24.11.2021
5259 Clouds 31 1006 62 6000 4.12 50 10:52 24.11.2021
5260 Clouds 32 1006 55 6000 5.66 70 10:34 24.11.2021
5261 Clouds 32 1007 51 6000 1.54 40 08:35 24.11.2021
5262 Clouds 32 1008 51 6000 1.54 270 07:39 24.11.2021
5263 Clouds 32 1010 50 6000 3.6 240 05:23 24.11.2021
5264 Clouds 29 1009 63 7000 2.57 270 02:44 24.11.2021
5265 Clouds 26 1008 73 6000 1.54 320 23:33 23.11.2021
5266 Clouds 26 1007 73 6000 2.57 240 22:38 23.11.2021
5267 Clouds 26 1007 76 10000 5.23 249 21:45 23.11.2021
5268 Clouds 25 1008 80 10000 7.09 255 20:22 23.11.2021
5269 Clouds 26 1008 80 10000 7.37 254 19:29 23.11.2021
5270 Clouds 26 1008 76 10000 7.37 254 18:33 23.11.2021
5271 Clouds 26 1009 77 6000 3.09 230 17:30 23.11.2021
5272 Clouds 26 1009 73 6000 5.66 230 16:35 23.11.2021
5273 Clouds 26 1009 67 7000 8.23 260 15:27 23.11.2021
5274 Rain 26 1010 67 7000 8.75 240 14:45 23.11.2021
5275 Rain 26 1008 72 6000 7.72 250 13:20 23.11.2021
5276 Rain 29 1007 70 7000 7.72 250 10:28 23.11.2021
5277 Clouds 30 1007 65 7000 9.26 260 09:46 23.11.2021
5278 Clouds 30 1007 58 7000 7.72 230 07:56 23.11.2021
5279 Clouds 29 1008 70 7000 7.72 230 04:53 23.11.2021
5280 Clouds 27 1010 78 6000 6.17 240 03:32 23.11.2021
5281 Clouds 26 1008 90 10000 3.75 243 23:38 22.11.2021
5282 Clouds 26 1007 90 10000 3.89 244 22:58 22.11.2021
5283 Clouds 26 1007 90 10000 3.89 244 22:30 22.11.2021
5284 Clouds 25 1006 89 10000 4.26 248 21:44 22.11.2021
5285 Clouds 26 1006 88 10000 4.46 255 21:19 22.11.2021
5286 Clouds 26 1006 88 10000 4.78 259 20:26 22.11.2021
5287 Clouds 26 1007 89 10000 4.82 262 19:20 22.11.2021
5288 Clouds 27 1007 82 10000 4.82 262 18:40 22.11.2021
5289 Clouds 27 1008 80 10000 4.53 261 17:48 22.11.2021
5290 Clouds 27 1009 79 6000 2.57 270 16:31 22.11.2021
5291 Clouds 27 1008 78 7000 6.17 270 15:29 22.11.2021
5292 Rain 28 1007 73 7000 6.17 250 12:48 22.11.2021
5293 Clouds 29 1006 70 10000 6.26 264 11:34 22.11.2021
5294 Clouds 31 1005 61 10000 6.43 275 10:22 22.11.2021
5295 Clouds 33 1006 57 7000 6.17 270 08:43 22.11.2021
5296 Rain 33 1006 59 7000 6.17 270 08:23 22.11.2021
5297 Clouds 27 1009 79 7000 3.09 270 01:36 22.11.2021
5298 Clouds 26 1007 87 6000 2.57 270 23:20 21.11.2021
5299 Clouds 27 1007 83 6000 2.57 270 22:42 21.11.2021
5300 Clouds 27 1007 80 10000 3.97 255 20:45 21.11.2021
5301 Rain 26 1007 80 10000 4.49 259 20:26 21.11.2021
5302 Haze 27 1009 81 5000 0 0 18:55 21.11.2021
5303 Rain 27 1008 72 10000 4.43 260 17:56 21.11.2021
5304 Clouds 27 1008 72 10000 4.43 260 17:35 21.11.2021
5305 Clouds 28 1009 74 6000 5.14 240 14:50 21.11.2021
5306 Clouds 28 1008 74 6000 5.14 240 14:31 21.11.2021
5307 Clouds 29 1007 73 6000 3.09 270 12:58 21.11.2021
5308 Clouds 29 1007 72 6000 3.6 260 12:25 21.11.2021
5309 Clouds 30 1006 69 6000 6.17 250 11:37 21.11.2021
5310 Clouds 32 1005 63 6000 4.12 250 10:19 21.11.2021
5311 Clouds 33 1005 58 6000 5.14 270 09:45 21.11.2021
5312 Clouds 32 1006 64 6000 5.14 240 08:32 21.11.2021
5313 Clouds 33 1006 60 6000 5.14 250 07:52 21.11.2021
5314 Clouds 32 1008 61 5000 5.14 250 06:28 21.11.2021
5315 Clouds 32 1008 66 7000 5.14 240 05:42 21.11.2021
5316 Rain 31 1009 55 10000 5.09 242 03:26 21.11.2021
5317 Clouds 31 1009 70 7000 3.6 250 02:56 21.11.2021
5318 Clouds 29 1009 79 7000 3.6 250 02:18 21.11.2021
5319 Rain 27 1008 84 7000 2.06 260 00:50 21.11.2021
5320 Clouds 25 1007 90 10000 3.97 240 22:35 20.11.2021
5321 Clouds 26 1007 93 10000 2.55 240 21:33 20.11.2021
5322 Clouds 26 1007 95 10000 2.11 238 20:32 20.11.2021
5323 Clouds 25 1007 99 10000 2.7 228 18:45 20.11.2021
5324 Clouds 25 1008 63 10000 2.83 238 18:24 20.11.2021
5325 Clouds 26 1009 63 10000 3.03 239 17:22 20.11.2021
5326 Haze 26 1009 99 5000 0 0 15:40 20.11.2021
5327 Haze 26 1008 100 5000 0 0 14:39 20.11.2021
5328 Haze 25 1008 100 5000 0 0 14:20 20.11.2021
5329 Rain 25 1006 94 5000 0 0 11:56 20.11.2021
5330 Thunderstorm 27 1006 88 1000 5.14 230 09:59 20.11.2021
5331 Thunderstorm 29 1006 78 5000 1.54 160 08:48 20.11.2021
5332 Clouds 32 1007 62 6000 2.57 350 07:19 20.11.2021
5333 Clouds 33 1008 55 7000 2.06 310 05:24 20.11.2021
5334 Clouds 31 1008 58 7000 2.06 310 04:50 20.11.2021
5335 Clouds 26 1007 83 6000 0 0 01:34 20.11.2021
5336 Clouds 26 1006 80 6000 0 0 00:37 20.11.2021
5337 Rain 26 1005 77 6000 1.54 350 22:55 19.11.2021
5338 Clouds 26 1005 77 6000 1.54 290 21:44 19.11.2021
5339 Clouds 26 1005 76 10000 1.41 236 20:54 19.11.2021
5340 Clouds 26 1005 77 10000 1.41 236 20:36 19.11.2021
5341 Rain 26 1005 77 10000 1.57 222 19:49 19.11.2021
5342 Clouds 26 1006 78 10000 1.72 273 18:50 19.11.2021
5343 Haze 27 1008 81 5000 2.57 240 18:18 19.11.2021
5344 Clouds 27 1008 75 6000 4.12 240 16:47 19.11.2021
5345 Clouds 27 1008 74 10000 2.61 255 15:31 19.11.2021
5346 Clouds 27 1007 72 6000 4.12 240 12:53 19.11.2021
5347 Rain 28 1005 71 7000 5.66 260 10:27 19.11.2021
5348 Rain 29 1005 70 7000 7.72 260 08:47 19.11.2021
5349 Clouds 29 1007 70 6000 7.72 260 07:34 19.11.2021
5350 Clouds 29 1009 74 6000 6.17 270 04:24 19.11.2021
5351 Clouds 27 1007 77 6000 6.17 240 01:24 19.11.2021
5352 Rain 26 1006 83 6000 5.14 230 23:44 18.11.2021
5353 Clouds 26 1006 84 10000 3.89 233 21:48 18.11.2021
5354 Clouds 26 1006 82 10000 4.04 236 20:48 18.11.2021
5355 Rain 26 1006 82 10000 3.95 246 20:29 18.11.2021
5356 Clouds 26 1006 80 10000 3.95 246 19:43 18.11.2021
5357 Clouds 26 1006 80 10000 4.07 244 18:41 18.11.2021
5358 Clouds 27 1007 80 10000 4.42 243 18:20 18.11.2021
5359 Clouds 27 1007 80 10000 4.42 243 17:44 18.11.2021
5360 Clouds 27 1008 78 6000 6.17 270 16:44 18.11.2021
5361 Clouds 28 1007 73 6000 5.14 260 15:25 18.11.2021
5362 Clouds 28 1006 69 10000 5.04 253 13:29 18.11.2021
5363 Clouds 29 1006 65 10000 5.27 255 12:33 18.11.2021
5364 Clouds 31 1005 64 10000 5.27 254 11:41 18.11.2021
5365 Clouds 31 1004 62 6000 3.6 250 11:23 18.11.2021
5366 Clouds 34 1004 53 6000 6.17 270 09:34 18.11.2021
5367 Clouds 33 1006 55 6000 3.09 270 07:34 18.11.2021
5368 Rain 32 1009 58 6000 2.57 250 05:48 18.11.2021
5369 Clouds 30 1009 59 10000 2.8 277 04:54 18.11.2021
5370 Haze 28 1009 81 4000 0 0 01:22 18.11.2021
5371 Haze 26 1008 88 5000 0 0 22:49 17.11.2021
5372 Clouds 26 1007 86 10000 1.1 79 22:20 17.11.2021
5373 Clouds 26 1007 85 10000 1.1 79 21:38 17.11.2021
5374 Clouds 26 1007 84 10000 1.43 87 20:56 17.11.2021
5375 Clouds 27 1009 70 10000 4.1 86 18:27 17.11.2021
5376 Clouds 28 1010 74 6000 2.06 30 17:27 17.11.2021
5377 Clouds 28 1010 74 7000 0 0 14:51 17.11.2021
5378 Haze 30 1007 68 5000 2.06 30 12:41 17.11.2021
5379 Haze 31 1007 64 5000 2.57 60 11:49 17.11.2021
5380 Clouds 33 1005 52 6000 2.57 310 10:31 17.11.2021
5381 Rain 33 1006 52 6000 6.17 240 09:25 17.11.2021
5382 Clouds 33 1007 55 7000 6.69 250 07:44 17.11.2021
5383 Clouds 32 1010 58 6000 2.57 230 04:47 17.11.2021
5384 Rain 31 1011 63 10000 1.05 111 02:37 17.11.2021
5385 Haze 25 1008 89 5000 0 0 23:26 16.11.2021
5386 Clouds 26 1008 80 10000 2.32 146 21:27 16.11.2021
5387 Clouds 26 1008 77 10000 1.94 155 20:18 16.11.2021
5388 Clouds 27 1008 75 10000 1.42 164 18:54 16.11.2021
5389 Clouds 27 1008 75 10000 1.42 164 18:35 16.11.2021
5390 Clouds 27 1009 71 10000 1.24 189 17:43 16.11.2021
5391 Haze 28 1009 77 5000 1.54 240 16:52 16.11.2021
5392 Clouds 28 1010 71 10000 1.36 202 16:18 16.11.2021
5393 Clouds 28 1009 75 6000 2.06 280 15:40 16.11.2021
5394 Clouds 30 1007 62 6000 4.12 240 12:40 16.11.2021
5395 Clouds 32 1006 57 10000 4.47 260 09:49 16.11.2021
5396 Clouds 33 1006 52 6000 6.17 240 08:50 16.11.2021
5397 Clouds 33 1007 52 7000 6.69 240 07:34 16.11.2021
5398 Clouds 32 1008 57 10000 2.97 251 04:45 16.11.2021
5399 Clouds 26 1008 76 10000 2.09 247 23:24 15.11.2021
5400 Clouds 26 1008 74 10000 2.09 247 22:40 15.11.2021
5401 Clouds 26 1007 72 10000 1.99 261 21:55 15.11.2021
5402 Clouds 27 1007 72 10000 2.01 261 21:30 15.11.2021
5403 Clouds 26 1007 71 10000 1.63 265 20:29 15.11.2021
5404 Rain 26 1007 71 10000 1.98 243 18:53 15.11.2021
5405 Clouds 27 1009 71 10000 2.14 207 16:59 15.11.2021
5406 Rain 26 1009 74 10000 1.97 199 15:48 15.11.2021
5407 Rain 26 1009 74 10000 1.97 199 15:30 15.11.2021
5408 Clouds 26 1010 75 10000 1.41 256 13:53 15.11.2021
5409 Clouds 27 1008 72 10000 1.69 262 12:18 15.11.2021
5410 Rain 29 1007 81 10000 2.77 271 09:31 15.11.2021
5411 Clouds 29 1007 80 10000 3.08 273 08:37 15.11.2021
5412 Rain 29 1009 74 6000 2.57 290 06:32 15.11.2021
5413 Clouds 26 1009 89 6000 0 0 00:34 15.11.2021
5414 Mist 25 1008 94 5000 0 0 22:41 14.11.2021
5415 Rain 26 1008 91 10000 2.35 221 21:18 14.11.2021
5416 Rain 26 1008 83 10000 2 218 19:18 14.11.2021
5417 Rain 26 1008 83 10000 2 218 18:54 14.11.2021
5418 Rain 26 1008 84 10000 2 218 18:36 14.11.2021
5419 Rain 26 1009 83 10000 1.9 208 18:18 14.11.2021
5420 Rain 26 1009 83 10000 1.9 208 17:57 14.11.2021
5421 Rain 27 1009 81 10000 1.9 208 17:39 14.11.2021
5422 Rain 26 1010 81 10000 2.68 217 17:21 14.11.2021
5423 Rain 27 1010 80 10000 2.68 217 16:55 14.11.2021
5424 Rain 27 1010 78 10000 2.68 217 16:37 14.11.2021
5425 Rain 27 1011 82 6000 1.54 250 16:18 14.11.2021
5426 Clouds 27 1010 73 10000 2.97 222 15:19 14.11.2021
5427 Clouds 28 1009 76 6000 5.14 270 14:37 14.11.2021
5428 Rain 28 1009 75 6000 5.14 270 14:18 14.11.2021
5429 Clouds 29 1008 72 5000 5.14 240 13:51 14.11.2021
5430 Clouds 29 1008 72 5000 5.14 240 13:26 14.11.2021
5431 Clouds 31 1006 62 6000 7.72 270 12:21 14.11.2021
5432 Clouds 33 1005 54 6000 5.14 240 10:54 14.11.2021
5433 Clouds 33 1005 52 6000 5.14 250 10:31 14.11.2021
5434 Clouds 34 1005 52 6000 5.14 210 09:22 14.11.2021
5435 Clouds 34 1005 52 6000 5.14 210 08:46 14.11.2021
5436 Clouds 31 1011 62 6000 2.06 200 04:46 14.11.2021
5437 Clouds 26 1008 89 10000 1.88 228 22:28 13.11.2021
5438 Clouds 25 1008 96 6000 1.54 190 21:59 13.11.2021
5439 Clouds 25 1008 97 6000 1.54 190 21:30 13.11.2021
5440 Rain 25 1008 94 10000 3.42 204 20:26 13.11.2021
5441 Clouds 25 1010 97 6000 1.54 210 18:54 13.11.2021
5442 Clouds 25 1010 96 6000 0 0 18:32 13.11.2021
5443 Rain 25 1011 98 6000 0 0 17:34 13.11.2021
5444 Clouds 25 1010 99 6000 1.54 160 15:45 13.11.2021
5445 Mist 26 1010 100 5000 2.06 250 14:41 13.11.2021
5446 Clouds 26 1010 100 4000 0 0 13:46 13.11.2021
5447 Rain 25 1009 100 4000 1.54 100 12:41 13.11.2021
5448 Thunderstorm 25 1009 100 2500 2.57 30 11:46 13.11.2021
5449 Thunderstorm 25 1008 100 1600 2.57 30 11:18 13.11.2021
5450 Thunderstorm 27 1007 89 400 5.14 270 10:32 13.11.2021
5451 Rain 31 1006 66 5000 2.06 350 09:45 13.11.2021
5452 Haze 32 1006 62 5000 1.54 260 09:22 13.11.2021
5453 Clouds 33 1006 52 10000 2.11 322 08:48 13.11.2021
5454 Clouds 32 1007 52 6000 1.54 140 07:47 13.11.2021
5455 Haze 30 1010 70 5000 2.06 90 04:42 13.11.2021
5456 Rain 29 1010 79 4000 2.57 90 02:59 13.11.2021
5457 Mist 25 1008 100 4000 1.54 240 23:35 12.11.2021
5458 Clouds 25 1008 99 10000 1.89 265 21:56 12.11.2021
5459 Clouds 25 1007 72 10000 1.9 247 20:47 12.11.2021
5460 Clouds 25 1008 99 10000 1.47 236 19:32 12.11.2021
5461 Clouds 25 1008 99 10000 1.27 248 18:57 12.11.2021
5462 Clouds 25 1009 69 10000 0.34 268 18:19 12.11.2021
5463 Haze 24 1010 100 5000 0 0 15:55 12.11.2021
5464 Rain 24 1010 100 4000 1.54 200 13:28 12.11.2021
5465 Clouds 25 1009 96 1000 3.6 140 11:25 12.11.2021
5466 Thunderstorm 30 1007 80 4000 4.12 300 10:40 12.11.2021
5467 Clouds 33 1007 52 6000 2.57 160 08:56 12.11.2021
5468 Rain 33 1007 52 6000 2.06 150 07:49 12.11.2021
5469 Clouds 26 1009 79 6000 2.06 260 00:21 12.11.2021
5470 Clouds 26 1009 75 10000 1.8 224 23:30 11.11.2021
5471 Clouds 26 1008 79 6000 0 0 22:21 11.11.2021
5472 Clouds 27 1008 72 10000 2.68 243 21:26 11.11.2021
5473 Clouds 27 1008 72 10000 2.72 249 19:56 11.11.2021
5474 Clouds 27 1009 71 10000 2.12 242 18:40 11.11.2021
5475 Haze 27 1010 71 5000 1.54 220 17:41 11.11.2021
5476 Rain 28 1010 70 10000 0.7 274 15:41 11.11.2021
5477 Clouds 28 1010 72 10000 0.62 278 14:42 11.11.2021
5478 Clouds 28 1010 72 10000 0.37 15 14:22 11.11.2021
5479 Rain 28 1010 72 10000 0.37 15 13:35 11.11.2021
5480 Rain 29 1008 70 6000 3.6 230 12:27 11.11.2021
5481 Rain 32 1007 60 10000 0.7 26 09:59 11.11.2021
5482 Rain 31 1007 61 6000 3.6 280 09:23 11.11.2021
5483 Rain 31 1008 58 6000 4.63 240 07:34 11.11.2021
5484 Haze 26 1008 89 5000 1.54 250 00:40 11.11.2021
5485 Haze 26 1008 92 5000 1.54 280 22:46 10.11.2021
5486 Clouds 26 1008 88 10000 5.18 275 21:54 10.11.2021
5487 Rain 26 1008 90 10000 6.06 281 20:57 10.11.2021
5488 Rain 26 1008 89 10000 6.06 281 20:33 10.11.2021
5489 Clouds 26 1008 88 10000 5.94 289 19:45 10.11.2021
5490 Rain 27 1009 88 10000 4.51 271 17:39 10.11.2021
5491 Haze 26 1010 90 5000 1.54 210 16:21 10.11.2021
5492 Clouds 26 1010 88 4000 1.54 160 14:25 10.11.2021
5493 Rain 27 1010 81 5000 2.06 130 13:40 10.11.2021
5494 Rain 30 1008 62 6000 6.17 250 12:39 10.11.2021
5495 Clouds 33 1006 56 6000 5.66 250 09:41 10.11.2021
5496 Clouds 33 1006 56 7000 3.6 260 08:45 10.11.2021
5497 Clouds 33 1007 53 10000 4.85 260 07:22 10.11.2021
5498 Clouds 31 1009 64 6000 6.17 260 05:59 10.11.2021
5499 Clouds 31 1009 66 6000 5.14 240 04:59 10.11.2021
5500 Haze 26 1008 89 5000 3.09 210 22:45 09.11.2021
5501 Haze 26 1008 89 5000 1.54 210 21:46 09.11.2021
5502 Clouds 26 1007 85 10000 1.1 151 20:20 09.11.2021
5503 Clouds 26 1008 85 10000 5.12 117 18:59 09.11.2021
5504 Clouds 27 1010 84 6000 0 0 17:24 09.11.2021
5505 Clouds 28 1009 76 10000 2.7 264 15:38 09.11.2021
5506 Haze 29 1007 73 5000 1.54 170 13:59 09.11.2021
5507 Haze 29 1007 77 5000 1.54 210 12:50 09.11.2021
5508 Clouds 30 1006 72 10000 2.96 286 11:38 09.11.2021
5509 Clouds 31 1005 67 10000 3.69 301 10:43 09.11.2021
5510 Clouds 32 1005 63 10000 3.59 314 09:24 09.11.2021
5511 Haze 33 1006 55 4000 2.57 360 08:19 09.11.2021
5512 Haze 31 1008 72 5000 1.54 280 05:45 09.11.2021
5513 Haze 29 1009 79 5000 0 0 02:19 09.11.2021
5514 Haze 28 1008 83 4000 1.54 340 01:39 09.11.2021
5515 Mist 26 1007 93 4000 0 0 23:35 08.11.2021
5516 Clouds 26 1007 93 6000 0 0 22:49 08.11.2021
5517 Clouds 26 1007 90 10000 1.48 115 21:46 08.11.2021
5518 Clouds 26 1007 90 10000 1.48 115 21:46 08.11.2021
5519 Clouds 27 1006 89 10000 1.8 106 20:47 08.11.2021
5520 Clouds 27 1007 86 10000 2.14 92 19:48 08.11.2021
5521 Clouds 28 1008 78 10000 2.18 68 17:55 08.11.2021
5522 Clouds 28 1008 83 6000 0 0 16:21 08.11.2021
5523 Clouds 28 1008 78 6000 2.06 40 14:58 08.11.2021
5524 Clouds 28 1008 77 6000 2.06 40 14:37 08.11.2021
5525 Clouds 29 1007 73 6000 2.06 50 13:24 08.11.2021
5526 Clouds 30 1006 69 6000 3.6 40 11:56 08.11.2021
5527 Clouds 31 1005 64 6000 3.09 30 10:50 08.11.2021
5528 Clouds 33 1005 55 6000 3.09 360 09:39 08.11.2021
5529 Clouds 32 1005 58 6000 3.09 30 08:53 08.11.2021
5530 Rain 32 1006 62 6000 3.09 40 07:28 08.11.2021
5531 Clouds 32 1009 62 6000 1.54 160 03:48 08.11.2021
5532 Clouds 29 1009 74 6000 1.54 100 03:26 08.11.2021
5533 Clouds 24 1008 99 10000 2.73 260 23:46 07.11.2021
5534 Rain 25 1007 99 10000 3.82 271 21:48 07.11.2021
5535 Clouds 25 1007 99 10000 3.75 272 20:54 07.11.2021
5536 Rain 25 1006 99 10000 2.65 246 19:30 07.11.2021
5537 Haze 24 1008 100 5000 0 0 18:22 07.11.2021
5538 Clouds 25 1008 100 6000 0 0 16:54 07.11.2021
5539 Clouds 25 1009 100 6000 0 0 15:48 07.11.2021
5540 Haze 25 1008 94 5000 1.54 120 14:29 07.11.2021
5541 Rain 24 1007 100 5000 2.57 150 13:26 07.11.2021
5542 Thunderstorm 25 1007 100 5000 2.57 190 11:43 07.11.2021
5543 Thunderstorm 24 1005 100 4000 7.2 240 09:52 07.11.2021
5544 Thunderstorm 28 1005 83 5000 5.14 60 07:54 07.11.2021
5545 Haze 29 1008 79 5000 2.06 220 02:38 07.11.2021
5546 Haze 25 1006 97 5000 0 0 23:37 06.11.2021
5547 Clouds 26 1006 92 10000 1.46 250 22:47 06.11.2021
5548 Clouds 26 1005 89 10000 1.84 254 21:33 06.11.2021
5549 Clouds 26 1005 88 10000 2.12 268 20:50 06.11.2021
5550 Clouds 26 1006 85 10000 1.69 250 18:56 06.11.2021
5551 Haze 26 1008 87 5000 4.12 200 16:47 06.11.2021
5552 Haze 26 1008 87 5000 4.12 200 16:47 06.11.2021
5553 Haze 26 1008 87 5000 4.12 200 16:47 06.11.2021
5554 Haze 26 1008 87 5000 4.12 200 16:47 06.11.2021
5555 Haze 26 1008 87 5000 4.12 200 16:47 06.11.2021
5556 Haze 28 1008 80 5000 6.17 210 15:20 06.11.2021
5557 Rain 29 1006 76 6000 1.54 360 13:38 06.11.2021
5558 Clouds 31 1004 68 6000 4.12 20 11:53 06.11.2021
5559 Clouds 34 1003 58 6000 4.12 360 09:25 06.11.2021
5560 Haze 33 1005 57 5000 1.54 50 07:55 06.11.2021
5561 Haze 29 1008 74 5000 0 0 02:36 06.11.2021
5562 Rain 25 1007 91 10000 1.29 213 23:37 05.11.2021
5563 Haze 25 1006 93 5000 0 0 22:34 05.11.2021
5564 Rain 26 1006 89 10000 1.45 188 21:50 05.11.2021
5565 Rain 26 1006 86 10000 0.95 152 20:20 05.11.2021
5566 Clouds 26 1007 87 10000 1.4 215 19:48 05.11.2021
5567 Haze 27 1009 84 5000 1.54 230 18:40 05.11.2021
5568 Haze 27 1009 83 5000 1.54 220 17:30 05.11.2021
5569 Clouds 27 1009 83 6000 0 0 15:43 05.11.2021
5570 Clouds 28 1007 77 6000 1.54 320 13:38 05.11.2021
5571 Clouds 30 1006 68 6000 1.54 360 11:31 05.11.2021
5572 Clouds 32 1006 61 10000 0.77 35 08:41 05.11.2021
5573 Haze 31 1007 68 5000 1.54 100 07:39 05.11.2021
5574 Haze 31 1007 68 5000 1.54 100 07:39 05.11.2021
5575 Haze 26 1010 94 3000 3.09 90 05:33 05.11.2021
5576 Haze 26 1010 94 3000 3.09 90 05:33 05.11.2021
5577 Rain 28 1010 79 10000 2.64 91 02:26 05.11.2021
5578 Rain 26 1008 99 3000 0 0 00:52 05.11.2021
5579 Mist 25 1007 100 3000 0 0 23:24 04.11.2021
5580 Mist 25 1007 100 3000 0 0 22:19 04.11.2021
5581 Clouds 25 1007 99 10000 2.08 107 21:38 04.11.2021
5582 Clouds 26 1007 99 10000 2.35 94 20:53 04.11.2021
5583 Clouds 26 1007 99 10000 2.48 104 20:22 04.11.2021
5584 Clouds 26 1007 99 10000 2.48 104 19:47 04.11.2021
5585 Clouds 26 1007 96 10000 2.31 110 18:52 04.11.2021
5586 Clouds 26 1008 96 10000 2.02 117 18:18 04.11.2021
5587 Mist 25 1009 97 4000 0 0 16:53 04.11.2021
5588 Haze 25 1010 97 5000 0 0 15:18 04.11.2021
5589 Haze 26 1009 94 4000 2.06 80 12:53 04.11.2021
5590 Haze 28 1006 78 5000 3.09 270 09:42 04.11.2021
5591 Thunderstorm 27 1006 94 5000 2.06 330 08:31 04.11.2021
5592 Clouds 32 1007 63 4000 4.63 30 07:35 04.11.2021
5593 Clouds 33 1009 58 6000 1.54 40 04:47 04.11.2021
5594 Mist 25 1008 97 4000 0 0 22:53 03.11.2021
5595 Clouds 26 1008 93 10000 1.93 114 21:50 03.11.2021
5596 Clouds 26 1008 92 10000 1.93 114 21:30 03.11.2021
5597 Clouds 26 1008 88 10000 1.18 169 20:37 03.11.2021
5598 Clouds 26 1008 88 10000 1.09 199 20:18 03.11.2021
5599 Clouds 26 1008 86 10000 0.68 224 19:19 03.11.2021
5600 Clouds 26 1009 87 10000 0.7 244 18:25 03.11.2021
5601 Mist 25 1010 94 4000 2.06 160 17:36 03.11.2021
5602 Mist 25 1011 93 4000 0 0 16:26 03.11.2021
5603 Haze 25 1010 93 5000 1.54 170 15:44 03.11.2021
5604 Haze 25 1009 94 5000 1.54 250 14:25 03.11.2021
5605 Thunderstorm 28 1008 82 3000 8.75 220 12:33 03.11.2021
5606 Haze 30 1006 68 5000 2.06 340 11:27 03.11.2021
5607 Haze 31 1006 66 5000 2.06 340 10:49 03.11.2021
5608 Haze 31 1006 66 5000 2.06 340 10:49 03.11.2021
5609 Thunderstorm 31 1006 70 5000 4.12 360 09:31 03.11.2021
5610 Clouds 32 1007 62 6000 2.57 360 08:24 03.11.2021
5611 Clouds 31 1008 66 6000 2.06 30 07:39 03.11.2021
5612 Clouds 32 1010 58 6000 2.06 360 05:35 03.11.2021
5613 Haze 27 1011 83 5000 1.54 240 02:50 03.11.2021
5614 Mist 24 1009 97 4000 0 0 23:56 02.11.2021
5615 Mist 24 1009 97 4000 0 0 22:47 02.11.2021
5616 Rain 24 1008 94 10000 1.3 121 21:39 02.11.2021
5617 Clouds 24 1008 92 10000 1.49 101 20:33 02.11.2021
5618 Clouds 25 1009 88 10000 2.09 102 19:54 02.11.2021
5619 Clouds 26 1009 84 10000 3.96 94 19:18 02.11.2021
5620 Clouds 26 1009 83 10000 4.6 109 18:26 02.11.2021
5621 Clouds 26 1009 81 10000 4.6 109 17:43 02.11.2021
5622 Haze 26 1011 83 5000 1.54 110 16:31 02.11.2021
5623 Haze 26 1011 88 5000 2.06 90 15:48 02.11.2021
5624 Clouds 27 1010 83 10000 2.59 254 14:30 02.11.2021
5625 Clouds 26 1009 85 6000 1.54 160 13:28 02.11.2021
5626 Clouds 26 1009 82 6000 2.06 220 12:43 02.11.2021
5627 Clouds 26 1007 89 6000 2.57 230 11:38 02.11.2021
5628 Clouds 28 1007 55 10000 2.82 307 10:53 02.11.2021
5629 Rain 28 1007 52 10000 2.15 303 10:28 02.11.2021
5630 Thunderstorm 28 1008 78 5000 8.75 270 08:45 02.11.2021
5631 Haze 32 1008 65 5000 4.12 20 07:36 02.11.2021
5632 Clouds 30 1011 70 6000 2.06 220 03:51 02.11.2021
5633 Clouds 29 1012 70 10000 1.78 254 02:35 02.11.2021
5634 Clouds 25 1010 99 10000 1.98 235 23:20 01.11.2021
5635 Clouds 25 1009 99 10000 2.9 218 21:27 01.11.2021
5636 Clouds 24 1009 99 10000 2.9 218 20:39 01.11.2021
5637 Clouds 24 1009 99 10000 3.28 214 19:58 01.11.2021
5638 Clouds 25 1009 99 10000 3.28 214 19:30 01.11.2021
5639 Clouds 25 1011 99 10000 1.82 203 18:23 01.11.2021
5640 Rain 25 1011 99 10000 1.83 203 17:35 01.11.2021
5641 Mist 25 1012 100 4000 0 0 16:50 01.11.2021
5642 Mist 25 1012 100 4000 1.54 240 15:55 01.11.2021
5643 Mist 25 1012 100 4000 1.54 260 15:26 01.11.2021
5644 Mist 25 1012 100 4000 1.54 240 14:43 01.11.2021
5645 Rain 25 1012 100 4000 1.54 240 14:43 01.11.2021
5646 Mist 25 1012 100 4000 1.54 210 14:23 01.11.2021
5647 Haze 25 1011 100 5000 1.54 180 13:49 01.11.2021
5648 Rain 25 1011 100 3000 2.57 240 12:33 01.11.2021
5649 Mist 25 1010 100 4000 2.06 180 10:36 01.11.2021
5650 Rain 28 1008 64 10000 2.18 15 09:35 01.11.2021
5651 Thunderstorm 27 1010 83 4000 5.14 80 07:49 01.11.2021
5652 Rain 28 1010 83 4000 5.14 270 06:31 01.11.2021
5653 Haze 30 1012 66 5000 2.57 80 03:44 01.11.2021
5654 Mist 27 1010 90 4000 0 0 00:41 01.11.2021
5655 Mist 25 1009 95 4000 0 0 22:31 31.10.2021
5656 Clouds 26 1009 86 10000 1.62 129 20:50 31.10.2021
5657 Clouds 26 1010 84 10000 1.47 123 18:57 31.10.2021
5658 Clouds 26 1010 84 10000 1.47 123 18:37 31.10.2021
5659 Clouds 27 1010 81 10000 1.38 121 17:31 31.10.2021
5660 Haze 27 1011 85 5000 0 0 15:50 31.10.2021
5661 Haze 27 1011 85 5000 1.54 160 13:58 31.10.2021
5662 Haze 27 1010 81 5000 1.54 110 12:49 31.10.2021
5663 Rain 26 1009 83 5000 3.6 180 11:40 31.10.2021
5664 Rain 27 1009 78 7988 3.63 27 10:42 31.10.2021
5665 Clouds 29 1008 69 10000 4.76 25 09:21 31.10.2021
5666 Clouds 29 1008 69 10000 4.76 25 09:21 31.10.2021
5667 Thunderstorm 33 1008 58 4000 5.14 40 07:20 31.10.2021
5668 Haze 26 1010 90 5000 0 0 00:58 31.10.2021
5669 Clouds 26 1009 89 10000 1.35 171 22:45 30.10.2021
5670 Rain 26 1009 88 10000 1.42 171 21:35 30.10.2021
5671 Clouds 26 1009 86 10000 1.36 175 20:33 30.10.2021
5672 Mist 26 1011 92 4000 0 0 18:43 30.10.2021
5673 Mist 25 1012 93 4000 1.54 210 17:25 30.10.2021
5674 Rain 26 1012 88 5000 2.57 200 14:50 30.10.2021
5675 Rain 27 1011 79 5000 7.72 170 13:39 30.10.2021
5676 Rain 27 1011 79 5000 7.72 170 13:21 30.10.2021
5677 Haze 32 1008 64 5000 4.12 20 11:58 30.10.2021
5678 Haze 32 1008 64 5000 4.12 20 11:39 30.10.2021
5679 Haze 33 1008 58 5000 5.14 350 10:32 30.10.2021
5680 Haze 34 1008 55 5000 3.6 350 08:52 30.10.2021
5681 Haze 34 1010 52 5000 4.12 360 07:19 30.10.2021
5682 Clouds 32 1012 58 6000 1.54 270 05:39 30.10.2021
5683 Haze 25 1011 89 5000 1.54 180 00:45 30.10.2021
5684 Clouds 26 1010 83 10000 1.53 164 22:39 29.10.2021
5685 Clouds 26 1010 83 10000 1.52 141 22:20 29.10.2021
5686 Clouds 27 1010 81 10000 1.44 150 20:45 29.10.2021
5687 Clouds 27 1011 81 10000 1.73 144 19:56 29.10.2021
5688 Haze 27 1012 84 5000 0 0 18:33 29.10.2021
5689 Clouds 27 1013 83 6000 1.54 210 16:52 29.10.2021
5690 Haze 28 1011 78 5000 2.06 150 14:36 29.10.2021
5691 Haze 33 1009 58 5000 5.14 210 11:44 29.10.2021
5692 Clouds 34 1008 52 7000 3.6 330 10:35 29.10.2021
5693 Clouds 34 1010 49 7000 5.14 50 08:38 29.10.2021
5694 Mist 24 1011 100 4000 1.54 230 00:37 29.10.2021
5695 Mist 24 1010 100 4000 1.54 240 23:25 28.10.2021
5696 Clouds 24 1009 72 10000 1.51 102 22:18 28.10.2021
5697 Clouds 24 1009 97 10000 1.47 119 20:54 28.10.2021
5698 Haze 25 1012 94 5000 0 0 19:50 28.10.2021
5699 Haze 25 1012 94 5000 0 0 18:26 28.10.2021
5700 Haze 25 1012 93 5000 0 0 17:18 28.10.2021
5701 Haze 25 1012 93 5000 1.54 170 15:48 28.10.2021
5702 Haze 25 1012 95 5000 1.54 180 14:23 28.10.2021
5703 Haze 25 1011 94 5000 2.06 210 13:24 28.10.2021
5704 Haze 26 1010 89 5000 2.57 260 12:41 28.10.2021
5705 Haze 26 1009 89 5000 1.54 310 10:57 28.10.2021
5706 Rain 29 1009 74 5000 10.29 30 09:39 28.10.2021
5707 Rain 28 1009 79 5000 10.29 30 09:20 28.10.2021
5708 Rain 30 1009 69 10000 2.92 4 08:35 28.10.2021
5709 Thunderstorm 29 1010 79 5000 2.06 240 07:40 28.10.2021
5710 Mist 25 1009 100 4000 0 0 00:21 28.10.2021
5711 Rain 25 1009 99 10000 1.96 247 22:31 27.10.2021
5712 Rain 25 1009 99 10000 1.78 246 21:34 27.10.2021
5713 Rain 25 1009 99 10000 1.85 246 20:54 27.10.2021
5714 Rain 26 1009 99 10000 1.85 246 20:34 27.10.2021
5715 Rain 25 1009 99 10000 1 194 19:42 27.10.2021
5716 Rain 25 1011 99 6000 1.54 170 18:53 27.10.2021
5717 Haze 25 1012 100 5000 1.54 160 16:38 27.10.2021
5718 Haze 25 1012 100 5000 1.54 160 16:18 27.10.2021
5719 Haze 25 1011 100 5000 2.06 200 15:21 27.10.2021
5720 Thunderstorm 26 1010 96 2000 3.09 70 12:51 27.10.2021
5721 Clouds 26 1008 93 4000 3.6 170 10:59 27.10.2021
5722 Clouds 28 1008 84 5000 8.75 220 10:01 27.10.2021
5723 Haze 30 1008 68 5000 3.6 200 08:58 27.10.2021
5724 Haze 33 1009 62 5000 3.09 40 07:36 27.10.2021
5725 Haze 33 1011 58 5000 3.6 90 05:35 27.10.2021
5726 Haze 26 1010 87 5000 0 0 01:18 27.10.2021
5727 Haze 26 1009 86 5000 0 0 00:33 27.10.2021
5728 Haze 26 1009 86 5000 0 0 23:51 26.10.2021
5729 Clouds 26 1008 85 10000 1.2 171 22:42 26.10.2021
5730 Clouds 26 1008 85 10000 1.24 158 22:19 26.10.2021
5731 Clouds 26 1009 85 10000 1.13 147 20:51 26.10.2021
5732 Haze 26 1010 87 5000 1.54 120 19:33 26.10.2021
5733 Haze 26 1010 87 5000 1.54 200 18:53 26.10.2021
5734 Haze 27 1010 83 5000 1.54 240 16:58 26.10.2021
5735 Haze 28 1009 81 5000 1.54 180 15:34 26.10.2021
5736 Clouds 31 1007 66 6000 2.57 340 11:50 26.10.2021
5737 Clouds 32 1006 61 6000 2.06 360 10:46 26.10.2021
5738 Rain 32 1007 62 5000 2.06 360 08:24 26.10.2021
5739 Haze 34 1008 52 5000 1.54 90 07:21 26.10.2021
5740 Haze 25 1008 92 5000 2.06 250 23:53 25.10.2021
5741 Clouds 25 1008 71 10000 1.29 235 22:55 25.10.2021
5742 Clouds 25 1008 70 10000 1.35 256 22:21 25.10.2021
5743 Clouds 25 1008 70 10000 1.35 256 21:40 25.10.2021
5744 Clouds 25 1009 68 10000 0.91 310 20:19 25.10.2021
5745 Clouds 25 1009 68 10000 0.91 310 19:42 25.10.2021
5746 Clouds 26 1009 67 10000 0.88 325 19:20 25.10.2021
5747 Haze 25 1010 88 5000 0 0 18:22 25.10.2021
5748 Haze 26 1009 89 5000 1.54 180 16:38 25.10.2021
5749 Clouds 26 1008 78 6000 1.54 290 14:45 25.10.2021
5750 Clouds 28 1007 60 10000 2.23 328 12:31 25.10.2021
5751 Rain 29 1006 77 10000 3.56 345 10:30 25.10.2021
5752 Clouds 28 1007 56 10000 4.77 12 08:54 25.10.2021
5753 Clouds 32 1009 52 10000 2.56 37 06:26 25.10.2021
5754 Clear 31 1011 70 10000 1.53 98 02:44 25.10.2021
5755 Clouds 27 1010 84 10000 1.3 155 00:48 25.10.2021
5756 Clouds 27 1009 85 10000 0.94 186 23:47 24.10.2021
5757 Clouds 27 1009 85 10000 0.81 229 23:19 24.10.2021
5758 Clouds 27 1009 82 10000 0.81 229 22:37 24.10.2021
5759 Clouds 27 1009 81 10000 1.03 245 22:18 24.10.2021
5760 Clouds 28 1009 74 10000 0.64 269 20:46 24.10.2021
5761 Clouds 28 1010 73 10000 0.69 289 20:27 24.10.2021
5762 Clouds 28 1011 74 10000 1.07 306 19:22 24.10.2021
5763 Clouds 28 1011 73 10000 1.36 319 18:27 24.10.2021
5764 Clouds 28 1012 73 10000 0.93 329 17:29 24.10.2021
5765 Clouds 29 1011 70 10000 1.37 356 15:49 24.10.2021
5766 Clouds 30 1010 68 10000 2.22 6 14:25 24.10.2021
5767 Clouds 31 1008 63 6000 1.54 40 12:57 24.10.2021
5768 Clouds 33 1008 52 10000 3.74 7 11:44 24.10.2021
5769 Clouds 33 1008 54 10000 4.52 11 10:55 24.10.2021
5770 Clouds 34 1007 52 6000 4.12 360 09:59 24.10.2021
5771 Haze 33 1011 54 5000 1.54 260 05:35 24.10.2021
5772 Haze 25 1011 90 4000 0 0 00:57 24.10.2021
5773 Clouds 26 1010 85 10000 2.14 132 23:34 23.10.2021
5774 Clouds 26 1010 83 10000 1.57 118 21:58 23.10.2021
5775 Clouds 27 1010 81 10000 1.7 130 20:36 23.10.2021
5776 Clouds 27 1012 76 10000 1.65 114 18:59 23.10.2021
5777 Haze 27 1012 80 5000 2.06 240 18:26 23.10.2021
5778 Haze 27 1012 75 5000 1.72 89 17:43 23.10.2021
5779 Clouds 28 1012 74 6000 2.57 220 16:23 23.10.2021
5780 Clouds 30 1011 69 6000 2.57 30 14:27 23.10.2021
5781 Haze 28 1013 78 5000 0 0 03:34 23.10.2021
5782 Haze 25 1011 90 5000 0 0 00:19 23.10.2021
5783 Haze 26 1011 83 5000 2.06 130 22:53 22.10.2021
5784 Clouds 26 1011 80 10000 1.81 175 20:37 22.10.2021
5785 Haze 26 1013 81 5000 1.54 10 18:44 22.10.2021
5786 Clouds 27 1014 78 9622 1.48 97 17:43 22.10.2021
5787 Haze 29 1013 73 5000 4.12 200 15:26 22.10.2021
5788 Clouds 30 1011 69 6000 2.57 20 13:52 22.10.2021
5789 Clouds 32 1009 58 6000 3.6 30 11:24 22.10.2021
5790 Clouds 32 1009 60 6000 4.12 20 10:41 22.10.2021
5791 Haze 33 1009 59 5000 5.14 30 09:56 22.10.2021
5792 Haze 33 1010 58 5000 5.14 20 08:36 22.10.2021
5793 Haze 33 1011 55 5000 4.12 30 07:22 22.10.2021
5794 Mist 25 1012 100 3000 1.54 140 02:57 22.10.2021
5795 Mist 25 1010 91 3000 0 0 23:55 21.10.2021
5796 Mist 25 1010 91 3000 0 0 23:35 21.10.2021
5797 Clouds 26 1010 84 10000 0.75 74 21:52 21.10.2021
5798 Clouds 27 1010 83 10000 0.49 56 20:40 21.10.2021
5799 Clouds 27 1011 83 10000 0.82 9 20:18 21.10.2021
5800 Clouds 27 1012 82 9729 1.02 342 19:29 21.10.2021
5801 Clouds 26 1012 86 6000 1.54 130 18:45 21.10.2021
5802 Clouds 26 1012 86 6000 1.54 130 18:18 21.10.2021
5803 Clouds 27 1012 82 6000 1.54 140 17:37 21.10.2021
5804 Clouds 27 1012 76 6000 2.06 140 15:49 21.10.2021
5805 Clouds 27 1012 75 6000 1.54 150 15:20 21.10.2021
5806 Clouds 27 1011 74 6000 0 0 14:38 21.10.2021
5807 Haze 27 1010 75 5000 2.06 240 13:19 21.10.2021
5808 Clouds 32 1009 65 6000 3.6 330 11:24 21.10.2021
5809 Haze 30 1010 79 5000 2.06 320 08:34 21.10.2021
5810 Clouds 30 1011 79 5000 2.57 320 07:29 21.10.2021
5811 Haze 29 1013 85 5000 1.54 230 03:31 21.10.2021
5812 Clouds 26 1010 99 10000 0.69 222 23:29 20.10.2021
5813 Rain 26 1010 99 10000 0.68 227 21:52 20.10.2021
5814 Rain 26 1010 99 10000 0.68 227 21:30 20.10.2021
5815 Rain 26 1010 99 10000 0.55 239 20:54 20.10.2021
5816 Rain 26 1010 99 10000 0.55 239 20:33 20.10.2021
5817 Thunderstorm 26 1013 96 3000 2.57 360 19:57 20.10.2021
5818 Thunderstorm 26 1013 96 3000 2.57 360 18:54 20.10.2021
5819 Haze 28 1013 81 5000 1.54 360 17:50 20.10.2021
5820 Haze 28 1012 82 5000 2.06 240 15:39 20.10.2021
5821 Clouds 33 1009 58 6000 3.09 360 10:43 20.10.2021
5822 Clouds 34 1010 55 6000 2.57 360 08:53 20.10.2021
5823 Clouds 29 1014 73 6000 0 0 03:21 20.10.2021
5824 Haze 25 1013 89 4000 0 0 00:47 20.10.2021
5825 Clouds 25 1012 90 6000 1.54 130 00:18 20.10.2021
5826 Clouds 25 1011 91 10000 1.85 186 21:44 19.10.2021
5827 Clouds 25 1011 90 10000 1.81 188 20:54 19.10.2021
5828 Clouds 26 1012 91 10000 1.65 186 20:25 19.10.2021
5829 Clouds 25 1012 89 10000 1.83 159 19:41 19.10.2021
5830 Clouds 26 1013 88 10000 2.03 152 19:19 19.10.2021
5831 Clouds 26 1013 84 10000 2.25 161 17:59 19.10.2021
5832 Clouds 26 1013 83 6000 4.12 250 15:48 19.10.2021
5833 Clouds 27 1012 78 6000 4.63 220 15:20 19.10.2021
5834 Clouds 25 1011 88 6000 4.12 230 14:27 19.10.2021
5835 Clouds 25 1011 88 6000 4.63 200 13:35 19.10.2021
5836 Rain 31 1012 66 6000 7.72 240 11:37 19.10.2021
5837 Clouds 31 1011 70 6000 3.6 340 10:36 19.10.2021
5838 Clouds 32 1012 64 6000 6.69 340 08:58 19.10.2021
5839 Rain 32 1014 58 6000 2.57 20 07:20 19.10.2021
5840 Haze 24 1012 96 5000 1.54 250 00:26 19.10.2021
5841 Haze 24 1012 96 5000 1.54 290 23:51 18.10.2021
5842 Haze 24 1012 96 5000 1.54 230 23:20 18.10.2021
5843 Mist 24 1012 100 4000 1.54 240 22:54 18.10.2021
5844 Clouds 24 1011 99 10000 3.32 247 21:54 18.10.2021
5845 Clouds 25 1011 99 10000 3.63 253 20:42 18.10.2021
5846 Clouds 25 1012 99 10000 3.41 259 20:19 18.10.2021
5847 Mist 25 1015 100 3000 0 0 19:30 18.10.2021
5848 Mist 25 1015 100 4000 0 0 18:58 18.10.2021
5849 Rain 25 1013 100 4000 1.54 70 15:56 18.10.2021
5850 Rain 25 1011 100 3000 0 0 14:30 18.10.2021
5851 Rain 25 1011 100 3000 1.54 100 11:20 18.10.2021
5852 Rain 26 1011 100 5000 1.54 60 09:37 18.10.2021
5853 Haze 28 1013 84 5000 1.54 270 05:32 18.10.2021
5854 Clouds 25 1008 100 4000 2.06 220 23:51 17.10.2021
5855 Rain 27 1008 85 10000 2.29 92 21:59 17.10.2021
5856 Clouds 27 1008 86 10000 2.29 92 21:40 17.10.2021
5857 Clouds 27 1008 81 10000 2.48 90 20:42 17.10.2021
5858 Clouds 28 1009 83 10000 1.74 86 19:56 17.10.2021
5859 Clouds 28 1009 82 10000 1.74 86 19:37 17.10.2021
5860 Clouds 28 1010 79 10000 2.57 68 18:28 17.10.2021
5861 Haze 29 1009 71 5000 2.57 70 15:57 17.10.2021
5862 Haze 29 1008 72 5000 2.57 220 14:38 17.10.2021
5863 Haze 29 1008 67 5000 2.57 210 13:56 17.10.2021
5864 Haze 30 1007 63 5000 5.14 60 13:30 17.10.2021
5865 Haze 34 1005 55 5000 9.26 40 11:27 17.10.2021
5866 Clouds 34 1005 52 6000 8.75 50 09:56 17.10.2021
5867 Haze 35 1008 50 5000 6.69 80 07:42 17.10.2021
5868 Haze 29 1009 78 5000 0 0 02:35 17.10.2021
5869 Haze 26 1008 93 5000 0 0 00:30 17.10.2021
5870 Haze 26 1008 89 4000 0 0 22:46 16.10.2021
5871 Clouds 27 1007 83 10000 1 234 20:36 16.10.2021
5872 Haze 27 1009 83 4000 0 0 19:59 16.10.2021
5873 Haze 27 1009 83 4000 0 0 19:40 16.10.2021
5874 Haze 27 1009 83 4000 0 0 19:18 16.10.2021
5875 Haze 27 1009 83 5000 2.57 210 18:44 16.10.2021
5876 Haze 27 1009 83 5000 2.57 210 18:22 16.10.2021
5877 Haze 28 1009 79 5000 1.54 160 17:31 16.10.2021
5878 Haze 29 1009 73 5000 2.06 180 16:18 16.10.2021
5879 Haze 30 1006 66 5000 2.06 340 13:26 16.10.2021
5880 Haze 32 1005 61 4000 2.06 240 11:24 16.10.2021
5881 Haze 34 1005 55 5000 2.06 330 08:58 16.10.2021
5882 Haze 31 1010 62 5000 1.54 130 04:26 16.10.2021
5883 Clouds 26 1009 88 10000 2 226 00:51 16.10.2021
5884 Haze 26 1007 89 5000 1.54 240 23:26 15.10.2021
5885 Clouds 26 1007 88 10000 1.34 215 22:21 15.10.2021
5886 Clouds 26 1007 86 10000 1.34 215 21:41 15.10.2021
5887 Clouds 26 1007 85 10000 0.93 209 20:54 15.10.2021
5888 Clouds 26 1007 84 10000 1.16 202 20:25 15.10.2021
5889 Clouds 26 1008 83 10000 1.04 208 19:20 15.10.2021
5890 Haze 26 1009 86 5000 1.54 250 18:22 15.10.2021
5891 Haze 26 1009 86 5000 1.54 250 18:22 15.10.2021
5892 Haze 27 1008 81 5000 1.54 280 15:49 15.10.2021
5893 Haze 27 1007 78 5000 3.09 230 14:26 15.10.2021
5894 Haze 29 1005 72 5000 3.6 250 12:26 15.10.2021
5895 Haze 31 1004 63 5000 3.09 350 11:19 15.10.2021
5896 Clouds 33 1005 60 10000 3.95 24 10:31 15.10.2021
5897 Haze 33 1007 52 5000 2.57 90 07:37 15.10.2021
5898 Haze 32 1009 59 5000 2.57 110 04:46 15.10.2021
5899 Haze 26 1007 90 4000 0 0 00:23 15.10.2021
5900 Haze 26 1007 89 3000 0 0 23:26 14.10.2021
5901 Clouds 26 1007 83 10000 0.56 258 22:22 14.10.2021
5902 Clouds 27 1007 81 10000 0.56 258 21:37 14.10.2021
5903 Clouds 27 1007 80 10000 1.13 225 20:21 14.10.2021
5904 Haze 28 1009 82 4000 0 0 19:46 14.10.2021
5905 Haze 28 1009 78 4000 0 0 18:44 14.10.2021
5906 Haze 28 1009 74 4000 1.54 160 16:59 14.10.2021
5907 Haze 28 1009 77 4000 1.54 300 16:32 14.10.2021
5908 Haze 30 1007 71 5000 1.54 300 14:55 14.10.2021
5909 Haze 30 1007 71 5000 2.06 320 14:27 14.10.2021
5910 Haze 30 1006 70 5000 2.06 310 13:34 14.10.2021
5911 Haze 32 1005 66 5000 1.54 330 11:35 14.10.2021
5912 Haze 33 1006 60 5000 2.57 330 09:28 14.10.2021
5913 Clouds 32 1009 51 10000 1.79 337 06:21 14.10.2021
5914 Clouds 26 1009 79 10000 1.44 210 00:43 14.10.2021
5915 Clouds 26 1007 78 10000 0.43 185 22:42 13.10.2021
5916 Clouds 26 1007 77 10000 0.45 168 21:37 13.10.2021
5917 Clouds 27 1007 76 10000 0.56 113 20:45 13.10.2021
5918 Clouds 27 1007 76 10000 0.56 113 20:45 13.10.2021
5919 Clouds 27 1008 72 10000 0.64 153 19:39 13.10.2021
5920 Haze 27 1009 75 5000 0 0 18:47 13.10.2021
5921 Haze 28 1009 73 5000 0 0 17:22 13.10.2021
5922 Clouds 29 1008 69 6000 1.54 180 14:47 13.10.2021
5923 Clouds 29 1007 66 6000 0 0 14:25 13.10.2021
5924 Clouds 31 1006 61 6000 2.57 360 12:48 13.10.2021
5925 Clouds 33 1005 55 6000 4.12 360 11:37 13.10.2021
5926 Clouds 33 1005 50 6000 4.12 30 10:18 13.10.2021
5927 Clouds 34 1007 49 6000 4.12 30 07:54 13.10.2021
5928 Clouds 32 1009 55 6000 0 0 04:50 13.10.2021
5929 Haze 28 1008 75 5000 3.09 230 02:22 13.10.2021
5930 Haze 27 1007 84 5000 1.54 250 23:38 12.10.2021
5931 Clouds 27 1007 79 10000 0.71 17 22:53 12.10.2021
5932 Clouds 27 1007 78 10000 0.71 17 22:34 12.10.2021
5933 Clouds 28 1007 74 10000 1.07 311 20:54 12.10.2021
5934 Clouds 27 1006 79 10000 0.92 349 20:31 12.10.2021
5935 Clouds 27 1007 79 10000 0.93 348 19:42 12.10.2021
5936 Clouds 28 1009 72 10000 1.4 355 18:26 12.10.2021
5937 Clouds 28 1009 71 10000 1.67 20 17:29 12.10.2021
5938 Haze 29 1008 66 5000 2.06 70 16:24 12.10.2021
5939 Haze 29 1008 66 5000 1.54 40 15:35 12.10.2021
5940 Haze 30 1006 63 5000 2.57 10 13:46 12.10.2021
5941 Haze 31 1006 62 5000 2.57 10 13:18 12.10.2021
5942 Clouds 33 1004 51 6000 3.09 350 11:31 12.10.2021
5943 Clouds 33 1004 51 6000 3.09 350 11:30 12.10.2021
5944 Clouds 34 1005 46 6000 2.06 350 09:41 12.10.2021
5945 Clouds 34 1005 51 6000 4.12 330 08:26 12.10.2021
5946 Clouds 34 1007 43 6000 3.09 170 06:45 12.10.2021
5947 Clouds 33 1008 47 6000 2.57 80 04:49 12.10.2021
5948 Clouds 32 1008 49 6000 1.54 280 04:28 12.10.2021
5949 Haze 25 1007 92 4000 0 0 23:53 11.10.2021
5950 Haze 25 1007 92 4000 0 0 23:28 11.10.2021
5951 Haze 26 1007 83 5000 0 0 22:51 11.10.2021
5952 Clouds 26 1007 87 10000 2.8 158 21:25 11.10.2021
5953 Haze 27 1009 80 5000 1.54 150 19:53 11.10.2021
5954 Haze 27 1009 80 5000 1.54 150 19:34 11.10.2021
5955 Clouds 27 1009 82 6000 1.54 170 18:23 11.10.2021
5956 Clouds 27 1009 82 6000 1.54 170 18:23 11.10.2021
5957 Clouds 27 1009 78 6000 3.09 210 16:40 11.10.2021
5958 Clouds 27 1009 78 6000 3.09 210 16:20 11.10.2021
5959 Clouds 28 1009 74 6000 3.09 220 15:44 11.10.2021
5960 Clouds 27 1008 83 6000 3.09 200 14:53 11.10.2021
5961 Clouds 27 1007 83 6000 2.57 210 14:19 11.10.2021
5962 Haze 27 1007 89 5000 2.57 240 13:35 11.10.2021
5963 Haze 32 1006 51 5000 2.57 360 11:18 11.10.2021
5964 Haze 34 1006 49 5000 4.12 350 09:46 11.10.2021
5965 Haze 34 1007 48 4000 2.06 320 08:31 11.10.2021
5966 Haze 26 1009 81 4000 1.54 230 01:45 11.10.2021
5967 Haze 25 1009 86 4000 0 0 00:58 11.10.2021
5968 Haze 25 1009 83 5000 0 0 00:39 11.10.2021
5969 Clouds 26 1008 80 10000 0.92 198 22:35 10.10.2021
5970 Clouds 27 1008 78 10000 1.02 195 21:49 10.10.2021
5971 Clouds 27 1008 80 10000 0.71 214 21:19 10.10.2021
5972 Clouds 27 1008 81 10000 0.71 214 20:39 10.10.2021
5973 Clouds 27 1008 80 10000 0.11 235 20:19 10.10.2021
5974 Clouds 27 1008 80 10000 0.11 235 19:41 10.10.2021
5975 Clouds 27 1009 79 10000 0.84 346 18:57 10.10.2021
5976 Haze 27 1009 78 5000 1.54 200 18:19 10.10.2021
5977 Haze 28 1009 77 5000 3.09 240 15:48 10.10.2021
5978 Haze 29 1008 73 5000 1.54 280 14:45 10.10.2021
5979 Haze 30 1007 68 4000 1.54 350 13:40 10.10.2021
5980 Haze 31 1006 61 5000 2.57 20 12:43 10.10.2021
5981 Haze 32 1006 57 5000 6.69 350 11:31 10.10.2021
5982 Haze 33 1006 58 5000 6.69 360 10:26 10.10.2021
5983 Haze 34 1006 54 5000 4.12 20 09:19 10.10.2021
5984 Haze 34 1007 53 5000 5.14 360 08:50 10.10.2021
5985 Haze 33 1009 52 5000 2.57 210 04:50 10.10.2021
5986 Haze 28 1009 73 5000 1.54 210 02:20 10.10.2021
5987 Haze 26 1009 85 5000 0 0 00:47 10.10.2021
5988 Haze 26 1009 85 5000 1.54 240 23:45 09.10.2021
5989 Clear 27 1009 80 10000 1.87 68 22:20 09.10.2021
5990 Clear 27 1009 78 10000 1.87 68 21:30 09.10.2021
5991 Clouds 28 1009 74 10000 1.57 24 20:19 09.10.2021
5992 Clouds 28 1009 73 10000 1.57 24 19:41 09.10.2021
5993 Clouds 28 1009 73 6000 0 0 18:48 09.10.2021
5994 Clouds 28 1009 73 6000 0 0 18:26 09.10.2021
5995 Clouds 30 1009 67 6000 1.54 70 16:20 09.10.2021
5996 Clouds 30 1007 68 6000 2.57 60 14:37 09.10.2021
5997 Clouds 31 1006 64 6000 3.09 10 13:39 09.10.2021
5998 Haze 33 1007 55 5000 3.09 60 12:28 09.10.2021
5999 Clouds 33 1006 56 6000 4.12 20 10:45 09.10.2021
6000 Clouds 34 1006 54 6000 3.6 20 10:19 09.10.2021
6001 Haze 35 1006 51 5000 3.09 360 09:23 09.10.2021
6002 Haze 35 1007 48 5000 3.09 60 08:20 09.10.2021
6003 Haze 33 1009 52 5000 2.06 50 06:46 09.10.2021
6004 Haze 32 1010 55 5000 0 0 04:55 09.10.2021
6005 Haze 29 1010 71 5000 2.06 190 02:46 09.10.2021
6006 Haze 25 1009 84 5000 0 0 00:30 09.10.2021
6007 Haze 26 1009 83 5000 1.54 220 23:35 08.10.2021
6008 Haze 26 1009 82 5000 0 0 22:47 08.10.2021
6009 Clouds 26 1009 75 10000 1.19 147 21:45 08.10.2021
6010 Clouds 27 1009 73 10000 1.24 153 20:30 08.10.2021
6011 Haze 28 1010 71 5000 2.57 260 18:23 08.10.2021
6012 Haze 28 1010 72 5000 2.57 260 17:18 08.10.2021
6013 Haze 28 1010 72 5000 2.57 260 17:18 08.10.2021
6014 Haze 28 1010 71 5000 2.06 250 16:44 08.10.2021
6015 Haze 28 1010 70 5000 2.06 230 16:22 08.10.2021
6016 Haze 29 1008 72 5000 2.06 20 13:48 08.10.2021
6017 Clouds 31 1007 62 6000 3.09 20 11:56 08.10.2021
6018 Clouds 32 1007 56 6000 3.6 340 10:47 08.10.2021
6019 Clouds 33 1008 59 6000 2.57 310 09:48 08.10.2021
6020 Haze 33 1010 56 5000 2.57 40 05:56 08.10.2021
6021 Clouds 25 1008 83 6000 1.54 260 23:28 07.10.2021
6022 Clouds 26 1008 81 10000 0.06 175 22:55 07.10.2021
6023 Clouds 26 1008 79 10000 0.51 122 21:29 07.10.2021
6024 Clouds 26 1008 79 10000 0.51 122 20:42 07.10.2021
6025 Clouds 27 1008 71 10000 0.2 62 19:38 07.10.2021
6026 Clouds 28 1010 68 6000 0 0 18:54 07.10.2021
6027 Clouds 27 1010 73 6000 0 0 17:34 07.10.2021
6028 Clouds 28 1009 67 6000 2.06 180 16:42 07.10.2021
6029 Clouds 29 1008 62 6000 0 0 14:56 07.10.2021
6030 Clouds 30 1007 63 6000 1.54 350 13:44 07.10.2021
6031 Clouds 31 1007 58 10000 4.33 344 13:20 07.10.2021
6032 Clouds 34 1006 47 6000 4.12 350 11:26 07.10.2021
6033 Clouds 33 1006 49 6000 2.57 340 10:47 07.10.2021
6034 Clouds 32 1006 51 6000 2.06 350 09:47 07.10.2021
6035 Clouds 34 1007 47 6000 2.57 280 08:55 07.10.2021
6036 Clouds 34 1007 45 6000 2.57 330 08:20 07.10.2021
6037 Clouds 33 1008 49 6000 2.06 300 07:39 07.10.2021
6038 Clouds 33 1008 49 6000 2.06 250 06:47 07.10.2021
6039 Clouds 25 1008 82 6000 3.09 250 00:55 07.10.2021
6040 Clouds 25 1007 83 6000 0 0 23:25 06.10.2021
6041 Rain 25 1007 85 10000 1.59 202 22:33 06.10.2021
6042 Clouds 26 1007 83 10000 1.52 203 21:40 06.10.2021
6043 Clouds 26 1007 82 10000 1.51 203 20:33 06.10.2021
6044 Clouds 26 1008 80 10000 1.07 183 19:23 06.10.2021
6045 Haze 27 1008 78 5000 3.09 200 17:41 06.10.2021
6046 Rain 28 1007 83 6000 2.57 250 15:44 06.10.2021
6047 Clouds 28 1008 81 10000 0.91 17 14:53 06.10.2021
6048 Clouds 29 1006 72 6000 1.54 20 13:31 06.10.2021
6049 Rain 29 1005 69 6000 1.54 340 12:47 06.10.2021
6050 Clouds 29 1005 70 6000 1.54 340 12:28 06.10.2021
6051 Rain 31 1005 56 6000 2.57 340 11:38 06.10.2021
6052 Haze 32 1005 58 5000 3.09 10 09:40 06.10.2021
6053 Haze 33 1006 54 5000 3.09 40 08:59 06.10.2021
6054 Haze 33 1006 52 5000 3.09 40 08:31 06.10.2021
6055 Haze 33 1008 50 5000 2.57 260 06:18 06.10.2021
6056 Haze 29 1009 69 4000 1.54 150 02:52 06.10.2021
6057 Clouds 26 1008 79 10000 2.53 164 00:24 06.10.2021
6058 Clouds 25 1008 78 10000 2.53 164 23:51 05.10.2021
6059 Clouds 26 1008 78 10000 2.53 164 23:30 05.10.2021
6060 Clouds 26 1007 73 10000 2.28 176 22:35 05.10.2021
6061 Clouds 26 1007 68 10000 1.99 165 21:57 05.10.2021
6062 Clouds 27 1007 69 10000 1.89 142 21:20 05.10.2021
6063 Clouds 27 1007 72 10000 2.65 160 20:31 05.10.2021
6064 Haze 27 1009 75 5000 3.09 160 19:51 05.10.2021
6065 Haze 27 1009 75 5000 3.09 160 19:24 05.10.2021
6066 Haze 27 1009 74 5000 4.12 190 18:21 05.10.2021
6067 Clouds 29 1009 67 10000 0.09 164 15:36 05.10.2021
6068 Clouds 29 1006 68 6000 2.06 360 13:52 05.10.2021
6069 Clouds 30 1006 63 6000 2.06 340 13:23 05.10.2021
6070 Clouds 31 1005 60 6000 4.12 330 12:34 05.10.2021
6071 Clouds 32 1004 59 6000 5.14 10 11:41 05.10.2021
6072 Haze 34 1004 51 5000 3.6 360 10:37 05.10.2021
6073 Clouds 34 1006 46 6000 0 0 07:59 05.10.2021
6074 Haze 26 1008 74 5000 0 0 01:46 05.10.2021
6075 Clouds 26 1007 74 10000 1.71 111 22:56 04.10.2021
6076 Clouds 26 1007 68 10000 1.95 90 21:27 04.10.2021
6077 Clouds 28 1008 68 10000 3.22 73 18:51 04.10.2021
6078 Haze 27 1010 82 5000 1.54 120 17:29 04.10.2021
6079 Mist 27 1009 84 4000 1.54 170 15:33 04.10.2021
6080 Haze 27 1008 79 4000 1.54 100 14:46 04.10.2021
6081 Haze 27 1008 79 4000 2.06 140 14:18 04.10.2021
6082 Thunderstorm 27 1007 82 4000 3.09 130 13:31 04.10.2021
6083 Thunderstorm 28 1007 84 4000 3.09 30 12:50 04.10.2021
6084 Rain 32 1006 53 10000 4.85 334 11:34 04.10.2021
6085 Clouds 32 1005 58 5000 2.57 250 10:47 04.10.2021
6086 Haze 33 1005 57 5000 3.09 330 09:44 04.10.2021
6087 Haze 33 1007 52 5000 2.57 40 07:53 04.10.2021
6088 Haze 33 1008 52 5000 2.06 210 06:50 04.10.2021
6089 Haze 26 1008 83 5000 0 0 23:38 03.10.2021
6090 Clouds 26 1007 82 10000 1.5 180 21:56 03.10.2021
6091 Clouds 26 1007 81 10000 1.5 180 21:31 03.10.2021
6092 Clouds 27 1008 78 10000 1.12 181 20:45 03.10.2021
6093 Clouds 27 1008 77 10000 1.01 175 19:49 03.10.2021
6094 Clouds 27 1009 78 10000 0.24 99 18:29 03.10.2021
6095 Haze 27 1010 79 5000 0 0 17:37 03.10.2021
6096 Clouds 29 1009 71 6000 1.54 270 15:30 03.10.2021
6097 Clouds 29 1008 71 6000 1.54 310 14:31 03.10.2021
6098 Haze 30 1008 67 5000 1.54 350 13:36 03.10.2021
6099 Haze 30 1007 64 5000 1.54 300 12:47 03.10.2021
6100 Haze 32 1006 57 5000 2.06 330 11:37 03.10.2021
6101 Haze 33 1006 51 5000 3.6 40 09:58 03.10.2021
6102 Clouds 32 1009 51 10000 2.2 13 06:42 03.10.2021
6103 Clear 26 1009 82 10000 1.36 195 22:59 02.10.2021
6104 Clear 26 1009 82 10000 0.93 199 21:59 02.10.2021
6105 Clouds 27 1009 81 10000 1.23 137 20:33 02.10.2021
6106 Haze 26 1011 81 5000 1.54 200 18:57 02.10.2021
6107 Haze 27 1011 79 5000 1.54 210 18:20 02.10.2021
6108 Haze 26 1011 82 5000 1.54 190 17:38 02.10.2021
6109 Haze 27 1010 77 5000 1.54 180 16:39 02.10.2021
6110 Haze 32 1009 60 4000 4.12 30 07:51 02.10.2021
6111 Clouds 25 1012 93 500 2.17 261 15:37 30.09.2021
6112 Haze 30 1009 67 5000 2.06 320 13:57 30.09.2021
6113 Clouds 32 1007 56 6000 3.09 340 11:58 30.09.2021
6114 Clouds 33 1007 54 6000 3.09 350 10:55 30.09.2021
6115 Clouds 33 1007 55 6000 3.09 350 10:25 30.09.2021
6116 Haze 34 1008 53 5000 3.09 330 08:31 30.09.2021
6117 Haze 34 1009 52 5000 1.54 310 07:36 30.09.2021
6118 Haze 32 1010 55 5000 1.54 270 05:25 30.09.2021
6119 Haze 28 1010 80 4000 1.54 180 02:19 30.09.2021
6120 Mist 25 1009 93 3000 0 0 00:31 30.09.2021
6121 Haze 26 1009 88 4000 0 0 22:41 29.09.2021
6122 Clouds 26 1009 94 10000 0.38 255 21:28 29.09.2021
6123 Clouds 27 1009 90 10000 0.3 213 20:30 29.09.2021
6124 Clouds 27 1009 90 10000 0.08 30 19:56 29.09.2021
6125 Haze 27 1011 85 4000 0 0 18:54 29.09.2021
6126 Haze 27 1011 83 4000 1.54 250 17:55 29.09.2021
6127 Haze 28 1010 81 4000 1.54 170 16:55 29.09.2021
6128 Haze 28 1010 78 5000 2.06 230 16:21 29.09.2021
6129 Haze 29 1008 74 5000 1.54 10 14:42 29.09.2021
6130 Haze 29 1008 73 5000 1.54 10 14:18 29.09.2021
6131 Haze 30 1007 71 5000 2.57 330 13:27 29.09.2021
6132 Haze 31 1007 67 5000 3.09 10 12:36 29.09.2021
6133 Haze 32 1006 61 5000 5.14 360 10:50 29.09.2021
6134 Haze 32 1006 63 4000 5.14 40 09:58 29.09.2021
6135 Haze 32 1007 60 4000 3.6 30 09:36 29.09.2021
6136 Haze 33 1008 58 4000 2.06 330 07:39 29.09.2021
6137 Haze 31 1010 66 5000 0 0 04:39 29.09.2021
6138 Haze 26 1008 88 5000 0 0 23:36 28.09.2021
6139 Clouds 26 1008 86 10000 1.42 129 22:24 28.09.2021
6140 Clouds 26 1008 85 10000 1.42 129 21:45 28.09.2021
6141 Clouds 26 1008 83 10000 1.52 127 20:44 28.09.2021
6142 Clouds 27 1009 81 10000 1.32 131 19:47 28.09.2021
6143 Clouds 27 1010 79 10000 1.11 133 18:53 28.09.2021
6144 Haze 28 1009 77 5000 1.54 220 18:27 28.09.2021
6145 Haze 28 1009 72 5000 1.54 220 16:41 28.09.2021
6146 Haze 30 1008 70 5000 2.06 40 14:52 28.09.2021
6147 Clouds 30 1007 64 6000 2.06 10 13:22 28.09.2021
6148 Clouds 31 1006 60 6000 4.12 40 12:22 28.09.2021
6149 Clouds 32 1006 57 6000 5.14 40 11:47 28.09.2021
6150 Haze 32 1005 59 5000 5.14 20 11:23 28.09.2021
6151 Haze 32 1005 58 5000 5.14 10 10:26 28.09.2021
6152 Haze 33 1006 55 5000 4.12 20 09:25 28.09.2021
6153 Haze 33 1007 56 5000 4.12 70 08:43 28.09.2021
6154 Haze 34 1007 51 5000 3.6 40 07:49 28.09.2021
6155 Haze 33 1009 57 5000 2.06 60 06:23 28.09.2021
6156 Clouds 26 1009 98 4000 2.57 210 01:29 28.09.2021
6157 Mist 25 1008 98 4000 0 0 00:28 28.09.2021
6158 Clouds 25 1008 94 2000 0 0 23:44 27.09.2021
6159 Clouds 26 1008 93 2000 0 0 23:23 27.09.2021
6160 Rain 27 1007 90 10000 1.54 109 22:20 27.09.2021
6161 Clouds 27 1008 91 10000 1.73 103 20:49 27.09.2021
6162 Clouds 27 1008 91 10000 1.91 93 20:24 27.09.2021
6163 Clouds 27 1008 89 10000 1.64 130 19:36 27.09.2021
6164 Clouds 28 1009 82 6000 2.06 60 18:52 27.09.2021
6165 Clouds 28 1009 82 6000 2.06 60 18:52 27.09.2021
6166 Clouds 28 1009 80 6000 3.09 60 17:36 27.09.2021
6167 Clouds 29 1009 79 10000 6 60 16:53 27.09.2021
6168 Clouds 29 1008 75 6000 3.6 80 15:46 27.09.2021
6169 Clouds 29 1008 75 6000 3.6 80 15:27 27.09.2021
6170 Clouds 30 1007 71 6000 4.12 60 13:44 27.09.2021
6171 Clouds 32 1005 65 6000 5.66 30 12:22 27.09.2021
6172 Clouds 33 1005 57 6000 5.66 50 10:48 27.09.2021
6173 Clouds 32 1006 68 6000 4.63 60 09:38 27.09.2021
6174 Haze 33 1008 56 5000 4.12 30 06:37 27.09.2021
6175 Haze 29 1010 74 4000 0 0 03:31 27.09.2021
6176 Haze 26 1008 88 5000 0 0 23:42 26.09.2021
6177 Clouds 26 1007 88 10000 1.29 146 21:55 26.09.2021
6178 Clouds 26 1008 88 10000 1.06 151 21:27 26.09.2021
6179 Clouds 26 1008 88 10000 1.06 151 21:27 26.09.2021
6180 Clouds 26 1009 87 10000 0.74 153 20:25 26.09.2021
6181 Rain 26 1009 87 10000 0.74 153 19:54 26.09.2021
6182 Haze 26 1010 88 5000 0 0 19:25 26.09.2021
6183 Haze 26 1010 88 5000 0 0 19:25 26.09.2021
6184 Haze 26 1010 88 5000 0 0 19:25 26.09.2021
6185 Haze 26 1010 88 5000 0 0 19:25 26.09.2021
6186 Haze 26 1010 88 5000 0 0 19:25 26.09.2021
6187 Haze 26 1010 88 5000 0 0 19:25 26.09.2021
6188 Haze 27 1010 87 5000 0 0 18:41 26.09.2021
6189 Haze 27 1010 85 5000 1.54 270 17:38 26.09.2021
6190 Haze 27 1010 85 5000 1.54 270 17:20 26.09.2021
6191 Thunderstorm 27 1009 84 5000 1.54 220 16:22 26.09.2021
6192 Clouds 27 1009 79 5000 1.54 130 15:27 26.09.2021
6193 Thunderstorm 27 1008 79 5000 2.57 240 14:22 26.09.2021
6194 Haze 28 1007 74 5000 3.6 180 13:42 26.09.2021
6195 Clouds 30 1006 69 6000 3.09 50 12:31 26.09.2021
6196 Clouds 31 1006 62 6000 4.63 50 11:56 26.09.2021
6197 Thunderstorm 32 1006 60 6000 5.14 30 11:23 26.09.2021
6198 Clouds 33 1005 54 6000 5.14 50 09:50 26.09.2021
6199 Rain 33 1006 52 6000 5.14 60 08:41 26.09.2021
6200 Clouds 26 1008 86 10000 2.26 107 00:30 26.09.2021
6201 Haze 27 1008 84 4000 0 0 23:46 25.09.2021
6202 Clouds 27 1007 83 10000 2.46 110 22:39 25.09.2021
6203 Clouds 27 1007 83 10000 2.73 109 22:19 25.09.2021
6204 Clouds 27 1007 83 10000 2.73 109 22:19 25.09.2021
6205 Clouds 27 1007 82 10000 2.73 109 21:45 25.09.2021
6206 Clouds 28 1007 81 10000 2.62 106 20:52 25.09.2021
6207 Clouds 28 1007 81 10000 2.62 106 20:52 25.09.2021
6208 Clouds 27 1008 81 10000 2.25 112 19:40 25.09.2021
6209 Haze 28 1009 80 5000 1.54 160 18:28 25.09.2021
6210 Haze 28 1009 80 5000 1.54 160 18:28 25.09.2021
6211 Clouds 29 1009 75 6000 2.06 100 17:45 25.09.2021
6212 Clouds 29 1008 73 6000 2.57 40 14:39 25.09.2021
6213 Clouds 30 1007 71 6000 4.12 30 13:55 25.09.2021
6214 Clouds 30 1006 68 6000 4.12 30 12:46 25.09.2021
6215 Clouds 33 1005 52 6000 4.12 40 11:27 25.09.2021
6216 Clouds 33 1006 53 10000 5.61 26 10:20 25.09.2021
6217 Clouds 34 1006 46 6000 4.12 70 09:21 25.09.2021
6218 Haze 34 1008 49 5000 4.12 40 07:48 25.09.2021
6219 Haze 26 1009 83 5000 1.54 150 00:52 25.09.2021
6220 Clouds 27 1008 79 10000 3.78 96 22:18 24.09.2021
6221 Clouds 27 1008 79 10000 3.78 96 21:34 24.09.2021
6222 Clouds 28 1008 76 10000 3.69 101 20:32 24.09.2021
6223 Clouds 28 1009 75 10000 2.76 107 19:32 24.09.2021
6224 Clouds 28 1009 75 10000 2.76 107 19:32 24.09.2021
6225 Clouds 28 1010 76 6000 1.54 120 18:21 24.09.2021
6226 Clouds 28 1010 76 6000 2.57 100 17:53 24.09.2021
6227 Clouds 28 1010 73 6000 2.57 90 17:34 24.09.2021
6228 Rain 29 1010 69 6000 3.6 90 15:50 24.09.2021
6229 Clouds 30 1008 62 6000 7.2 50 13:28 24.09.2021
6230 Clouds 31 1007 56 6000 6.69 50 12:43 24.09.2021
6231 Clouds 32 1007 52 6000 7.2 40 12:25 24.09.2021
6232 Clouds 33 1006 52 6000 8.23 60 10:56 24.09.2021
6233 Clouds 33 1007 52 6000 8.75 60 09:57 24.09.2021
6234 Clouds 33 1008 49 6000 7.72 70 08:23 24.09.2021
6235 Clouds 33 1009 52 6000 8.23 60 07:30 24.09.2021
6236 Clouds 32 1010 55 6000 7.72 90 05:57 24.09.2021
6237 Clouds 32 1011 51 6000 7.72 80 04:51 24.09.2021
6238 Clouds 27 1010 74 10000 3.67 112 22:38 23.09.2021
6239 Clouds 27 1010 74 10000 3.74 113 21:59 23.09.2021
6240 Clouds 27 1010 73 10000 3.63 113 21:20 23.09.2021
6241 Clouds 27 1010 73 10000 3.63 113 21:20 23.09.2021
6242 Haze 27 1010 78 5000 1.54 90 20:32 23.09.2021
6243 Haze 27 1011 78 5000 0 0 18:55 23.09.2021
6244 Clouds 28 1011 69 6000 2.06 120 16:47 23.09.2021
6245 Clouds 29 1010 65 6000 5.14 90 15:19 23.09.2021
6246 Clouds 29 1010 65 6000 5.14 80 14:52 23.09.2021
6247 Clouds 30 1009 62 7000 6.69 60 13:36 23.09.2021
6248 Clouds 30 1009 62 7000 6.69 60 13:18 23.09.2021
6249 Clouds 31 1008 58 6000 7.72 70 12:45 23.09.2021
6250 Clouds 32 1008 55 6000 7.72 70 12:21 23.09.2021
6251 Clouds 34 1007 46 7000 7.72 70 10:41 23.09.2021
6252 Clouds 34 1007 46 7000 7.72 70 10:19 23.09.2021
6253 Clouds 34 1008 49 6000 8.23 70 09:47 23.09.2021
6254 Clouds 32 1010 55 6000 7.72 80 06:25 23.09.2021
6255 Haze 25 1010 88 5000 1.54 190 00:25 23.09.2021
6256 Clouds 27 1010 70 10000 3.71 100 22:54 22.09.2021
6257 Clouds 27 1009 70 10000 3.42 96 22:20 22.09.2021
6258 Clouds 27 1009 70 10000 3.42 96 21:44 22.09.2021
6259 Clouds 27 1010 70 10000 3.23 100 20:58 22.09.2021
6260 Clouds 27 1010 69 10000 3.27 100 19:53 22.09.2021
6261 Clouds 28 1011 68 10000 3.56 101 19:27 22.09.2021
6262 Clouds 28 1011 68 10000 3.56 101 18:34 22.09.2021
6263 Clouds 28 1012 66 10000 3.85 100 17:33 22.09.2021
6264 Clouds 29 1012 64 10000 4.08 93 15:52 22.09.2021
6265 Clouds 29 1009 61 6000 4.12 100 14:29 22.09.2021
6266 Clouds 30 1008 54 6000 6.69 70 13:19 22.09.2021
6267 Clouds 33 1007 49 6000 8.23 70 11:20 22.09.2021
6268 Clouds 33 1007 49 6000 6.69 70 09:32 22.09.2021
6269 Clouds 33 1007 43 6000 7.2 80 08:45 22.09.2021
6270 Clouds 32 1009 48 6000 6.17 100 07:35 22.09.2021
6271 Clouds 32 1009 48 6000 6.69 100 06:51 22.09.2021
6272 Clouds 32 1010 48 6000 6.69 90 05:49 22.09.2021
6273 Clouds 31 1011 51 6000 7.2 70 04:54 22.09.2021
6274 Haze 28 1011 74 4000 2.06 150 03:33 22.09.2021
6275 Haze 25 1009 94 5000 1.54 120 00:18 22.09.2021
6276 Clouds 26 1009 74 10000 2.55 93 22:27 21.09.2021
6277 Clouds 25 1009 74 10000 2.82 96 20:58 21.09.2021
6278 Clouds 27 1010 74 10000 2.97 99 19:37 21.09.2021
6279 Clouds 26 1011 72 10000 2.84 97 19:18 21.09.2021
6280 Clouds 25 1011 83 6000 0 0 16:58 21.09.2021
6281 Clouds 25 1011 88 6000 2.57 210 15:57 21.09.2021
6282 Clouds 25 1011 88 6000 2.57 210 15:24 21.09.2021
6283 Rain 27 1010 78 6000 4.12 180 14:43 21.09.2021
6284 Haze 27 1009 78 4000 3.09 170 13:40 21.09.2021
6285 Haze 30 1008 62 4000 3.09 70 12:45 21.09.2021
6286 Thunderstorm 32 1007 62 4000 3.09 20 10:51 21.09.2021
6287 Haze 31 1008 66 5000 3.09 360 09:53 21.09.2021
6288 Haze 33 1008 46 5000 2.57 350 07:44 21.09.2021
6289 Haze 31 1011 55 5000 3.09 190 05:42 21.09.2021
6290 Haze 25 1009 88 5000 1.54 210 23:52 20.09.2021
6291 Clouds 26 1009 68 10000 1.5 83 21:53 20.09.2021
6292 Clouds 26 1009 68 10000 1.5 83 21:32 20.09.2021
6293 Haze 27 1011 78 5000 0 0 19:55 20.09.2021
6294 Haze 27 1011 78 5000 0 0 19:20 20.09.2021
6295 Haze 29 1011 70 5000 1.54 60 17:31 20.09.2021
6296 Haze 28 1010 74 5000 1.54 50 16:26 20.09.2021
6297 Haze 29 1010 70 5000 3.09 50 15:47 20.09.2021
6298 Clouds 29 1010 65 6000 2.57 50 14:59 20.09.2021
6299 Clouds 30 1007 62 6000 5.14 30 13:36 20.09.2021
6300 Clouds 31 1007 55 6000 5.14 40 12:34 20.09.2021
6301 Haze 32 1007 55 5000 6.17 30 10:57 20.09.2021
6302 Haze 32 1007 58 5000 6.17 360 09:53 20.09.2021
6303 Haze 32 1008 55 5000 5.14 10 09:34 20.09.2021
6304 Haze 33 1008 52 5000 3.6 360 08:56 20.09.2021
6305 Haze 32 1011 48 5000 0 0 06:36 20.09.2021
6306 Haze 25 1010 94 4000 1.54 240 23:30 19.09.2021
6307 Clouds 25 1010 74 10000 0.59 94 21:56 19.09.2021
6308 Clouds 25 1010 74 10000 0.59 94 21:33 19.09.2021
6309 Clouds 25 1010 73 10000 0.66 105 20:32 19.09.2021
6310 Haze 26 1012 83 5000 3.09 200 18:57 19.09.2021
6311 Haze 26 1012 83 5000 3.09 200 18:21 19.09.2021
6312 Haze 26 1012 83 5000 2.06 240 17:22 19.09.2021
6313 Haze 26 1012 89 5000 2.57 210 15:45 19.09.2021
6314 Haze 26 1011 89 4000 4.12 240 14:50 19.09.2021
6315 Haze 26 1011 89 4000 1.54 190 14:29 19.09.2021
6316 Haze 25 1010 94 4000 4.12 240 13:19 19.09.2021
6317 Thunderstorm 27 1009 89 4000 4.12 250 12:45 19.09.2021
6318 Clouds 27 1008 89 4000 4.63 80 11:27 19.09.2021
6319 Clouds 30 1008 55 10000 4.46 314 10:21 19.09.2021
6320 Haze 30 1009 70 5000 2.57 270 09:26 19.09.2021
6321 Clouds 33 1010 49 6000 2.06 300 07:18 19.09.2021
6322 Haze 27 1011 74 5000 2.57 220 02:24 19.09.2021
6323 Clouds 26 1009 83 6000 2.57 210 23:27 18.09.2021
6324 Clouds 26 1010 72 10000 0.87 196 21:58 18.09.2021
6325 Clouds 26 1010 72 10000 0.87 196 21:58 18.09.2021
6326 Clouds 27 1010 72 10000 0.45 140 20:48 18.09.2021
6327 Clouds 28 1010 71 10000 0.99 79 20:26 18.09.2021
6328 Clouds 28 1011 67 10000 0.95 25 19:38 18.09.2021
6329 Clouds 28 1011 66 10000 1.4 47 19:20 18.09.2021
6330 Clouds 28 1011 66 10000 1.4 47 18:31 18.09.2021
6331 Clouds 29 1012 65 6000 2.57 70 17:23 18.09.2021
6332 Clouds 29 1011 65 6000 2.06 190 15:47 18.09.2021
6333 Clouds 30 1009 62 6000 4.12 70 13:46 18.09.2021
6334 Clouds 30 1008 62 6000 4.12 60 13:25 18.09.2021
6335 Clouds 30 1007 62 6000 6.17 70 12:48 18.09.2021
6336 Clouds 33 1007 52 6000 7.72 60 11:36 18.09.2021
6337 Clouds 35 1007 46 7000 7.2 60 10:31 18.09.2021
6338 Clouds 35 1007 41 7000 7.2 70 09:26 18.09.2021
6339 Clouds 35 1008 38 7000 7.72 60 08:31 18.09.2021
6340 Clouds 35 1008 38 7000 7.72 60 08:30 18.09.2021
6341 Clouds 35 1008 38 7000 7.72 60 08:30 18.09.2021
6342 Clouds 35 1008 38 7000 7.72 60 08:30 18.09.2021
6343 Clouds 27 1010 74 10000 1.24 153 00:59 18.09.2021
6344 Clouds 27 1010 74 10000 1.24 153 00:41 18.09.2021
6345 Clouds 27 1010 74 10000 1.18 162 23:44 17.09.2021
6346 Clouds 27 1009 74 10000 1.7 148 22:33 17.09.2021
6347 Clouds 27 1009 73 10000 2.04 111 21:48 17.09.2021
6348 Clouds 27 1009 70 10000 1.98 100 20:25 17.09.2021
6349 Clouds 29 1011 79 6000 4.12 90 18:51 17.09.2021
6350 Clouds 29 1010 70 6000 2.06 80 16:50 17.09.2021
6351 Clouds 29 1010 74 6000 2.57 60 15:50 17.09.2021
6352 Clouds 32 1007 51 6000 7.72 70 12:36 17.09.2021
6353 Clouds 34 1006 46 6000 7.72 70 10:41 17.09.2021
6354 Clouds 33 1008 49 6000 6.69 80 08:19 17.09.2021
6355 Haze 33 1009 55 5000 6.17 80 06:43 17.09.2021
6356 Haze 26 1009 83 5000 1.54 100 00:49 17.09.2021
6357 Clouds 26 1009 80 10000 2.67 115 22:50 16.09.2021
6358 Clouds 27 1009 80 10000 2.66 111 22:24 16.09.2021
6359 Clouds 26 1009 80 10000 2.66 111 21:39 16.09.2021
6360 Clouds 26 1009 79 10000 2.63 106 20:50 16.09.2021
6361 Clouds 27 1010 77 10000 2.14 104 19:41 16.09.2021
6362 Clouds 28 1011 78 6000 3.6 60 18:19 16.09.2021
6363 Clouds 28 1011 78 6000 4.12 80 17:22 16.09.2021
6364 Clouds 29 1010 74 6000 4.12 60 14:53 16.09.2021
6365 Clouds 30 1009 70 6000 4.12 30 13:48 16.09.2021
6366 Clouds 30 1008 66 6000 4.63 30 12:47 16.09.2021
6367 Clouds 31 1007 62 6000 4.63 40 12:27 16.09.2021
6368 Clouds 33 1006 55 6000 4.63 50 11:25 16.09.2021
6369 Clouds 32 1007 60 10000 5.12 32 10:30 16.09.2021
6370 Clouds 33 1007 52 6000 4.63 60 09:53 16.09.2021
6371 Clouds 33 1009 52 6000 4.12 80 08:32 16.09.2021
6372 Clouds 33 1010 52 6000 4.12 70 06:59 16.09.2021
6373 Clouds 32 1011 55 6000 4.12 100 06:39 16.09.2021
6374 Clouds 31 1012 59 10000 3.61 76 04:31 16.09.2021
6375 Haze 25 1010 94 4000 0 0 00:59 16.09.2021
6376 Haze 26 1010 94 5000 0 0 23:32 15.09.2021
6377 Clouds 25 1010 79 10000 2.26 119 22:46 15.09.2021
6378 Clouds 25 1010 78 10000 2.45 120 21:37 15.09.2021
6379 Clouds 25 1010 76 10000 2.47 119 20:54 15.09.2021
6380 Clouds 26 1011 77 10000 2.15 113 19:35 15.09.2021
6381 Clouds 26 1012 75 10000 2.17 104 18:59 15.09.2021
6382 Clouds 28 1012 83 6000 1.54 60 17:46 15.09.2021
6383 Clouds 28 1012 83 6000 1.54 60 16:44 15.09.2021
6384 Clouds 28 1011 83 6000 3.6 60 15:30 15.09.2021
6385 Clouds 29 1010 74 6000 5.14 60 14:44 15.09.2021
6386 Clouds 29 1010 74 6000 4.12 60 13:51 15.09.2021
6387 Clouds 29 1010 74 6000 4.12 60 13:29 15.09.2021
6388 Clouds 31 1009 66 6000 4.63 60 12:34 15.09.2021
6389 Clouds 31 1008 62 6000 4.12 10 11:51 15.09.2021
6390 Clouds 31 1008 58 10000 4.8 39 11:18 15.09.2021
6391 Clouds 31 1008 62 6000 4.12 30 10:35 15.09.2021
6392 Clouds 32 1009 58 6000 4.12 50 09:23 15.09.2021
6393 Clouds 30 1009 54 10000 4.12 35 07:30 15.09.2021
6394 Haze 28 1013 83 5000 1.54 100 04:19 15.09.2021
6395 Clouds 24 1011 80 10000 1.68 96 22:39 14.09.2021
6396 Clouds 24 1010 79 10000 1.44 102 21:38 14.09.2021
6397 Clouds 24 1011 77 10000 1.18 117 20:27 14.09.2021
6398 Rain 24 1011 76 10000 1.75 120 19:41 14.09.2021
6399 Mist 25 1012 100 4000 0 0 17:34 14.09.2021
6400 Mist 25 1012 100 4000 0 0 16:56 14.09.2021
6401 Mist 26 1012 94 4000 0 0 15:28 14.09.2021
6402 Rain 26 1011 89 4000 0 0 14:31 14.09.2021
6403 Haze 27 1010 78 4000 1.54 90 11:51 14.09.2021
6404 Haze 27 1010 83 4000 1.54 110 10:53 14.09.2021
6405 Rain 27 1010 78 5000 1.54 120 09:50 14.09.2021
6406 Rain 27 1011 78 5000 1.54 160 08:36 14.09.2021
6407 Rain 26 1013 89 5000 1.54 260 06:22 14.09.2021
6408 Clouds 23 1011 100 5000 0 0 23:54 13.09.2021
6409 Clouds 24 1010 78 10000 0.54 78 22:30 13.09.2021
6410 Clouds 24 1010 79 8549 0.64 87 21:59 13.09.2021
6411 Clouds 24 1010 79 8549 0.64 87 21:40 13.09.2021
6412 Clouds 25 1010 79 10000 0.69 150 20:47 13.09.2021
6413 Haze 26 1012 100 5000 0 0 18:45 13.09.2021
6414 Haze 26 1012 100 5000 0 0 18:45 13.09.2021
6415 Clouds 26 1012 94 6000 1.54 90 17:41 13.09.2021
6416 Haze 25 1011 94 5000 2.06 70 16:50 13.09.2021
6417 Haze 25 1011 94 5000 2.06 70 16:50 13.09.2021
6418 Haze 28 1010 83 5000 6.17 60 14:57 13.09.2021
6419 Clouds 31 1007 66 5000 7.72 50 11:55 13.09.2021
6420 Clouds 32 1006 58 6000 7.72 70 10:58 13.09.2021
6421 Clouds 33 1007 55 6000 7.72 80 09:31 13.09.2021
6422 Haze 26 1009 83 5000 0 0 01:24 13.09.2021
6423 Clouds 25 1008 73 10000 0.52 213 22:59 12.09.2021
6424 Clouds 25 1008 73 10000 0.69 140 22:25 12.09.2021
6425 Rain 26 1008 73 10000 0.69 140 21:34 12.09.2021
6426 Rain 26 1009 71 10000 1.73 102 20:21 12.09.2021
6427 Clouds 26 1009 72 10000 1.38 97 19:49 12.09.2021
6428 Clouds 26 1010 72 10000 1.77 99 19:19 12.09.2021
6429 Clouds 27 1010 71 10000 2.1 95 18:19 12.09.2021
6430 Haze 28 1010 78 5000 1.54 70 16:30 12.09.2021
6431 Clouds 29 1008 70 6000 2.57 40 14:52 12.09.2021
6432 Clouds 30 1007 62 6000 4.12 60 12:48 12.09.2021
6433 Clouds 31 1006 66 6000 4.12 50 10:44 12.09.2021
6434 Haze 30 1007 66 5000 4.12 100 08:59 12.09.2021
6435 Haze 30 1007 66 5000 4.12 100 08:37 12.09.2021
6436 Haze 27 1008 83 5000 0 0 01:49 12.09.2021
6437 Haze 27 1008 89 5000 0 0 23:19 11.09.2021
6438 Clouds 27 1008 65 10000 0.87 162 21:41 11.09.2021
6439 Clouds 27 1009 67 10000 0.81 109 20:21 11.09.2021
6440 Haze 27 1010 83 5000 0 0 18:35 11.09.2021
6441 Clouds 28 1010 78 6000 0 0 17:29 11.09.2021
6442 Clouds 29 1010 70 6000 1.54 60 15:43 11.09.2021
6443 Haze 30 1008 58 5000 6.17 30 13:30 11.09.2021
6444 Haze 30 1008 58 5000 6.17 30 12:30 11.09.2021
6445 Haze 32 1007 55 5000 4.12 30 11:18 11.09.2021
6446 Haze 33 1007 49 5000 6.17 30 09:35 11.09.2021
6447 Haze 34 1008 43 5000 2.57 30 07:44 11.09.2021
6448 Haze 32 1009 48 5000 2.57 30 06:47 11.09.2021
6449 Haze 25 1009 83 5000 1.54 230 23:23 10.09.2021
6450 Clouds 25 1009 65 10000 0.76 183 22:23 10.09.2021
6451 Clouds 25 1009 65 10000 0.76 183 21:48 10.09.2021
6452 Clouds 26 1010 64 10000 0.58 253 19:49 10.09.2021
6453 Haze 28 1012 69 5000 2.06 200 18:26 10.09.2021
6454 Haze 28 1011 69 5000 0 0 16:48 10.09.2021
6455 Haze 30 1009 58 5000 2.06 350 13:55 10.09.2021
6456 Haze 32 1008 48 5000 3.09 10 11:56 10.09.2021
6457 Haze 34 1010 40 5000 3.09 50 08:36 10.09.2021
6458 Haze 34 1010 38 5000 2.57 50 07:49 10.09.2021
6459 Haze 24 1011 83 5000 1.54 240 00:42 10.09.2021
6460 Clouds 25 1011 64 10000 1.17 116 22:31 09.09.2021
6461 Clouds 25 1011 63 10000 1.09 118 21:45 09.09.2021
6462 Clouds 25 1011 62 10000 1.13 104 20:46 09.09.2021
6463 Clouds 26 1011 61 10000 0.77 101 19:33 09.09.2021
6464 Clouds 27 1013 59 10000 0.91 68 18:26 09.09.2021
6465 Clouds 28 1013 59 10000 1.55 38 16:40 09.09.2021
6466 Clouds 29 1012 59 10000 2.02 28 15:36 09.09.2021
6467 Clouds 29 1009 61 10000 4.03 344 12:48 09.09.2021
6468 Clouds 31 1007 51 6000 2.57 20 11:41 09.09.2021
6469 Clouds 33 1008 55 6000 3.09 20 09:50 09.09.2021
6470 Clouds 33 1008 49 6000 2.57 50 08:47 09.09.2021
6471 Clouds 32 1011 43 6000 3.09 120 06:25 09.09.2021
6472 Haze 24 1011 94 5000 1.54 230 02:19 09.09.2021
6473 Clouds 25 1010 73 10000 1.52 122 22:40 08.09.2021
6474 Clouds 25 1010 69 10000 1.28 89 21:23 08.09.2021
6475 Clouds 25 1011 68 10000 1.07 49 19:56 08.09.2021
6476 Mist 24 1012 100 4000 1.54 180 18:58 08.09.2021
6477 Mist 24 1012 100 4000 1.54 180 18:29 08.09.2021
6478 Mist 24 1012 100 4000 1.54 180 17:55 08.09.2021
6479 Clouds 23 1012 100 4000 2.06 20 16:28 08.09.2021
6480 Clouds 24 1010 94 4000 3.09 240 14:25 08.09.2021
6481 Haze 30 1008 66 5000 4.12 360 12:46 08.09.2021
6482 Haze 31 1008 62 5000 5.14 360 12:26 08.09.2021
6483 Haze 31 1007 58 5000 3.6 360 11:29 08.09.2021
6484 Haze 32 1007 55 5000 3.6 10 10:33 08.09.2021
6485 Haze 32 1008 55 5000 5.14 10 09:59 08.09.2021
6486 Haze 32 1009 55 5000 3.09 50 08:31 08.09.2021
6487 Haze 33 1010 46 5000 1.54 350 07:32 08.09.2021
6488 Haze 30 1011 66 5000 2.06 10 04:19 08.09.2021
6489 Clouds 24 1009 73 10000 0.86 214 22:43 07.09.2021
6490 Clear 25 1009 73 10000 0.9 223 21:52 07.09.2021
6491 Clouds 25 1010 71 10000 1.19 288 19:47 07.09.2021
6492 Mist 25 1012 100 4000 0 0 18:40 07.09.2021
6493 Mist 25 1012 94 5000 1.54 260 17:49 07.09.2021
6494 Mist 25 1011 94 5000 1.54 270 16:33 07.09.2021
6495 Clouds 25 1011 94 2000 2.06 50 15:35 07.09.2021
6496 Haze 27 1010 83 5000 2.57 250 14:41 07.09.2021
6497 Haze 29 1009 74 5000 2.57 210 12:38 07.09.2021
6498 Haze 29 1008 74 5000 3.6 210 11:36 07.09.2021
6499 Haze 27 1009 83 5000 3.09 180 10:40 07.09.2021
6500 Clouds 31 1010 58 5000 5.14 60 08:25 07.09.2021
6501 Haze 31 1012 66 5000 1.54 330 06:45 07.09.2021
6502 Haze 27 1013 83 5000 1.54 250 05:24 07.09.2021
6503 Clouds 25 1012 60 10000 1.21 158 02:32 07.09.2021
6504 Haze 25 1011 88 5000 1.54 240 00:40 07.09.2021
6505 Haze 25 1010 88 5000 1.54 220 23:31 06.09.2021
6506 Clouds 25 1010 70 10000 1.85 125 22:53 06.09.2021
6507 Clouds 25 1010 70 10000 1.85 125 22:32 06.09.2021
6508 Clouds 25 1010 70 10000 2.59 112 20:55 06.09.2021
6509 Clouds 27 1011 74 10000 3.56 102 19:23 06.09.2021
6510 Clouds 27 1011 74 10000 3.56 102 18:46 06.09.2021
6511 Clouds 27 1012 74 10000 4.05 104 18:23 06.09.2021
6512 Clouds 28 1011 74 6000 1.54 130 17:36 06.09.2021
6513 Clouds 28 1011 74 6000 2.57 120 15:49 06.09.2021
6514 Clouds 30 1010 66 6000 3.6 60 13:47 06.09.2021
6515 Clouds 30 1009 62 6000 4.63 60 12:47 06.09.2021
6516 Clouds 33 1008 49 6000 5.14 70 10:44 06.09.2021
6517 Haze 33 1009 52 5000 4.63 70 07:59 06.09.2021
6518 Haze 29 1012 74 4000 1.54 210 04:45 06.09.2021
6519 Haze 26 1010 94 5000 2.06 270 23:34 05.09.2021
6520 Haze 27 1010 89 5000 0 0 22:48 05.09.2021
6521 Clouds 25 1010 71 10000 1.11 105 21:58 05.09.2021
6522 Rain 25 1010 71 10000 1.11 105 21:30 05.09.2021
6523 Clouds 25 1010 70 10000 1.33 104 20:33 05.09.2021
6524 Clouds 28 1012 78 6000 1.54 260 18:46 05.09.2021
6525 Clouds 28 1012 83 6000 0 0 17:31 05.09.2021
6526 Clouds 29 1010 74 6000 2.06 80 15:28 05.09.2021
6527 Clouds 29 1009 74 6000 3.09 60 14:19 05.09.2021
6528 Clouds 32 1008 55 6000 5.14 70 12:29 05.09.2021
6529 Clouds 32 1007 55 6000 6.17 50 10:53 05.09.2021
6530 Clouds 33 1007 52 6000 5.14 60 10:23 05.09.2021
6531 Clouds 33 1008 49 6000 5.14 80 09:21 05.09.2021
6532 Haze 34 1009 49 5000 4.12 40 07:48 05.09.2021
6533 Clouds 26 1010 63 10000 0.13 89 01:22 05.09.2021
6534 Clouds 25 1010 63 10000 0.04 60 00:27 05.09.2021
6535 Haze 26 1009 78 5000 0 0 23:39 04.09.2021
6536 Clouds 26 1009 63 10000 0.43 236 22:36 04.09.2021
6537 Clouds 26 1009 62 10000 0.68 214 21:56 04.09.2021
6538 Clouds 27 1010 58 10000 0.49 141 19:41 04.09.2021
6539 Haze 27 1011 74 5000 2.06 220 18:43 04.09.2021
6540 Clouds 28 1011 78 6000 1.54 220 16:22 04.09.2021
6541 Haze 30 1008 58 5000 2.06 30 13:18 04.09.2021
6542 Haze 32 1007 51 5000 4.63 20 11:19 04.09.2021
6543 Haze 32 1008 55 5000 2.57 20 09:19 04.09.2021
6544 Clouds 33 1011 46 6000 3.09 180 05:50 04.09.2021
6545 Haze 25 1010 83 5000 2.57 230 00:25 04.09.2021
6546 Haze 25 1009 88 5000 1.54 230 23:31 03.09.2021
6547 Clouds 26 1009 64 10000 1.14 252 21:59 03.09.2021
6548 Clouds 26 1009 64 10000 1.14 252 21:34 03.09.2021
6549 Clouds 26 1009 63 10000 0.85 264 20:42 03.09.2021
6550 Clouds 26 1010 62 10000 0.12 224 19:50 03.09.2021
6551 Clouds 27 1011 61 10000 0.67 79 19:18 03.09.2021
6552 Haze 27 1011 83 5000 2.06 240 17:47 03.09.2021
6553 Haze 28 1010 69 5000 0 0 16:34 03.09.2021
6554 Haze 30 1008 70 5000 2.06 10 14:53 03.09.2021
6555 Haze 32 1006 62 4000 4.12 360 11:59 03.09.2021
6556 Clouds 33 1006 55 6000 4.12 30 10:27 03.09.2021
6557 Clouds 33 1008 43 6000 2.06 30 08:46 03.09.2021
6558 Haze 33 1009 49 5000 1.54 130 07:43 03.09.2021
6559 Haze 26 1010 78 5000 1.54 190 01:40 03.09.2021
6560 Haze 26 1010 83 5000 0 0 22:57 02.09.2021
6561 Clouds 26 1010 69 10000 0.84 261 21:35 02.09.2021
6562 Haze 26 1011 83 5000 0 0 19:55 02.09.2021
6563 Haze 28 1011 74 5000 0 0 17:32 02.09.2021
6564 Haze 29 1011 65 5000 1.54 40 15:52 02.09.2021
6565 Haze 29 1009 70 5000 2.57 10 13:57 02.09.2021
6566 Haze 30 1008 66 5000 4.12 10 12:48 02.09.2021
6567 Haze 32 1007 55 5000 3.6 360 11:35 02.09.2021
6568 Haze 32 1008 51 5000 4.63 350 09:40 02.09.2021
6569 Haze 32 1010 48 5000 2.06 220 07:48 02.09.2021
6570 Haze 32 1010 48 5000 2.06 220 07:18 02.09.2021
6571 Haze 26 1012 83 4000 1.54 160 02:56 02.09.2021
6572 Haze 25 1011 83 4000 1.54 180 01:56 02.09.2021
6573 Haze 25 1011 83 4000 0 0 01:25 02.09.2021
6574 Haze 25 1010 88 4000 1.54 230 23:39 01.09.2021
6575 Clouds 25 1010 70 10000 1.68 145 22:40 01.09.2021
6576 Clouds 26 1010 70 10000 2.06 131 21:39 01.09.2021
6577 Clouds 27 1010 70 10000 2.42 118 20:39 01.09.2021
6578 Clouds 28 1011 69 10000 1.43 94 18:43 01.09.2021
6579 Clouds 27 1012 89 6000 0 0 17:38 01.09.2021
6580 Clouds 28 1012 78 6000 1.54 20 16:47 01.09.2021
6581 Clouds 29 1011 74 6000 2.57 50 15:29 01.09.2021
6582 Clouds 32 1008 48 6000 5.14 60 12:19 01.09.2021
6583 Clouds 33 1007 46 6000 5.14 50 11:44 01.09.2021
6584 Clouds 34 1008 43 6000 6.17 60 08:47 01.09.2021
6585 Haze 34 1009 46 5000 2.57 40 07:52 01.09.2021
6586 Haze 28 1011 74 5000 0 0 03:27 01.09.2021
6587 Clouds 25 1009 79 10000 2.12 132 22:39 31.08.2021
6588 Clouds 25 1010 78 10000 1.9 125 21:24 31.08.2021
6589 Clouds 25 1010 79 10000 1.8 130 19:45 31.08.2021
6590 Clouds 29 1012 74 3000 1.54 290 18:29 31.08.2021
6591 Clouds 26 1011 78 10000 2 133 17:36 31.08.2021
6592 Haze 26 1011 83 5000 1.54 240 16:53 31.08.2021
6593 Haze 26 1011 83 5000 2.06 210 16:24 31.08.2021
6594 Haze 28 1009 74 5000 2.06 180 13:20 31.08.2021
6595 Haze 32 1007 58 5000 4.12 350 11:27 31.08.2021
6596 Haze 33 1007 58 5000 4.12 360 10:52 31.08.2021
6597 Haze 31 1008 62 5000 3.6 270 09:44 31.08.2021
6598 Haze 31 1008 62 4000 2.06 250 08:38 31.08.2021
6599 Haze 31 1010 55 5000 2.57 250 05:59 31.08.2021
6600 Haze 27 1010 74 5000 2.06 220 02:39 31.08.2021
6601 Haze 27 1009 78 5000 0 0 23:35 30.08.2021
6602 Clouds 27 1009 69 10000 1.08 156 21:43 30.08.2021
6603 Clouds 27 1010 68 10000 1.2 133 20:49 30.08.2021
6604 Clouds 27 1010 68 10000 1.3 136 20:19 30.08.2021
6605 Haze 26 1011 83 5000 0 0 19:29 30.08.2021
6606 Haze 27 1011 78 5000 1.54 200 18:30 30.08.2021
6607 Haze 27 1011 78 5000 2.06 200 17:44 30.08.2021
6608 Haze 28 1010 74 5000 0 0 16:20 30.08.2021
6609 Haze 28 1010 74 5000 0 0 15:23 30.08.2021
6610 Haze 30 1008 62 5000 4.12 30 13:35 30.08.2021
6611 Haze 31 1007 58 5000 4.12 20 12:24 30.08.2021
6612 Clouds 32 1008 55 6000 3.09 30 08:58 30.08.2021
6613 Clouds 25 1008 71 10000 0.76 163 22:27 29.08.2021
6614 Clouds 26 1008 71 10000 0.76 163 21:32 29.08.2021
6615 Clouds 26 1009 68 10000 0.59 194 19:59 29.08.2021
6616 Clouds 26 1010 67 10000 0.08 47 19:18 29.08.2021
6617 Haze 27 1009 78 5000 0 0 17:47 29.08.2021
6618 Haze 28 1009 74 5000 0 0 15:47 29.08.2021
6619 Haze 29 1009 70 5000 0 0 14:18 29.08.2021
6620 Haze 29 1008 74 5000 1.54 250 13:33 29.08.2021
6621 Haze 29 1007 65 5000 1.54 240 12:31 29.08.2021
6622 Haze 30 1007 66 5000 1.54 320 11:45 29.08.2021
6623 Haze 30 1008 62 5000 2.57 360 10:52 29.08.2021
6624 Haze 31 1008 58 5000 4.12 10 10:32 29.08.2021
6625 Haze 31 1007 55 5000 2.06 10 09:50 29.08.2021
6626 Haze 30 1010 58 5000 1.54 100 06:55 29.08.2021
6627 Haze 25 1008 83 5000 2.06 230 00:20 29.08.2021
6628 Clouds 26 1008 64 10000 1.39 103 20:55 28.08.2021
6629 Clouds 26 1008 63 10000 1.64 91 19:53 28.08.2021
6630 Clouds 26 1010 61 10000 1.69 101 18:27 28.08.2021
6631 Haze 27 1009 78 5000 1.54 220 17:48 28.08.2021
6632 Haze 27 1009 78 5000 1.54 220 17:48 28.08.2021
6633 Clouds 29 1009 65 6000 1.54 160 16:58 28.08.2021
6634 Clouds 30 1008 58 6000 3.09 50 15:32 28.08.2021
6635 Clouds 30 1007 58 6000 4.12 70 14:19 28.08.2021
6636 Clouds 31 1007 55 6000 4.12 70 13:43 28.08.2021
6637 Clouds 32 1006 51 6000 4.12 50 12:41 28.08.2021
6638 Clouds 33 1005 49 6000 4.12 30 11:51 28.08.2021
6639 Haze 34 1006 43 5000 4.12 40 10:29 28.08.2021
6640 Haze 33 1007 43 5000 2.57 110 08:38 28.08.2021
6641 Haze 32 1009 48 5000 2.57 130 06:23 28.08.2021
6642 Clouds 26 1008 64 10000 1.58 223 22:26 27.08.2021
6643 Clouds 26 1008 62 10000 1.07 232 20:56 27.08.2021
6644 Clouds 26 1009 61 10000 0.88 210 20:19 27.08.2021
6645 Haze 27 1009 74 5000 0 0 18:46 27.08.2021
6646 Haze 27 1009 74 5000 0 0 18:28 27.08.2021
6647 Haze 27 1009 74 5000 0 0 16:50 27.08.2021
6648 Haze 29 1009 65 5000 2.06 10 15:21 27.08.2021
6649 Haze 29 1009 65 5000 2.06 360 14:38 27.08.2021
6650 Haze 31 1007 58 5000 3.6 10 12:28 27.08.2021
6651 Haze 32 1007 51 5000 4.12 360 11:24 27.08.2021
6652 Haze 33 1007 52 5000 6.17 30 10:41 27.08.2021
6653 Haze 33 1007 49 5000 3.6 30 09:26 27.08.2021